<?xml version='1.0' encoding='UTF-8'?><gpx version="1.1" creator="JPX - https://github.com/jenetics/jpx" xmlns="http://www.topografix.com/GPX/1/1"><trk><trkseg><trkpt lat="46.01343168324766" lon="8.955727793919785"><ele>288.0</ele><time>2026-04-23T16:01:49.999Z</time></trkpt><trkpt lat="46.01335320195886" lon="8.955636235457977"><ele>288.0</ele><time>2026-04-23T16:02:22.999Z</time></trkpt><trkpt lat="46.01342673871959" lon="8.955764300210452"><ele>288.0</ele><time>2026-04-23T16:02:37.999Z</time></trkpt><trkpt lat="46.01350047089382" lon="8.956037118057061"><ele>288.0</ele><time>2026-04-23T16:03:07.999Z</time></trkpt><trkpt lat="46.01362559540359" lon="8.956187088779517"><ele>288.0</ele><time>2026-04-23T16:03:26.999Z</time></trkpt><trkpt lat="46.01372342619372" lon="8.956204595441134"><ele>288.0</ele><time>2026-04-23T16:03:27.999Z</time></trkpt><trkpt lat="46.01381005829463" lon="8.956228447575503"><ele>288.0</ele><time>2026-04-23T16:03:28.999Z</time></trkpt><trkpt lat="46.013906742506876" lon="8.956223345845375"><ele>288.0</ele><time>2026-04-23T16:03:29.999Z</time></trkpt><trkpt lat="46.01400881570573" lon="8.956247655751492"><ele>288.0</ele><time>2026-04-23T16:03:30.999Z</time></trkpt><trkpt lat="46.01410821638309" lon="8.956271329164034"><ele>288.4</ele><time>2026-04-23T16:03:31.999Z</time></trkpt><trkpt lat="46.014197030799515" lon="8.956301435420846"><ele>288.8</ele><time>2026-04-23T16:03:32.999Z</time></trkpt><trkpt lat="46.01428696440313" lon="8.956333041398091"><ele>289.2</ele><time>2026-04-23T16:03:33.999Z</time></trkpt><trkpt lat="46.014369969871126" lon="8.956341110502915"><ele>289.6</ele><time>2026-04-23T16:03:34.999Z</time></trkpt><trkpt lat="46.01443271736061" lon="8.9563588099816"><ele>290.0</ele><time>2026-04-23T16:03:35.999Z</time></trkpt><trkpt lat="46.01449230482262" lon="8.956154920885078"><ele>290.0</ele><time>2026-04-23T16:03:38.999Z</time></trkpt><trkpt lat="46.014516186937215" lon="8.95605157162549"><ele>290.0</ele><time>2026-04-23T16:03:39.999Z</time></trkpt><trkpt lat="46.014517781677476" lon="8.955941249463883"><ele>290.0</ele><time>2026-04-23T16:03:40.999Z</time></trkpt><trkpt lat="46.0145269066231" lon="8.9558367148338"><ele>290.0</ele><time>2026-04-23T16:03:41.999Z</time></trkpt><trkpt lat="46.01453789224059" lon="8.955671131405134"><ele>290.0</ele><time>2026-04-23T16:03:43.999Z</time></trkpt><trkpt lat="46.01454868270652" lon="8.955545266130365"><ele>290.0</ele><time>2026-04-23T16:03:45.999Z</time></trkpt><trkpt lat="46.0145693186188" lon="8.955422297698718"><ele>289.8</ele><time>2026-04-23T16:03:52.999Z</time></trkpt><trkpt lat="46.014560964122936" lon="8.955305268740155"><ele>289.6</ele><time>2026-04-23T16:03:54.999Z</time></trkpt><trkpt lat="46.01446199922512" lon="8.95522286896341"><ele>289.4</ele><time>2026-04-23T16:03:55.999Z</time></trkpt><trkpt lat="46.01437672522688" lon="8.955212980197679"><ele>289.2</ele><time>2026-04-23T16:03:56.999Z</time></trkpt><trkpt lat="46.01429416264237" lon="8.955199909980337"><ele>289.0</ele><time>2026-04-23T16:03:57.999Z</time></trkpt><trkpt lat="46.01420758638557" lon="8.955188052131346"><ele>288.8333333333333</ele><time>2026-04-23T16:03:58.999Z</time></trkpt><trkpt lat="46.0141148283331" lon="8.955176818853444"><ele>288.66666666666663</ele><time>2026-04-23T16:03:59.999Z</time></trkpt><trkpt lat="46.014026757825036" lon="8.955165423483157"><ele>288.5</ele><time>2026-04-23T16:04:00.999Z</time></trkpt><trkpt lat="46.0139401385603" lon="8.955153814965215"><ele>288.3333333333333</ele><time>2026-04-23T16:04:01.999Z</time></trkpt><trkpt lat="46.013854979167924" lon="8.955142402096104"><ele>288.1666666666667</ele><time>2026-04-23T16:04:02.999Z</time></trkpt><trkpt lat="46.013772318741395" lon="8.955131324127114"><ele>288.0</ele><time>2026-04-23T16:04:03.999Z</time></trkpt><trkpt lat="46.013697994655345" lon="8.955120919097507"><ele>288.0</ele><time>2026-04-23T16:04:04.999Z</time></trkpt><trkpt lat="46.01362759770593" lon="8.955110222506283"><ele>288.0</ele><time>2026-04-23T16:04:05.999Z</time></trkpt><trkpt lat="46.01355541856979" lon="8.955097867322163"><ele>288.0</ele><time>2026-04-23T16:04:06.999Z</time></trkpt><trkpt lat="46.01348274550433" lon="8.955085196657894"><ele>288.0</ele><time>2026-04-23T16:04:07.999Z</time></trkpt><trkpt lat="46.01340548388635" lon="8.955071949326092"><ele>288.0</ele><time>2026-04-23T16:04:08.999Z</time></trkpt><trkpt lat="46.01331183436019" lon="8.955055907816405"><ele>288.0</ele><time>2026-04-23T16:04:10.999Z</time></trkpt><trkpt lat="46.013232132096675" lon="8.955042255384058"><ele>288.5</ele><time>2026-04-23T16:04:12.999Z</time></trkpt><trkpt lat="46.013168642530026" lon="8.955030502855731"><ele>289.0</ele><time>2026-04-23T16:04:15.999Z</time></trkpt><trkpt lat="46.013087680579666" lon="8.95501466195289"><ele>289.5</ele><time>2026-04-23T16:04:36.999Z</time></trkpt><trkpt lat="46.0130112243182" lon="8.954999702620356"><ele>290.0</ele><time>2026-04-23T16:04:38.999Z</time></trkpt><trkpt lat="46.01289019826354" lon="8.954976022821757"><ele>290.5</ele><time>2026-04-23T16:04:40.999Z</time></trkpt><trkpt lat="46.012826378246785" lon="8.954965219893916"><ele>291.0</ele><time>2026-04-23T16:04:41.999Z</time></trkpt><trkpt lat="46.01272983823795" lon="8.954950200834691"><ele>291.0</ele><time>2026-04-23T16:04:43.999Z</time></trkpt><trkpt lat="46.01260539047026" lon="8.954924823923728"><ele>291.0</ele><time>2026-04-23T16:04:45.999Z</time></trkpt><trkpt lat="46.012528478079666" lon="8.954913228960937"><ele>291.0</ele><time>2026-04-23T16:04:46.999Z</time></trkpt><trkpt lat="46.01245367876176" lon="8.954911542999449"><ele>291.0</ele><time>2026-04-23T16:04:47.998Z</time></trkpt><trkpt lat="46.012381540000185" lon="8.954911543001817"><ele>291.0</ele><time>2026-04-23T16:04:48.998Z</time></trkpt><trkpt lat="46.01229142726571" lon="8.954922762648904"><ele>291.0</ele><time>2026-04-23T16:04:49.998Z</time></trkpt><trkpt lat="46.012206440982304" lon="8.954933165239147"><ele>290.0</ele><time>2026-04-23T16:04:50.998Z</time></trkpt><trkpt lat="46.01213325228051" lon="8.954941650175886"><ele>289.0</ele><time>2026-04-23T16:04:51.998Z</time></trkpt><trkpt lat="46.0120648912704" lon="8.954943583822718"><ele>288.0</ele><time>2026-04-23T16:04:52.998Z</time></trkpt><trkpt lat="46.01199319740085" lon="8.954941997839116"><ele>287.0</ele><time>2026-04-23T16:04:53.998Z</time></trkpt><trkpt lat="46.011920978796276" lon="8.95493266487362"><ele>286.0</ele><time>2026-04-23T16:04:54.998Z</time></trkpt><trkpt lat="46.011846841060404" lon="8.954917435718952"><ele>285.0</ele><time>2026-04-23T16:04:55.998Z</time></trkpt><trkpt lat="46.01177565074599" lon="8.954899513715507"><ele>284.0</ele><time>2026-04-23T16:04:56.998Z</time></trkpt><trkpt lat="46.01169732558217" lon="8.954877677651828"><ele>284.0</ele><time>2026-04-23T16:04:57.998Z</time></trkpt><trkpt lat="46.011617882989576" lon="8.954850807740934"><ele>284.0</ele><time>2026-04-23T16:04:58.998Z</time></trkpt><trkpt lat="46.01154031359226" lon="8.954824846296326"><ele>284.0</ele><time>2026-04-23T16:04:59.998Z</time></trkpt><trkpt lat="46.011462999197164" lon="8.954798970636151"><ele>284.0</ele><time>2026-04-23T16:05:00.998Z</time></trkpt><trkpt lat="46.01137641715797" lon="8.95476408715465"><ele>284.0</ele><time>2026-04-23T16:05:01.998Z</time></trkpt><trkpt lat="46.01128644224916" lon="8.954726562652663"><ele>284.0</ele><time>2026-04-23T16:05:02.998Z</time></trkpt><trkpt lat="46.01119408022177" lon="8.954683669204448"><ele>284.0</ele><time>2026-04-23T16:05:03.998Z</time></trkpt><trkpt lat="46.01112105872363" lon="8.954647649525851"><ele>284.0</ele><time>2026-04-23T16:05:04.998Z</time></trkpt><trkpt lat="46.01104507016947" lon="8.95460763905292"><ele>284.0</ele><time>2026-04-23T16:05:05.998Z</time></trkpt><trkpt lat="46.01097292088634" lon="8.954583007979428"><ele>284.0</ele><time>2026-04-23T16:05:06.999Z</time></trkpt><trkpt lat="46.0109078147144" lon="8.954545240675737"><ele>284.0</ele><time>2026-04-23T16:05:07.999Z</time></trkpt><trkpt lat="46.010795578336634" lon="8.954459795856534"><ele>284.0</ele><time>2026-04-23T16:05:09.999Z</time></trkpt><trkpt lat="46.01073439359451" lon="8.954423269739076"><ele>284.0</ele><time>2026-04-23T16:05:10.999Z</time></trkpt><trkpt lat="46.01066837096772" lon="8.954376206967456"><ele>284.0</ele><time>2026-04-23T16:05:11.999Z</time></trkpt><trkpt lat="46.010594450744286" lon="8.95432542654654"><ele>284.0</ele><time>2026-04-23T16:05:12.999Z</time></trkpt><trkpt lat="46.010523942528025" lon="8.954278007271494"><ele>284.0</ele><time>2026-04-23T16:05:13.999Z</time></trkpt><trkpt lat="46.01046973391179" lon="8.954220942941593"><ele>284.0</ele><time>2026-04-23T16:05:14.999Z</time></trkpt><trkpt lat="46.010384218424015" lon="8.95416655618542"><ele>284.0</ele><time>2026-04-23T16:05:16.999Z</time></trkpt><trkpt lat="46.01031596385025" lon="8.954131632755981"><ele>284.0</ele><time>2026-04-23T16:05:18.999Z</time></trkpt><trkpt lat="46.010233605849685" lon="8.954065004107315"><ele>284.0</ele><time>2026-04-23T16:05:20.999Z</time></trkpt><trkpt lat="46.0101452567718" lon="8.95401290658601"><ele>284.0</ele><time>2026-04-23T16:05:22.999Z</time></trkpt><trkpt lat="46.01009575275891" lon="8.953949989344045"><ele>284.0</ele><time>2026-04-23T16:05:25.999Z</time></trkpt><trkpt lat="46.01003249471059" lon="8.953903841017349"><ele>284.0</ele><time>2026-04-23T16:05:28.999Z</time></trkpt><trkpt lat="46.00996903468771" lon="8.953857074536609"><ele>284.0</ele><time>2026-04-23T16:05:30.999Z</time></trkpt><trkpt lat="46.0099132609884" lon="8.953814553483294"><ele>284.1666666666667</ele><time>2026-04-23T16:05:33.999Z</time></trkpt><trkpt lat="46.00984850920511" lon="8.95376518807229"><ele>284.33333333333337</ele><time>2026-04-23T16:05:36.999Z</time></trkpt><trkpt lat="46.009753533270406" lon="8.953707083511443"><ele>284.5</ele><time>2026-04-23T16:05:39.999Z</time></trkpt><trkpt lat="46.009649062177424" lon="8.953642110747817"><ele>284.6666666666667</ele><time>2026-04-23T16:05:41.999Z</time></trkpt><trkpt lat="46.00958950764145" lon="8.953605162540176"><ele>284.8333333333333</ele><time>2026-04-23T16:05:42.999Z</time></trkpt><trkpt lat="46.009524516235125" lon="8.953566722071411"><ele>285.0</ele><time>2026-04-23T16:05:43.999Z</time></trkpt><trkpt lat="46.00945637290974" lon="8.953525671597449"><ele>285.0</ele><time>2026-04-23T16:05:44.999Z</time></trkpt><trkpt lat="46.009387417969414" lon="8.953484132215621"><ele>285.0</ele><time>2026-04-23T16:05:45.999Z</time></trkpt><trkpt lat="46.00931479524511" lon="8.953440383302967"><ele>285.0</ele><time>2026-04-23T16:05:46.999Z</time></trkpt><trkpt lat="46.0092339095098" lon="8.953391656692162"><ele>285.0</ele><time>2026-04-23T16:05:47.999Z</time></trkpt><trkpt lat="46.009154409165994" lon="8.953357626385193"><ele>285.0</ele><time>2026-04-23T16:05:48.999Z</time></trkpt><trkpt lat="46.0090621042674" lon="8.953308625822507"><ele>285.0</ele><time>2026-04-23T16:05:49.999Z</time></trkpt><trkpt lat="46.00897242001595" lon="8.953249057287685"><ele>284.3333333333333</ele><time>2026-04-23T16:05:50.999Z</time></trkpt><trkpt lat="46.00888394937247" lon="8.953194800321791"><ele>283.6666666666667</ele><time>2026-04-23T16:05:51.999Z</time></trkpt><trkpt lat="46.00879980363273" lon="8.953140001728059"><ele>283.0</ele><time>2026-04-23T16:05:52.999Z</time></trkpt><trkpt lat="46.00870891070552" lon="8.95308835624984"><ele>282.33333333333337</ele><time>2026-04-23T16:05:53.999Z</time></trkpt><trkpt lat="46.008641126289824" lon="8.953042587107383"><ele>281.6666666666667</ele><time>2026-04-23T16:05:54.999Z</time></trkpt><trkpt lat="46.00857707346409" lon="8.953011154880418"><ele>281.0</ele><time>2026-04-23T16:05:55.999Z</time></trkpt><trkpt lat="46.00848407062068" lon="8.952943748888838"><ele>281.0</ele><time>2026-04-23T16:05:57.999Z</time></trkpt><trkpt lat="46.00838220834964" lon="8.95290388550156"><ele>281.0</ele><time>2026-04-23T16:05:59.999Z</time></trkpt><trkpt lat="46.00830767143152" lon="8.952840193311731"><ele>281.0</ele><time>2026-04-23T16:06:01.999Z</time></trkpt><trkpt lat="46.00823029412647" lon="8.952798786567842"><ele>281.0</ele><time>2026-04-23T16:06:04.999Z</time></trkpt><trkpt lat="46.008141717813665" lon="8.952734033544003"><ele>281.0</ele><time>2026-04-23T16:06:50.999Z</time></trkpt><trkpt lat="46.008042860100915" lon="8.952674540983033"><ele>281.40000000000003</ele><time>2026-04-23T16:06:53.999Z</time></trkpt><trkpt lat="46.00797178456725" lon="8.952631767705011"><ele>281.8</ele><time>2026-04-23T16:06:55.999Z</time></trkpt><trkpt lat="46.007907870782475" lon="8.95261158868183"><ele>282.20000000000005</ele><time>2026-04-23T16:06:58.999Z</time></trkpt><trkpt lat="46.00785121558693" lon="8.95282958731972"><ele>282.6</ele><time>2026-04-23T16:06:59.999Z</time></trkpt><trkpt lat="46.00784318221038" lon="8.952941531578697"><ele>283.0</ele><time>2026-04-23T16:07:00.999Z</time></trkpt><trkpt lat="46.00784483868676" lon="8.953049758432465"><ele>283.0</ele><time>2026-04-23T16:07:01.999Z</time></trkpt><trkpt lat="46.0078457377812" lon="8.953164772551471"><ele>283.0</ele><time>2026-04-23T16:07:02.999Z</time></trkpt><trkpt lat="46.00784446591741" lon="8.953284646705571"><ele>283.0</ele><time>2026-04-23T16:07:03.999Z</time></trkpt><trkpt lat="46.0078478575951" lon="8.95340357098284"><ele>283.0</ele><time>2026-04-23T16:07:04.999Z</time></trkpt><trkpt lat="46.0078560053332" lon="8.953521431139928"><ele>283.0</ele><time>2026-04-23T16:07:05.999Z</time></trkpt><trkpt lat="46.007855754979786" lon="8.953624867789681"><ele>283.0</ele><time>2026-04-23T16:07:06.999Z</time></trkpt><trkpt lat="46.00786432735832" lon="8.9537825159685"><ele>283.0</ele><time>2026-04-23T16:07:08.998Z</time></trkpt><trkpt lat="46.00786767986254" lon="8.953879985298657"><ele>283.0</ele><time>2026-04-23T16:07:10.998Z</time></trkpt><trkpt lat="46.00786332479196" lon="8.953979713782443"><ele>283.0</ele><time>2026-04-23T16:07:14.999Z</time></trkpt><trkpt lat="46.00786216664691" lon="8.954103522933767"><ele>283.0</ele><time>2026-04-23T16:07:17.999Z</time></trkpt><trkpt lat="46.00786683378769" lon="8.954202104668717"><ele>283.0</ele><time>2026-04-23T16:07:18.999Z</time></trkpt><trkpt lat="46.007876131379824" lon="8.954398494818182"><ele>283.0</ele><time>2026-04-23T16:07:20.999Z</time></trkpt><trkpt lat="46.007870778369764" lon="8.954506536368841"><ele>282.66666666666663</ele><time>2026-04-23T16:07:21.999Z</time></trkpt><trkpt lat="46.007883116121086" lon="8.954617263211206"><ele>282.3333333333333</ele><time>2026-04-23T16:07:22.999Z</time></trkpt><trkpt lat="46.00788910192244" lon="8.954735848873419"><ele>282.0</ele><time>2026-04-23T16:07:23.999Z</time></trkpt><trkpt lat="46.00789536094864" lon="8.954851176267988"><ele>281.6666666666667</ele><time>2026-04-23T16:07:24.999Z</time></trkpt><trkpt lat="46.00789650163743" lon="8.954957455118233"><ele>281.33333333333337</ele><time>2026-04-23T16:07:25.999Z</time></trkpt><trkpt lat="46.00791631782739" lon="8.955056068305042"><ele>281.0</ele><time>2026-04-23T16:07:26.999Z</time></trkpt><trkpt lat="46.00792047852186" lon="8.955158324668915"><ele>281.0</ele><time>2026-04-23T16:07:27.999Z</time></trkpt><trkpt lat="46.00792876943282" lon="8.955290087797161"><ele>281.0</ele><time>2026-04-23T16:07:29.999Z</time></trkpt><trkpt lat="46.00791368776974" lon="8.955385284116787"><ele>281.0</ele><time>2026-04-23T16:08:08.999Z</time></trkpt><trkpt lat="46.007923858183254" lon="8.955500034296335"><ele>281.0</ele><time>2026-04-23T16:08:16.999Z</time></trkpt><trkpt lat="46.00794706080414" lon="8.955599989739236"><ele>281.0</ele><time>2026-04-23T16:08:18.999Z</time></trkpt><trkpt lat="46.007958235428745" lon="8.955725420243892"><ele>281.0</ele><time>2026-04-23T16:08:20.999Z</time></trkpt><trkpt lat="46.00784504119481" lon="8.955717848947076"><ele>281.0</ele><time>2026-04-23T16:08:21.999Z</time></trkpt><trkpt lat="46.00776935094088" lon="8.955713274852952"><ele>281.0</ele><time>2026-04-23T16:08:22.999Z</time></trkpt><trkpt lat="46.00769568630822" lon="8.955708823184457"><ele>281.0</ele><time>2026-04-23T16:08:23.999Z</time></trkpt><trkpt lat="46.00755806121942" lon="8.955700855597094"><ele>281.0</ele><time>2026-04-23T16:08:25.999Z</time></trkpt><trkpt lat="46.00749064631286" lon="8.955686879001659"><ele>281.0</ele><time>2026-04-23T16:08:26.999Z</time></trkpt><trkpt lat="46.00741347370425" lon="8.955680527678835"><ele>281.0</ele><time>2026-04-23T16:08:27.999Z</time></trkpt><trkpt lat="46.007329576789346" lon="8.955675145673121"><ele>280.8</ele><time>2026-04-23T16:08:28.999Z</time></trkpt><trkpt lat="46.007247995679165" lon="8.955693154566934"><ele>280.6</ele><time>2026-04-23T16:08:29.999Z</time></trkpt><trkpt lat="46.007167394256406" lon="8.955687045749526"><ele>280.4</ele><time>2026-04-23T16:08:30.999Z</time></trkpt><trkpt lat="46.00700464629416" lon="8.955668525295621"><ele>280.2</ele><time>2026-04-23T16:08:32.999Z</time></trkpt><trkpt lat="46.006894462303755" lon="8.955676116690602"><ele>280.0</ele><time>2026-04-23T16:08:34.999Z</time></trkpt><trkpt lat="46.006798386557776" lon="8.955679859399192"><ele>280.0</ele><time>2026-04-23T16:08:38.999Z</time></trkpt><trkpt lat="46.006696991189315" lon="8.95566958994041"><ele>280.0</ele><time>2026-04-23T16:08:41.999Z</time></trkpt><trkpt lat="46.00660467963506" lon="8.955645105092575"><ele>280.0</ele><time>2026-04-23T16:08:43.999Z</time></trkpt><trkpt lat="46.006529951355624" lon="8.955640723240425"><ele>280.0</ele><time>2026-04-23T16:08:44.999Z</time></trkpt><trkpt lat="46.00646344902698" lon="8.955636823739436"><ele>280.0</ele><time>2026-04-23T16:08:45.999Z</time></trkpt><trkpt lat="46.006389493616304" lon="8.955632487242926"><ele>280.0</ele><time>2026-04-23T16:08:46.999Z</time></trkpt><trkpt lat="46.006283047728715" lon="8.955625871215902"><ele>280.0</ele><time>2026-04-23T16:08:48.999Z</time></trkpt><trkpt lat="46.006203490340646" lon="8.95562099291846"><ele>280.0</ele><time>2026-04-23T16:08:49.999Z</time></trkpt><trkpt lat="46.00610544049795" lon="8.955615385211248"><ele>280.0</ele><time>2026-04-23T16:08:51.999Z</time></trkpt><trkpt lat="46.006011844202455" lon="8.955609957667713"><ele>280.0</ele><time>2026-04-23T16:08:53.999Z</time></trkpt><trkpt lat="46.00593810563803" lon="8.95560568164922"><ele>280.0</ele><time>2026-04-23T16:08:55.999Z</time></trkpt><trkpt lat="46.00586576720029" lon="8.955602338396814"><ele>280.0</ele><time>2026-04-23T16:08:59.999Z</time></trkpt><trkpt lat="46.00579731964517" lon="8.95560878026213"><ele>280.0</ele><time>2026-04-23T16:09:19Z</time></trkpt><trkpt lat="46.00569945712499" lon="8.955593416606952"><ele>280.0</ele><time>2026-04-23T16:09:21Z</time></trkpt><trkpt lat="46.0055986301651" lon="8.955597634242208"><ele>280.0</ele><time>2026-04-23T16:09:23Z</time></trkpt><trkpt lat="46.005515506705244" lon="8.955534518977915"><ele>280.0</ele><time>2026-04-23T16:09:25Z</time></trkpt><trkpt lat="46.00540370783312" lon="8.955523797438254"><ele>280.0</ele><time>2026-04-23T16:09:27Z</time></trkpt><trkpt lat="46.00531684782571" lon="8.955515467546519"><ele>280.0</ele><time>2026-04-23T16:09:29Z</time></trkpt><trkpt lat="46.005202068482646" lon="8.955504847582448"><ele>280.0</ele><time>2026-04-23T16:09:31Z</time></trkpt><trkpt lat="46.0051306957368" lon="8.955519032148313"><ele>280.0</ele><time>2026-04-23T16:09:32Z</time></trkpt><trkpt lat="46.005058287781694" lon="8.955505385150037"><ele>280.0</ele><time>2026-04-23T16:09:33Z</time></trkpt><trkpt lat="46.004982100072766" lon="8.955496650382456"><ele>280.0</ele><time>2026-04-23T16:09:35Z</time></trkpt><trkpt lat="46.00490919587517" lon="8.955492631570728"><ele>280.0</ele><time>2026-04-23T16:09:37Z</time></trkpt><trkpt lat="46.00479459732982" lon="8.9554812892594"><ele>279.8</ele><time>2026-04-23T16:09:39Z</time></trkpt><trkpt lat="46.00467529835865" lon="8.955507137543181"><ele>279.6</ele><time>2026-04-23T16:09:41Z</time></trkpt><trkpt lat="46.00457339682913" lon="8.95551478317151"><ele>279.4</ele><time>2026-04-23T16:09:43Z</time></trkpt><trkpt lat="46.00450791932523" lon="8.955529700730581"><ele>279.2</ele><time>2026-04-23T16:09:45Z</time></trkpt><trkpt lat="46.004424641916955" lon="8.955557704473057"><ele>279.0</ele><time>2026-04-23T16:09:47Z</time></trkpt><trkpt lat="46.00432644745139" lon="8.955579976001081"><ele>279.0</ele><time>2026-04-23T16:09:49Z</time></trkpt><trkpt lat="46.00421284235289" lon="8.955609607472326"><ele>279.0</ele><time>2026-04-23T16:09:51Z</time></trkpt><trkpt lat="46.00412871068508" lon="8.955628628064362"><ele>279.0</ele><time>2026-04-23T16:09:53Z</time></trkpt><trkpt lat="46.004044528312576" lon="8.955636852593951"><ele>279.0</ele><time>2026-04-23T16:09:56Z</time></trkpt><trkpt lat="46.00397360787184" lon="8.955624516886353"><ele>279.0</ele><time>2026-04-23T16:10:04Z</time></trkpt><trkpt lat="46.00391481083789" lon="8.955584884119455"><ele>279.0</ele><time>2026-04-23T16:10:06Z</time></trkpt><trkpt lat="46.00386331858942" lon="8.955507715098161"><ele>278.3333333333333</ele><time>2026-04-23T16:10:12Z</time></trkpt><trkpt lat="46.003843735710134" lon="8.955409996159707"><ele>277.6666666666667</ele><time>2026-04-23T16:10:19Z</time></trkpt><trkpt lat="46.003831777949884" lon="8.955320809743771"><ele>277.0</ele><time>2026-04-23T16:10:21.999Z</time></trkpt><trkpt lat="46.00383070717804" lon="8.955201910342744"><ele>276.33333333333337</ele><time>2026-04-23T16:10:29.999Z</time></trkpt><trkpt lat="46.0038187270704" lon="8.955062573322977"><ele>275.6666666666667</ele><time>2026-04-23T16:10:32.999Z</time></trkpt><trkpt lat="46.00380378451067" lon="8.954958636699295"><ele>275.0</ele><time>2026-04-23T16:10:34.999Z</time></trkpt><trkpt lat="46.003794313734055" lon="8.954867770968267"><ele>275.0</ele><time>2026-04-23T16:10:38.999Z</time></trkpt><trkpt lat="46.003777951897234" lon="8.954749334631288"><ele>275.0</ele><time>2026-04-23T16:10:55.999Z</time></trkpt><trkpt lat="46.003768871216984" lon="8.954598544643742"><ele>275.0</ele><time>2026-04-23T16:10:57.999Z</time></trkpt><trkpt lat="46.00374234585288" lon="8.954435207305496"><ele>275.0</ele><time>2026-04-23T16:10:59.999Z</time></trkpt><trkpt lat="46.00373249197868" lon="8.95433602273408"><ele>275.0</ele><time>2026-04-23T16:11:00.999Z</time></trkpt><trkpt lat="46.00372460014627" lon="8.954223191490064"><ele>275.5</ele><time>2026-04-23T16:11:01.999Z</time></trkpt><trkpt lat="46.003713313589465" lon="8.954102526452921"><ele>276.0</ele><time>2026-04-23T16:11:02.999Z</time></trkpt><trkpt lat="46.003697907753676" lon="8.95399362710695"><ele>276.5</ele><time>2026-04-23T16:11:03.999Z</time></trkpt><trkpt lat="46.00369340580876" lon="8.953889856886585"><ele>277.0</ele><time>2026-04-23T16:11:04.999Z</time></trkpt><trkpt lat="46.0036869467076" lon="8.953793776787322"><ele>277.5</ele><time>2026-04-23T16:11:05.999Z</time></trkpt><trkpt lat="46.0036743852084" lon="8.9536713417549"><ele>278.0</ele><time>2026-04-23T16:11:07.999Z</time></trkpt><trkpt lat="46.00368274967227" lon="8.953553396939002"><ele>278.0</ele><time>2026-04-23T16:11:11.999Z</time></trkpt><trkpt lat="46.003678093788096" lon="8.95340733469272"><ele>278.0</ele><time>2026-04-23T16:11:13.999Z</time></trkpt><trkpt lat="46.00366831475058" lon="8.953249961591425"><ele>278.0</ele><time>2026-04-23T16:11:15.999Z</time></trkpt><trkpt lat="46.00365200311995" lon="8.953159629858858"><ele>278.0</ele><time>2026-04-23T16:11:17.999Z</time></trkpt><trkpt lat="46.00362696122112" lon="8.953030707308073"><ele>278.0</ele><time>2026-04-23T16:11:20.999Z</time></trkpt><trkpt lat="46.00361395270645" lon="8.952910321767254"><ele>277.6</ele><time>2026-04-23T16:11:22.999Z</time></trkpt><trkpt lat="46.00359792724558" lon="8.952822668862273"><ele>277.20000000000005</ele><time>2026-04-23T16:11:23.999Z</time></trkpt><trkpt lat="46.003583862709604" lon="8.952688383826253"><ele>276.8</ele><time>2026-04-23T16:11:26Z</time></trkpt><trkpt lat="46.003541078141936" lon="8.95252525406682"><ele>276.40000000000003</ele><time>2026-04-23T16:11:28Z</time></trkpt><trkpt lat="46.00348166912768" lon="8.95238937135808"><ele>276.0</ele><time>2026-04-23T16:11:30Z</time></trkpt><trkpt lat="46.00343200488893" lon="8.952270991650213"><ele>276.0</ele><time>2026-04-23T16:11:32Z</time></trkpt><trkpt lat="46.00338735339354" lon="8.952160562136998"><ele>276.0</ele><time>2026-04-23T16:11:34Z</time></trkpt><trkpt lat="46.003327532814815" lon="8.952007428204396"><ele>276.0</ele><time>2026-04-23T16:11:36Z</time></trkpt><trkpt lat="46.00328667547889" lon="8.951899296624653"><ele>276.0</ele><time>2026-04-23T16:11:38Z</time></trkpt><trkpt lat="46.00324140826825" lon="8.951776612014577"><ele>276.0</ele><time>2026-04-23T16:11:40Z</time></trkpt><trkpt lat="46.00316946242589" lon="8.951624264169965"><ele>275.3333333333333</ele><time>2026-04-23T16:11:42Z</time></trkpt><trkpt lat="46.00313240705865" lon="8.95154022094565"><ele>274.6666666666667</ele><time>2026-04-23T16:11:43Z</time></trkpt><trkpt lat="46.003075011511264" lon="8.95138553439511"><ele>274.0</ele><time>2026-04-23T16:11:45Z</time></trkpt><trkpt lat="46.003042002145605" lon="8.951307921933779"><ele>273.33333333333337</ele><time>2026-04-23T16:11:46Z</time></trkpt><trkpt lat="46.003011122276796" lon="8.951227595335054"><ele>272.6666666666667</ele><time>2026-04-23T16:11:47Z</time></trkpt><trkpt lat="46.00297396900826" lon="8.95114981025619"><ele>272.0</ele><time>2026-04-23T16:11:48Z</time></trkpt><trkpt lat="46.00293791667397" lon="8.951056464453314"><ele>271.99999999999994</ele><time>2026-04-23T16:11:49Z</time></trkpt><trkpt lat="46.002897342502294" lon="8.950960780202116"><ele>272.0</ele><time>2026-04-23T16:11:50Z</time></trkpt><trkpt lat="46.00285388373967" lon="8.950880493395003"><ele>272.0</ele><time>2026-04-23T16:11:51Z</time></trkpt><trkpt lat="46.00281189343037" lon="8.95078586817584"><ele>272.0</ele><time>2026-04-23T16:11:52Z</time></trkpt><trkpt lat="46.00276155611832" lon="8.950711238851273"><ele>272.0</ele><time>2026-04-23T16:11:53Z</time></trkpt><trkpt lat="46.00271942064049" lon="8.950625483676008"><ele>271.99999999999994</ele><time>2026-04-23T16:11:54Z</time></trkpt><trkpt lat="46.002668477551055" lon="8.950550561305727"><ele>272.0</ele><time>2026-04-23T16:11:55Z</time></trkpt><trkpt lat="46.00261334030134" lon="8.950481133013353"><ele>272.2</ele><time>2026-04-23T16:11:56Z</time></trkpt><trkpt lat="46.002489912555255" lon="8.950388759176166"><ele>272.4</ele><time>2026-04-23T16:11:58Z</time></trkpt><trkpt lat="46.00242209366375" lon="8.950348727029512"><ele>272.6</ele><time>2026-04-23T16:11:59Z</time></trkpt><trkpt lat="46.00235285091305" lon="8.95031401833283"><ele>272.8</ele><time>2026-04-23T16:12:00Z</time></trkpt><trkpt lat="46.00223130012269" lon="8.950249781578712"><ele>273.0</ele><time>2026-04-23T16:12:02Z</time></trkpt><trkpt lat="46.002171050796115" lon="8.950217816787312"><ele>273.0</ele><time>2026-04-23T16:12:03Z</time></trkpt><trkpt lat="46.00206179122308" lon="8.950159840451981"><ele>273.0</ele><time>2026-04-23T16:12:05Z</time></trkpt><trkpt lat="46.001955607476305" lon="8.950103496263754"><ele>273.0</ele><time>2026-04-23T16:12:07Z</time></trkpt><trkpt lat="46.00189591866388" lon="8.950071825510864"><ele>273.0</ele><time>2026-04-23T16:12:08Z</time></trkpt><trkpt lat="46.00179888497708" lon="8.950020336587315"><ele>273.0</ele><time>2026-04-23T16:12:10Z</time></trkpt><trkpt lat="46.00169720308338" lon="8.949966381199497"><ele>274.0</ele><time>2026-04-23T16:12:12Z</time></trkpt><trkpt lat="46.00159625167486" lon="8.949912905922094"><ele>275.0</ele><time>2026-04-23T16:12:14Z</time></trkpt><trkpt lat="46.00148515540541" lon="8.949855656112419"><ele>276.0</ele><time>2026-04-23T16:12:16Z</time></trkpt><trkpt lat="46.001380535382275" lon="8.949813832372557"><ele>277.0</ele><time>2026-04-23T16:12:18Z</time></trkpt><trkpt lat="46.00127916285104" lon="8.949784268830896"><ele>278.0</ele><time>2026-04-23T16:12:20Z</time></trkpt><trkpt lat="46.00117587565395" lon="8.949761803617124"><ele>278.0</ele><time>2026-04-23T16:12:22Z</time></trkpt><trkpt lat="46.00106253214172" lon="8.949742761768993"><ele>278.0</ele><time>2026-04-23T16:12:24Z</time></trkpt><trkpt lat="46.00095037822643" lon="8.94972891722214"><ele>278.0</ele><time>2026-04-23T16:12:26Z</time></trkpt><trkpt lat="46.00085069304423" lon="8.949716970608865"><ele>278.0</ele><time>2026-04-23T16:12:28Z</time></trkpt><trkpt lat="46.00076919241285" lon="8.949706775488185"><ele>278.0</ele><time>2026-04-23T16:12:30Z</time></trkpt><trkpt lat="46.000693638987" lon="8.94969732431984"><ele>278.2</ele><time>2026-04-23T16:12:32Z</time></trkpt><trkpt lat="46.0005972292897" lon="8.94968526418783"><ele>278.4</ele><time>2026-04-23T16:12:34Z</time></trkpt><trkpt lat="46.00052092591251" lon="8.949675719191042"><ele>278.59999999999997</ele><time>2026-04-23T16:12:36Z</time></trkpt><trkpt lat="46.000430551908146" lon="8.949667863535065"><ele>278.8</ele><time>2026-04-23T16:12:38Z</time></trkpt><trkpt lat="46.00033216397715" lon="8.949648015976978"><ele>279.0</ele><time>2026-04-23T16:12:40Z</time></trkpt><trkpt lat="46.00024072485274" lon="8.949651789187943"><ele>279.0</ele><time>2026-04-23T16:12:42Z</time></trkpt><trkpt lat="46.00015201877496" lon="8.94964975332136"><ele>279.0</ele><time>2026-04-23T16:12:43.999Z</time></trkpt><trkpt lat="46.00008471475818" lon="8.949620786883159"><ele>279.0</ele><time>2026-04-23T16:12:45.999Z</time></trkpt><trkpt lat="45.999992625135036" lon="8.949609052939904"><ele>279.0</ele><time>2026-04-23T16:12:48.999Z</time></trkpt><trkpt lat="45.99991545835737" lon="8.94959940204653"><ele>279.0</ele><time>2026-04-23T16:12:50.999Z</time></trkpt><trkpt lat="45.99982900749982" lon="8.94959303702427"><ele>279.0</ele><time>2026-04-23T16:12:52.999Z</time></trkpt><trkpt lat="45.99974555744418" lon="8.949589816023783"><ele>279.0</ele><time>2026-04-23T16:12:54.999Z</time></trkpt><trkpt lat="45.99967785222039" lon="8.949577091299306"><ele>279.0</ele><time>2026-04-23T16:12:57.999Z</time></trkpt><trkpt lat="45.99959249022099" lon="8.94955766531373"><ele>279.0</ele><time>2026-04-23T16:13:10.999Z</time></trkpt><trkpt lat="45.99950248828141" lon="8.949558296260202"><ele>279.0</ele><time>2026-04-23T16:13:13.999Z</time></trkpt><trkpt lat="45.99939930584913" lon="8.949541005540842"><ele>279.0</ele><time>2026-04-23T16:13:15.999Z</time></trkpt><trkpt lat="45.99933230549207" lon="8.949525357175224"><ele>279.0</ele><time>2026-04-23T16:13:16.999Z</time></trkpt><trkpt lat="45.999268154850455" lon="8.949496965548889"><ele>279.0</ele><time>2026-04-23T16:13:17.999Z</time></trkpt><trkpt lat="45.99920664407114" lon="8.949459311854712"><ele>279.0</ele><time>2026-04-23T16:13:18.999Z</time></trkpt><trkpt lat="45.999153871658685" lon="8.949398493786468"><ele>279.0</ele><time>2026-04-23T16:13:19.999Z</time></trkpt><trkpt lat="45.999099674757716" lon="8.949333898214618"><ele>279.0</ele><time>2026-04-23T16:13:20.999Z</time></trkpt><trkpt lat="45.99905014453239" lon="8.94926398048231"><ele>279.0</ele><time>2026-04-23T16:13:21.999Z</time></trkpt><trkpt lat="45.99900688521855" lon="8.949188579064451"><ele>279.0</ele><time>2026-04-23T16:13:22.999Z</time></trkpt><trkpt lat="45.998951032651455" lon="8.949056329050473"><ele>279.1666666666667</ele><time>2026-04-23T16:13:24.999Z</time></trkpt><trkpt lat="45.99892634008264" lon="8.948965971860147"><ele>279.3333333333333</ele><time>2026-04-23T16:13:26.999Z</time></trkpt><trkpt lat="45.99890189999867" lon="8.94882611589745"><ele>279.5</ele><time>2026-04-23T16:13:28.999Z</time></trkpt><trkpt lat="45.99883459931137" lon="8.948675585713781"><ele>279.66666666666663</ele><time>2026-04-23T16:13:31Z</time></trkpt><trkpt lat="45.998771678602736" lon="8.948624192029003"><ele>279.8333333333333</ele><time>2026-04-23T16:13:32Z</time></trkpt><trkpt lat="45.998702534691894" lon="8.948569489467474"><ele>280.0</ele><time>2026-04-23T16:13:33Z</time></trkpt><trkpt lat="45.998647950724596" lon="8.948484657700225"><ele>280.0</ele><time>2026-04-23T16:13:34Z</time></trkpt><trkpt lat="45.99858309891794" lon="8.948406443617992"><ele>280.0</ele><time>2026-04-23T16:13:35Z</time></trkpt><trkpt lat="45.99851698159558" lon="8.948330828778772"><ele>280.0</ele><time>2026-04-23T16:13:36Z</time></trkpt><trkpt lat="45.998450458680466" lon="8.948268120926388"><ele>280.0</ele><time>2026-04-23T16:13:37Z</time></trkpt><trkpt lat="45.99840478230594" lon="8.948163238476127"><ele>280.0</ele><time>2026-04-23T16:13:38Z</time></trkpt><trkpt lat="45.998319646482756" lon="8.948077177551323"><ele>280.0</ele><time>2026-04-23T16:13:39Z</time></trkpt><trkpt lat="45.998248747830026" lon="8.947979041583581"><ele>280.8</ele><time>2026-04-23T16:13:40Z</time></trkpt><trkpt lat="45.998163326607724" lon="8.947901678539498"><ele>281.6</ele><time>2026-04-23T16:13:41Z</time></trkpt><trkpt lat="45.99807944193684" lon="8.94781986646773"><ele>282.4</ele><time>2026-04-23T16:13:42Z</time></trkpt><trkpt lat="45.99799937653117" lon="8.947740885988432"><ele>283.2</ele><time>2026-04-23T16:13:43Z</time></trkpt><trkpt lat="45.997904905284834" lon="8.947671200754835"><ele>284.0</ele><time>2026-04-23T16:13:44Z</time></trkpt><trkpt lat="45.997814013156464" lon="8.947609015816127"><ele>285.2</ele><time>2026-04-23T16:13:45Z</time></trkpt><trkpt lat="45.99772639665078" lon="8.9475388544552"><ele>286.4</ele><time>2026-04-23T16:13:46Z</time></trkpt><trkpt lat="45.99762601133293" lon="8.947486362678015"><ele>287.6</ele><time>2026-04-23T16:13:47Z</time></trkpt><trkpt lat="45.99753054096485" lon="8.947431187378516"><ele>288.8</ele><time>2026-04-23T16:13:48Z</time></trkpt><trkpt lat="45.997432406804315" lon="8.947362422626075"><ele>290.0</ele><time>2026-04-23T16:13:49Z</time></trkpt><trkpt lat="45.99732963370181" lon="8.947287980667376"><ele>290.0</ele><time>2026-04-23T16:13:50Z</time></trkpt><trkpt lat="45.99721168421366" lon="8.94724348381117"><ele>290.0</ele><time>2026-04-23T16:13:51Z</time></trkpt><trkpt lat="45.99711279599583" lon="8.947199740458085"><ele>290.0</ele><time>2026-04-23T16:13:52Z</time></trkpt><trkpt lat="45.996996784686786" lon="8.947147918650247"><ele>290.0</ele><time>2026-04-23T16:13:53Z</time></trkpt><trkpt lat="45.996894433656834" lon="8.94711275930053"><ele>290.0</ele><time>2026-04-23T16:13:54Z</time></trkpt><trkpt lat="45.99678170645876" lon="8.947061324821806"><ele>290.0</ele><time>2026-04-23T16:13:55Z</time></trkpt><trkpt lat="45.996665510741266" lon="8.947000211054775"><ele>290.0</ele><time>2026-04-23T16:13:56Z</time></trkpt><trkpt lat="45.99655459135549" lon="8.946924822252994"><ele>290.0</ele><time>2026-04-23T16:13:57Z</time></trkpt><trkpt lat="45.9964422551872" lon="8.94687564508225"><ele>290.25</ele><time>2026-04-23T16:13:58Z</time></trkpt><trkpt lat="45.99632458424649" lon="8.946823332091801"><ele>290.5</ele><time>2026-04-23T16:13:59Z</time></trkpt><trkpt lat="45.99621665193245" lon="8.94677027965756"><ele>290.75</ele><time>2026-04-23T16:14:00Z</time></trkpt><trkpt lat="45.996099304221815" lon="8.946715021947544"><ele>291.0</ele><time>2026-04-23T16:14:01Z</time></trkpt><trkpt lat="45.99598827146101" lon="8.946668046263055"><ele>291.0</ele><time>2026-04-23T16:14:02Z</time></trkpt><trkpt lat="45.99587102265501" lon="8.946620250216064"><ele>291.0</ele><time>2026-04-23T16:14:03Z</time></trkpt><trkpt lat="45.99574770904735" lon="8.946563826341936"><ele>291.0</ele><time>2026-04-23T16:14:04Z</time></trkpt><trkpt lat="45.99563321308772" lon="8.94649155196222"><ele>291.0</ele><time>2026-04-23T16:14:05Z</time></trkpt><trkpt lat="45.99552809053577" lon="8.946444597758322"><ele>288.0</ele><time>2026-04-23T16:14:06Z</time></trkpt><trkpt lat="45.995415914853126" lon="8.946393314146421"><ele>285.0</ele><time>2026-04-23T16:14:07Z</time></trkpt><trkpt lat="45.99530571213608" lon="8.946340535478768"><ele>282.0</ele><time>2026-04-23T16:14:08Z</time></trkpt><trkpt lat="45.99519227904388" lon="8.946295958539926"><ele>279.0</ele><time>2026-04-23T16:14:09Z</time></trkpt><trkpt lat="45.99509250148989" lon="8.946232379867883"><ele>279.4</ele><time>2026-04-23T16:14:10Z</time></trkpt><trkpt lat="45.994988526142436" lon="8.946188091941218"><ele>279.79999999999995</ele><time>2026-04-23T16:14:11Z</time></trkpt><trkpt lat="45.99489678878948" lon="8.946131424322244"><ele>280.20000000000005</ele><time>2026-04-23T16:14:12Z</time></trkpt><trkpt lat="45.99479526129208" lon="8.946103223945544"><ele>280.6</ele><time>2026-04-23T16:14:13Z</time></trkpt><trkpt lat="45.99469945251738" lon="8.946069374746175"><ele>281.0</ele><time>2026-04-23T16:14:14Z</time></trkpt><trkpt lat="45.99459501254028" lon="8.946060604672066"><ele>281.0</ele><time>2026-04-23T16:14:15Z</time></trkpt><trkpt lat="45.994508935066605" lon="8.946058657626846"><ele>281.0</ele><time>2026-04-23T16:14:16Z</time></trkpt><trkpt lat="45.99443434382615" lon="8.94604309990565"><ele>281.0</ele><time>2026-04-23T16:14:17Z</time></trkpt><trkpt lat="45.99437171745735" lon="8.946055876028677"><ele>281.0</ele><time>2026-04-23T16:14:18Z</time></trkpt><trkpt lat="45.99430233560139" lon="8.946046957617957"><ele>281.0</ele><time>2026-04-23T16:14:19Z</time></trkpt><trkpt lat="45.99418109571547" lon="8.946063565084149"><ele>281.0</ele><time>2026-04-23T16:14:21Z</time></trkpt><trkpt lat="45.99410849765481" lon="8.946081925200627"><ele>280.0</ele><time>2026-04-23T16:14:22Z</time></trkpt><trkpt lat="45.994046728313236" lon="8.946118520318176"><ele>279.0</ele><time>2026-04-23T16:14:23Z</time></trkpt><trkpt lat="45.993930846123355" lon="8.946160279698397"><ele>278.0</ele><time>2026-04-23T16:14:25Z</time></trkpt><trkpt lat="45.99380963060962" lon="8.946202771969192"><ele>277.0</ele><time>2026-04-23T16:14:27Z</time></trkpt><trkpt lat="45.9937432275174" lon="8.9462092210824"><ele>276.0</ele><time>2026-04-23T16:14:28Z</time></trkpt><trkpt lat="45.993669095488535" lon="8.94623131515182"><ele>276.0</ele><time>2026-04-23T16:14:29Z</time></trkpt><trkpt lat="45.99358035320125" lon="8.946247734353138"><ele>276.0</ele><time>2026-04-23T16:14:30Z</time></trkpt><trkpt lat="45.993509848028665" lon="8.946278240486711"><ele>276.0</ele><time>2026-04-23T16:14:31Z</time></trkpt><trkpt lat="45.993400678073904" lon="8.94631326625463"><ele>276.0</ele><time>2026-04-23T16:14:33Z</time></trkpt><trkpt lat="45.99329733683446" lon="8.946359447868169"><ele>276.0</ele><time>2026-04-23T16:14:35Z</time></trkpt><trkpt lat="45.99323411474479" lon="8.946377477077142"><ele>276.0</ele><time>2026-04-23T16:14:36Z</time></trkpt><trkpt lat="45.99317137777092" lon="8.946404905701224"><ele>275.3333333333333</ele><time>2026-04-23T16:14:37Z</time></trkpt><trkpt lat="45.993104408623" lon="8.946431423389393"><ele>274.6666666666667</ele><time>2026-04-23T16:14:38Z</time></trkpt><trkpt lat="45.99304237133795" lon="8.946447929448489"><ele>274.0</ele><time>2026-04-23T16:14:39Z</time></trkpt><trkpt lat="45.992975462309" lon="8.946472037016859"><ele>273.33333333333337</ele><time>2026-04-23T16:14:40Z</time></trkpt><trkpt lat="45.99286824560863" lon="8.946515383009183"><ele>272.6666666666667</ele><time>2026-04-23T16:14:41.999Z</time></trkpt><trkpt lat="45.992764852018134" lon="8.946557137478514"><ele>272.0</ele><time>2026-04-23T16:14:43.999Z</time></trkpt><trkpt lat="45.9926997043346" lon="8.94658724642885"><ele>272.0</ele><time>2026-04-23T16:14:44.999Z</time></trkpt><trkpt lat="45.992640059493" lon="8.946617502425239"><ele>272.0</ele><time>2026-04-23T16:14:45.999Z</time></trkpt><trkpt lat="45.99255189617134" lon="8.946685658145517"><ele>272.0</ele><time>2026-04-23T16:14:47.999Z</time></trkpt><trkpt lat="45.99249577140578" lon="8.946734666235319"><ele>272.0</ele><time>2026-04-23T16:14:49.999Z</time></trkpt><trkpt lat="45.992430024227026" lon="8.946803301593397"><ele>272.0</ele><time>2026-04-23T16:14:52.999Z</time></trkpt><trkpt lat="45.992372302867416" lon="8.946893861161385"><ele>272.0</ele><time>2026-04-23T16:15:18.999Z</time></trkpt><trkpt lat="45.992308795137966" lon="8.946948500056624"><ele>272.33333333333337</ele><time>2026-04-23T16:15:21.999Z</time></trkpt><trkpt lat="45.99224555406702" lon="8.947010416106064"><ele>272.6666666666667</ele><time>2026-04-23T16:15:23.999Z</time></trkpt><trkpt lat="45.992168643551466" lon="8.947097163450243"><ele>273.0</ele><time>2026-04-23T16:15:25.999Z</time></trkpt><trkpt lat="45.992095520806764" lon="8.947233811461638"><ele>273.3333333333333</ele><time>2026-04-23T16:15:27.999Z</time></trkpt><trkpt lat="45.992051484014326" lon="8.947301531194158"><ele>273.66666666666663</ele><time>2026-04-23T16:15:28.999Z</time></trkpt><trkpt lat="45.992012014984994" lon="8.947375828480409"><ele>274.0</ele><time>2026-04-23T16:15:29.999Z</time></trkpt><trkpt lat="45.9919641350914" lon="8.947449018547617"><ele>274.0</ele><time>2026-04-23T16:15:30.999Z</time></trkpt><trkpt lat="45.99192581570458" lon="8.94752442418468"><ele>274.0</ele><time>2026-04-23T16:15:31.999Z</time></trkpt><trkpt lat="45.99187642134526" lon="8.94760449599649"><ele>274.0</ele><time>2026-04-23T16:15:32.999Z</time></trkpt><trkpt lat="45.991826326606095" lon="8.947687406040645"><ele>274.0</ele><time>2026-04-23T16:15:33.999Z</time></trkpt><trkpt lat="45.991775349308526" lon="8.947775489217078"><ele>274.0</ele><time>2026-04-23T16:15:34.999Z</time></trkpt><trkpt lat="45.99172219168606" lon="8.947867706840285"><ele>274.0</ele><time>2026-04-23T16:15:35.999Z</time></trkpt><trkpt lat="45.991665175566894" lon="8.947965589865614"><ele>274.16666666666663</ele><time>2026-04-23T16:15:37Z</time></trkpt><trkpt lat="45.991600586131625" lon="8.948065752186677"><ele>274.3333333333333</ele><time>2026-04-23T16:15:38Z</time></trkpt><trkpt lat="45.99155052658651" lon="8.948167043206146"><ele>274.5</ele><time>2026-04-23T16:15:39Z</time></trkpt><trkpt lat="45.99149922901691" lon="8.948261015722181"><ele>274.6666666666667</ele><time>2026-04-23T16:15:40Z</time></trkpt><trkpt lat="45.99144408209297" lon="8.948355733772614"><ele>274.83333333333337</ele><time>2026-04-23T16:15:41Z</time></trkpt><trkpt lat="45.99138775055944" lon="8.94844889222522"><ele>275.0</ele><time>2026-04-23T16:15:42Z</time></trkpt><trkpt lat="45.99131577014583" lon="8.948547510691135"><ele>275.0</ele><time>2026-04-23T16:15:43Z</time></trkpt><trkpt lat="45.991255535279" lon="8.948668516009489"><ele>275.0</ele><time>2026-04-23T16:15:44Z</time></trkpt><trkpt lat="45.99117307680478" lon="8.948778614694566"><ele>275.0</ele><time>2026-04-23T16:15:45Z</time></trkpt><trkpt lat="45.9911097524137" lon="8.948892120452038"><ele>275.0</ele><time>2026-04-23T16:15:46Z</time></trkpt><trkpt lat="45.991043929994504" lon="8.949014772275016"><ele>275.0</ele><time>2026-04-23T16:15:47Z</time></trkpt><trkpt lat="45.99098489831467" lon="8.949159370190847"><ele>274.25</ele><time>2026-04-23T16:15:48Z</time></trkpt><trkpt lat="45.99093930277097" lon="8.949302180125299"><ele>273.5</ele><time>2026-04-23T16:15:49Z</time></trkpt><trkpt lat="45.990886030692245" lon="8.949448796941144"><ele>272.75</ele><time>2026-04-23T16:15:50Z</time></trkpt><trkpt lat="45.990831664789866" lon="8.949596370024176"><ele>272.0</ele><time>2026-04-23T16:15:51Z</time></trkpt><trkpt lat="45.99078469522978" lon="8.949747589595676"><ele>272.4</ele><time>2026-04-23T16:15:52Z</time></trkpt><trkpt lat="45.99074276452818" lon="8.949875426073422"><ele>272.79999999999995</ele><time>2026-04-23T16:15:53Z</time></trkpt><trkpt lat="45.990706310216765" lon="8.950003002490192"><ele>273.2</ele><time>2026-04-23T16:15:54Z</time></trkpt><trkpt lat="45.99066535833887" lon="8.950138104546587"><ele>273.59999999999997</ele><time>2026-04-23T16:15:55Z</time></trkpt><trkpt lat="45.99060642863423" lon="8.950275353789515"><ele>274.0</ele><time>2026-04-23T16:15:56Z</time></trkpt><trkpt lat="45.99055958690498" lon="8.950425215407153"><ele>274.0</ele><time>2026-04-23T16:15:57Z</time></trkpt><trkpt lat="45.99051155079768" lon="8.950573216528403"><ele>274.0</ele><time>2026-04-23T16:15:58Z</time></trkpt><trkpt lat="45.990464437042206" lon="8.950714130751155"><ele>274.0</ele><time>2026-04-23T16:15:59Z</time></trkpt><trkpt lat="45.99041971484098" lon="8.950858558361553"><ele>274.0</ele><time>2026-04-23T16:16:00Z</time></trkpt><trkpt lat="45.99037228938134" lon="8.950991412598366"><ele>274.0</ele><time>2026-04-23T16:16:01Z</time></trkpt><trkpt lat="45.99032722789165" lon="8.95113287395432"><ele>273.59999999999997</ele><time>2026-04-23T16:16:02Z</time></trkpt><trkpt lat="45.990278117905206" lon="8.951279086068126"><ele>273.2</ele><time>2026-04-23T16:16:03Z</time></trkpt><trkpt lat="45.990229625777964" lon="8.951414055197034"><ele>272.79999999999995</ele><time>2026-04-23T16:16:04Z</time></trkpt><trkpt lat="45.99018049531336" lon="8.951549417634283"><ele>272.4</ele><time>2026-04-23T16:16:05Z</time></trkpt><trkpt lat="45.990121887201305" lon="8.95168095865674"><ele>272.0</ele><time>2026-04-23T16:16:06Z</time></trkpt><trkpt lat="45.99005121338234" lon="8.951800922701313"><ele>272.8</ele><time>2026-04-23T16:16:07Z</time></trkpt><trkpt lat="45.989992789164134" lon="8.951922735566814"><ele>273.6</ele><time>2026-04-23T16:16:08Z</time></trkpt><trkpt lat="45.989926202771684" lon="8.952055726643486"><ele>274.40000000000003</ele><time>2026-04-23T16:16:09Z</time></trkpt><trkpt lat="45.98985901422494" lon="8.952188454652743"><ele>275.2</ele><time>2026-04-23T16:16:10Z</time></trkpt><trkpt lat="45.98978923090003" lon="8.952321452352704"><ele>276.0</ele><time>2026-04-23T16:16:11Z</time></trkpt><trkpt lat="45.98971899595305" lon="8.952452364642967"><ele>275.0</ele><time>2026-04-23T16:16:12Z</time></trkpt><trkpt lat="45.98964606209143" lon="8.952588307491745"><ele>274.0</ele><time>2026-04-23T16:16:13Z</time></trkpt><trkpt lat="45.989573966845114" lon="8.952723188854643"><ele>273.0</ele><time>2026-04-23T16:16:14Z</time></trkpt><trkpt lat="45.9895043358914" lon="8.95285367070443"><ele>272.0</ele><time>2026-04-23T16:16:15Z</time></trkpt><trkpt lat="45.9894372645203" lon="8.952979356155476"><ele>272.0</ele><time>2026-04-23T16:16:16Z</time></trkpt><trkpt lat="45.98936958424823" lon="8.953106182620958"><ele>272.0</ele><time>2026-04-23T16:16:17Z</time></trkpt><trkpt lat="45.98930558053144" lon="8.953226172029341"><ele>272.0</ele><time>2026-04-23T16:16:18Z</time></trkpt><trkpt lat="45.98924181003662" lon="8.953346003260785"><ele>272.0</ele><time>2026-04-23T16:16:19Z</time></trkpt><trkpt lat="45.989176534630744" lon="8.953468662356046"><ele>272.0</ele><time>2026-04-23T16:16:20Z</time></trkpt><trkpt lat="45.989113550298995" lon="8.953587016307358"><ele>273.0</ele><time>2026-04-23T16:16:21Z</time></trkpt><trkpt lat="45.98905233674775" lon="8.953702042775724"><ele>274.0</ele><time>2026-04-23T16:16:22Z</time></trkpt><trkpt lat="45.98899504834424" lon="8.953809693486486"><ele>275.0</ele><time>2026-04-23T16:16:23Z</time></trkpt><trkpt lat="45.988940295732164" lon="8.953911919832208"><ele>276.0</ele><time>2026-04-23T16:16:24Z</time></trkpt><trkpt lat="45.9888847538" lon="8.954019629044792"><ele>277.0</ele><time>2026-04-23T16:16:25Z</time></trkpt><trkpt lat="45.98883351664824" lon="8.954120362874125"><ele>276.3333333333333</ele><time>2026-04-23T16:16:26Z</time></trkpt><trkpt lat="45.98878991218715" lon="8.954206090585863"><ele>275.66666666666663</ele><time>2026-04-23T16:16:27Z</time></trkpt><trkpt lat="45.988751708888984" lon="8.954280424697078"><ele>275.0</ele><time>2026-04-23T16:16:28Z</time></trkpt><trkpt lat="45.988711537834035" lon="8.954354680922199"><ele>274.3333333333333</ele><time>2026-04-23T16:16:30Z</time></trkpt><trkpt lat="45.98866693899116" lon="8.9544371219264"><ele>273.6666666666667</ele><time>2026-04-23T16:16:33Z</time></trkpt><trkpt lat="45.98858128119838" lon="8.954595460434636"><ele>273.0</ele><time>2026-04-23T16:16:35Z</time></trkpt><trkpt lat="45.9885294115685" lon="8.954720863074622"><ele>273.0</ele><time>2026-04-23T16:16:36Z</time></trkpt><trkpt lat="45.98844903857128" lon="8.954831263498875"><ele>273.0</ele><time>2026-04-23T16:16:37Z</time></trkpt><trkpt lat="45.98838260884706" lon="8.954958387215896"><ele>273.0</ele><time>2026-04-23T16:16:38Z</time></trkpt><trkpt lat="45.988326460141835" lon="8.955084897395928"><ele>273.0</ele><time>2026-04-23T16:16:39Z</time></trkpt><trkpt lat="45.98825966802602" lon="8.95522077455495"><ele>273.0</ele><time>2026-04-23T16:16:40Z</time></trkpt><trkpt lat="45.98817870890953" lon="8.955342079124321"><ele>273.4</ele><time>2026-04-23T16:16:41Z</time></trkpt><trkpt lat="45.98811162247509" lon="8.955476856084347"><ele>273.8</ele><time>2026-04-23T16:16:42Z</time></trkpt><trkpt lat="45.98803567520469" lon="8.95560607309025"><ele>274.2</ele><time>2026-04-23T16:16:43Z</time></trkpt><trkpt lat="45.98794742890581" lon="8.955696730014058"><ele>274.6</ele><time>2026-04-23T16:16:44Z</time></trkpt><trkpt lat="45.9878502354892" lon="8.95574594558953"><ele>275.0</ele><time>2026-04-23T16:16:45Z</time></trkpt><trkpt lat="45.98774456131857" lon="8.955790419728409"><ele>275.0</ele><time>2026-04-23T16:16:46Z</time></trkpt><trkpt lat="45.987651252729435" lon="8.955766087619162"><ele>275.0</ele><time>2026-04-23T16:16:47Z</time></trkpt><trkpt lat="45.98755351928785" lon="8.955734614202322"><ele>275.0</ele><time>2026-04-23T16:16:48Z</time></trkpt><trkpt lat="45.987456462008126" lon="8.955665139413075"><ele>275.0</ele><time>2026-04-23T16:16:49Z</time></trkpt><trkpt lat="45.987340161183354" lon="8.95560032195793"><ele>275.0</ele><time>2026-04-23T16:16:50Z</time></trkpt><trkpt lat="45.987224015006525" lon="8.955547644783573"><ele>279.0</ele><time>2026-04-23T16:16:51Z</time></trkpt><trkpt lat="45.987099627451265" lon="8.95551460932274"><ele>283.0</ele><time>2026-04-23T16:16:52Z</time></trkpt><trkpt lat="45.9869702422749" lon="8.955499710847484"><ele>287.0</ele><time>2026-04-23T16:16:53Z</time></trkpt><trkpt lat="45.986847087750384" lon="8.955506021528501"><ele>291.0</ele><time>2026-04-23T16:16:54Z</time></trkpt><trkpt lat="45.98671260932033" lon="8.955553707257298"><ele>291.0</ele><time>2026-04-23T16:16:55Z</time></trkpt><trkpt lat="45.98660246412353" lon="8.955711944604635"><ele>291.0</ele><time>2026-04-23T16:16:56Z</time></trkpt><trkpt lat="45.986485457699196" lon="8.95576401050588"><ele>291.0</ele><time>2026-04-23T16:16:57Z</time></trkpt><trkpt lat="45.98635850960156" lon="8.955797065601796"><ele>291.0</ele><time>2026-04-23T16:16:58Z</time></trkpt><trkpt lat="45.98623172479102" lon="8.955821186834905"><ele>291.0</ele><time>2026-04-23T16:16:58.999Z</time></trkpt><trkpt lat="45.98610387263155" lon="8.955808312472813"><ele>291.0</ele><time>2026-04-23T16:16:59.999Z</time></trkpt><trkpt lat="45.98597917655205" lon="8.955768708484102"><ele>291.0</ele><time>2026-04-23T16:17:00.999Z</time></trkpt><trkpt lat="45.9858539267186" lon="8.955719213810156"><ele>291.0</ele><time>2026-04-23T16:17:01.999Z</time></trkpt><trkpt lat="45.985718800959376" lon="8.955697561434869"><ele>294.0</ele><time>2026-04-23T16:17:02.999Z</time></trkpt><trkpt lat="45.98556665268926" lon="8.955706969492176"><ele>297.0</ele><time>2026-04-23T16:17:03.999Z</time></trkpt><trkpt lat="45.98542244474575" lon="8.955745258714575"><ele>300.0</ele><time>2026-04-23T16:17:04.999Z</time></trkpt><trkpt lat="45.98527746785458" lon="8.955768346344836"><ele>303.0</ele><time>2026-04-23T16:17:05.999Z</time></trkpt><trkpt lat="45.98511482908653" lon="8.955772276230928"><ele>302.6666666666667</ele><time>2026-04-23T16:17:06.999Z</time></trkpt><trkpt lat="45.984960064655915" lon="8.95574058963403"><ele>302.33333333333337</ele><time>2026-04-23T16:17:07.999Z</time></trkpt><trkpt lat="45.98481217677297" lon="8.955684313121498"><ele>302.0</ele><time>2026-04-23T16:17:08.999Z</time></trkpt><trkpt lat="45.984679237181936" lon="8.955484723655506"><ele>302.0</ele><time>2026-04-23T16:17:09.999Z</time></trkpt><trkpt lat="45.98451050960906" lon="8.95556380370868"><ele>302.0</ele><time>2026-04-23T16:17:10.999Z</time></trkpt><trkpt lat="45.984369539531414" lon="8.95556327767864"><ele>302.0</ele><time>2026-04-23T16:17:11.999Z</time></trkpt><trkpt lat="45.98423101702816" lon="8.955612374081014"><ele>292.0</ele><time>2026-04-23T16:17:12.999Z</time></trkpt><trkpt lat="45.984094683281704" lon="8.955681366775194"><ele>282.0</ele><time>2026-04-23T16:17:13.999Z</time></trkpt><trkpt lat="45.983946738103185" lon="8.955684611656746"><ele>272.0</ele><time>2026-04-23T16:17:14.999Z</time></trkpt><trkpt lat="45.98380145456434" lon="8.955495588849136"><ele>272.0</ele><time>2026-04-23T16:17:15.999Z</time></trkpt><trkpt lat="45.98362449207499" lon="8.955485297778788"><ele>272.0</ele><time>2026-04-23T16:17:16.999Z</time></trkpt><trkpt lat="45.9834486810066" lon="8.955514538824433"><ele>272.0</ele><time>2026-04-23T16:17:17.999Z</time></trkpt><trkpt lat="45.98329276972874" lon="8.955540365937566"><ele>283.6666666666667</ele><time>2026-04-23T16:17:18.999Z</time></trkpt><trkpt lat="45.98315177368941" lon="8.955649232675183"><ele>295.3333333333333</ele><time>2026-04-23T16:17:19.999Z</time></trkpt><trkpt lat="45.98300826972129" lon="8.955552450873704"><ele>307.0</ele><time>2026-04-23T16:17:20.999Z</time></trkpt><trkpt lat="45.982872333769436" lon="8.955463510188414"><ele>307.0</ele><time>2026-04-23T16:17:21.999Z</time></trkpt><trkpt lat="45.98273652141717" lon="8.955380369981622"><ele>307.0</ele><time>2026-04-23T16:17:22.999Z</time></trkpt><trkpt lat="45.982606434296514" lon="8.955320479279582"><ele>307.0</ele><time>2026-04-23T16:17:23.999Z</time></trkpt><trkpt lat="45.98250582193421" lon="8.95514053245141"><ele>307.0</ele><time>2026-04-23T16:17:24.999Z</time></trkpt><trkpt lat="45.98231730173314" lon="8.955048360744488"><ele>308.3333333333333</ele><time>2026-04-23T16:17:25.999Z</time></trkpt><trkpt lat="45.98214758513652" lon="8.95496234149978"><ele>309.6666666666667</ele><time>2026-04-23T16:17:26.999Z</time></trkpt><trkpt lat="45.98197649160116" lon="8.954882013589094"><ele>311.0</ele><time>2026-04-23T16:17:27.999Z</time></trkpt><trkpt lat="45.981813674779964" lon="8.954834988226406"><ele>308.0</ele><time>2026-04-23T16:17:28.999Z</time></trkpt><trkpt lat="45.98163922530627" lon="8.954846030994098"><ele>305.0</ele><time>2026-04-23T16:17:29.999Z</time></trkpt><trkpt lat="45.98148043253587" lon="8.954867055338047"><ele>302.0</ele><time>2026-04-23T16:17:30.999Z</time></trkpt><trkpt lat="45.981318871486465" lon="8.954890520247941"><ele>302.0</ele><time>2026-04-23T16:17:31.999Z</time></trkpt><trkpt lat="45.98115523026005" lon="8.954919162152203"><ele>302.0</ele><time>2026-04-23T16:17:32.999Z</time></trkpt><trkpt lat="45.98100171756876" lon="8.954991742958981"><ele>302.0</ele><time>2026-04-23T16:17:33.999Z</time></trkpt><trkpt lat="45.98086706330539" lon="8.955055244434083"><ele>295.25</ele><time>2026-04-23T16:17:34.999Z</time></trkpt><trkpt lat="45.98074740766082" lon="8.955060368338005"><ele>288.5</ele><time>2026-04-23T16:17:35.999Z</time></trkpt><trkpt lat="45.9806066317637" lon="8.955038412326383"><ele>281.75</ele><time>2026-04-23T16:17:36.999Z</time></trkpt><trkpt lat="45.980427942975155" lon="8.955049156607434"><ele>275.0</ele><time>2026-04-23T16:17:37.999Z</time></trkpt><trkpt lat="45.980263990760754" lon="8.955105993238861"><ele>275.0</ele><time>2026-04-23T16:17:38.999Z</time></trkpt><trkpt lat="45.98009803261962" lon="8.955161579565237"><ele>275.0</ele><time>2026-04-23T16:17:39.999Z</time></trkpt><trkpt lat="45.97994592076262" lon="8.955211773366624"><ele>275.0</ele><time>2026-04-23T16:17:40.999Z</time></trkpt><trkpt lat="45.97981247499036" lon="8.955253716314902"><ele>277.75</ele><time>2026-04-23T16:17:41.999Z</time></trkpt><trkpt lat="45.97967912117118" lon="8.955301365947218"><ele>280.5</ele><time>2026-04-23T16:17:43Z</time></trkpt><trkpt lat="45.979555553222845" lon="8.955364381877077"><ele>283.25</ele><time>2026-04-23T16:17:44Z</time></trkpt><trkpt lat="45.97944214693453" lon="8.955422880018405"><ele>286.0</ele><time>2026-04-23T16:17:45Z</time></trkpt><trkpt lat="45.97932275157439" lon="8.955479342010593"><ele>286.0</ele><time>2026-04-23T16:17:46Z</time></trkpt><trkpt lat="45.9792064571425" lon="8.955517075948862"><ele>286.0</ele><time>2026-04-23T16:17:47Z</time></trkpt><trkpt lat="45.979087092116124" lon="8.955533032573335"><ele>286.0</ele><time>2026-04-23T16:17:48Z</time></trkpt><trkpt lat="45.978940006994414" lon="8.95555046005651"><ele>286.0</ele><time>2026-04-23T16:17:49Z</time></trkpt><trkpt lat="45.978795627168296" lon="8.955568701765841"><ele>286.66666666666663</ele><time>2026-04-23T16:17:50Z</time></trkpt><trkpt lat="45.978641468982524" lon="8.955588083578693"><ele>287.3333333333333</ele><time>2026-04-23T16:17:51Z</time></trkpt><trkpt lat="45.97848549499101" lon="8.955606638438711"><ele>288.0</ele><time>2026-04-23T16:17:52Z</time></trkpt><trkpt lat="45.978342772191475" lon="8.95561985685478"><ele>288.5</ele><time>2026-04-23T16:17:53Z</time></trkpt><trkpt lat="45.978202072783695" lon="8.955611699276119"><ele>289.0</ele><time>2026-04-23T16:17:54Z</time></trkpt><trkpt lat="45.97807044775635" lon="8.955588060267317"><ele>289.5</ele><time>2026-04-23T16:17:55Z</time></trkpt><trkpt lat="45.97793400264272" lon="8.955552127571336"><ele>290.0</ele><time>2026-04-23T16:17:56Z</time></trkpt><trkpt lat="45.97779078917413" lon="8.955487447373127"><ele>290.0</ele><time>2026-04-23T16:17:57Z</time></trkpt><trkpt lat="45.97764749070188" lon="8.955414040132501"><ele>290.0</ele><time>2026-04-23T16:17:58Z</time></trkpt><trkpt lat="45.977476829236785" lon="8.955315575830781"><ele>290.0</ele><time>2026-04-23T16:17:59Z</time></trkpt><trkpt lat="45.97729965318883" lon="8.955214529805549"><ele>286.6666666666667</ele><time>2026-04-23T16:18:00Z</time></trkpt><trkpt lat="45.97710616196055" lon="8.95510379370391"><ele>283.3333333333333</ele><time>2026-04-23T16:18:01Z</time></trkpt><trkpt lat="45.97691637224122" lon="8.954995175875661"><ele>280.0</ele><time>2026-04-23T16:18:02Z</time></trkpt><trkpt lat="45.97672740492971" lon="8.954887028720728"><ele>284.3333333333333</ele><time>2026-04-23T16:18:03Z</time></trkpt><trkpt lat="45.97654254972678" lon="8.954781272878195"><ele>288.6666666666667</ele><time>2026-04-23T16:18:04Z</time></trkpt><trkpt lat="45.976362996749046" lon="8.954672446674014"><ele>293.0</ele><time>2026-04-23T16:18:05Z</time></trkpt><trkpt lat="45.97620684786375" lon="8.954536006943993"><ele>293.0</ele><time>2026-04-23T16:18:06Z</time></trkpt><trkpt lat="45.976049685059394" lon="8.954381871741028"><ele>293.0</ele><time>2026-04-23T16:18:07Z</time></trkpt><trkpt lat="45.975895585594984" lon="8.954227083849949"><ele>293.0</ele><time>2026-04-23T16:18:08Z</time></trkpt><trkpt lat="45.97574420721102" lon="8.954073348184123"><ele>294.33333333333337</ele><time>2026-04-23T16:18:09Z</time></trkpt><trkpt lat="45.97559607257403" lon="8.953915513213108"><ele>295.6666666666667</ele><time>2026-04-23T16:18:10Z</time></trkpt><trkpt lat="45.97544959499421" lon="8.95375981051979"><ele>297.0</ele><time>2026-04-23T16:18:11Z</time></trkpt><trkpt lat="45.97530070491895" lon="8.953602907454007"><ele>297.0</ele><time>2026-04-23T16:18:12Z</time></trkpt><trkpt lat="45.97515526709739" lon="8.953454724418481"><ele>297.0</ele><time>2026-04-23T16:18:13Z</time></trkpt><trkpt lat="45.97500170518238" lon="8.953330703984442"><ele>297.0</ele><time>2026-04-23T16:18:14Z</time></trkpt><trkpt lat="45.9748387941487" lon="8.953238644665705"><ele>300.0</ele><time>2026-04-23T16:18:15Z</time></trkpt><trkpt lat="45.974678704066875" lon="8.953149541888797"><ele>303.0</ele><time>2026-04-23T16:18:16Z</time></trkpt><trkpt lat="45.974521920995265" lon="8.9530648824953"><ele>306.0</ele><time>2026-04-23T16:18:17Z</time></trkpt><trkpt lat="45.97436808949499" lon="8.95298241890236"><ele>306.0</ele><time>2026-04-23T16:18:18Z</time></trkpt><trkpt lat="45.974227071776546" lon="8.95290642170794"><ele>306.0</ele><time>2026-04-23T16:18:19Z</time></trkpt><trkpt lat="45.97408877578056" lon="8.952831891372654"><ele>306.0</ele><time>2026-04-23T16:18:20Z</time></trkpt><trkpt lat="45.97394772042626" lon="8.9527510262128"><ele>303.3333333333333</ele><time>2026-04-23T16:18:21Z</time></trkpt><trkpt lat="45.97381256632859" lon="8.952646600759447"><ele>300.66666666666663</ele><time>2026-04-23T16:18:22Z</time></trkpt><trkpt lat="45.973673428537666" lon="8.952524102079344"><ele>298.0</ele><time>2026-04-23T16:18:23Z</time></trkpt><trkpt lat="45.97353699920859" lon="8.952383187582138"><ele>298.0</ele><time>2026-04-23T16:18:24Z</time></trkpt><trkpt lat="45.9733998021094" lon="8.95222783036881"><ele>298.0</ele><time>2026-04-23T16:18:25Z</time></trkpt><trkpt lat="45.97326728966448" lon="8.952061304182017"><ele>298.0</ele><time>2026-04-23T16:18:26Z</time></trkpt><trkpt lat="45.97313948957407" lon="8.95189078896478"><ele>296.66666666666663</ele><time>2026-04-23T16:18:27Z</time></trkpt><trkpt lat="45.97302060681717" lon="8.951714088858251"><ele>295.3333333333333</ele><time>2026-04-23T16:18:28Z</time></trkpt><trkpt lat="45.972898245882064" lon="8.951522667502068"><ele>294.0</ele><time>2026-04-23T16:18:29Z</time></trkpt><trkpt lat="45.972777765629566" lon="8.951338208327032"><ele>294.0</ele><time>2026-04-23T16:18:30Z</time></trkpt><trkpt lat="45.972655488215224" lon="8.951172587219315"><ele>294.0</ele><time>2026-04-23T16:18:31Z</time></trkpt><trkpt lat="45.972511260804126" lon="8.951021629312446"><ele>294.0</ele><time>2026-04-23T16:18:32Z</time></trkpt><trkpt lat="45.972349140240745" lon="8.950889004356446"><ele>295.6666666666667</ele><time>2026-04-23T16:18:33Z</time></trkpt><trkpt lat="45.97218504118714" lon="8.950761222342694"><ele>297.33333333333337</ele><time>2026-04-23T16:18:34Z</time></trkpt><trkpt lat="45.972023311184046" lon="8.950636501340739"><ele>299.0</ele><time>2026-04-23T16:18:35Z</time></trkpt><trkpt lat="45.9718650905503" lon="8.95051353205241"><ele>299.0</ele><time>2026-04-23T16:18:36Z</time></trkpt><trkpt lat="45.97170660577064" lon="8.950389369931848"><ele>299.0</ele><time>2026-04-23T16:18:37Z</time></trkpt><trkpt lat="45.97155140322176" lon="8.950266714594818"><ele>299.0</ele><time>2026-04-23T16:18:38Z</time></trkpt><trkpt lat="45.97139622317063" lon="8.950143944809158"><ele>303.33333333333337</ele><time>2026-04-23T16:18:39Z</time></trkpt><trkpt lat="45.97124501929646" lon="8.950024321053041"><ele>307.6666666666667</ele><time>2026-04-23T16:18:40Z</time></trkpt><trkpt lat="45.97108613280741" lon="8.949898619074897"><ele>312.0</ele><time>2026-04-23T16:18:41Z</time></trkpt><trkpt lat="45.97091781229014" lon="8.94976617409942"><ele>301.6666666666667</ele><time>2026-04-23T16:18:42Z</time></trkpt><trkpt lat="45.970744764780726" lon="8.94963025846363"><ele>291.33333333333337</ele><time>2026-04-23T16:18:43Z</time></trkpt><trkpt lat="45.970564626823794" lon="8.949486795263246"><ele>281.0</ele><time>2026-04-23T16:18:44Z</time></trkpt><trkpt lat="45.970382531595064" lon="8.949348010984986"><ele>281.0</ele><time>2026-04-23T16:18:45Z</time></trkpt><trkpt lat="45.97020304487363" lon="8.949227658638542"><ele>281.0</ele><time>2026-04-23T16:18:46Z</time></trkpt><trkpt lat="45.970013489884685" lon="8.949123022058645"><ele>281.0</ele><time>2026-04-23T16:18:47Z</time></trkpt><trkpt lat="45.96982363321085" lon="8.949028471060585"><ele>283.6666666666667</ele><time>2026-04-23T16:18:48Z</time></trkpt><trkpt lat="45.969638503901535" lon="8.948939900491876"><ele>286.3333333333333</ele><time>2026-04-23T16:18:49Z</time></trkpt><trkpt lat="45.96946694306462" lon="8.948857821394169"><ele>289.0</ele><time>2026-04-23T16:18:50Z</time></trkpt><trkpt lat="45.96928072932756" lon="8.948768731981279"><ele>286.0</ele><time>2026-04-23T16:18:51Z</time></trkpt><trkpt lat="45.96909270968401" lon="8.948678778582284"><ele>283.0</ele><time>2026-04-23T16:18:52Z</time></trkpt><trkpt lat="45.96890116111675" lon="8.948587136801132"><ele>280.0</ele><time>2026-04-23T16:18:53Z</time></trkpt><trkpt lat="45.96872524983937" lon="8.948497893331142"><ele>280.0</ele><time>2026-04-23T16:18:54Z</time></trkpt><trkpt lat="45.96857202519357" lon="8.948411367772733"><ele>280.0</ele><time>2026-04-23T16:18:55Z</time></trkpt><trkpt lat="45.968421280855544" lon="8.948325233724221"><ele>280.0</ele><time>2026-04-23T16:18:56Z</time></trkpt><trkpt lat="45.96828084439829" lon="8.94824555513806"><ele>282.25</ele><time>2026-04-23T16:18:56.999Z</time></trkpt><trkpt lat="45.9681393995298" lon="8.94816801399119"><ele>284.5</ele><time>2026-04-23T16:18:57.999Z</time></trkpt><trkpt lat="45.96800943965881" lon="8.948100741953393"><ele>286.75</ele><time>2026-04-23T16:18:58.999Z</time></trkpt><trkpt lat="45.96786686445744" lon="8.948038595001748"><ele>289.0</ele><time>2026-04-23T16:18:59.999Z</time></trkpt><trkpt lat="45.967720085268155" lon="8.947999013055933"><ele>289.0</ele><time>2026-04-23T16:19:00.999Z</time></trkpt><trkpt lat="45.96755760075142" lon="8.948097591095049"><ele>289.0</ele><time>2026-04-23T16:19:01.999Z</time></trkpt><trkpt lat="45.96740943915933" lon="8.948087323844568"><ele>289.0</ele><time>2026-04-23T16:19:02.999Z</time></trkpt><trkpt lat="45.96726741208606" lon="8.948078690898981"><ele>287.0</ele><time>2026-04-23T16:19:03.999Z</time></trkpt><trkpt lat="45.96712894641882" lon="8.948077861471125"><ele>285.0</ele><time>2026-04-23T16:19:04.999Z</time></trkpt><trkpt lat="45.9669965018591" lon="8.9479399468991"><ele>283.0</ele><time>2026-04-23T16:19:05.999Z</time></trkpt><trkpt lat="45.966860892029004" lon="8.947933482384952"><ele>281.0</ele><time>2026-04-23T16:19:06.999Z</time></trkpt><trkpt lat="45.96672647032238" lon="8.947925690597218"><ele>281.0</ele><time>2026-04-23T16:19:07.999Z</time></trkpt><trkpt lat="45.96658507983929" lon="8.947916852151437"><ele>281.0</ele><time>2026-04-23T16:19:08.999Z</time></trkpt><trkpt lat="45.96644866840273" lon="8.947903219500974"><ele>281.0</ele><time>2026-04-23T16:19:09.999Z</time></trkpt><trkpt lat="45.96632099069371" lon="8.947877601660839"><ele>281.0</ele><time>2026-04-23T16:19:10.999Z</time></trkpt><trkpt lat="45.966202944797935" lon="8.94784102885089"><ele>281.0</ele><time>2026-04-23T16:19:11.999Z</time></trkpt><trkpt lat="45.96606094681471" lon="8.947782598846775"><ele>281.0</ele><time>2026-04-23T16:19:12.999Z</time></trkpt><trkpt lat="45.96594026293958" lon="8.94771342252245"><ele>281.0</ele><time>2026-04-23T16:19:13.999Z</time></trkpt><trkpt lat="45.96581344995063" lon="8.947629859009519"><ele>281.0</ele><time>2026-04-23T16:19:14.999Z</time></trkpt><trkpt lat="45.965684960199944" lon="8.947544597606413"><ele>286.0</ele><time>2026-04-23T16:19:15.999Z</time></trkpt><trkpt lat="45.965539209423845" lon="8.947478402776055"><ele>291.0</ele><time>2026-04-23T16:19:16.999Z</time></trkpt><trkpt lat="45.96538851995465" lon="8.947434730783506"><ele>296.0</ele><time>2026-04-23T16:19:17.999Z</time></trkpt><trkpt lat="45.9652336324593" lon="8.94739249750604"><ele>296.0</ele><time>2026-04-23T16:19:18.999Z</time></trkpt><trkpt lat="45.96509397118669" lon="8.947354415783787"><ele>296.0</ele><time>2026-04-23T16:19:19.999Z</time></trkpt><trkpt lat="45.964947484070045" lon="8.947313647939174"><ele>296.0</ele><time>2026-04-23T16:19:20.999Z</time></trkpt><trkpt lat="45.96479618332512" lon="8.947271616792206"><ele>296.0</ele><time>2026-04-23T16:19:21.999Z</time></trkpt><trkpt lat="45.964646987923246" lon="8.947230170560037"><ele>292.33333333333337</ele><time>2026-04-23T16:19:22.999Z</time></trkpt><trkpt lat="45.96450041286057" lon="8.947191167913722"><ele>288.6666666666667</ele><time>2026-04-23T16:19:23.999Z</time></trkpt><trkpt lat="45.96435351258976" lon="8.947156074667586"><ele>285.0</ele><time>2026-04-23T16:19:24.999Z</time></trkpt><trkpt lat="45.96419353869845" lon="8.947130478150244"><ele>283.3333333333333</ele><time>2026-04-23T16:19:25.999Z</time></trkpt><trkpt lat="45.96403486251234" lon="8.94711604347125"><ele>281.66666666666663</ele><time>2026-04-23T16:19:26.999Z</time></trkpt><trkpt lat="45.963879003987856" lon="8.947102368748473"><ele>280.0</ele><time>2026-04-23T16:19:27.999Z</time></trkpt><trkpt lat="45.963715432308305" lon="8.947088017285033"><ele>280.0</ele><time>2026-04-23T16:19:28.999Z</time></trkpt><trkpt lat="45.96354463214886" lon="8.947073033600034"><ele>280.0</ele><time>2026-04-23T16:19:29.999Z</time></trkpt><trkpt lat="45.9633812815268" lon="8.94705870152974"><ele>280.0</ele><time>2026-04-23T16:19:30.999Z</time></trkpt><trkpt lat="45.96321391544422" lon="8.947047443548563"><ele>278.0</ele><time>2026-04-23T16:19:31.999Z</time></trkpt><trkpt lat="45.96305481216994" lon="8.947043029987135"><ele>276.0</ele><time>2026-04-23T16:19:32.999Z</time></trkpt><trkpt lat="45.96290972382476" lon="8.94704729846648"><ele>274.0</ele><time>2026-04-23T16:19:33.999Z</time></trkpt><trkpt lat="45.962761898270955" lon="8.947060006877361"><ele>274.0</ele><time>2026-04-23T16:19:34.999Z</time></trkpt><trkpt lat="45.96263489695815" lon="8.94707471993459"><ele>274.0</ele><time>2026-04-23T16:19:35.999Z</time></trkpt><trkpt lat="45.962473425555146" lon="8.947095763655316"><ele>274.0</ele><time>2026-04-23T16:19:36.999Z</time></trkpt><trkpt lat="45.96233447056673" lon="8.947113665364405"><ele>274.0</ele><time>2026-04-23T16:19:37.999Z</time></trkpt><trkpt lat="45.962202693432765" lon="8.947130642263929"><ele>274.0</ele><time>2026-04-23T16:19:38.999Z</time></trkpt><trkpt lat="45.96207493820803" lon="8.947148035675799"><ele>274.0</ele><time>2026-04-23T16:19:39.999Z</time></trkpt><trkpt lat="45.96194717332745" lon="8.947164030478742"><ele>274.0</ele><time>2026-04-23T16:19:40.999Z</time></trkpt><trkpt lat="45.96181839903968" lon="8.947179439840335"><ele>274.0</ele><time>2026-04-23T16:19:41.999Z</time></trkpt><trkpt lat="45.96169422121948" lon="8.947182234658067"><ele>274.5</ele><time>2026-04-23T16:19:42.999Z</time></trkpt><trkpt lat="45.96156795935499" lon="8.947178215660475"><ele>275.0</ele><time>2026-04-23T16:19:43.999Z</time></trkpt><trkpt lat="45.96144024184042" lon="8.947167251416678"><ele>275.5</ele><time>2026-04-23T16:19:44.999Z</time></trkpt><trkpt lat="45.96130832476966" lon="8.947145285025893"><ele>276.0</ele><time>2026-04-23T16:19:45.999Z</time></trkpt><trkpt lat="45.96119240308838" lon="8.947119430204788"><ele>276.0</ele><time>2026-04-23T16:19:46.999Z</time></trkpt><trkpt lat="45.96107956559795" lon="8.94709357603464"><ele>276.0</ele><time>2026-04-23T16:19:47.999Z</time></trkpt><trkpt lat="45.960965975158175" lon="8.94706684937223"><ele>276.0</ele><time>2026-04-23T16:19:49Z</time></trkpt><trkpt lat="45.96085927232621" lon="8.947041752358565"><ele>276.0</ele><time>2026-04-23T16:19:50Z</time></trkpt><trkpt lat="45.96073494804153" lon="8.947012510706507"><ele>275.5</ele><time>2026-04-23T16:19:51Z</time></trkpt><trkpt lat="45.960615820908004" lon="8.946984491468545"><ele>275.0</ele><time>2026-04-23T16:19:52Z</time></trkpt><trkpt lat="45.9604947497786" lon="8.946956014940946"><ele>274.5</ele><time>2026-04-23T16:19:53Z</time></trkpt><trkpt lat="45.960373414666044" lon="8.946927476370488"><ele>274.0</ele><time>2026-04-23T16:19:54Z</time></trkpt><trkpt lat="45.960246427561025" lon="8.94689760841269"><ele>274.0</ele><time>2026-04-23T16:19:55Z</time></trkpt><trkpt lat="45.96011069899144" lon="8.946869092134934"><ele>274.0</ele><time>2026-04-23T16:19:56Z</time></trkpt><trkpt lat="45.95999121385224" lon="8.946848127745502"><ele>274.0</ele><time>2026-04-23T16:19:57Z</time></trkpt><trkpt lat="45.95984719981309" lon="8.946829669115013"><ele>274.0</ele><time>2026-04-23T16:19:58Z</time></trkpt><trkpt lat="45.95970925355625" lon="8.94681792578799"><ele>274.0</ele><time>2026-04-23T16:19:59Z</time></trkpt><trkpt lat="45.959570122532625" lon="8.946807054607456"><ele>274.0</ele><time>2026-04-23T16:20:00Z</time></trkpt><trkpt lat="45.959426473937604" lon="8.946795830407234"><ele>274.0</ele><time>2026-04-23T16:20:01Z</time></trkpt><trkpt lat="45.95929288452432" lon="8.946788649883535"><ele>274.0</ele><time>2026-04-23T16:20:02Z</time></trkpt><trkpt lat="45.959159550975876" lon="8.946784889326556"><ele>274.0</ele><time>2026-04-23T16:20:03Z</time></trkpt><trkpt lat="45.959029239361676" lon="8.946786679036842"><ele>274.0</ele><time>2026-04-23T16:20:04Z</time></trkpt><trkpt lat="45.958894710145536" lon="8.946795504831227"><ele>274.0</ele><time>2026-04-23T16:20:05Z</time></trkpt><trkpt lat="45.958754248324674" lon="8.946811499611321"><ele>274.0</ele><time>2026-04-23T16:20:06Z</time></trkpt><trkpt lat="45.95862065694614" lon="8.946831506417483"><ele>274.0</ele><time>2026-04-23T16:20:07Z</time></trkpt><trkpt lat="45.95848240928159" lon="8.946858388210531"><ele>274.0</ele><time>2026-04-23T16:20:08Z</time></trkpt><trkpt lat="45.95834495753221" lon="8.946893245344178"><ele>274.0</ele><time>2026-04-23T16:20:09Z</time></trkpt><trkpt lat="45.95820417947026" lon="8.946929474007732"><ele>274.0</ele><time>2026-04-23T16:20:10Z</time></trkpt><trkpt lat="45.958066086256075" lon="8.946968767797896"><ele>273.75</ele><time>2026-04-23T16:20:11Z</time></trkpt><trkpt lat="45.957930939125845" lon="8.9470072232823"><ele>273.5</ele><time>2026-04-23T16:20:12Z</time></trkpt><trkpt lat="45.95778121627729" lon="8.947049891012586"><ele>273.25</ele><time>2026-04-23T16:20:13Z</time></trkpt><trkpt lat="45.95765496172144" lon="8.947088232855691"><ele>273.0</ele><time>2026-04-23T16:20:14Z</time></trkpt><trkpt lat="45.95752334419019" lon="8.947129619649017"><ele>274.75</ele><time>2026-04-23T16:20:15Z</time></trkpt><trkpt lat="45.9574015332431" lon="8.947170855749011"><ele>276.5</ele><time>2026-04-23T16:20:16Z</time></trkpt><trkpt lat="45.957306101691735" lon="8.947204725753055"><ele>278.25</ele><time>2026-04-23T16:20:17Z</time></trkpt><trkpt lat="45.95720390428314" lon="8.947240999096566"><ele>280.0</ele><time>2026-04-23T16:20:18Z</time></trkpt><trkpt lat="45.95707738783426" lon="8.947286891842849"><ele>280.0</ele><time>2026-04-23T16:20:19Z</time></trkpt><trkpt lat="45.95694819978336" lon="8.947339645480811"><ele>280.0</ele><time>2026-04-23T16:20:20Z</time></trkpt><trkpt lat="45.956817489525086" lon="8.9473896412755"><ele>280.0</ele><time>2026-04-23T16:20:21Z</time></trkpt><trkpt lat="45.95668488459762" lon="8.947444173615594"><ele>280.0</ele><time>2026-04-23T16:20:22Z</time></trkpt><trkpt lat="45.956562090385965" lon="8.94748524780468"><ele>280.0</ele><time>2026-04-23T16:20:23Z</time></trkpt><trkpt lat="45.95643585638424" lon="8.94753487283436"><ele>280.0</ele><time>2026-04-23T16:20:24Z</time></trkpt><trkpt lat="45.956324152654545" lon="8.947583110828644"><ele>280.0</ele><time>2026-04-23T16:20:25Z</time></trkpt><trkpt lat="45.9562249171563" lon="8.947631586601972"><ele>280.0</ele><time>2026-04-23T16:20:26Z</time></trkpt><trkpt lat="45.95612248785979" lon="8.94767193116798"><ele>280.0</ele><time>2026-04-23T16:20:27Z</time></trkpt><trkpt lat="45.956030325400974" lon="8.947712070769455"><ele>280.0</ele><time>2026-04-23T16:20:28Z</time></trkpt><trkpt lat="45.95594696448886" lon="8.947749021277687"><ele>280.0</ele><time>2026-04-23T16:20:29Z</time></trkpt><trkpt lat="45.9558867212659" lon="8.947785419675935"><ele>280.0</ele><time>2026-04-23T16:20:30Z</time></trkpt><trkpt lat="45.95581973575771" lon="8.947861355876503"><ele>280.0</ele><time>2026-04-23T16:20:37Z</time></trkpt><trkpt lat="45.95575012169871" lon="8.947882474756486"><ele>280.0</ele><time>2026-04-23T16:20:42Z</time></trkpt><trkpt lat="45.95568869616342" lon="8.947921828662993"><ele>279.5</ele><time>2026-04-23T16:20:45Z</time></trkpt><trkpt lat="45.95564264949649" lon="8.947997424645699"><ele>279.0</ele><time>2026-04-23T16:20:49Z</time></trkpt><trkpt lat="45.955562837216235" lon="8.947994485443088"><ele>278.5</ele><time>2026-04-23T16:20:52Z</time></trkpt><trkpt lat="45.955530104576994" lon="8.947914921108806"><ele>278.0</ele><time>2026-04-23T16:20:53Z</time></trkpt><trkpt lat="45.9554354410177" lon="8.947962928582887"><ele>277.5</ele><time>2026-04-23T16:20:55Z</time></trkpt><trkpt lat="45.95540931176127" lon="8.948065984134178"><ele>277.0</ele><time>2026-04-23T16:20:56Z</time></trkpt><trkpt lat="45.95542296477474" lon="8.94817762896342"><ele>277.0</ele><time>2026-04-23T16:20:57Z</time></trkpt><trkpt lat="45.95542548250315" lon="8.94834954011018"><ele>277.0</ele><time>2026-04-23T16:20:58.999Z</time></trkpt><trkpt lat="45.95539367532678" lon="8.948516207763715"><ele>277.0</ele><time>2026-04-23T16:21:00.999Z</time></trkpt><trkpt lat="45.95535814094025" lon="8.948656265009168"><ele>277.0</ele><time>2026-04-23T16:21:02.999Z</time></trkpt><trkpt lat="45.95531596098317" lon="8.948798875596044"><ele>276.8333333333333</ele><time>2026-04-23T16:21:04.999Z</time></trkpt><trkpt lat="45.95526813698908" lon="8.948870727789192"><ele>276.66666666666663</ele><time>2026-04-23T16:21:05.999Z</time></trkpt><trkpt lat="45.95525054064376" lon="8.948987810453012"><ele>276.5</ele><time>2026-04-23T16:21:06.999Z</time></trkpt><trkpt lat="45.95520740056796" lon="8.94909472319118"><ele>276.3333333333333</ele><time>2026-04-23T16:21:07.999Z</time></trkpt><trkpt lat="45.95515675816402" lon="8.949212999151296"><ele>276.1666666666667</ele><time>2026-04-23T16:21:08.999Z</time></trkpt><trkpt lat="45.95510469788906" lon="8.949324254921594"><ele>276.0</ele><time>2026-04-23T16:21:09.999Z</time></trkpt><trkpt lat="45.95504582686857" lon="8.949440261200728"><ele>275.8</ele><time>2026-04-23T16:21:10.999Z</time></trkpt><trkpt lat="45.954993256812195" lon="8.949564660109584"><ele>275.6</ele><time>2026-04-23T16:21:11.999Z</time></trkpt><trkpt lat="45.95494405717682" lon="8.949683448698186"><ele>275.4</ele><time>2026-04-23T16:21:12.999Z</time></trkpt><trkpt lat="45.95490498592269" lon="8.949777249992424"><ele>275.2</ele><time>2026-04-23T16:21:13.999Z</time></trkpt><trkpt lat="45.9548521430594" lon="8.949892810163695"><ele>275.0</ele><time>2026-04-23T16:21:15.999Z</time></trkpt><trkpt lat="45.95476012914422" lon="8.949947842857403"><ele>275.0</ele><time>2026-04-23T16:21:17.999Z</time></trkpt><trkpt lat="45.954697764035636" lon="8.950073288454387"><ele>275.0</ele><time>2026-04-23T16:21:19.999Z</time></trkpt><trkpt lat="45.95468169065507" lon="8.950229336133061"><ele>275.0</ele><time>2026-04-23T16:21:21.999Z</time></trkpt><trkpt lat="45.95458412848962" lon="8.95031336607327"><ele>275.0</ele><time>2026-04-23T16:21:23.999Z</time></trkpt><trkpt lat="45.95449328892166" lon="8.950402067033117"><ele>275.0</ele><time>2026-04-23T16:21:25.999Z</time></trkpt><trkpt lat="45.95447303847773" lon="8.950492040280913"><ele>275.0</ele><time>2026-04-23T16:21:26.999Z</time></trkpt><trkpt lat="45.95446664291037" lon="8.950597937708649"><ele>275.0</ele><time>2026-04-23T16:21:27.999Z</time></trkpt><trkpt lat="45.95439366052398" lon="8.950688830054101"><ele>275.0</ele><time>2026-04-23T16:21:28.999Z</time></trkpt><trkpt lat="45.954336594402264" lon="8.950818140822921"><ele>275.0</ele><time>2026-04-23T16:21:29.999Z</time></trkpt><trkpt lat="45.95427219630295" lon="8.950964224341226"><ele>275.0</ele><time>2026-04-23T16:21:30.999Z</time></trkpt><trkpt lat="45.95420832126187" lon="8.951110653388088"><ele>274.75</ele><time>2026-04-23T16:21:31.999Z</time></trkpt><trkpt lat="45.954178925861065" lon="8.951297528322169"><ele>274.5</ele><time>2026-04-23T16:21:32.999Z</time></trkpt><trkpt lat="45.95413403810776" lon="8.951456178967547"><ele>274.25</ele><time>2026-04-23T16:21:33.999Z</time></trkpt><trkpt lat="45.954088351029725" lon="8.95162923606563"><ele>274.0</ele><time>2026-04-23T16:21:34.999Z</time></trkpt><trkpt lat="45.95405342154386" lon="8.951802034870227"><ele>274.0</ele><time>2026-04-23T16:21:35.999Z</time></trkpt><trkpt lat="45.9540247687155" lon="8.951975454232818"><ele>274.0</ele><time>2026-04-23T16:21:36.999Z</time></trkpt><trkpt lat="45.953941765558554" lon="8.95212968810027"><ele>274.0</ele><time>2026-04-23T16:21:37.999Z</time></trkpt><trkpt lat="45.95391566057576" lon="8.952307497167933"><ele>274.0</ele><time>2026-04-23T16:21:38.999Z</time></trkpt><trkpt lat="45.95389365187752" lon="8.952504992597934"><ele>274.25</ele><time>2026-04-23T16:21:39.999Z</time></trkpt><trkpt lat="45.95387449583509" lon="8.952699331095417"><ele>274.5</ele><time>2026-04-23T16:21:40.999Z</time></trkpt><trkpt lat="45.95385659820238" lon="8.952887728230703"><ele>274.75</ele><time>2026-04-23T16:21:41.999Z</time></trkpt><trkpt lat="45.95383868819047" lon="8.953081919811444"><ele>275.0</ele><time>2026-04-23T16:21:42.999Z</time></trkpt><trkpt lat="45.953821083249686" lon="8.953269985178412"><ele>275.25</ele><time>2026-04-23T16:21:43.999Z</time></trkpt><trkpt lat="45.953804621963" lon="8.953457513465802"><ele>275.5</ele><time>2026-04-23T16:21:44.999Z</time></trkpt><trkpt lat="45.95378818726405" lon="8.953640198899576"><ele>275.75</ele><time>2026-04-23T16:21:45.999Z</time></trkpt><trkpt lat="45.95377098283038" lon="8.953827276704137"><ele>276.0</ele><time>2026-04-23T16:21:46.999Z</time></trkpt><trkpt lat="45.953752606775964" lon="8.954036414314352"><ele>275.3333333333333</ele><time>2026-04-23T16:21:47.999Z</time></trkpt><trkpt lat="45.953733410189024" lon="8.954256416623181"><ele>274.66666666666663</ele><time>2026-04-23T16:21:48.999Z</time></trkpt><trkpt lat="45.953713242060694" lon="8.954487553381401"><ele>274.0</ele><time>2026-04-23T16:21:49.999Z</time></trkpt><trkpt lat="45.953692740994455" lon="8.954722505899452"><ele>274.0</ele><time>2026-04-23T16:21:50.999Z</time></trkpt><trkpt lat="45.953672450737706" lon="8.954955604326274"><ele>274.0</ele><time>2026-04-23T16:21:51.999Z</time></trkpt><trkpt lat="45.953652450782144" lon="8.95518632675267"><ele>274.0</ele><time>2026-04-23T16:21:52.999Z</time></trkpt><trkpt lat="45.953633479196796" lon="8.955405185058835"><ele>274.0</ele><time>2026-04-23T16:21:53.999Z</time></trkpt><trkpt lat="45.9536141982872" lon="8.955627612359592"><ele>274.0</ele><time>2026-04-23T16:21:55Z</time></trkpt><trkpt lat="45.953596390574795" lon="8.955833044364644"><ele>274.0</ele><time>2026-04-23T16:21:56Z</time></trkpt><trkpt lat="45.953578747972735" lon="8.956045683241522"><ele>274.0</ele><time>2026-04-23T16:21:57Z</time></trkpt><trkpt lat="45.953561917890816" lon="8.956249840800163"><ele>274.0</ele><time>2026-04-23T16:21:58Z</time></trkpt><trkpt lat="45.9535457422951" lon="8.95644605868046"><ele>274.0</ele><time>2026-04-23T16:21:59Z</time></trkpt><trkpt lat="45.95352916753615" lon="8.956647119295203"><ele>274.0</ele><time>2026-04-23T16:22:00Z</time></trkpt><trkpt lat="45.95351331331131" lon="8.95683943919886"><ele>274.0</ele><time>2026-04-23T16:22:01Z</time></trkpt><trkpt lat="45.95349722660432" lon="8.957034579181363"><ele>273.75</ele><time>2026-04-23T16:22:02Z</time></trkpt><trkpt lat="45.95347994566504" lon="8.957244205597986"><ele>273.5</ele><time>2026-04-23T16:22:03Z</time></trkpt><trkpt lat="45.953463314681414" lon="8.957446709978154"><ele>273.25</ele><time>2026-04-23T16:22:04Z</time></trkpt><trkpt lat="45.95344633957598" lon="8.957652237190999"><ele>273.0</ele><time>2026-04-23T16:22:05Z</time></trkpt><trkpt lat="45.95342822742447" lon="8.957870240136327"><ele>272.6666666666667</ele><time>2026-04-23T16:22:06Z</time></trkpt><trkpt lat="45.953409908942675" lon="8.958090726586319"><ele>272.33333333333337</ele><time>2026-04-23T16:22:07Z</time></trkpt><trkpt lat="45.9533892381981" lon="8.95833748874811"><ele>272.0</ele><time>2026-04-23T16:22:08Z</time></trkpt><trkpt lat="45.95336690834746" lon="8.958593395832755"><ele>273.33333333333337</ele><time>2026-04-23T16:22:09Z</time></trkpt><trkpt lat="45.953345199697985" lon="8.958855317684105"><ele>274.6666666666667</ele><time>2026-04-23T16:22:10Z</time></trkpt><trkpt lat="45.95332321863598" lon="8.959120526390002"><ele>276.0</ele><time>2026-04-23T16:22:11Z</time></trkpt><trkpt lat="45.953300947765854" lon="8.959390589726283"><ele>276.3333333333333</ele><time>2026-04-23T16:22:12Z</time></trkpt><trkpt lat="45.953278967614025" lon="8.959660162519445"><ele>276.66666666666663</ele><time>2026-04-23T16:22:13Z</time></trkpt><trkpt lat="45.95325710944547" lon="8.959928239039995"><ele>277.0</ele><time>2026-04-23T16:22:14Z</time></trkpt><trkpt lat="45.953235827470664" lon="8.960189249304625"><ele>276.3333333333333</ele><time>2026-04-23T16:22:15Z</time></trkpt><trkpt lat="45.95321245035176" lon="8.960455105988812"><ele>275.6666666666667</ele><time>2026-04-23T16:22:16Z</time></trkpt><trkpt lat="45.95318772166123" lon="8.960721860137037"><ele>275.0</ele><time>2026-04-23T16:22:17Z</time></trkpt><trkpt lat="45.95315766685556" lon="8.96098871201024"><ele>275.0</ele><time>2026-04-23T16:22:18Z</time></trkpt><trkpt lat="45.953120656773855" lon="8.961256077324192"><ele>275.0</ele><time>2026-04-23T16:22:19Z</time></trkpt><trkpt lat="45.95307756846308" lon="8.961509836041554"><ele>275.0</ele><time>2026-04-23T16:22:20Z</time></trkpt><trkpt lat="45.95303084800954" lon="8.961745943802253"><ele>275.33333333333337</ele><time>2026-04-23T16:22:21Z</time></trkpt><trkpt lat="45.9529824888464" lon="8.961968218063769"><ele>275.6666666666667</ele><time>2026-04-23T16:22:22Z</time></trkpt><trkpt lat="45.95293191714163" lon="8.96216934423824"><ele>276.0</ele><time>2026-04-23T16:22:23Z</time></trkpt><trkpt lat="45.95287685637826" lon="8.962358360416316"><ele>275.25</ele><time>2026-04-23T16:22:24Z</time></trkpt><trkpt lat="45.95281949820583" lon="8.962537069933646"><ele>274.5</ele><time>2026-04-23T16:22:25Z</time></trkpt><trkpt lat="45.95275580961937" lon="8.962724314839596"><ele>273.75</ele><time>2026-04-23T16:22:26Z</time></trkpt><trkpt lat="45.95269222057247" lon="8.962895654745232"><ele>273.0</ele><time>2026-04-23T16:22:27Z</time></trkpt><trkpt lat="45.952627776826795" lon="8.963055379642338"><ele>273.0</ele><time>2026-04-23T16:22:28Z</time></trkpt><trkpt lat="45.95256110748257" lon="8.963208912965728"><ele>273.0</ele><time>2026-04-23T16:22:29Z</time></trkpt><trkpt lat="45.952494924950855" lon="8.963352246068995"><ele>273.0</ele><time>2026-04-23T16:22:30Z</time></trkpt><trkpt lat="45.95243219828184" lon="8.963474968341949"><ele>273.0</ele><time>2026-04-23T16:22:31Z</time></trkpt><trkpt lat="45.95237152800634" lon="8.963586350624524"><ele>273.6666666666667</ele><time>2026-04-23T16:22:32Z</time></trkpt><trkpt lat="45.952308135607794" lon="8.96369565458868"><ele>274.3333333333333</ele><time>2026-04-23T16:22:33Z</time></trkpt><trkpt lat="45.95224775743463" lon="8.963795861915184"><ele>275.0</ele><time>2026-04-23T16:22:34Z</time></trkpt><trkpt lat="45.95218787384049" lon="8.963889415098787"><ele>275.66666666666663</ele><time>2026-04-23T16:22:35Z</time></trkpt><trkpt lat="45.9521345143727" lon="8.963973015386102"><ele>276.3333333333333</ele><time>2026-04-23T16:22:36Z</time></trkpt><trkpt lat="45.95208484940578" lon="8.964050828215585"><ele>277.0</ele><time>2026-04-23T16:22:37Z</time></trkpt><trkpt lat="45.952031129973534" lon="8.964137795059031"><ele>277.6</ele><time>2026-04-23T16:22:38Z</time></trkpt><trkpt lat="45.95197934085345" lon="8.964221737318852"><ele>278.2</ele><time>2026-04-23T16:22:39Z</time></trkpt><trkpt lat="45.95190041270694" lon="8.964346818396168"><ele>278.8</ele><time>2026-04-23T16:22:41Z</time></trkpt><trkpt lat="45.951831289898415" lon="8.96447753115977"><ele>279.4</ele><time>2026-04-23T16:22:43Z</time></trkpt><trkpt lat="45.951766283005384" lon="8.964518206733896"><ele>280.0</ele><time>2026-04-23T16:22:44Z</time></trkpt><trkpt lat="45.95170294182377" lon="8.964566462871522"><ele>280.0</ele><time>2026-04-23T16:22:45Z</time></trkpt><trkpt lat="45.95165287657123" lon="8.964623076225989"><ele>280.0</ele><time>2026-04-23T16:22:46Z</time></trkpt><trkpt lat="45.951585245039524" lon="8.964636285711611"><ele>280.0</ele><time>2026-04-23T16:22:47Z</time></trkpt><trkpt lat="45.95151444729661" lon="8.964672842540624"><ele>280.0</ele><time>2026-04-23T16:22:48Z</time></trkpt><trkpt lat="45.95143541201398" lon="8.964709544197065"><ele>280.0</ele><time>2026-04-23T16:22:49Z</time></trkpt><trkpt lat="45.95136128982686" lon="8.964766924103765"><ele>280.0</ele><time>2026-04-23T16:22:50Z</time></trkpt><trkpt lat="45.951271250797184" lon="8.9646584025469"><ele>280.0</ele><time>2026-04-23T16:22:51Z</time></trkpt><trkpt lat="45.95118718724278" lon="8.964653542615544"><ele>280.0</ele><time>2026-04-23T16:22:52Z</time></trkpt><trkpt lat="45.95109509897663" lon="8.96473197987851"><ele>280.0</ele><time>2026-04-23T16:22:53Z</time></trkpt><trkpt lat="45.951018264791536" lon="8.964708952620441"><ele>280.0</ele><time>2026-04-23T16:22:54Z</time></trkpt><trkpt lat="45.95094494454051" lon="8.964687031125836"><ele>280.0</ele><time>2026-04-23T16:22:55Z</time></trkpt><trkpt lat="45.95087912237921" lon="8.964674736939719"><ele>280.0</ele><time>2026-04-23T16:22:56Z</time></trkpt><trkpt lat="45.95082426605395" lon="8.964539909094375"><ele>280.4</ele><time>2026-04-23T16:22:57Z</time></trkpt><trkpt lat="45.950752620759616" lon="8.964533722458958"><ele>280.8</ele><time>2026-04-23T16:22:58Z</time></trkpt><trkpt lat="45.95064648961522" lon="8.96452884538395"><ele>281.2</ele><time>2026-04-23T16:23:00Z</time></trkpt><trkpt lat="45.95054540597668" lon="8.96453087589887"><ele>281.6</ele><time>2026-04-23T16:23:02Z</time></trkpt><trkpt lat="45.95044160332512" lon="8.964535601003817"><ele>282.0</ele><time>2026-04-23T16:23:03.999Z</time></trkpt><trkpt lat="45.95032845053318" lon="8.964545201241734"><ele>282.0</ele><time>2026-04-23T16:23:05.999Z</time></trkpt><trkpt lat="45.95019377486565" lon="8.96456531647368"><ele>282.0</ele><time>2026-04-23T16:23:07.999Z</time></trkpt><trkpt lat="45.95011106782" lon="8.964577216240285"><ele>282.0</ele><time>2026-04-23T16:23:08.999Z</time></trkpt><trkpt lat="45.95002631792308" lon="8.964595204153516"><ele>282.0</ele><time>2026-04-23T16:23:09.999Z</time></trkpt><trkpt lat="45.94993134125941" lon="8.964623006667297"><ele>282.0</ele><time>2026-04-23T16:23:10.999Z</time></trkpt><trkpt lat="45.949853709351295" lon="8.964656066874497"><ele>281.6666666666667</ele><time>2026-04-23T16:23:11.999Z</time></trkpt><trkpt lat="45.94977161472574" lon="8.964709037244708"><ele>281.3333333333333</ele><time>2026-04-23T16:23:12.999Z</time></trkpt><trkpt lat="45.94969486979531" lon="8.964776099146444"><ele>281.0</ele><time>2026-04-23T16:23:13.999Z</time></trkpt><trkpt lat="45.949624632216775" lon="8.964859488048631"><ele>280.66666666666663</ele><time>2026-04-23T16:23:14.999Z</time></trkpt><trkpt lat="45.94956638764972" lon="8.964948052688621"><ele>280.3333333333333</ele><time>2026-04-23T16:23:15.999Z</time></trkpt><trkpt lat="45.94951502714967" lon="8.965047235327393"><ele>280.0</ele><time>2026-04-23T16:23:16.999Z</time></trkpt><trkpt lat="45.94946306604703" lon="8.965152368797277"><ele>280.0</ele><time>2026-04-23T16:23:17.999Z</time></trkpt><trkpt lat="45.94940761053394" lon="8.965265653420818"><ele>280.0</ele><time>2026-04-23T16:23:18.999Z</time></trkpt><trkpt lat="45.94934981390897" lon="8.965383720360308"><ele>280.0</ele><time>2026-04-23T16:23:19.999Z</time></trkpt><trkpt lat="45.94929025475309" lon="8.965503330044948"><ele>280.0</ele><time>2026-04-23T16:23:20.999Z</time></trkpt><trkpt lat="45.94921956066659" lon="8.965631614234194"><ele>280.0</ele><time>2026-04-23T16:23:21.999Z</time></trkpt><trkpt lat="45.9491584398759" lon="8.965728077881034"><ele>279.0</ele><time>2026-04-23T16:23:22.999Z</time></trkpt><trkpt lat="45.949085344122665" lon="8.965822012894552"><ele>278.0</ele><time>2026-04-23T16:23:23.999Z</time></trkpt><trkpt lat="45.949003812544554" lon="8.965913058656339"><ele>277.0</ele><time>2026-04-23T16:23:24.999Z</time></trkpt><trkpt lat="45.94891422033657" lon="8.965988885666684"><ele>276.0</ele><time>2026-04-23T16:23:25.999Z</time></trkpt><trkpt lat="45.948809941706095" lon="8.966065723676323"><ele>275.0</ele><time>2026-04-23T16:23:26.999Z</time></trkpt><trkpt lat="45.94870958336035" lon="8.966113615721778"><ele>277.6</ele><time>2026-04-23T16:23:27.999Z</time></trkpt><trkpt lat="45.94860825755867" lon="8.96614213727183"><ele>280.2</ele><time>2026-04-23T16:23:28.999Z</time></trkpt><trkpt lat="45.948498311265865" lon="8.966169410044769"><ele>282.8</ele><time>2026-04-23T16:23:29.999Z</time></trkpt><trkpt lat="45.9483952303488" lon="8.966278865332667"><ele>285.4</ele><time>2026-04-23T16:23:30.999Z</time></trkpt><trkpt lat="45.94829868583853" lon="8.96629380771333"><ele>288.0</ele><time>2026-04-23T16:23:31.999Z</time></trkpt><trkpt lat="45.94820661032395" lon="8.96631779047113"><ele>288.25</ele><time>2026-04-23T16:23:32.999Z</time></trkpt><trkpt lat="45.948110312450765" lon="8.96633169515573"><ele>288.5</ele><time>2026-04-23T16:23:33.999Z</time></trkpt><trkpt lat="45.94799532387796" lon="8.966254150486014"><ele>288.75</ele><time>2026-04-23T16:23:34.999Z</time></trkpt><trkpt lat="45.947870989197774" lon="8.966276920184004"><ele>289.0</ele><time>2026-04-23T16:23:35.999Z</time></trkpt><trkpt lat="45.9477487310844" lon="8.966300214310467"><ele>289.0</ele><time>2026-04-23T16:23:36.999Z</time></trkpt><trkpt lat="45.94762306545502" lon="8.966322883405882"><ele>289.0</ele><time>2026-04-23T16:23:37.999Z</time></trkpt><trkpt lat="45.94749797921057" lon="8.966337770422108"><ele>289.0</ele><time>2026-04-23T16:23:38.999Z</time></trkpt><trkpt lat="45.947371886240475" lon="8.966342354357709"><ele>289.0</ele><time>2026-04-23T16:23:39.999Z</time></trkpt><trkpt lat="45.947240424661565" lon="8.966326606540248"><ele>289.5</ele><time>2026-04-23T16:23:40.999Z</time></trkpt><trkpt lat="45.947105273349486" lon="8.966304992967494"><ele>290.0</ele><time>2026-04-23T16:23:41.999Z</time></trkpt><trkpt lat="45.94696191537196" lon="8.966272244109637"><ele>290.5</ele><time>2026-04-23T16:23:42.999Z</time></trkpt><trkpt lat="45.94681461584132" lon="8.966232458363583"><ele>291.0</ele><time>2026-04-23T16:23:43.999Z</time></trkpt><trkpt lat="45.946659140180955" lon="8.966188978509667"><ele>294.3333333333333</ele><time>2026-04-23T16:23:44.999Z</time></trkpt><trkpt lat="45.94649485547788" lon="8.966137491309494"><ele>297.66666666666663</ele><time>2026-04-23T16:23:45.999Z</time></trkpt><trkpt lat="45.94633178121787" lon="8.966078605630312"><ele>301.0</ele><time>2026-04-23T16:23:46.999Z</time></trkpt><trkpt lat="45.94618000279268" lon="8.96602029493009"><ele>301.0</ele><time>2026-04-23T16:23:47.999Z</time></trkpt><trkpt lat="45.946033438185204" lon="8.965963532609733"><ele>301.0</ele><time>2026-04-23T16:23:48.999Z</time></trkpt><trkpt lat="45.94588330017131" lon="8.965902284007521"><ele>301.0</ele><time>2026-04-23T16:23:49.999Z</time></trkpt><trkpt lat="45.945737673852754" lon="8.965842652677084"><ele>293.66666666666663</ele><time>2026-04-23T16:23:50.999Z</time></trkpt><trkpt lat="45.945589567129" lon="8.965782005525798"><ele>286.3333333333333</ele><time>2026-04-23T16:23:51.999Z</time></trkpt><trkpt lat="45.9454464893134" lon="8.965723373708817"><ele>279.0</ele><time>2026-04-23T16:23:52.999Z</time></trkpt><trkpt lat="45.94530528742782" lon="8.965665242218732"><ele>279.0</ele><time>2026-04-23T16:23:53.999Z</time></trkpt><trkpt lat="45.945151312859416" lon="8.965603930744876"><ele>279.0</ele><time>2026-04-23T16:23:54.999Z</time></trkpt><trkpt lat="45.945015779078496" lon="8.965552874789005"><ele>279.0</ele><time>2026-04-23T16:23:55.999Z</time></trkpt><trkpt lat="45.94486222451508" lon="8.965498203002031"><ele>283.6666666666667</ele><time>2026-04-23T16:23:56.999Z</time></trkpt><trkpt lat="45.944701603619464" lon="8.965441759641022"><ele>288.33333333333337</ele><time>2026-04-23T16:23:57.999Z</time></trkpt><trkpt lat="45.94454609079639" lon="8.965393179649784"><ele>293.0</ele><time>2026-04-23T16:23:58.999Z</time></trkpt><trkpt lat="45.94438750947695" lon="8.965350069624826"><ele>293.0</ele><time>2026-04-23T16:23:59.999Z</time></trkpt><trkpt lat="45.94423908911351" lon="8.965315895215888"><ele>293.0</ele><time>2026-04-23T16:24:01Z</time></trkpt><trkpt lat="45.94409360620658" lon="8.965288328451505"><ele>293.0</ele><time>2026-04-23T16:24:02Z</time></trkpt><trkpt lat="45.94395052856899" lon="8.965261709374603"><ele>293.0</ele><time>2026-04-23T16:24:03Z</time></trkpt><trkpt lat="45.94380869082369" lon="8.965232295516882"><ele>292.25</ele><time>2026-04-23T16:24:04Z</time></trkpt><trkpt lat="45.943672359339224" lon="8.965194215071804"><ele>291.5</ele><time>2026-04-23T16:24:05Z</time></trkpt><trkpt lat="45.943527397451874" lon="8.965141959628092"><ele>290.75</ele><time>2026-04-23T16:24:06Z</time></trkpt><trkpt lat="45.94339593396587" lon="8.965085008341006"><ele>290.0</ele><time>2026-04-23T16:24:07Z</time></trkpt><trkpt lat="45.943264848252774" lon="8.965016114943106"><ele>290.0</ele><time>2026-04-23T16:24:08Z</time></trkpt><trkpt lat="45.94312336848637" lon="8.964938983129954"><ele>290.0</ele><time>2026-04-23T16:24:09Z</time></trkpt><trkpt lat="45.94298570026346" lon="8.964863725999177"><ele>290.0</ele><time>2026-04-23T16:24:10Z</time></trkpt><trkpt lat="45.942848357070076" lon="8.964788380040812"><ele>290.0</ele><time>2026-04-23T16:24:11Z</time></trkpt><trkpt lat="45.94270912161431" lon="8.964711722206196"><ele>290.0</ele><time>2026-04-23T16:24:12Z</time></trkpt><trkpt lat="45.942572920660666" lon="8.964636734767577"><ele>290.0</ele><time>2026-04-23T16:24:13Z</time></trkpt><trkpt lat="45.942436471613135" lon="8.964561611090888"><ele>290.0</ele><time>2026-04-23T16:24:14Z</time></trkpt><trkpt lat="45.94230249441986" lon="8.964487848091064"><ele>290.0</ele><time>2026-04-23T16:24:15Z</time></trkpt><trkpt lat="45.942178902794545" lon="8.964419803140547"><ele>297.25</ele><time>2026-04-23T16:24:16Z</time></trkpt><trkpt lat="45.94206385212182" lon="8.96435878122045"><ele>304.5</ele><time>2026-04-23T16:24:17Z</time></trkpt><trkpt lat="45.94194069699648" lon="8.96431931722282"><ele>311.75</ele><time>2026-04-23T16:24:18Z</time></trkpt><trkpt lat="45.94182349579963" lon="8.964293664787787"><ele>319.0</ele><time>2026-04-23T16:24:19Z</time></trkpt><trkpt lat="45.94169994935783" lon="8.964281664073342"><ele>323.75</ele><time>2026-04-23T16:24:20Z</time></trkpt><trkpt lat="45.941557485357826" lon="8.964285403376197"><ele>328.5</ele><time>2026-04-23T16:24:21Z</time></trkpt><trkpt lat="45.94140433278431" lon="8.96430828367696"><ele>333.25</ele><time>2026-04-23T16:24:22Z</time></trkpt><trkpt lat="45.9412726100445" lon="8.964330371201871"><ele>338.0</ele><time>2026-04-23T16:24:23Z</time></trkpt><trkpt lat="45.941150624960564" lon="8.964350836222264"><ele>338.0</ele><time>2026-04-23T16:24:24Z</time></trkpt><trkpt lat="45.94103669525621" lon="8.964369949804345"><ele>338.0</ele><time>2026-04-23T16:24:25Z</time></trkpt><trkpt lat="45.94091982931765" lon="8.964389555989653"><ele>338.0</ele><time>2026-04-23T16:24:26Z</time></trkpt><trkpt lat="45.94080648608868" lon="8.964408571214383"><ele>338.0</ele><time>2026-04-23T16:24:27Z</time></trkpt><trkpt lat="45.94069941527391" lon="8.96442653412165"><ele>336.25</ele><time>2026-04-23T16:24:28Z</time></trkpt><trkpt lat="45.940595692174355" lon="8.964443935375861"><ele>334.5</ele><time>2026-04-23T16:24:29Z</time></trkpt><trkpt lat="45.94048209622928" lon="8.964463416903405"><ele>332.75</ele><time>2026-04-23T16:24:30Z</time></trkpt><trkpt lat="45.94036817042913" lon="8.964483422139677"><ele>331.0</ele><time>2026-04-23T16:24:31Z</time></trkpt><trkpt lat="45.94024940955374" lon="8.964513845489801"><ele>331.0</ele><time>2026-04-23T16:24:32Z</time></trkpt><trkpt lat="45.940136549273994" lon="8.964577593947649"><ele>331.0</ele><time>2026-04-23T16:24:33Z</time></trkpt><trkpt lat="45.940032694877566" lon="8.964656064336813"><ele>331.0</ele><time>2026-04-23T16:24:34Z</time></trkpt><trkpt lat="45.93991628407935" lon="8.964745030987498"><ele>331.0</ele><time>2026-04-23T16:24:35Z</time></trkpt><trkpt lat="45.939820194506176" lon="8.964858020330427"><ele>327.8</ele><time>2026-04-23T16:24:36Z</time></trkpt><trkpt lat="45.939753409624885" lon="8.965018076178056"><ele>324.6</ele><time>2026-04-23T16:24:37Z</time></trkpt><trkpt lat="45.9396917438521" lon="8.965171184989622"><ele>321.4</ele><time>2026-04-23T16:24:38Z</time></trkpt><trkpt lat="45.9396550021367" lon="8.965307099361974"><ele>318.2</ele><time>2026-04-23T16:24:39Z</time></trkpt><trkpt lat="45.93961735417606" lon="8.965430385168531"><ele>315.0</ele><time>2026-04-23T16:24:40Z</time></trkpt><trkpt lat="45.939544544601986" lon="8.965674323762354"><ele>315.0</ele><time>2026-04-23T16:24:41Z</time></trkpt><trkpt lat="45.939506927535135" lon="8.965840843703921"><ele>315.0</ele><time>2026-04-23T16:24:42Z</time></trkpt><trkpt lat="45.93946486025311" lon="8.965992070871817"><ele>315.0</ele><time>2026-04-23T16:24:43Z</time></trkpt><trkpt lat="45.93940756052749" lon="8.966124234329376"><ele>315.0</ele><time>2026-04-23T16:24:44Z</time></trkpt><trkpt lat="45.93936738394177" lon="8.966269687802408"><ele>312.2</ele><time>2026-04-23T16:24:45Z</time></trkpt><trkpt lat="45.939317445459416" lon="8.9664061619057"><ele>309.4</ele><time>2026-04-23T16:24:46Z</time></trkpt><trkpt lat="45.93925675941971" lon="8.966536723807165"><ele>306.6</ele><time>2026-04-23T16:24:47Z</time></trkpt><trkpt lat="45.939180283733315" lon="8.966670728550287"><ele>303.8</ele><time>2026-04-23T16:24:48Z</time></trkpt><trkpt lat="45.939116736991586" lon="8.966802198754603"><ele>301.0</ele><time>2026-04-23T16:24:49Z</time></trkpt><trkpt lat="45.93905658021717" lon="8.966941531338835"><ele>301.0</ele><time>2026-04-23T16:24:50Z</time></trkpt><trkpt lat="45.938993936980964" lon="8.967079009001237"><ele>301.0</ele><time>2026-04-23T16:24:51Z</time></trkpt><trkpt lat="45.938954056879105" lon="8.96723875748483"><ele>301.0</ele><time>2026-04-23T16:24:52Z</time></trkpt><trkpt lat="45.938915833429334" lon="8.967405810709213"><ele>301.0</ele><time>2026-04-23T16:24:53Z</time></trkpt><trkpt lat="45.938877154025896" lon="8.96757385523552"><ele>304.25</ele><time>2026-04-23T16:24:54Z</time></trkpt><trkpt lat="45.93883524281678" lon="8.967743198165104"><ele>307.5</ele><time>2026-04-23T16:24:55Z</time></trkpt><trkpt lat="45.93879257532775" lon="8.967907764060154"><ele>310.75</ele><time>2026-04-23T16:24:56Z</time></trkpt><trkpt lat="45.938714680832405" lon="8.968045806740548"><ele>314.0</ele><time>2026-04-23T16:24:57Z</time></trkpt><trkpt lat="45.93864108389274" lon="8.968178303679014"><ele>314.0</ele><time>2026-04-23T16:24:58Z</time></trkpt><trkpt lat="45.93855903424699" lon="8.96830515299246"><ele>314.0</ele><time>2026-04-23T16:24:59Z</time></trkpt><trkpt lat="45.93846754990778" lon="8.968423605928226"><ele>314.0</ele><time>2026-04-23T16:25:00Z</time></trkpt><trkpt lat="45.93837693670358" lon="8.968530623643689"><ele>314.0</ele><time>2026-04-23T16:25:01Z</time></trkpt><trkpt lat="45.93828565541423" lon="8.968639484151966"><ele>307.75</ele><time>2026-04-23T16:25:02Z</time></trkpt><trkpt lat="45.93819276425966" lon="8.968750264754373"><ele>301.5</ele><time>2026-04-23T16:25:03Z</time></trkpt><trkpt lat="45.93809829679635" lon="8.968862925172173"><ele>295.25</ele><time>2026-04-23T16:25:04Z</time></trkpt><trkpt lat="45.93800198586561" lon="8.968977784134973"><ele>289.0</ele><time>2026-04-23T16:25:05Z</time></trkpt><trkpt lat="45.937910696453926" lon="8.969086656101622"><ele>287.4</ele><time>2026-04-23T16:25:06Z</time></trkpt><trkpt lat="45.9378167305009" lon="8.969198718362284"><ele>285.79999999999995</ele><time>2026-04-23T16:25:07Z</time></trkpt><trkpt lat="45.93772989865364" lon="8.969302272723887"><ele>284.20000000000005</ele><time>2026-04-23T16:25:08Z</time></trkpt><trkpt lat="45.937649173150945" lon="8.969397447152236"><ele>282.6</ele><time>2026-04-23T16:25:09Z</time></trkpt><trkpt lat="45.937579652556224" lon="8.969472282745265"><ele>281.0</ele><time>2026-04-23T16:25:10Z</time></trkpt><trkpt lat="45.93752670287338" lon="8.969527627279016"><ele>281.0</ele><time>2026-04-23T16:25:11Z</time></trkpt><trkpt lat="45.937481003733836" lon="8.969599543523406"><ele>281.0</ele><time>2026-04-23T16:25:13Z</time></trkpt><trkpt lat="45.93738837514383" lon="8.969664874653164"><ele>281.0</ele><time>2026-04-23T16:25:16Z</time></trkpt><trkpt lat="45.93732775740679" lon="8.969710871597984"><ele>281.0</ele><time>2026-04-23T16:25:16.999Z</time></trkpt><trkpt lat="45.93726459314179" lon="8.969760435611903"><ele>281.0</ele><time>2026-04-23T16:25:17.999Z</time></trkpt><trkpt lat="45.93719646940435" lon="8.969810045206307"><ele>281.0</ele><time>2026-04-23T16:25:18.999Z</time></trkpt><trkpt lat="45.93711217727885" lon="8.969865036650726"><ele>281.0</ele><time>2026-04-23T16:25:19.999Z</time></trkpt><trkpt lat="45.93702648690881" lon="8.969918317213411"><ele>281.0</ele><time>2026-04-23T16:25:20.999Z</time></trkpt><trkpt lat="45.93692709947705" lon="8.969975072648296"><ele>281.0</ele><time>2026-04-23T16:25:21.999Z</time></trkpt><trkpt lat="45.936826288682084" lon="8.970027824929739"><ele>281.0</ele><time>2026-04-23T16:25:22.999Z</time></trkpt><trkpt lat="45.93672380556462" lon="8.970079312561856"><ele>281.0</ele><time>2026-04-23T16:25:23.999Z</time></trkpt><trkpt lat="45.93661283279131" lon="8.97013506536116"><ele>280.75</ele><time>2026-04-23T16:25:24.999Z</time></trkpt><trkpt lat="45.936501924652916" lon="8.970190785890889"><ele>280.5</ele><time>2026-04-23T16:25:25.999Z</time></trkpt><trkpt lat="45.93638764625553" lon="8.970248199554618"><ele>280.25</ele><time>2026-04-23T16:25:26.999Z</time></trkpt><trkpt lat="45.93627442967762" lon="8.970311564455722"><ele>280.0</ele><time>2026-04-23T16:25:27.999Z</time></trkpt><trkpt lat="45.936161065576314" lon="8.970369841829333"><ele>280.0</ele><time>2026-04-23T16:25:28.999Z</time></trkpt><trkpt lat="45.936050143366316" lon="8.970410527247564"><ele>280.0</ele><time>2026-04-23T16:25:29.999Z</time></trkpt><trkpt lat="45.93593695680065" lon="8.97044248737622"><ele>280.0</ele><time>2026-04-23T16:25:30.999Z</time></trkpt><trkpt lat="45.93583320826746" lon="8.970443041203064"><ele>280.0</ele><time>2026-04-23T16:25:31.999Z</time></trkpt><trkpt lat="45.9357337876915" lon="8.970428129570898"><ele>280.0</ele><time>2026-04-23T16:25:32.999Z</time></trkpt><trkpt lat="45.935623508574025" lon="8.970401704137311"><ele>279.75</ele><time>2026-04-23T16:25:33.999Z</time></trkpt><trkpt lat="45.93549696238097" lon="8.970371351635162"><ele>279.5</ele><time>2026-04-23T16:25:34.999Z</time></trkpt><trkpt lat="45.9353843383334" lon="8.970351788449424"><ele>279.25</ele><time>2026-04-23T16:25:35.999Z</time></trkpt><trkpt lat="45.935258474863396" lon="8.970364453545706"><ele>279.0</ele><time>2026-04-23T16:25:36.999Z</time></trkpt><trkpt lat="45.93513780759801" lon="8.970411256677627"><ele>279.25</ele><time>2026-04-23T16:25:37.999Z</time></trkpt><trkpt lat="45.93502559580275" lon="8.97045802510605"><ele>279.5</ele><time>2026-04-23T16:25:38.999Z</time></trkpt><trkpt lat="45.93491019562818" lon="8.970506122480971"><ele>279.75</ele><time>2026-04-23T16:25:39.999Z</time></trkpt><trkpt lat="45.93479563554916" lon="8.970555445757286"><ele>280.0</ele><time>2026-04-23T16:25:40.999Z</time></trkpt><trkpt lat="45.93468277812579" lon="8.970604667954692"><ele>280.0</ele><time>2026-04-23T16:25:41.999Z</time></trkpt><trkpt lat="45.93456735851548" lon="8.970655007688451"><ele>280.0</ele><time>2026-04-23T16:25:42.999Z</time></trkpt><trkpt lat="45.93445180741405" lon="8.970713423993795"><ele>280.0</ele><time>2026-04-23T16:25:43.999Z</time></trkpt><trkpt lat="45.93434472383963" lon="8.970783219817307"><ele>280.0</ele><time>2026-04-23T16:25:44.999Z</time></trkpt><trkpt lat="45.93423766846831" lon="8.97086565811386"><ele>280.25</ele><time>2026-04-23T16:25:45.999Z</time></trkpt><trkpt lat="45.93413607327731" lon="8.970958007327283"><ele>280.5</ele><time>2026-04-23T16:25:46.999Z</time></trkpt><trkpt lat="45.934035656273245" lon="8.971057353231132"><ele>280.75</ele><time>2026-04-23T16:25:47.999Z</time></trkpt><trkpt lat="45.933944426313055" lon="8.971175317973591"><ele>281.0</ele><time>2026-04-23T16:25:48.999Z</time></trkpt><trkpt lat="45.9338545164476" lon="8.971303470584967"><ele>281.0</ele><time>2026-04-23T16:25:49.999Z</time></trkpt><trkpt lat="45.933777639376686" lon="8.971440779380949"><ele>281.0</ele><time>2026-04-23T16:25:50.999Z</time></trkpt><trkpt lat="45.93368060404273" lon="8.971559038211188"><ele>281.0</ele><time>2026-04-23T16:25:51.999Z</time></trkpt><trkpt lat="45.93359431705628" lon="8.971685382316798"><ele>281.0</ele><time>2026-04-23T16:25:52.999Z</time></trkpt><trkpt lat="45.93352803201874" lon="8.9718354987158"><ele>281.0</ele><time>2026-04-23T16:25:53.999Z</time></trkpt><trkpt lat="45.933439486404" lon="8.971963485182883"><ele>281.0</ele><time>2026-04-23T16:25:54.999Z</time></trkpt><trkpt lat="45.933356822749545" lon="8.972088993067025"><ele>281.0</ele><time>2026-04-23T16:25:55.999Z</time></trkpt><trkpt lat="45.93327310528526" lon="8.972215045427365"><ele>281.0</ele><time>2026-04-23T16:25:56.999Z</time></trkpt><trkpt lat="45.933189025716835" lon="8.972345765065706"><ele>281.0</ele><time>2026-04-23T16:25:57.999Z</time></trkpt><trkpt lat="45.93310054692841" lon="8.97247149130784"><ele>281.0</ele><time>2026-04-23T16:25:58.999Z</time></trkpt><trkpt lat="45.9330193588988" lon="8.972609571437786"><ele>281.0</ele><time>2026-04-23T16:25:59.999Z</time></trkpt><trkpt lat="45.932938265917464" lon="8.972741063412881"><ele>281.0</ele><time>2026-04-23T16:26:00.999Z</time></trkpt><trkpt lat="45.932858464232275" lon="8.972869867036067"><ele>281.0</ele><time>2026-04-23T16:26:01.999Z</time></trkpt><trkpt lat="45.93279263412801" lon="8.972996662986136"><ele>281.0</ele><time>2026-04-23T16:26:02.999Z</time></trkpt><trkpt lat="45.93272393582503" lon="8.973096058446055"><ele>281.0</ele><time>2026-04-23T16:26:03.999Z</time></trkpt><trkpt lat="45.93265013007992" lon="8.973206962673451"><ele>281.0</ele><time>2026-04-23T16:26:04.999Z</time></trkpt><trkpt lat="45.93251768650271" lon="8.973425292719433"><ele>280.75</ele><time>2026-04-23T16:26:05.999Z</time></trkpt><trkpt lat="45.93242030971905" lon="8.973574280600934"><ele>280.5</ele><time>2026-04-23T16:26:07Z</time></trkpt><trkpt lat="45.93232902014565" lon="8.97371020180806"><ele>280.25</ele><time>2026-04-23T16:26:08Z</time></trkpt><trkpt lat="45.93221916482598" lon="8.973781570623071"><ele>280.0</ele><time>2026-04-23T16:26:09Z</time></trkpt><trkpt lat="45.932178042482825" lon="8.97395732435606"><ele>280.0</ele><time>2026-04-23T16:26:10Z</time></trkpt><trkpt lat="45.93210471156992" lon="8.974086576526995"><ele>280.0</ele><time>2026-04-23T16:26:11Z</time></trkpt><trkpt lat="45.93202492048442" lon="8.974207339851546"><ele>280.0</ele><time>2026-04-23T16:26:12Z</time></trkpt><trkpt lat="45.93194912448767" lon="8.974322489414018"><ele>280.0</ele><time>2026-04-23T16:26:13Z</time></trkpt><trkpt lat="45.93187495188306" lon="8.974445208234878"><ele>280.0</ele><time>2026-04-23T16:26:14Z</time></trkpt><trkpt lat="45.931754864949035" lon="8.974503746858568"><ele>280.0</ele><time>2026-04-23T16:26:15Z</time></trkpt><trkpt lat="45.93168149382195" lon="8.974620225575746"><ele>280.0</ele><time>2026-04-23T16:26:16Z</time></trkpt><trkpt lat="45.93160267365214" lon="8.974742053474248"><ele>280.0</ele><time>2026-04-23T16:26:17Z</time></trkpt><trkpt lat="45.931525355355674" lon="8.974860867496469"><ele>280.0</ele><time>2026-04-23T16:26:18Z</time></trkpt><trkpt lat="45.931445055601735" lon="8.974985972679399"><ele>280.0</ele><time>2026-04-23T16:26:19Z</time></trkpt><trkpt lat="45.93136649835577" lon="8.97510930232864"><ele>280.0</ele><time>2026-04-23T16:26:20Z</time></trkpt><trkpt lat="45.931282361121724" lon="8.975237688643753"><ele>280.0</ele><time>2026-04-23T16:26:21Z</time></trkpt><trkpt lat="45.93119522391283" lon="8.975367777643864"><ele>280.0</ele><time>2026-04-23T16:26:22Z</time></trkpt><trkpt lat="45.93111114853864" lon="8.975491789030336"><ele>280.0</ele><time>2026-04-23T16:26:23Z</time></trkpt><trkpt lat="45.931035531807034" lon="8.975603078451547"><ele>280.0</ele><time>2026-04-23T16:26:24Z</time></trkpt><trkpt lat="45.93093347287058" lon="8.975751956849027"><ele>280.0</ele><time>2026-04-23T16:26:25Z</time></trkpt><trkpt lat="45.93084037543228" lon="8.975888537742712"><ele>280.5</ele><time>2026-04-23T16:26:26Z</time></trkpt><trkpt lat="45.93074895456685" lon="8.976023383529641"><ele>281.0</ele><time>2026-04-23T16:26:27Z</time></trkpt><trkpt lat="45.93063921911257" lon="8.976188793966728"><ele>281.5</ele><time>2026-04-23T16:26:28Z</time></trkpt><trkpt lat="45.93057305033161" lon="8.976289659524726"><ele>282.0</ele><time>2026-04-23T16:26:29Z</time></trkpt><trkpt lat="45.930487398179544" lon="8.976422345195152"><ele>282.0</ele><time>2026-04-23T16:26:30Z</time></trkpt><trkpt lat="45.930392328524036" lon="8.976564456102377"><ele>282.0</ele><time>2026-04-23T16:26:31Z</time></trkpt><trkpt lat="45.93029645676197" lon="8.976707972340797"><ele>282.0</ele><time>2026-04-23T16:26:32Z</time></trkpt><trkpt lat="45.930198059275455" lon="8.976847662922603"><ele>282.0</ele><time>2026-04-23T16:26:33Z</time></trkpt><trkpt lat="45.93010252105226" lon="8.976981033230677"><ele>282.5</ele><time>2026-04-23T16:26:34Z</time></trkpt><trkpt lat="45.93000092407735" lon="8.97711071304813"><ele>283.0</ele><time>2026-04-23T16:26:35Z</time></trkpt><trkpt lat="45.929911805484764" lon="8.977223139292763"><ele>283.5</ele><time>2026-04-23T16:26:36Z</time></trkpt><trkpt lat="45.92981680436848" lon="8.977354173938586"><ele>284.0</ele><time>2026-04-23T16:26:37Z</time></trkpt><trkpt lat="45.9296762987311" lon="8.977425894590514"><ele>288.33333333333337</ele><time>2026-04-23T16:26:38.019Z</time></trkpt><trkpt lat="45.9295650126329" lon="8.977537708598328"><ele>292.6666666666667</ele><time>2026-04-23T16:26:39.023Z</time></trkpt><trkpt lat="45.92944781715127" lon="8.97765747099605"><ele>297.0</ele><time>2026-04-23T16:26:40.03Z</time></trkpt><trkpt lat="45.92927061162797" lon="8.97792997663146"><ele>294.6666666666667</ele><time>2026-04-23T16:26:41Z</time></trkpt><trkpt lat="45.92917563475213" lon="8.978098123726227"><ele>292.33333333333337</ele><time>2026-04-23T16:26:42Z</time></trkpt><trkpt lat="45.929058407725144" lon="8.978252732447757"><ele>290.0</ele><time>2026-04-23T16:26:43Z</time></trkpt><trkpt lat="45.92893766241132" lon="8.978405705727264"><ele>290.0</ele><time>2026-04-23T16:26:44Z</time></trkpt><trkpt lat="45.92880909211655" lon="8.978523431571292"><ele>290.0</ele><time>2026-04-23T16:26:45Z</time></trkpt><trkpt lat="45.92868428143201" lon="8.97866461984824"><ele>290.0</ele><time>2026-04-23T16:26:46Z</time></trkpt><trkpt lat="45.9285634795627" lon="8.978801273382533"><ele>290.0</ele><time>2026-04-23T16:26:47Z</time></trkpt><trkpt lat="45.928458677148654" lon="8.978919827981496"><ele>290.0</ele><time>2026-04-23T16:26:48Z</time></trkpt><trkpt lat="45.92836337995793" lon="8.979027630016017"><ele>290.0</ele><time>2026-04-23T16:26:49Z</time></trkpt><trkpt lat="45.92827129135462" lon="8.979132252213113"><ele>290.0</ele><time>2026-04-23T16:26:50Z</time></trkpt><trkpt lat="45.92818511396727" lon="8.97923018216077"><ele>289.0</ele><time>2026-04-23T16:26:51Z</time></trkpt><trkpt lat="45.92809620520001" lon="8.979331430191012"><ele>288.0</ele><time>2026-04-23T16:26:52Z</time></trkpt><trkpt lat="45.92800285212539" lon="8.979437739414513"><ele>287.0</ele><time>2026-04-23T16:26:53Z</time></trkpt><trkpt lat="45.927898914361904" lon="8.97955610246355"><ele>286.0</ele><time>2026-04-23T16:26:54Z</time></trkpt><trkpt lat="45.92780073833889" lon="8.97966969863888"><ele>286.0</ele><time>2026-04-23T16:26:55Z</time></trkpt><trkpt lat="45.92770622629665" lon="8.979779985130676"><ele>286.0</ele><time>2026-04-23T16:26:56Z</time></trkpt><trkpt lat="45.92762054541991" lon="8.979908561388909"><ele>286.0</ele><time>2026-04-23T16:26:57Z</time></trkpt><trkpt lat="45.92751631201092" lon="8.980001596765048"><ele>286.0</ele><time>2026-04-23T16:26:58Z</time></trkpt><trkpt lat="45.927426841766426" lon="8.980104215547929"><ele>286.6</ele><time>2026-04-23T16:26:59Z</time></trkpt><trkpt lat="45.927338347335514" lon="8.980204379128299"><ele>287.20000000000005</ele><time>2026-04-23T16:27:00Z</time></trkpt><trkpt lat="45.92725105700594" lon="8.980303379892007"><ele>287.79999999999995</ele><time>2026-04-23T16:27:01Z</time></trkpt><trkpt lat="45.92716541968865" lon="8.980401160460834"><ele>288.4</ele><time>2026-04-23T16:27:02Z</time></trkpt><trkpt lat="45.92707603164503" lon="8.980503170420928"><ele>289.0</ele><time>2026-04-23T16:27:03Z</time></trkpt><trkpt lat="45.92698730312323" lon="8.980604427713411"><ele>289.0</ele><time>2026-04-23T16:27:04Z</time></trkpt><trkpt lat="45.92689439601341" lon="8.980710453547674"><ele>289.0</ele><time>2026-04-23T16:27:05Z</time></trkpt><trkpt lat="45.926802930106774" lon="8.980814834796709"><ele>289.0</ele><time>2026-04-23T16:27:05.999Z</time></trkpt><trkpt lat="45.926707736999326" lon="8.980923469510158"><ele>289.0</ele><time>2026-04-23T16:27:06.999Z</time></trkpt><trkpt lat="45.92661956809112" lon="8.98102397822845"><ele>289.25</ele><time>2026-04-23T16:27:07.999Z</time></trkpt><trkpt lat="45.92652845710006" lon="8.981127808358476"><ele>289.5</ele><time>2026-04-23T16:27:08.999Z</time></trkpt><trkpt lat="45.92644030505297" lon="8.981228266611785"><ele>289.75</ele><time>2026-04-23T16:27:09.999Z</time></trkpt><trkpt lat="45.92634866643038" lon="8.981332697949206"><ele>290.0</ele><time>2026-04-23T16:27:10.999Z</time></trkpt><trkpt lat="45.92626295748824" lon="8.981430372007019"><ele>290.0</ele><time>2026-04-23T16:27:11.999Z</time></trkpt><trkpt lat="45.92617433907223" lon="8.981531361508603"><ele>290.0</ele><time>2026-04-23T16:27:12.999Z</time></trkpt><trkpt lat="45.92609261446909" lon="8.981624353839432"><ele>290.0</ele><time>2026-04-23T16:27:13.999Z</time></trkpt><trkpt lat="45.926009649912714" lon="8.981718303215901"><ele>290.0</ele><time>2026-04-23T16:27:14.999Z</time></trkpt><trkpt lat="45.92592355236583" lon="8.981819143181156"><ele>290.0</ele><time>2026-04-23T16:27:15.999Z</time></trkpt><trkpt lat="45.92583539738367" lon="8.981928308739265"><ele>289.75</ele><time>2026-04-23T16:27:16.999Z</time></trkpt><trkpt lat="45.92574390194637" lon="8.982030801350886"><ele>289.5</ele><time>2026-04-23T16:27:17.999Z</time></trkpt><trkpt lat="45.925651010805616" lon="8.98212929422959"><ele>289.25</ele><time>2026-04-23T16:27:18.999Z</time></trkpt><trkpt lat="45.92555704271182" lon="8.982232019686537"><ele>289.0</ele><time>2026-04-23T16:27:19.999Z</time></trkpt><trkpt lat="45.925463726960565" lon="8.982335271593255"><ele>289.0</ele><time>2026-04-23T16:27:20.999Z</time></trkpt><trkpt lat="45.92536785166267" lon="8.982441992687507"><ele>289.0</ele><time>2026-04-23T16:27:21.999Z</time></trkpt><trkpt lat="45.92527281516381" lon="8.982547678620438"><ele>289.0</ele><time>2026-04-23T16:27:22.999Z</time></trkpt><trkpt lat="45.92517588203256" lon="8.982654845880703"><ele>289.0</ele><time>2026-04-23T16:27:23.999Z</time></trkpt><trkpt lat="45.92507832597745" lon="8.982762294625179"><ele>289.0</ele><time>2026-04-23T16:27:24.999Z</time></trkpt><trkpt lat="45.92498152559536" lon="8.982868911037627"><ele>289.0</ele><time>2026-04-23T16:27:25.999Z</time></trkpt><trkpt lat="45.924884823148616" lon="8.982975419621397"><ele>289.0</ele><time>2026-04-23T16:27:26.999Z</time></trkpt><trkpt lat="45.924789587872134" lon="8.983085538196292"><ele>289.0</ele><time>2026-04-23T16:27:27.999Z</time></trkpt><trkpt lat="45.92470528942486" lon="8.983185611258135"><ele>289.0</ele><time>2026-04-23T16:27:28.999Z</time></trkpt><trkpt lat="45.92461903452334" lon="8.983284893502004"><ele>289.0</ele><time>2026-04-23T16:27:29.999Z</time></trkpt><trkpt lat="45.92452564397668" lon="8.983388949589946"><ele>289.0</ele><time>2026-04-23T16:27:30.999Z</time></trkpt><trkpt lat="45.92443385244042" lon="8.983487447908415"><ele>289.0</ele><time>2026-04-23T16:27:31.999Z</time></trkpt><trkpt lat="45.92433714425899" lon="8.983590162824674"><ele>288.5</ele><time>2026-04-23T16:27:32.999Z</time></trkpt><trkpt lat="45.92422678445004" lon="8.983707382166475"><ele>288.0</ele><time>2026-04-23T16:27:33.999Z</time></trkpt><trkpt lat="45.9241215229754" lon="8.983826959325954"><ele>287.5</ele><time>2026-04-23T16:27:34.999Z</time></trkpt><trkpt lat="45.92402351545467" lon="8.98393562941558"><ele>287.0</ele><time>2026-04-23T16:27:35.999Z</time></trkpt><trkpt lat="45.923929565630374" lon="8.984029734233612"><ele>287.0</ele><time>2026-04-23T16:27:36.999Z</time></trkpt><trkpt lat="45.923835136159525" lon="8.984111175625857"><ele>287.0</ele><time>2026-04-23T16:27:37.999Z</time></trkpt><trkpt lat="45.923727394809646" lon="8.984195323175765"><ele>287.0</ele><time>2026-04-23T16:27:38.999Z</time></trkpt><trkpt lat="45.92362038291462" lon="8.98426887197007"><ele>287.0</ele><time>2026-04-23T16:27:39.999Z</time></trkpt><trkpt lat="45.92350675118434" lon="8.98433979502904"><ele>286.75</ele><time>2026-04-23T16:27:40.999Z</time></trkpt><trkpt lat="45.923396405097535" lon="8.984404061200516"><ele>286.5</ele><time>2026-04-23T16:27:41.999Z</time></trkpt><trkpt lat="45.923287225369656" lon="8.98446019057685"><ele>286.25</ele><time>2026-04-23T16:27:42.999Z</time></trkpt><trkpt lat="45.92317547572784" lon="8.984507170731304"><ele>286.0</ele><time>2026-04-23T16:27:43.999Z</time></trkpt><trkpt lat="45.923058761930676" lon="8.984548692442523"><ele>286.0</ele><time>2026-04-23T16:27:44.999Z</time></trkpt><trkpt lat="45.922943008072615" lon="8.984583315446486"><ele>286.0</ele><time>2026-04-23T16:27:45.999Z</time></trkpt><trkpt lat="45.92282161203699" lon="8.984608416786774"><ele>286.0</ele><time>2026-04-23T16:27:46.999Z</time></trkpt><trkpt lat="45.92269181326696" lon="8.984628407668053"><ele>286.0</ele><time>2026-04-23T16:27:47.999Z</time></trkpt><trkpt lat="45.92257236619833" lon="8.9846444664858"><ele>286.25</ele><time>2026-04-23T16:27:48.999Z</time></trkpt><trkpt lat="45.9224581817651" lon="8.984659329677916"><ele>286.5</ele><time>2026-04-23T16:27:49.999Z</time></trkpt><trkpt lat="45.92233625870199" lon="8.984675200254264"><ele>286.75</ele><time>2026-04-23T16:27:50.999Z</time></trkpt><trkpt lat="45.92220963678385" lon="8.984692997606446"><ele>287.0</ele><time>2026-04-23T16:27:51.999Z</time></trkpt><trkpt lat="45.92208259574692" lon="8.984712000652214"><ele>287.0</ele><time>2026-04-23T16:27:52.999Z</time></trkpt><trkpt lat="45.92195990973155" lon="8.98473035226653"><ele>287.0</ele><time>2026-04-23T16:27:53.999Z</time></trkpt><trkpt lat="45.92183753518216" lon="8.984742092104385"><ele>287.0</ele><time>2026-04-23T16:27:54.999Z</time></trkpt><trkpt lat="45.92171072678498" lon="8.984758777900968"><ele>287.0</ele><time>2026-04-23T16:27:55.999Z</time></trkpt><trkpt lat="45.921587334570425" lon="8.984775582868979"><ele>287.0</ele><time>2026-04-23T16:27:56.999Z</time></trkpt><trkpt lat="45.921469723217946" lon="8.984790876568823"><ele>287.0</ele><time>2026-04-23T16:27:57.999Z</time></trkpt><trkpt lat="45.92134361735844" lon="8.984807293207526"><ele>287.0</ele><time>2026-04-23T16:27:58.999Z</time></trkpt><trkpt lat="45.92121182830613" lon="8.984824449681392"><ele>287.0</ele><time>2026-04-23T16:27:59.999Z</time></trkpt><trkpt lat="45.92108540215289" lon="8.984840932876086"><ele>287.0</ele><time>2026-04-23T16:28:00.999Z</time></trkpt><trkpt lat="45.920962939249584" lon="8.984856908700909"><ele>287.0</ele><time>2026-04-23T16:28:01.999Z</time></trkpt><trkpt lat="45.920835704063286" lon="8.984873507101577"><ele>287.0</ele><time>2026-04-23T16:28:02.999Z</time></trkpt><trkpt lat="45.92070878291767" lon="8.984890064349244"><ele>287.0</ele><time>2026-04-23T16:28:03.999Z</time></trkpt><trkpt lat="45.92058037793263" lon="8.984907564953042"><ele>286.25</ele><time>2026-04-23T16:28:04.999Z</time></trkpt><trkpt lat="45.920449602637284" lon="8.98492484002183"><ele>285.5</ele><time>2026-04-23T16:28:05.999Z</time></trkpt><trkpt lat="45.92032716200558" lon="8.9849410141151"><ele>284.75</ele><time>2026-04-23T16:28:06.999Z</time></trkpt><trkpt lat="45.92021005456132" lon="8.984956483697013"><ele>284.0</ele><time>2026-04-23T16:28:07.999Z</time></trkpt><trkpt lat="45.92009882856585" lon="8.984971176323594"><ele>284.75</ele><time>2026-04-23T16:28:08.999Z</time></trkpt><trkpt lat="45.919985585227316" lon="8.985024187466806"><ele>285.5</ele><time>2026-04-23T16:28:09.999Z</time></trkpt><trkpt lat="45.91987548883224" lon="8.985053516404065"><ele>286.25</ele><time>2026-04-23T16:28:10.999Z</time></trkpt><trkpt lat="45.9197600280399" lon="8.985073250348485"><ele>287.0</ele><time>2026-04-23T16:28:11.999Z</time></trkpt><trkpt lat="45.919644600345045" lon="8.985111773664357"><ele>287.0</ele><time>2026-04-23T16:28:13Z</time></trkpt><trkpt lat="45.91953127244692" lon="8.985047861172829"><ele>287.0</ele><time>2026-04-23T16:28:14Z</time></trkpt><trkpt lat="45.919426236329166" lon="8.985061268450645"><ele>287.0</ele><time>2026-04-23T16:28:15Z</time></trkpt><trkpt lat="45.91931071361607" lon="8.985077007112881"><ele>287.0</ele><time>2026-04-23T16:28:16Z</time></trkpt><trkpt lat="45.9192002750331" lon="8.985093145727399"><ele>287.0</ele><time>2026-04-23T16:28:17Z</time></trkpt><trkpt lat="45.91908365373029" lon="8.985108223332476"><ele>287.0</ele><time>2026-04-23T16:28:18Z</time></trkpt><trkpt lat="45.918964695949356" lon="8.985123673212803"><ele>287.0</ele><time>2026-04-23T16:28:19Z</time></trkpt><trkpt lat="45.91884809668199" lon="8.985139287204252"><ele>287.0</ele><time>2026-04-23T16:28:20Z</time></trkpt><trkpt lat="45.91873409708525" lon="8.985154553059445"><ele>287.0</ele><time>2026-04-23T16:28:21Z</time></trkpt><trkpt lat="45.91862274202468" lon="8.98516946691671"><ele>287.0</ele><time>2026-04-23T16:28:22Z</time></trkpt><trkpt lat="45.918503080718" lon="8.985185490944671"><ele>287.0</ele><time>2026-04-23T16:28:23Z</time></trkpt><trkpt lat="45.91838243122201" lon="8.985201647298327"><ele>287.0</ele><time>2026-04-23T16:28:24Z</time></trkpt><trkpt lat="45.91826430445308" lon="8.985217465850567"><ele>288.0</ele><time>2026-04-23T16:28:25Z</time></trkpt><trkpt lat="45.91814954209608" lon="8.985232833868185"><ele>289.0</ele><time>2026-04-23T16:28:26Z</time></trkpt><trkpt lat="45.91803150621898" lon="8.985247314330563"><ele>290.0</ele><time>2026-04-23T16:28:27Z</time></trkpt><trkpt lat="45.917915958058174" lon="8.98526123253543"><ele>291.0</ele><time>2026-04-23T16:28:28Z</time></trkpt><trkpt lat="45.917795941938756" lon="8.985275085522176"><ele>291.0</ele><time>2026-04-23T16:28:29Z</time></trkpt><trkpt lat="45.91767537149494" lon="8.985286542611425"><ele>291.0</ele><time>2026-04-23T16:28:30Z</time></trkpt><trkpt lat="45.91755069195642" lon="8.985285781380282"><ele>291.0</ele><time>2026-04-23T16:28:31Z</time></trkpt><trkpt lat="45.91742623134768" lon="8.985281439725787"><ele>291.0</ele><time>2026-04-23T16:28:32Z</time></trkpt><trkpt lat="45.91730858927241" lon="8.985271819778566"><ele>291.75</ele><time>2026-04-23T16:28:33Z</time></trkpt><trkpt lat="45.91718680336196" lon="8.98525206319821"><ele>292.5</ele><time>2026-04-23T16:28:34Z</time></trkpt><trkpt lat="45.91706846072199" lon="8.985222140217775"><ele>293.25</ele><time>2026-04-23T16:28:35Z</time></trkpt><trkpt lat="45.916956692464815" lon="8.985183636103065"><ele>294.0</ele><time>2026-04-23T16:28:36Z</time></trkpt><trkpt lat="45.91684332674675" lon="8.985133567503828"><ele>294.0</ele><time>2026-04-23T16:28:37Z</time></trkpt><trkpt lat="45.91673878358417" lon="8.985061794775643"><ele>294.0</ele><time>2026-04-23T16:28:38Z</time></trkpt><trkpt lat="45.91663733634381" lon="8.984988959095645"><ele>294.0</ele><time>2026-04-23T16:28:39Z</time></trkpt><trkpt lat="45.91653782330201" lon="8.984917195194173"><ele>294.0</ele><time>2026-04-23T16:28:40Z</time></trkpt><trkpt lat="45.91641016410903" lon="8.984819618460307"><ele>291.25</ele><time>2026-04-23T16:28:41Z</time></trkpt><trkpt lat="45.91627919494397" lon="8.984709683014707"><ele>288.5</ele><time>2026-04-23T16:28:42Z</time></trkpt><trkpt lat="45.91616275621903" lon="8.984613904329986"><ele>285.75</ele><time>2026-04-23T16:28:43Z</time></trkpt><trkpt lat="45.91604880184767" lon="8.984522355689263"><ele>283.0</ele><time>2026-04-23T16:28:44Z</time></trkpt><trkpt lat="45.915938686360626" lon="8.984441882979233"><ele>285.5</ele><time>2026-04-23T16:28:45Z</time></trkpt><trkpt lat="45.91581876693618" lon="8.984371916578874"><ele>288.0</ele><time>2026-04-23T16:28:46Z</time></trkpt><trkpt lat="45.91569892887176" lon="8.984322095436788"><ele>290.5</ele><time>2026-04-23T16:28:47Z</time></trkpt><trkpt lat="45.91556814279761" lon="8.984292305635933"><ele>293.0</ele><time>2026-04-23T16:28:48Z</time></trkpt><trkpt lat="45.915427046569185" lon="8.984278534142128"><ele>293.0</ele><time>2026-04-23T16:28:49Z</time></trkpt><trkpt lat="45.91529067353627" lon="8.984274573603125"><ele>293.0</ele><time>2026-04-23T16:28:50Z</time></trkpt><trkpt lat="45.91515746312281" lon="8.984272137255685"><ele>293.0</ele><time>2026-04-23T16:28:51Z</time></trkpt><trkpt lat="45.91502378062897" lon="8.984270054163652"><ele>293.0</ele><time>2026-04-23T16:28:52Z</time></trkpt><trkpt lat="45.9148894017632" lon="8.984268240463186"><ele>294.75</ele><time>2026-04-23T16:28:53Z</time></trkpt><trkpt lat="45.914759741181065" lon="8.984266554127421"><ele>296.5</ele><time>2026-04-23T16:28:54Z</time></trkpt><trkpt lat="45.9146359608903" lon="8.984264944267341"><ele>298.25</ele><time>2026-04-23T16:28:55Z</time></trkpt><trkpt lat="45.91451759481338" lon="8.98426198962452"><ele>300.0</ele><time>2026-04-23T16:28:56Z</time></trkpt><trkpt lat="45.91439784387439" lon="8.984256427066784"><ele>300.0</ele><time>2026-04-23T16:28:57Z</time></trkpt><trkpt lat="45.91427756581853" lon="8.984246135916083"><ele>300.0</ele><time>2026-04-23T16:28:58Z</time></trkpt><trkpt lat="45.91415690219541" lon="8.984280760719718"><ele>300.0</ele><time>2026-04-23T16:28:59Z</time></trkpt><trkpt lat="45.91403086793812" lon="8.984265039997295"><ele>300.0</ele><time>2026-04-23T16:29:00Z</time></trkpt><trkpt lat="45.9138997754326" lon="8.984233660958779"><ele>300.75</ele><time>2026-04-23T16:29:01Z</time></trkpt><trkpt lat="45.91376349266401" lon="8.984200064389015"><ele>301.5</ele><time>2026-04-23T16:29:02Z</time></trkpt><trkpt lat="45.913636869413466" lon="8.9841061472444"><ele>302.25</ele><time>2026-04-23T16:29:03Z</time></trkpt><trkpt lat="45.91350600490253" lon="8.98406070990964"><ele>303.0</ele><time>2026-04-23T16:29:03.999Z</time></trkpt><trkpt lat="45.9133736460738" lon="8.984007635740168"><ele>298.25</ele><time>2026-04-23T16:29:04.999Z</time></trkpt><trkpt lat="45.91324419008832" lon="8.983949834092423"><ele>293.5</ele><time>2026-04-23T16:29:05.999Z</time></trkpt><trkpt lat="45.913126786819724" lon="8.983892050912159"><ele>288.75</ele><time>2026-04-23T16:29:06.999Z</time></trkpt><trkpt lat="45.913008882563474" lon="8.98382825871757"><ele>284.0</ele><time>2026-04-23T16:29:07.999Z</time></trkpt><trkpt lat="45.91289823753888" lon="8.983762185488564"><ele>284.0</ele><time>2026-04-23T16:29:08.999Z</time></trkpt><trkpt lat="45.91278073074879" lon="8.983690679245747"><ele>284.0</ele><time>2026-04-23T16:29:09.999Z</time></trkpt><trkpt lat="45.912672888881076" lon="8.983622290164014"><ele>284.0</ele><time>2026-04-23T16:29:10.999Z</time></trkpt><trkpt lat="45.91256282986657" lon="8.983552112079913"><ele>284.0</ele><time>2026-04-23T16:29:11.999Z</time></trkpt><trkpt lat="45.91244741375658" lon="8.983478518195165"><ele>282.75</ele><time>2026-04-23T16:29:12.999Z</time></trkpt><trkpt lat="45.91233081773982" lon="8.98343828460997"><ele>281.5</ele><time>2026-04-23T16:29:13.999Z</time></trkpt><trkpt lat="45.91221926691431" lon="8.983371224036516"><ele>280.25</ele><time>2026-04-23T16:29:14.999Z</time></trkpt><trkpt lat="45.91210666477428" lon="8.983300889966326"><ele>279.0</ele><time>2026-04-23T16:29:15.999Z</time></trkpt><trkpt lat="45.91199086146516" lon="8.983227324593045"><ele>279.0</ele><time>2026-04-23T16:29:16.999Z</time></trkpt><trkpt lat="45.911891996037006" lon="8.983124624960265"><ele>279.0</ele><time>2026-04-23T16:29:17.999Z</time></trkpt><trkpt lat="45.9117827976489" lon="8.983054413078015"><ele>279.0</ele><time>2026-04-23T16:29:18.999Z</time></trkpt><trkpt lat="45.91167185679335" lon="8.982983080870818"><ele>279.0</ele><time>2026-04-23T16:29:19.999Z</time></trkpt><trkpt lat="45.9115645193478" lon="8.982914065586062"><ele>280.75</ele><time>2026-04-23T16:29:20.999Z</time></trkpt><trkpt lat="45.911450922391786" lon="8.982846652303488"><ele>282.5</ele><time>2026-04-23T16:29:21.999Z</time></trkpt><trkpt lat="45.9113421663519" lon="8.982785434488886"><ele>284.25</ele><time>2026-04-23T16:29:22.999Z</time></trkpt><trkpt lat="45.91122778525025" lon="8.982730721063726"><ele>286.0</ele><time>2026-04-23T16:29:23.999Z</time></trkpt><trkpt lat="45.91110980232" lon="8.98268152861889"><ele>286.0</ele><time>2026-04-23T16:29:24.999Z</time></trkpt><trkpt lat="45.91099060719969" lon="8.982639429512684"><ele>286.0</ele><time>2026-04-23T16:29:25.999Z</time></trkpt><trkpt lat="45.910867736047365" lon="8.98260398040429"><ele>286.0</ele><time>2026-04-23T16:29:26.999Z</time></trkpt><trkpt lat="45.91074984339397" lon="8.982577942604333"><ele>286.0</ele><time>2026-04-23T16:29:27.999Z</time></trkpt><trkpt lat="45.91063650386628" lon="8.982554382266867"><ele>287.5</ele><time>2026-04-23T16:29:28.999Z</time></trkpt><trkpt lat="45.910515817373195" lon="8.982539926328151"><ele>289.0</ele><time>2026-04-23T16:29:29.999Z</time></trkpt><trkpt lat="45.91039426360378" lon="8.982531444556871"><ele>290.5</ele><time>2026-04-23T16:29:30.999Z</time></trkpt><trkpt lat="45.910274473616525" lon="8.982529092569258"><ele>292.0</ele><time>2026-04-23T16:29:31.999Z</time></trkpt><trkpt lat="45.91015291920542" lon="8.982587361699911"><ele>293.25</ele><time>2026-04-23T16:29:32.999Z</time></trkpt><trkpt lat="45.910030248358595" lon="8.982596926008616"><ele>294.5</ele><time>2026-04-23T16:29:33.999Z</time></trkpt><trkpt lat="45.90991025739753" lon="8.982601873597828"><ele>295.75</ele><time>2026-04-23T16:29:34.999Z</time></trkpt><trkpt lat="45.90978600109651" lon="8.982604007499969"><ele>297.0</ele><time>2026-04-23T16:29:35.999Z</time></trkpt><trkpt lat="45.90966261907941" lon="8.982600093330788"><ele>297.0</ele><time>2026-04-23T16:29:36.999Z</time></trkpt><trkpt lat="45.90954082875076" lon="8.98253005601228"><ele>297.0</ele><time>2026-04-23T16:29:37.999Z</time></trkpt><trkpt lat="45.90941727591019" lon="8.98253005601149"><ele>297.0</ele><time>2026-04-23T16:29:38.999Z</time></trkpt><trkpt lat="45.90929365119848" lon="8.982530056006642"><ele>297.0</ele><time>2026-04-23T16:29:39.999Z</time></trkpt><trkpt lat="45.909182446430826" lon="8.982530056003592"><ele>296.8</ele><time>2026-04-23T16:29:40.999Z</time></trkpt><trkpt lat="45.90907917935796" lon="8.982530102559245"><ele>296.6</ele><time>2026-04-23T16:29:41.999Z</time></trkpt><trkpt lat="45.908977281274794" lon="8.982530479101102"><ele>296.40000000000003</ele><time>2026-04-23T16:29:42.999Z</time></trkpt><trkpt lat="45.90887255816409" lon="8.982530868137287"><ele>296.2</ele><time>2026-04-23T16:29:43.999Z</time></trkpt><trkpt lat="45.908766483331604" lon="8.982531260113417"><ele>296.0</ele><time>2026-04-23T16:29:44.999Z</time></trkpt><trkpt lat="45.908657474710886" lon="8.982528475553927"><ele>296.0</ele><time>2026-04-23T16:29:45.999Z</time></trkpt><trkpt lat="45.90855459567275" lon="8.982521949457809"><ele>296.0</ele><time>2026-04-23T16:29:46.999Z</time></trkpt><trkpt lat="45.90844304943728" lon="8.982511908723172"><ele>296.0</ele><time>2026-04-23T16:29:47.999Z</time></trkpt><trkpt lat="45.908330163162944" lon="8.982496692870967"><ele>296.0</ele><time>2026-04-23T16:29:48.999Z</time></trkpt><trkpt lat="45.908211167572034" lon="8.982472578025854"><ele>296.0</ele><time>2026-04-23T16:29:49.999Z</time></trkpt><trkpt lat="45.90809292481278" lon="8.982442522143126"><ele>290.5</ele><time>2026-04-23T16:29:50.999Z</time></trkpt><trkpt lat="45.90796719009713" lon="8.982406599986803"><ele>285.0</ele><time>2026-04-23T16:29:51.999Z</time></trkpt><trkpt lat="45.90784898163921" lon="8.982365194257317"><ele>279.5</ele><time>2026-04-23T16:29:52.999Z</time></trkpt><trkpt lat="45.90772806485436" lon="8.98231616319001"><ele>274.0</ele><time>2026-04-23T16:29:53.999Z</time></trkpt><trkpt lat="45.907614830658254" lon="8.982267621894048"><ele>276.0</ele><time>2026-04-23T16:29:54.999Z</time></trkpt><trkpt lat="45.90750408617822" lon="8.982216136826507"><ele>278.0</ele><time>2026-04-23T16:29:55.999Z</time></trkpt><trkpt lat="45.90738293349115" lon="8.982152147876578"><ele>280.0</ele><time>2026-04-23T16:29:56.999Z</time></trkpt><trkpt lat="45.90727141436727" lon="8.982082231563304"><ele>282.0</ele><time>2026-04-23T16:29:57.999Z</time></trkpt><trkpt lat="45.907160630443855" lon="8.98200842709322"><ele>282.0</ele><time>2026-04-23T16:29:58.999Z</time></trkpt><trkpt lat="45.907052088516835" lon="8.981930170022563"><ele>282.0</ele><time>2026-04-23T16:29:59.999Z</time></trkpt><trkpt lat="45.90694943164384" lon="8.981850509202088"><ele>282.0</ele><time>2026-04-23T16:30:00.999Z</time></trkpt><trkpt lat="45.9068460467069" lon="8.98178323741014"><ele>282.0</ele><time>2026-04-23T16:30:01.999Z</time></trkpt><trkpt lat="45.90673895405375" lon="8.981703964311262"><ele>281.5</ele><time>2026-04-23T16:30:02.999Z</time></trkpt><trkpt lat="45.906633798222515" lon="8.981623240886261"><ele>281.0</ele><time>2026-04-23T16:30:03.999Z</time></trkpt><trkpt lat="45.906528768686535" lon="8.98155509609237"><ele>280.5</ele><time>2026-04-23T16:30:04.999Z</time></trkpt><trkpt lat="45.90642941207249" lon="8.981473684004776"><ele>280.0</ele><time>2026-04-23T16:30:05.999Z</time></trkpt><trkpt lat="45.906324660312016" lon="8.981421270104475"><ele>280.0</ele><time>2026-04-23T16:30:06.999Z</time></trkpt><trkpt lat="45.906224874091684" lon="8.981380128734466"><ele>280.0</ele><time>2026-04-23T16:30:07.999Z</time></trkpt><trkpt lat="45.906130762547626" lon="8.981350304622636"><ele>280.0</ele><time>2026-04-23T16:30:08.999Z</time></trkpt><trkpt lat="45.90603609772059" lon="8.98132538059112"><ele>280.0</ele><time>2026-04-23T16:30:09.999Z</time></trkpt><trkpt lat="45.905933082072934" lon="8.981299585050818"><ele>280.0</ele><time>2026-04-23T16:30:10.999Z</time></trkpt><trkpt lat="45.90583668208403" lon="8.981275553118008"><ele>281.2</ele><time>2026-04-23T16:30:11.999Z</time></trkpt><trkpt lat="45.90573998195222" lon="8.981233294999194"><ele>282.4</ele><time>2026-04-23T16:30:12.999Z</time></trkpt><trkpt lat="45.90565649023958" lon="8.981182221571133"><ele>283.6</ele><time>2026-04-23T16:30:13.999Z</time></trkpt><trkpt lat="45.90556787626695" lon="8.981116451011921"><ele>284.8</ele><time>2026-04-23T16:30:14.999Z</time></trkpt><trkpt lat="45.905491609251385" lon="8.981021825871519"><ele>286.0</ele><time>2026-04-23T16:30:15.999Z</time></trkpt><trkpt lat="45.90541057947633" lon="8.980925046467233"><ele>284.40000000000003</ele><time>2026-04-23T16:30:16.999Z</time></trkpt><trkpt lat="45.90533300466121" lon="8.980826034034129"><ele>282.8</ele><time>2026-04-23T16:30:17.999Z</time></trkpt><trkpt lat="45.9052492308928" lon="8.980720054961346"><ele>281.20000000000005</ele><time>2026-04-23T16:30:19Z</time></trkpt><trkpt lat="45.905172759971656" lon="8.980623763976807"><ele>279.6</ele><time>2026-04-23T16:30:20Z</time></trkpt><trkpt lat="45.90509597418846" lon="8.98052707491307"><ele>278.0</ele><time>2026-04-23T16:30:21Z</time></trkpt><trkpt lat="45.90501083149356" lon="8.98043373392212"><ele>278.0</ele><time>2026-04-23T16:30:22Z</time></trkpt><trkpt lat="45.9049166227058" lon="8.980341953560135"><ele>278.0</ele><time>2026-04-23T16:30:23Z</time></trkpt><trkpt lat="45.90481107800566" lon="8.980261511877627"><ele>278.0</ele><time>2026-04-23T16:30:24Z</time></trkpt><trkpt lat="45.90470316641375" lon="8.980200062200941"><ele>278.0</ele><time>2026-04-23T16:30:25Z</time></trkpt><trkpt lat="45.90459418198284" lon="8.980145613552558"><ele>278.0</ele><time>2026-04-23T16:30:26Z</time></trkpt><trkpt lat="45.90447739638881" lon="8.980146186260246"><ele>278.0</ele><time>2026-04-23T16:30:27Z</time></trkpt><trkpt lat="45.904366011909325" lon="8.980101101643667"><ele>278.0</ele><time>2026-04-23T16:30:28Z</time></trkpt><trkpt lat="45.904252732051894" lon="8.980045014160096"><ele>278.0</ele><time>2026-04-23T16:30:29Z</time></trkpt><trkpt lat="45.90414270290147" lon="8.979995615060963"><ele>278.25</ele><time>2026-04-23T16:30:30Z</time></trkpt><trkpt lat="45.90402337105766" lon="8.979947178330962"><ele>278.5</ele><time>2026-04-23T16:30:31Z</time></trkpt><trkpt lat="45.903903683652864" lon="8.979897714611907"><ele>278.75</ele><time>2026-04-23T16:30:32Z</time></trkpt><trkpt lat="45.90378689169076" lon="8.979848861255656"><ele>279.0</ele><time>2026-04-23T16:30:33Z</time></trkpt><trkpt lat="45.903652241129976" lon="8.97979952665376"><ele>279.0</ele><time>2026-04-23T16:30:34Z</time></trkpt><trkpt lat="45.90353305493787" lon="8.979748575839874"><ele>279.0</ele><time>2026-04-23T16:30:35Z</time></trkpt><trkpt lat="45.90341671356567" lon="8.979697554606975"><ele>279.0</ele><time>2026-04-23T16:30:36Z</time></trkpt><trkpt lat="45.90330112748466" lon="8.979645924488981"><ele>279.0</ele><time>2026-04-23T16:30:37Z</time></trkpt><trkpt lat="45.903179218567224" lon="8.97959277922193"><ele>280.5</ele><time>2026-04-23T16:30:38Z</time></trkpt><trkpt lat="45.9030656766776" lon="8.979530895789718"><ele>282.0</ele><time>2026-04-23T16:30:39Z</time></trkpt><trkpt lat="45.90294809518409" lon="8.979465885215195"><ele>283.5</ele><time>2026-04-23T16:30:40Z</time></trkpt><trkpt lat="45.9028286653785" lon="8.979399372292566"><ele>285.0</ele><time>2026-04-23T16:30:41Z</time></trkpt><trkpt lat="45.90270295283616" lon="8.979328256042935"><ele>285.0</ele><time>2026-04-23T16:30:42Z</time></trkpt><trkpt lat="45.902595649247495" lon="8.97925620625792"><ele>285.0</ele><time>2026-04-23T16:30:43Z</time></trkpt><trkpt lat="45.90248595646586" lon="8.979182612391222"><ele>285.0</ele><time>2026-04-23T16:30:44Z</time></trkpt><trkpt lat="45.9023678864381" lon="8.97911246500684"><ele>285.0</ele><time>2026-04-23T16:30:45Z</time></trkpt><trkpt lat="45.90225691661887" lon="8.979041547973571"><ele>283.75</ele><time>2026-04-23T16:30:46Z</time></trkpt><trkpt lat="45.902147908576765" lon="8.978971916138669"><ele>282.5</ele><time>2026-04-23T16:30:47Z</time></trkpt><trkpt lat="45.902037460208774" lon="8.978906221036452"><ele>281.25</ele><time>2026-04-23T16:30:48Z</time></trkpt><trkpt lat="45.90193052408286" lon="8.978841468296046"><ele>280.0</ele><time>2026-04-23T16:30:49Z</time></trkpt><trkpt lat="45.90181599214359" lon="8.978773453130138"><ele>281.5</ele><time>2026-04-23T16:30:50Z</time></trkpt><trkpt lat="45.90170758650804" lon="8.97870097494934"><ele>283.0</ele><time>2026-04-23T16:30:51Z</time></trkpt><trkpt lat="45.901601868150614" lon="8.978632075175494"><ele>284.5</ele><time>2026-04-23T16:30:52Z</time></trkpt><trkpt lat="45.901491561577096" lon="8.978565194921469"><ele>286.0</ele><time>2026-04-23T16:30:53Z</time></trkpt><trkpt lat="45.90138529173272" lon="8.97849314321082"><ele>286.0</ele><time>2026-04-23T16:30:54Z</time></trkpt><trkpt lat="45.90127676022255" lon="8.97842786381378"><ele>286.0</ele><time>2026-04-23T16:30:55Z</time></trkpt><trkpt lat="45.9012130182893" lon="8.978298247506451"><ele>286.0</ele><time>2026-04-23T16:30:56Z</time></trkpt><trkpt lat="45.901127632109876" lon="8.978193318022933"><ele>286.0</ele><time>2026-04-23T16:30:57Z</time></trkpt><trkpt lat="45.900970844543295" lon="8.978187892244105"><ele>285.25</ele><time>2026-04-23T16:30:58Z</time></trkpt><trkpt lat="45.90085633633114" lon="8.978127160239342"><ele>284.5</ele><time>2026-04-23T16:30:59Z</time></trkpt><trkpt lat="45.90074341108144" lon="8.978056130589955"><ele>283.75</ele><time>2026-04-23T16:31:00Z</time></trkpt><trkpt lat="45.900632045441256" lon="8.977980550841377"><ele>283.0</ele><time>2026-04-23T16:31:01Z</time></trkpt><trkpt lat="45.900518396872464" lon="8.977910763589584"><ele>283.0</ele><time>2026-04-23T16:31:02Z</time></trkpt><trkpt lat="45.900396171718874" lon="8.97784169775368"><ele>283.0</ele><time>2026-04-23T16:31:03Z</time></trkpt><trkpt lat="45.90026968133656" lon="8.977771240631316"><ele>283.0</ele><time>2026-04-23T16:31:04Z</time></trkpt><trkpt lat="45.90015611237592" lon="8.977697559958417"><ele>283.0</ele><time>2026-04-23T16:31:05Z</time></trkpt><trkpt lat="45.900042110127515" lon="8.977612563146712"><ele>282.25</ele><time>2026-04-23T16:31:05.999Z</time></trkpt><trkpt lat="45.899945159705894" lon="8.9774898090061"><ele>281.5</ele><time>2026-04-23T16:31:06.999Z</time></trkpt><trkpt lat="45.8998312539666" lon="8.977412362113693"><ele>280.75</ele><time>2026-04-23T16:31:07.999Z</time></trkpt><trkpt lat="45.8997121858962" lon="8.977332213278462"><ele>280.0</ele><time>2026-04-23T16:31:08.999Z</time></trkpt><trkpt lat="45.899597325474076" lon="8.977255044223687"><ele>280.0</ele><time>2026-04-23T16:31:09.999Z</time></trkpt><trkpt lat="45.89948627720812" lon="8.977180657007029"><ele>280.0</ele><time>2026-04-23T16:31:10.999Z</time></trkpt><trkpt lat="45.8993702598779" lon="8.97710317942123"><ele>280.0</ele><time>2026-04-23T16:31:11.999Z</time></trkpt><trkpt lat="45.8992477006076" lon="8.977046945451313"><ele>280.0</ele><time>2026-04-23T16:31:12.999Z</time></trkpt><trkpt lat="45.89913189321918" lon="8.97695855637249"><ele>279.75</ele><time>2026-04-23T16:31:13.999Z</time></trkpt><trkpt lat="45.89901232526706" lon="8.976889116572744"><ele>279.5</ele><time>2026-04-23T16:31:14.999Z</time></trkpt><trkpt lat="45.89889379762505" lon="8.97679986482176"><ele>279.25</ele><time>2026-04-23T16:31:15.999Z</time></trkpt><trkpt lat="45.89877725045402" lon="8.976724580622083"><ele>279.0</ele><time>2026-04-23T16:31:16.999Z</time></trkpt><trkpt lat="45.89865479920835" lon="8.976647866326559"><ele>279.0</ele><time>2026-04-23T16:31:17.999Z</time></trkpt><trkpt lat="45.898530328774555" lon="8.97657431176493"><ele>279.0</ele><time>2026-04-23T16:31:18.999Z</time></trkpt><trkpt lat="45.89840913083838" lon="8.976501470204134"><ele>279.0</ele><time>2026-04-23T16:31:19.999Z</time></trkpt><trkpt lat="45.89828872632795" lon="8.976423497875341"><ele>279.0</ele><time>2026-04-23T16:31:20.999Z</time></trkpt><trkpt lat="45.89817872860504" lon="8.976334026282881"><ele>280.5</ele><time>2026-04-23T16:31:21.999Z</time></trkpt><trkpt lat="45.89806309385104" lon="8.976255159947122"><ele>282.0</ele><time>2026-04-23T16:31:22.999Z</time></trkpt><trkpt lat="45.89794742097394" lon="8.976186472377451"><ele>283.5</ele><time>2026-04-23T16:31:23.999Z</time></trkpt><trkpt lat="45.897840566513715" lon="8.976116711641263"><ele>285.0</ele><time>2026-04-23T16:31:24.999Z</time></trkpt><trkpt lat="45.89774371629232" lon="8.976026121986344"><ele>285.0</ele><time>2026-04-23T16:31:25.999Z</time></trkpt><trkpt lat="45.897649782375474" lon="8.97596014647736"><ele>285.0</ele><time>2026-04-23T16:31:26.999Z</time></trkpt><trkpt lat="45.89755714350132" lon="8.975884617180649"><ele>285.0</ele><time>2026-04-23T16:31:27.999Z</time></trkpt><trkpt lat="45.89738169429881" lon="8.975817018384276"><ele>285.0</ele><time>2026-04-23T16:31:28.999Z</time></trkpt><trkpt lat="45.897256159644975" lon="8.975743862150928"><ele>285.25</ele><time>2026-04-23T16:31:29.999Z</time></trkpt><trkpt lat="45.897128031136475" lon="8.975684692688114"><ele>285.5</ele><time>2026-04-23T16:31:30.999Z</time></trkpt><trkpt lat="45.89701262698593" lon="8.97561710415952"><ele>285.75</ele><time>2026-04-23T16:31:31.999Z</time></trkpt><trkpt lat="45.89689191422225" lon="8.975568854318443"><ele>286.0</ele><time>2026-04-23T16:31:32.999Z</time></trkpt><trkpt lat="45.89677275596222" lon="8.975511543637023"><ele>287.0</ele><time>2026-04-23T16:31:33.999Z</time></trkpt><trkpt lat="45.896646744092706" lon="8.975458150648999"><ele>288.0</ele><time>2026-04-23T16:31:34.999Z</time></trkpt><trkpt lat="45.89651866697518" lon="8.9753981990806"><ele>289.0</ele><time>2026-04-23T16:31:35.999Z</time></trkpt><trkpt lat="45.896433411999766" lon="8.975357743892747"><ele>290.0</ele><time>2026-04-23T16:31:36.999Z</time></trkpt><trkpt lat="45.896342619338625" lon="8.975329283163491"><ele>291.0</ele><time>2026-04-23T16:31:37.999Z</time></trkpt><trkpt lat="45.896269806005414" lon="8.975309882754958"><ele>291.0</ele><time>2026-04-23T16:31:38.999Z</time></trkpt><trkpt lat="45.89619387279161" lon="8.975293588333063"><ele>291.0</ele><time>2026-04-23T16:31:39.999Z</time></trkpt><trkpt lat="45.89607313331274" lon="8.97526851849665"><ele>291.0</ele><time>2026-04-23T16:31:41.999Z</time></trkpt><trkpt lat="45.896007787801395" lon="8.975240920394672"><ele>291.0</ele><time>2026-04-23T16:31:42.999Z</time></trkpt><trkpt lat="45.895941809016826" lon="8.975186244125887"><ele>291.0</ele><time>2026-04-23T16:31:43.999Z</time></trkpt><trkpt lat="45.89587943490899" lon="8.975144845850135"><ele>291.0</ele><time>2026-04-23T16:31:44.999Z</time></trkpt><trkpt lat="45.89580528640607" lon="8.975148176237598"><ele>293.2</ele><time>2026-04-23T16:31:45.999Z</time></trkpt><trkpt lat="45.89571638327554" lon="8.975173507805511"><ele>295.40000000000003</ele><time>2026-04-23T16:31:46.999Z</time></trkpt><trkpt lat="45.89562464672859" lon="8.975194827253985"><ele>297.6</ele><time>2026-04-23T16:31:47.999Z</time></trkpt><trkpt lat="45.895531412462475" lon="8.975139869422721"><ele>299.8</ele><time>2026-04-23T16:31:48.999Z</time></trkpt><trkpt lat="45.89542398288443" lon="8.975124519068162"><ele>302.0</ele><time>2026-04-23T16:31:49.999Z</time></trkpt><trkpt lat="45.89530432330759" lon="8.975107421198585"><ele>302.0</ele><time>2026-04-23T16:31:50.999Z</time></trkpt><trkpt lat="45.89519485875152" lon="8.975112095538767"><ele>302.0</ele><time>2026-04-23T16:31:51.999Z</time></trkpt><trkpt lat="45.89507780665227" lon="8.975091969734686"><ele>302.0</ele><time>2026-04-23T16:31:52.999Z</time></trkpt><trkpt lat="45.89495726889017" lon="8.97506480092763"><ele>302.0</ele><time>2026-04-23T16:31:53.999Z</time></trkpt><trkpt lat="45.894831330198194" lon="8.97505083540318"><ele>301.0</ele><time>2026-04-23T16:31:54.999Z</time></trkpt><trkpt lat="45.8946944612441" lon="8.975024421402184"><ele>300.0</ele><time>2026-04-23T16:31:55.999Z</time></trkpt><trkpt lat="45.89455495333407" lon="8.974990568915857"><ele>299.0</ele><time>2026-04-23T16:31:56.999Z</time></trkpt><trkpt lat="45.89441654603318" lon="8.974976799440201"><ele>298.0</ele><time>2026-04-23T16:31:57.999Z</time></trkpt><trkpt lat="45.89427378137324" lon="8.974957912044525"><ele>298.0</ele><time>2026-04-23T16:31:58.999Z</time></trkpt><trkpt lat="45.894133120163765" lon="8.974938075014467"><ele>298.0</ele><time>2026-04-23T16:31:59.999Z</time></trkpt><trkpt lat="45.89398056856102" lon="8.974898738888403"><ele>298.0</ele><time>2026-04-23T16:32:00.999Z</time></trkpt><trkpt lat="45.893828763293705" lon="8.974881756671712"><ele>298.0</ele><time>2026-04-23T16:32:01.999Z</time></trkpt><trkpt lat="45.89367950786144" lon="8.974858848188202"><ele>298.0</ele><time>2026-04-23T16:32:02.999Z</time></trkpt><trkpt lat="45.89352349487498" lon="8.974840657325016"><ele>298.0</ele><time>2026-04-23T16:32:03.999Z</time></trkpt><trkpt lat="45.893371105070635" lon="8.974819040645796"><ele>298.0</ele><time>2026-04-23T16:32:04.999Z</time></trkpt><trkpt lat="45.89321836016899" lon="8.974774199189463"><ele>297.3333333333333</ele><time>2026-04-23T16:32:05.999Z</time></trkpt><trkpt lat="45.89305659929079" lon="8.97476646467088"><ele>296.6666666666667</ele><time>2026-04-23T16:32:06.999Z</time></trkpt><trkpt lat="45.89289717651669" lon="8.974783767907605"><ele>296.0</ele><time>2026-04-23T16:32:07.999Z</time></trkpt><trkpt lat="45.89273936077257" lon="8.974816791956073"><ele>296.0</ele><time>2026-04-23T16:32:08.999Z</time></trkpt><trkpt lat="45.89258286384497" lon="8.974878862506454"><ele>296.0</ele><time>2026-04-23T16:32:09.999Z</time></trkpt><trkpt lat="45.892430160882014" lon="8.974947986037618"><ele>296.0</ele><time>2026-04-23T16:32:10.999Z</time></trkpt><trkpt lat="45.892283421391056" lon="8.975031115321212"><ele>300.0</ele><time>2026-04-23T16:32:11.999Z</time></trkpt><trkpt lat="45.8921322912503" lon="8.975109217867026"><ele>304.0</ele><time>2026-04-23T16:32:12.999Z</time></trkpt><trkpt lat="45.89198066729438" lon="8.975187776163462"><ele>308.0</ele><time>2026-04-23T16:32:13.999Z</time></trkpt><trkpt lat="45.89183883393298" lon="8.975263423650345"><ele>308.33333333333337</ele><time>2026-04-23T16:32:14.999Z</time></trkpt><trkpt lat="45.89169139555887" lon="8.97534206059787"><ele>308.6666666666667</ele><time>2026-04-23T16:32:15.999Z</time></trkpt><trkpt lat="45.8915403545509" lon="8.975424189279336"><ele>309.0</ele><time>2026-04-23T16:32:16.999Z</time></trkpt><trkpt lat="45.8913927664976" lon="8.975515118424717"><ele>309.0</ele><time>2026-04-23T16:32:17.999Z</time></trkpt><trkpt lat="45.891251350310256" lon="8.975637191848186"><ele>309.0</ele><time>2026-04-23T16:32:18.999Z</time></trkpt><trkpt lat="45.891114369502986" lon="8.97576606926298"><ele>309.0</ele><time>2026-04-23T16:32:19.999Z</time></trkpt><trkpt lat="45.8909826608468" lon="8.975897832583637"><ele>310.0</ele><time>2026-04-23T16:32:20.999Z</time></trkpt><trkpt lat="45.89085000202504" lon="8.97603532700384"><ele>311.0</ele><time>2026-04-23T16:32:21.999Z</time></trkpt><trkpt lat="45.89071904781473" lon="8.97617250853026"><ele>312.0</ele><time>2026-04-23T16:32:22.999Z</time></trkpt><trkpt lat="45.890595581005904" lon="8.976302147790436"><ele>312.0</ele><time>2026-04-23T16:32:23.999Z</time></trkpt><trkpt lat="45.89046785904794" lon="8.976436728307696"><ele>312.0</ele><time>2026-04-23T16:32:25Z</time></trkpt><trkpt lat="45.890335075602366" lon="8.976565121958357"><ele>312.0</ele><time>2026-04-23T16:32:26Z</time></trkpt><trkpt lat="45.89019745677179" lon="8.976694166790914"><ele>310.3333333333333</ele><time>2026-04-23T16:32:27Z</time></trkpt><trkpt lat="45.89007371911749" lon="8.976822583464406"><ele>308.66666666666663</ele><time>2026-04-23T16:32:28Z</time></trkpt><trkpt lat="45.88994121597464" lon="8.976959236313368"><ele>307.0</ele><time>2026-04-23T16:32:29Z</time></trkpt><trkpt lat="45.889809228608314" lon="8.977093088747823"><ele>307.0</ele><time>2026-04-23T16:32:30Z</time></trkpt><trkpt lat="45.88968227984658" lon="8.977221410784525"><ele>307.0</ele><time>2026-04-23T16:32:31Z</time></trkpt><trkpt lat="45.8895637077591" lon="8.977341265440916"><ele>307.0</ele><time>2026-04-23T16:32:32Z</time></trkpt><trkpt lat="45.8894462587726" lon="8.9774599863216"><ele>307.0</ele><time>2026-04-23T16:32:33Z</time></trkpt><trkpt lat="45.88933204097655" lon="8.97757543957012"><ele>306.5</ele><time>2026-04-23T16:32:34Z</time></trkpt><trkpt lat="45.889220580583206" lon="8.977689156111072"><ele>306.0</ele><time>2026-04-23T16:32:35Z</time></trkpt><trkpt lat="45.88911233177207" lon="8.977803418762779"><ele>305.5</ele><time>2026-04-23T16:32:36Z</time></trkpt><trkpt lat="45.88900987949519" lon="8.977919620902854"><ele>305.0</ele><time>2026-04-23T16:32:37Z</time></trkpt><trkpt lat="45.88891230300434" lon="8.978048568152639"><ele>305.0</ele><time>2026-04-23T16:32:38Z</time></trkpt><trkpt lat="45.88881927791093" lon="8.978181736444359"><ele>305.0</ele><time>2026-04-23T16:32:39Z</time></trkpt><trkpt lat="45.8887271806906" lon="8.978314594615014"><ele>305.0</ele><time>2026-04-23T16:32:40Z</time></trkpt><trkpt lat="45.8886594504313" lon="8.978432496950708"><ele>305.0</ele><time>2026-04-23T16:32:41Z</time></trkpt><trkpt lat="45.88859524295883" lon="8.978540892407645"><ele>305.2857142857143</ele><time>2026-04-23T16:32:42Z</time></trkpt><trkpt lat="45.8885343332944" lon="8.978634359653867"><ele>305.57142857142856</ele><time>2026-04-23T16:32:43Z</time></trkpt><trkpt lat="45.888482806254686" lon="8.978718885113096"><ele>305.85714285714283</ele><time>2026-04-23T16:32:44Z</time></trkpt><trkpt lat="45.88842642369854" lon="8.978780891007192"><ele>306.1428571428571</ele><time>2026-04-23T16:32:45Z</time></trkpt><trkpt lat="45.888383483235934" lon="8.9788568984734"><ele>306.42857142857144</ele><time>2026-04-23T16:32:46Z</time></trkpt><trkpt lat="45.88833577938626" lon="8.978922914768894"><ele>306.71428571428567</ele><time>2026-04-23T16:32:47Z</time></trkpt><trkpt lat="45.888278840657264" lon="8.978982556967441"><ele>307.0</ele><time>2026-04-23T16:32:49Z</time></trkpt><trkpt lat="45.888221834203726" lon="8.979027782155283"><ele>307.0</ele><time>2026-04-23T16:32:52Z</time></trkpt><trkpt lat="45.88812294198187" lon="8.979141112830206"><ele>307.0</ele><time>2026-04-23T16:32:54Z</time></trkpt><trkpt lat="45.88808490347311" lon="8.979257331686105"><ele>307.0</ele><time>2026-04-23T16:32:55Z</time></trkpt><trkpt lat="45.88805127298757" lon="8.979373953707155"><ele>307.0</ele><time>2026-04-23T16:32:56Z</time></trkpt><trkpt lat="45.887988044351935" lon="8.97948955894688"><ele>307.0</ele><time>2026-04-23T16:32:57Z</time></trkpt><trkpt lat="45.88790908753517" lon="8.979600621426354"><ele>309.75</ele><time>2026-04-23T16:32:58Z</time></trkpt><trkpt lat="45.88782661664038" lon="8.979722034757746"><ele>312.5</ele><time>2026-04-23T16:32:59Z</time></trkpt><trkpt lat="45.8877455542932" lon="8.979845299479255"><ele>315.25</ele><time>2026-04-23T16:33:00Z</time></trkpt><trkpt lat="45.8876642703321" lon="8.97997814465368"><ele>318.0</ele><time>2026-04-23T16:33:01Z</time></trkpt><trkpt lat="45.887573144300354" lon="8.980111322471728"><ele>319.75</ele><time>2026-04-23T16:33:02Z</time></trkpt><trkpt lat="45.88748238236338" lon="8.980255994075156"><ele>321.5</ele><time>2026-04-23T16:33:03Z</time></trkpt><trkpt lat="45.887392918979096" lon="8.980393846272566"><ele>323.25</ele><time>2026-04-23T16:33:04Z</time></trkpt><trkpt lat="45.88729426998441" lon="8.98053343622736"><ele>325.0</ele><time>2026-04-23T16:33:05Z</time></trkpt><trkpt lat="45.88719438301953" lon="8.980678302092977"><ele>325.0</ele><time>2026-04-23T16:33:06Z</time></trkpt><trkpt lat="45.88708054819486" lon="8.98079877335452"><ele>325.0</ele><time>2026-04-23T16:33:07Z</time></trkpt><trkpt lat="45.886962464093514" lon="8.980895082131152"><ele>325.0</ele><time>2026-04-23T16:33:08Z</time></trkpt><trkpt lat="45.88682951907892" lon="8.980984469800374"><ele>325.0</ele><time>2026-04-23T16:33:09Z</time></trkpt><trkpt lat="45.88669024946" lon="8.981055342691873"><ele>330.0</ele><time>2026-04-23T16:33:10Z</time></trkpt><trkpt lat="45.886536079567605" lon="8.981101098143359"><ele>335.0</ele><time>2026-04-23T16:33:11Z</time></trkpt><trkpt lat="45.88638237182171" lon="8.981118226963872"><ele>340.0</ele><time>2026-04-23T16:33:12Z</time></trkpt><trkpt lat="45.886235598457894" lon="8.981122280579847"><ele>340.0</ele><time>2026-04-23T16:33:13Z</time></trkpt><trkpt lat="45.8860823275836" lon="8.981127569928635"><ele>340.0</ele><time>2026-04-23T16:33:14Z</time></trkpt><trkpt lat="45.88592338129213" lon="8.981132115399399"><ele>340.0</ele><time>2026-04-23T16:33:15Z</time></trkpt><trkpt lat="45.88576705118032" lon="8.981136586053255"><ele>336.66666666666663</ele><time>2026-04-23T16:33:16Z</time></trkpt><trkpt lat="45.88561406550991" lon="8.981143980034089"><ele>333.3333333333333</ele><time>2026-04-23T16:33:17Z</time></trkpt><trkpt lat="45.88544791725407" lon="8.98115444796909"><ele>330.0</ele><time>2026-04-23T16:33:17.999Z</time></trkpt><trkpt lat="45.8852708347224" lon="8.981179776122449"><ele>330.0</ele><time>2026-04-23T16:33:18.999Z</time></trkpt><trkpt lat="45.8852049707368" lon="8.981195245170703"><ele>330.0</ele><time>2026-04-23T16:33:19.999Z</time></trkpt><trkpt lat="45.88507448219917" lon="8.981231868758913"><ele>330.0</ele><time>2026-04-23T16:33:20.999Z</time></trkpt><trkpt lat="45.884938741564206" lon="8.981283418592353"><ele>330.0</ele><time>2026-04-23T16:33:21.999Z</time></trkpt><trkpt lat="45.88481299282619" lon="8.98134532151267"><ele>329.6666666666667</ele><time>2026-04-23T16:33:22.999Z</time></trkpt><trkpt lat="45.88468500244958" lon="8.981375549347838"><ele>329.33333333333337</ele><time>2026-04-23T16:33:23.999Z</time></trkpt><trkpt lat="45.88450736022401" lon="8.98151637153059"><ele>329.0</ele><time>2026-04-23T16:33:24.999Z</time></trkpt><trkpt lat="45.88436999133536" lon="8.981601711737861"><ele>331.75</ele><time>2026-04-23T16:33:25.999Z</time></trkpt><trkpt lat="45.884238636087645" lon="8.981684189715475"><ele>334.5</ele><time>2026-04-23T16:33:26.999Z</time></trkpt><trkpt lat="45.88411268565696" lon="8.981774867311277"><ele>337.25</ele><time>2026-04-23T16:33:27.999Z</time></trkpt><trkpt lat="45.88397791395974" lon="8.981841115360217"><ele>340.0</ele><time>2026-04-23T16:33:28.999Z</time></trkpt><trkpt lat="45.88384578239244" lon="8.98191952843588"><ele>340.0</ele><time>2026-04-23T16:33:29.999Z</time></trkpt><trkpt lat="45.883707071367304" lon="8.981997230186368"><ele>340.0</ele><time>2026-04-23T16:33:30.999Z</time></trkpt><trkpt lat="45.883563853794406" lon="8.982065778206252"><ele>340.0</ele><time>2026-04-23T16:33:31.999Z</time></trkpt><trkpt lat="45.88343211811927" lon="8.98215418378168"><ele>340.0</ele><time>2026-04-23T16:33:32.999Z</time></trkpt><trkpt lat="45.88329515171739" lon="8.982237276472564"><ele>338.0</ele><time>2026-04-23T16:33:33.999Z</time></trkpt><trkpt lat="45.88315404909283" lon="8.982307804452324"><ele>336.0</ele><time>2026-04-23T16:33:34.999Z</time></trkpt><trkpt lat="45.883019791135716" lon="8.982380949546535"><ele>334.0</ele><time>2026-04-23T16:33:35.999Z</time></trkpt><trkpt lat="45.88289812045491" lon="8.982461868071878"><ele>332.0</ele><time>2026-04-23T16:33:36.999Z</time></trkpt><trkpt lat="45.88278458430274" lon="8.982526741047124"><ele>333.5</ele><time>2026-04-23T16:33:37.999Z</time></trkpt><trkpt lat="45.88266487398067" lon="8.982588426138893"><ele>335.0</ele><time>2026-04-23T16:33:38.999Z</time></trkpt><trkpt lat="45.88254668591792" lon="8.982672387494397"><ele>336.5</ele><time>2026-04-23T16:33:39.999Z</time></trkpt><trkpt lat="45.88241919491497" lon="8.982739739704181"><ele>338.0</ele><time>2026-04-23T16:33:40.999Z</time></trkpt><trkpt lat="45.88228871814034" lon="8.982797992314516"><ele>338.0</ele><time>2026-04-23T16:33:41.999Z</time></trkpt><trkpt lat="45.8821655506907" lon="8.982851720598154"><ele>338.0</ele><time>2026-04-23T16:33:42.999Z</time></trkpt><trkpt lat="45.88203478193578" lon="8.98291897662206"><ele>338.0</ele><time>2026-04-23T16:33:43.999Z</time></trkpt><trkpt lat="45.88189341274311" lon="8.982980964654713"><ele>338.0</ele><time>2026-04-23T16:33:44.999Z</time></trkpt><trkpt lat="45.8817567683664" lon="8.983043367234792"><ele>336.5</ele><time>2026-04-23T16:33:45.999Z</time></trkpt><trkpt lat="45.88161684574706" lon="8.98308488094461"><ele>335.0</ele><time>2026-04-23T16:33:46.999Z</time></trkpt><trkpt lat="45.881471969213635" lon="8.983137453251441"><ele>333.5</ele><time>2026-04-23T16:33:47.999Z</time></trkpt><trkpt lat="45.88132837808033" lon="8.983189559118388"><ele>332.0</ele><time>2026-04-23T16:33:48.999Z</time></trkpt><trkpt lat="45.881188239941814" lon="8.983240411969547"><ele>332.0</ele><time>2026-04-23T16:33:49.999Z</time></trkpt><trkpt lat="45.88103789448207" lon="8.983291078762734"><ele>332.0</ele><time>2026-04-23T16:33:50.999Z</time></trkpt><trkpt lat="45.88088685328396" lon="8.983341789626055"><ele>332.0</ele><time>2026-04-23T16:33:51.999Z</time></trkpt><trkpt lat="45.88072916927347" lon="8.983392561667248"><ele>332.75</ele><time>2026-04-23T16:33:52.999Z</time></trkpt><trkpt lat="45.880587354111555" lon="8.983434124841876"><ele>333.5</ele><time>2026-04-23T16:33:53.999Z</time></trkpt><trkpt lat="45.88046570030758" lon="8.983468454371824"><ele>334.25</ele><time>2026-04-23T16:33:54.999Z</time></trkpt><trkpt lat="45.88034712361853" lon="8.983498633412129"><ele>335.0</ele><time>2026-04-23T16:33:55.999Z</time></trkpt><trkpt lat="45.880216498828794" lon="8.983529441692014"><ele>334.33333333333337</ele><time>2026-04-23T16:33:56.999Z</time></trkpt><trkpt lat="45.88000749369848" lon="8.983577998000907"><ele>333.6666666666667</ele><time>2026-04-23T16:33:57.999Z</time></trkpt><trkpt lat="45.879855261085254" lon="8.983607661525857"><ele>333.0</ele><time>2026-04-23T16:33:58.999Z</time></trkpt><trkpt lat="45.87970254757995" lon="8.983637418727238"><ele>333.0</ele><time>2026-04-23T16:33:59.999Z</time></trkpt><trkpt lat="45.8795584806688" lon="8.983661696061942"><ele>333.0</ele><time>2026-04-23T16:34:00.999Z</time></trkpt><trkpt lat="45.87941525821503" lon="8.983683712328144"><ele>333.0</ele><time>2026-04-23T16:34:01.999Z</time></trkpt><trkpt lat="45.87924998181721" lon="8.98372137564309"><ele>332.25</ele><time>2026-04-23T16:34:02.999Z</time></trkpt><trkpt lat="45.87910769129004" lon="8.983722969340654"><ele>331.5</ele><time>2026-04-23T16:34:03.999Z</time></trkpt><trkpt lat="45.87896539469031" lon="8.983735524181313"><ele>330.75</ele><time>2026-04-23T16:34:04.999Z</time></trkpt><trkpt lat="45.87881723089149" lon="8.983747847579657"><ele>330.0</ele><time>2026-04-23T16:34:05.999Z</time></trkpt><trkpt lat="45.878673515498626" lon="8.983757567307412"><ele>330.0</ele><time>2026-04-23T16:34:06.999Z</time></trkpt><trkpt lat="45.878527473447996" lon="8.983764736347299"><ele>330.0</ele><time>2026-04-23T16:34:07.999Z</time></trkpt><trkpt lat="45.87838070642207" lon="8.983769353514388"><ele>330.0</ele><time>2026-04-23T16:34:08.999Z</time></trkpt><trkpt lat="45.8782448719241" lon="8.983773370510695"><ele>330.0</ele><time>2026-04-23T16:34:09.999Z</time></trkpt><trkpt lat="45.878121215174204" lon="8.983773370508164"><ele>330.0</ele><time>2026-04-23T16:34:10.999Z</time></trkpt><trkpt lat="45.87799702584052" lon="8.98377187785302"><ele>330.0</ele><time>2026-04-23T16:34:11.999Z</time></trkpt><trkpt lat="45.87788489933934" lon="8.983838100359412"><ele>330.0</ele><time>2026-04-23T16:34:12.999Z</time></trkpt><trkpt lat="45.87777797829803" lon="8.983841405598099"><ele>330.0</ele><time>2026-04-23T16:34:13.999Z</time></trkpt><trkpt lat="45.87767285660006" lon="8.983837789473277"><ele>329.6</ele><time>2026-04-23T16:34:14.999Z</time></trkpt><trkpt lat="45.877564603000124" lon="8.983825441466003"><ele>329.2</ele><time>2026-04-23T16:34:15.999Z</time></trkpt><trkpt lat="45.877452474168045" lon="8.9838199255338"><ele>328.79999999999995</ele><time>2026-04-23T16:34:16.999Z</time></trkpt><trkpt lat="45.87734429131529" lon="8.983814417155251"><ele>328.4</ele><time>2026-04-23T16:34:17.999Z</time></trkpt><trkpt lat="45.877235792871225" lon="8.983808621369215"><ele>328.0</ele><time>2026-04-23T16:34:18.999Z</time></trkpt><trkpt lat="45.87713562340061" lon="8.983710223096505"><ele>328.0</ele><time>2026-04-23T16:34:19.999Z</time></trkpt><trkpt lat="45.8770419962155" lon="8.98370648155497"><ele>328.0</ele><time>2026-04-23T16:34:20.999Z</time></trkpt><trkpt lat="45.8769506031652" lon="8.98370627051305"><ele>328.0</ele><time>2026-04-23T16:34:21.999Z</time></trkpt><trkpt lat="45.87685049526963" lon="8.98371740223059"><ele>328.0</ele><time>2026-04-23T16:34:22.999Z</time></trkpt><trkpt lat="45.87675845292465" lon="8.98368943169231"><ele>328.0</ele><time>2026-04-23T16:34:23.999Z</time></trkpt><trkpt lat="45.876654322495675" lon="8.983750503841563"><ele>329.25</ele><time>2026-04-23T16:34:24.999Z</time></trkpt><trkpt lat="45.87655612964255" lon="8.983737894150995"><ele>330.5</ele><time>2026-04-23T16:34:25.999Z</time></trkpt><trkpt lat="45.87645046788508" lon="8.983720654015452"><ele>331.75</ele><time>2026-04-23T16:34:26.999Z</time></trkpt><trkpt lat="45.87633800627484" lon="8.98369504978519"><ele>333.0</ele><time>2026-04-23T16:34:27.999Z</time></trkpt><trkpt lat="45.87623053805309" lon="8.983572353133063"><ele>333.0</ele><time>2026-04-23T16:34:28.999Z</time></trkpt><trkpt lat="45.87611048393502" lon="8.983550772922483"><ele>333.0</ele><time>2026-04-23T16:34:29.999Z</time></trkpt><trkpt lat="45.87598749679031" lon="8.98353064163479"><ele>333.0</ele><time>2026-04-23T16:34:31Z</time></trkpt><trkpt lat="45.8758605282095" lon="8.983509858649944"><ele>333.0</ele><time>2026-04-23T16:34:32Z</time></trkpt><trkpt lat="45.87572627078328" lon="8.983487882572934"><ele>333.5</ele><time>2026-04-23T16:34:33Z</time></trkpt><trkpt lat="45.875584261390735" lon="8.983464266977398"><ele>334.0</ele><time>2026-04-23T16:34:34Z</time></trkpt><trkpt lat="45.87544519351261" lon="8.983440891734613"><ele>334.5</ele><time>2026-04-23T16:34:35Z</time></trkpt><trkpt lat="45.8752993755937" lon="8.9834163819123"><ele>335.0</ele><time>2026-04-23T16:34:36Z</time></trkpt><trkpt lat="45.87513905779145" lon="8.983388630564837"><ele>335.6666666666667</ele><time>2026-04-23T16:34:37Z</time></trkpt><trkpt lat="45.87497967864488" lon="8.983360624184831"><ele>336.3333333333333</ele><time>2026-04-23T16:34:38Z</time></trkpt><trkpt lat="45.8748279019165" lon="8.983333708639503"><ele>337.0</ele><time>2026-04-23T16:34:39Z</time></trkpt><trkpt lat="45.87467582526151" lon="8.983307159903433"><ele>335.0</ele><time>2026-04-23T16:34:40Z</time></trkpt><trkpt lat="45.874526344004" lon="8.983281689819007"><ele>333.0</ele><time>2026-04-23T16:34:41Z</time></trkpt><trkpt lat="45.87437176663123" lon="8.983255351405038"><ele>331.0</ele><time>2026-04-23T16:34:42Z</time></trkpt><trkpt lat="45.87424450814754" lon="8.983233317619858"><ele>329.0</ele><time>2026-04-23T16:34:43Z</time></trkpt><trkpt lat="45.874106474917824" lon="8.983205874429583"><ele>329.0</ele><time>2026-04-23T16:34:44Z</time></trkpt><trkpt lat="45.873969052662936" lon="8.983176965430626"><ele>329.0</ele><time>2026-04-23T16:34:45Z</time></trkpt><trkpt lat="45.873833159037865" lon="8.983146500944356"><ele>329.0</ele><time>2026-04-23T16:34:46Z</time></trkpt><trkpt lat="45.873684833013435" lon="8.983110525531462"><ele>329.0</ele><time>2026-04-23T16:34:47Z</time></trkpt><trkpt lat="45.87353932019951" lon="8.983073367717106"><ele>329.75</ele><time>2026-04-23T16:34:48Z</time></trkpt><trkpt lat="45.87339298144079" lon="8.983032102340333"><ele>330.5</ele><time>2026-04-23T16:34:49Z</time></trkpt><trkpt lat="45.87324853758729" lon="8.982984395139162"><ele>331.25</ele><time>2026-04-23T16:34:50Z</time></trkpt><trkpt lat="45.873102872813796" lon="8.982933429264396"><ele>332.0</ele><time>2026-04-23T16:34:51Z</time></trkpt><trkpt lat="45.872978982795644" lon="8.982888458230365"><ele>332.0</ele><time>2026-04-23T16:34:52Z</time></trkpt><trkpt lat="45.8728681558177" lon="8.982845442398297"><ele>332.0</ele><time>2026-04-23T16:34:53Z</time></trkpt><trkpt lat="45.87275640878834" lon="8.982799342903752"><ele>332.0</ele><time>2026-04-23T16:34:54Z</time></trkpt><trkpt lat="45.87265404755573" lon="8.982754009063715"><ele>332.0</ele><time>2026-04-23T16:34:55Z</time></trkpt><trkpt lat="45.87254910629173" lon="8.982706581057185"><ele>332.0</ele><time>2026-04-23T16:34:56Z</time></trkpt><trkpt lat="45.87244372240255" lon="8.982654838534959"><ele>332.0</ele><time>2026-04-23T16:34:57Z</time></trkpt><trkpt lat="45.87233737950585" lon="8.982604484523009"><ele>332.0</ele><time>2026-04-23T16:34:58Z</time></trkpt><trkpt lat="45.87222714341724" lon="8.982664582896751"><ele>332.0</ele><time>2026-04-23T16:34:59Z</time></trkpt><trkpt lat="45.87213753059683" lon="8.982616017066466"><ele>332.0</ele><time>2026-04-23T16:35:00Z</time></trkpt><trkpt lat="45.87206095856367" lon="8.982564948320048"><ele>332.0</ele><time>2026-04-23T16:35:01Z</time></trkpt><trkpt lat="45.87199205124901" lon="8.982529505250895"><ele>332.20000000000005</ele><time>2026-04-23T16:35:02Z</time></trkpt><trkpt lat="45.87195462022472" lon="8.982395879834707"><ele>332.4</ele><time>2026-04-23T16:35:03Z</time></trkpt><trkpt lat="45.871829013823756" lon="8.982353717853693"><ele>332.6</ele><time>2026-04-23T16:35:05Z</time></trkpt><trkpt lat="45.871747140494286" lon="8.982375254743635"><ele>332.79999999999995</ele><time>2026-04-23T16:35:06Z</time></trkpt><trkpt lat="45.8716701601931" lon="8.982306627389315"><ele>333.0</ele><time>2026-04-23T16:35:07Z</time></trkpt><trkpt lat="45.87158612554196" lon="8.982225987188274"><ele>333.0</ele><time>2026-04-23T16:35:08Z</time></trkpt><trkpt lat="45.87150410064231" lon="8.982136759545238"><ele>333.0</ele><time>2026-04-23T16:35:09Z</time></trkpt><trkpt lat="45.87142524135202" lon="8.982034414224785"><ele>333.0</ele><time>2026-04-23T16:35:10Z</time></trkpt><trkpt lat="45.871407865950246" lon="8.981857203985731"><ele>333.0</ele><time>2026-04-23T16:35:11Z</time></trkpt><trkpt lat="45.87131472363141" lon="8.981745148768303"><ele>332.5</ele><time>2026-04-23T16:35:12Z</time></trkpt><trkpt lat="45.871223825724" lon="8.981633454033567"><ele>332.0</ele><time>2026-04-23T16:35:13Z</time></trkpt><trkpt lat="45.87113139652209" lon="8.981519877795993"><ele>331.5</ele><time>2026-04-23T16:35:14Z</time></trkpt><trkpt lat="45.87104036438162" lon="8.981405898313703"><ele>331.0</ele><time>2026-04-23T16:35:15Z</time></trkpt><trkpt lat="45.87095408973867" lon="8.981297837478602"><ele>330.8</ele><time>2026-04-23T16:35:16Z</time></trkpt><trkpt lat="45.87087242432671" lon="8.981195549669776"><ele>330.6</ele><time>2026-04-23T16:35:17Z</time></trkpt><trkpt lat="45.87079217773584" lon="8.981096531462482"><ele>330.4</ele><time>2026-04-23T16:35:18Z</time></trkpt><trkpt lat="45.87071480311431" lon="8.981003447203543"><ele>330.2</ele><time>2026-04-23T16:35:18.999Z</time></trkpt><trkpt lat="45.87064133379961" lon="8.980915060994997"><ele>330.0</ele><time>2026-04-23T16:35:19.999Z</time></trkpt><trkpt lat="45.87056289479604" lon="8.98082069437409"><ele>330.0</ele><time>2026-04-23T16:35:20.999Z</time></trkpt><trkpt lat="45.87042302950184" lon="8.98082190917568"><ele>330.0</ele><time>2026-04-23T16:35:21.999Z</time></trkpt><trkpt lat="45.87035880415587" lon="8.980748720153638"><ele>330.0</ele><time>2026-04-23T16:35:22.999Z</time></trkpt><trkpt lat="45.87029759237403" lon="8.980671947857097"><ele>330.0</ele><time>2026-04-23T16:35:23.999Z</time></trkpt><trkpt lat="45.87024175789374" lon="8.98060812266838"><ele>330.0</ele><time>2026-04-23T16:35:24.999Z</time></trkpt><trkpt lat="45.87024677197737" lon="8.980444343662526"><ele>330.0</ele><time>2026-04-23T16:35:25.999Z</time></trkpt><trkpt lat="45.870194367678806" lon="8.98038067016018"><ele>330.0</ele><time>2026-04-23T16:35:26.999Z</time></trkpt><trkpt lat="45.87013899846541" lon="8.980310924456596"><ele>330.0</ele><time>2026-04-23T16:35:27.999Z</time></trkpt><trkpt lat="45.87008447685062" lon="8.980242137173171"><ele>330.0</ele><time>2026-04-23T16:35:28.999Z</time></trkpt><trkpt lat="45.87003258609477" lon="8.98017477574333"><ele>330.0</ele><time>2026-04-23T16:35:29.999Z</time></trkpt><trkpt lat="45.869943282168244" lon="8.980057577235925"><ele>330.0</ele><time>2026-04-23T16:35:31.999Z</time></trkpt><trkpt lat="45.86987057992183" lon="8.97996216613966"><ele>330.0</ele><time>2026-04-23T16:35:33.999Z</time></trkpt><trkpt lat="45.86978346775186" lon="8.980030845103096"><ele>330.0</ele><time>2026-04-23T16:35:34.999Z</time></trkpt><trkpt lat="45.86983835025358" lon="8.979919869136687"><ele>330.0</ele><time>2026-04-23T16:35:55.999Z</time></trkpt><trkpt lat="45.86971468718637" lon="8.97976499325683"><ele>330.0</ele><time>2026-04-23T16:36:10.999Z</time></trkpt><trkpt lat="45.869615117826115" lon="8.97964212831238"><ele>330.0</ele><time>2026-04-23T16:36:12.999Z</time></trkpt><trkpt lat="45.86955392739663" lon="8.979567404114903"><ele>330.0</ele><time>2026-04-23T16:36:13.999Z</time></trkpt><trkpt lat="45.869483887639085" lon="8.979482249788807"><ele>330.0</ele><time>2026-04-23T16:36:14.999Z</time></trkpt><trkpt lat="45.86941820153894" lon="8.97940238858991"><ele>330.0</ele><time>2026-04-23T16:36:15.999Z</time></trkpt><trkpt lat="45.869341765139374" lon="8.97930896092693"><ele>330.0</ele><time>2026-04-23T16:36:16.999Z</time></trkpt><trkpt lat="45.86926743078423" lon="8.979214529517048"><ele>330.1666666666667</ele><time>2026-04-23T16:36:17.999Z</time></trkpt><trkpt lat="45.869210552685466" lon="8.979145307149146"><ele>330.3333333333333</ele><time>2026-04-23T16:36:18.999Z</time></trkpt><trkpt lat="45.86912667455159" lon="8.979042805597588"><ele>330.5</ele><time>2026-04-23T16:36:20.999Z</time></trkpt><trkpt lat="45.869059459644085" lon="8.978962485749957"><ele>330.66666666666663</ele><time>2026-04-23T16:36:21.999Z</time></trkpt><trkpt lat="45.86899005228895" lon="8.978882148551017"><ele>330.8333333333333</ele><time>2026-04-23T16:36:22.999Z</time></trkpt><trkpt lat="45.8689233434942" lon="8.978804937306025"><ele>331.0</ele><time>2026-04-23T16:36:23.999Z</time></trkpt><trkpt lat="45.86885813269344" lon="8.978716638445116"><ele>331.0</ele><time>2026-04-23T16:36:24.999Z</time></trkpt><trkpt lat="45.86879168767603" lon="8.97863181148918"><ele>331.0</ele><time>2026-04-23T16:36:25.999Z</time></trkpt><trkpt lat="45.86872687301958" lon="8.978552154438205"><ele>331.0</ele><time>2026-04-23T16:36:26.999Z</time></trkpt><trkpt lat="45.868662597794426" lon="8.978476165063551"><ele>331.0</ele><time>2026-04-23T16:36:27.999Z</time></trkpt><trkpt lat="45.868605060767145" lon="8.978407746000231"><ele>331.0</ele><time>2026-04-23T16:36:28.999Z</time></trkpt><trkpt lat="45.86854464470187" lon="8.978333335580803"><ele>331.0</ele><time>2026-04-23T16:36:29.999Z</time></trkpt><trkpt lat="45.86848842745099" lon="8.978264004195813"><ele>331.8</ele><time>2026-04-23T16:36:30.999Z</time></trkpt><trkpt lat="45.868424991808475" lon="8.97818566672263"><ele>332.6</ele><time>2026-04-23T16:36:31.999Z</time></trkpt><trkpt lat="45.86836041440933" lon="8.978105919292645"><ele>333.4</ele><time>2026-04-23T16:36:32.999Z</time></trkpt><trkpt lat="45.86821036989491" lon="8.978114401477432"><ele>334.2</ele><time>2026-04-23T16:36:33.999Z</time></trkpt><trkpt lat="45.86813206880414" lon="8.978023043450078"><ele>335.0</ele><time>2026-04-23T16:36:34.999Z</time></trkpt><trkpt lat="45.86805062542037" lon="8.97792271656374"><ele>335.0</ele><time>2026-04-23T16:36:35.999Z</time></trkpt><trkpt lat="45.86796464211495" lon="8.977813360323632"><ele>335.0</ele><time>2026-04-23T16:36:37Z</time></trkpt><trkpt lat="45.86788763399677" lon="8.977720524296922"><ele>335.0</ele><time>2026-04-23T16:36:38Z</time></trkpt><trkpt lat="45.867855508481625" lon="8.977479544413514"><ele>335.0</ele><time>2026-04-23T16:36:39Z</time></trkpt><trkpt lat="45.867698568941336" lon="8.977486293802933"><ele>334.4</ele><time>2026-04-23T16:36:40Z</time></trkpt><trkpt lat="45.867608488750776" lon="8.977371534038502"><ele>333.8</ele><time>2026-04-23T16:36:41Z</time></trkpt><trkpt lat="45.8675149907458" lon="8.977265916345797"><ele>333.20000000000005</ele><time>2026-04-23T16:36:42Z</time></trkpt><trkpt lat="45.867442121720565" lon="8.977170201960742"><ele>332.6</ele><time>2026-04-23T16:36:43Z</time></trkpt><trkpt lat="45.867368267121556" lon="8.977089029894927"><ele>332.0</ele><time>2026-04-23T16:36:44Z</time></trkpt><trkpt lat="45.867300235034975" lon="8.97702596933081"><ele>332.0</ele><time>2026-04-23T16:36:45Z</time></trkpt><trkpt lat="45.86722925356416" lon="8.976977444363303"><ele>332.0</ele><time>2026-04-23T16:36:46Z</time></trkpt><trkpt lat="45.86719817621934" lon="8.97679168504463"><ele>332.0</ele><time>2026-04-23T16:36:47Z</time></trkpt><trkpt lat="45.8670997389599" lon="8.976749566012522"><ele>332.0</ele><time>2026-04-23T16:36:48Z</time></trkpt><trkpt lat="45.86699578970494" lon="8.976720621817986"><ele>332.0</ele><time>2026-04-23T16:36:49Z</time></trkpt><trkpt lat="45.866906059442314" lon="8.976703129000043"><ele>332.0</ele><time>2026-04-23T16:36:50Z</time></trkpt><trkpt lat="45.86680291720265" lon="8.976694388856373"><ele>332.0</ele><time>2026-04-23T16:36:51Z</time></trkpt><trkpt lat="45.86669339966667" lon="8.97670126484954"><ele>332.0</ele><time>2026-04-23T16:36:52Z</time></trkpt><trkpt lat="45.86658366355433" lon="8.976725280983592"><ele>332.0</ele><time>2026-04-23T16:36:53Z</time></trkpt><trkpt lat="45.86647095950031" lon="8.97677206012814"><ele>332.0</ele><time>2026-04-23T16:36:54Z</time></trkpt><trkpt lat="45.866399665846494" lon="8.976926301136636"><ele>332.0</ele><time>2026-04-23T16:36:55Z</time></trkpt><trkpt lat="45.86630807181661" lon="8.97698158224604"><ele>332.0</ele><time>2026-04-23T16:36:56Z</time></trkpt><trkpt lat="45.866222198688654" lon="8.977027398776196"><ele>332.0</ele><time>2026-04-23T16:36:57Z</time></trkpt><trkpt lat="45.866144160704486" lon="8.977047763527986"><ele>332.0</ele><time>2026-04-23T16:36:58Z</time></trkpt><trkpt lat="45.86607799503773" lon="8.977076425577819"><ele>332.0</ele><time>2026-04-23T16:36:59Z</time></trkpt><trkpt lat="45.8659939484278" lon="8.977012053069833"><ele>332.0</ele><time>2026-04-23T16:37:00Z</time></trkpt><trkpt lat="45.86592399300693" lon="8.977042950907663"><ele>332.0</ele><time>2026-04-23T16:37:03Z</time></trkpt><trkpt lat="45.865867987525455" lon="8.977120111370944"><ele>332.0</ele><time>2026-04-23T16:37:09Z</time></trkpt><trkpt lat="45.86578864068133" lon="8.977131327418958"><ele>332.0</ele><time>2026-04-23T16:37:11Z</time></trkpt><trkpt lat="45.865700679448274" lon="8.977119928285191"><ele>332.0</ele><time>2026-04-23T16:37:13Z</time></trkpt><trkpt lat="45.865556014695265" lon="8.97713560281897"><ele>332.0</ele><time>2026-04-23T16:37:15Z</time></trkpt><trkpt lat="45.865476400460274" lon="8.977142879062127"><ele>332.0</ele><time>2026-04-23T16:37:16Z</time></trkpt><trkpt lat="45.86538901362567" lon="8.977123083379526"><ele>332.0</ele><time>2026-04-23T16:37:17Z</time></trkpt><trkpt lat="45.86530492206712" lon="8.97708036821659"><ele>332.0</ele><time>2026-04-23T16:37:18Z</time></trkpt><trkpt lat="45.86526640270685" lon="8.97689859630081"><ele>332.0</ele><time>2026-04-23T16:37:18.999Z</time></trkpt><trkpt lat="45.86518436203903" lon="8.976825261243247"><ele>332.0</ele><time>2026-04-23T16:37:19.999Z</time></trkpt><trkpt lat="45.86511111235405" lon="8.976740025539737"><ele>332.40000000000003</ele><time>2026-04-23T16:37:20.999Z</time></trkpt><trkpt lat="45.86504241435156" lon="8.976638432221971"><ele>332.8</ele><time>2026-04-23T16:37:21.999Z</time></trkpt><trkpt lat="45.86497006482938" lon="8.976518863034245"><ele>333.2</ele><time>2026-04-23T16:37:22.999Z</time></trkpt><trkpt lat="45.864898160914066" lon="8.976399159081062"><ele>333.6</ele><time>2026-04-23T16:37:23.999Z</time></trkpt><trkpt lat="45.86481690397152" lon="8.976265383475665"><ele>334.0</ele><time>2026-04-23T16:37:24.999Z</time></trkpt><trkpt lat="45.86474064122951" lon="8.976141559118172"><ele>334.0</ele><time>2026-04-23T16:37:25.999Z</time></trkpt><trkpt lat="45.86466309448821" lon="8.976016677809"><ele>334.0</ele><time>2026-04-23T16:37:26.999Z</time></trkpt><trkpt lat="45.86458763885038" lon="8.975895902640268"><ele>334.0</ele><time>2026-04-23T16:37:27.999Z</time></trkpt><trkpt lat="45.86450836165429" lon="8.975770824198545"><ele>334.0</ele><time>2026-04-23T16:37:28.999Z</time></trkpt><trkpt lat="45.86442225408321" lon="8.975645173870307"><ele>333.75</ele><time>2026-04-23T16:37:29.999Z</time></trkpt><trkpt lat="45.86432910299038" lon="8.97553239714146"><ele>333.5</ele><time>2026-04-23T16:37:30.999Z</time></trkpt><trkpt lat="45.86422995283087" lon="8.97542493325987"><ele>333.25</ele><time>2026-04-23T16:37:31.999Z</time></trkpt><trkpt lat="45.86412999917769" lon="8.975334806043447"><ele>333.0</ele><time>2026-04-23T16:37:32.999Z</time></trkpt><trkpt lat="45.86402199822732" lon="8.97524944820166"><ele>333.75</ele><time>2026-04-23T16:37:33.999Z</time></trkpt><trkpt lat="45.863910602741825" lon="8.975164055398269"><ele>334.5</ele><time>2026-04-23T16:37:34.999Z</time></trkpt><trkpt lat="45.86380131084729" lon="8.975079759316444"><ele>335.25</ele><time>2026-04-23T16:37:35.999Z</time></trkpt><trkpt lat="45.86369459690146" lon="8.97499745145955"><ele>336.0</ele><time>2026-04-23T16:37:36.999Z</time></trkpt><trkpt lat="45.86359275041234" lon="8.974918897908022"><ele>336.0</ele><time>2026-04-23T16:37:37.999Z</time></trkpt><trkpt lat="45.86348955434937" lon="8.97484416801155"><ele>336.0</ele><time>2026-04-23T16:37:38.999Z</time></trkpt><trkpt lat="45.86336119602971" lon="8.97479806289829"><ele>336.0</ele><time>2026-04-23T16:37:39.999Z</time></trkpt><trkpt lat="45.86323071307596" lon="8.974816675649619"><ele>336.0</ele><time>2026-04-23T16:37:40.999Z</time></trkpt><trkpt lat="45.863127353665604" lon="8.97485643789675"><ele>336.6666666666667</ele><time>2026-04-23T16:37:41.999Z</time></trkpt><trkpt lat="45.863036947033976" lon="8.974892738277822"><ele>337.3333333333333</ele><time>2026-04-23T16:37:42.999Z</time></trkpt><trkpt lat="45.86296280350723" lon="8.974916537794856"><ele>338.0</ele><time>2026-04-23T16:37:43.999Z</time></trkpt><trkpt lat="45.86289612101783" lon="8.974939051806613"><ele>338.66666666666663</ele><time>2026-04-23T16:37:44.999Z</time></trkpt><trkpt lat="45.862790311835944" lon="8.974979606976522"><ele>339.3333333333333</ele><time>2026-04-23T16:37:46.999Z</time></trkpt><trkpt lat="45.8627321114672" lon="8.974912690377673"><ele>340.0</ele><time>2026-04-23T16:37:48.999Z</time></trkpt><trkpt lat="45.862725313402024" lon="8.97481566815192"><ele>340.0</ele><time>2026-04-23T16:37:49.999Z</time></trkpt><trkpt lat="45.86270138698499" lon="8.974694007881274"><ele>340.0</ele><time>2026-04-23T16:37:50.999Z</time></trkpt><trkpt lat="45.86267875330017" lon="8.974578794648902"><ele>340.0</ele><time>2026-04-23T16:37:51.999Z</time></trkpt><trkpt lat="45.86265407495168" lon="8.974458989882228"><ele>340.0</ele><time>2026-04-23T16:37:52.999Z</time></trkpt><trkpt lat="45.862624486652074" lon="8.974336419842015"><ele>340.0</ele><time>2026-04-23T16:37:53.999Z</time></trkpt><trkpt lat="45.86258428027223" lon="8.974217025566528"><ele>340.0</ele><time>2026-04-23T16:37:54.999Z</time></trkpt><trkpt lat="45.86254546261006" lon="8.974085413321509"><ele>340.6</ele><time>2026-04-23T16:37:55.999Z</time></trkpt><trkpt lat="45.86248888187327" lon="8.973952398253248"><ele>341.2</ele><time>2026-04-23T16:37:56.999Z</time></trkpt><trkpt lat="45.86245097297825" lon="8.973805793610065"><ele>341.79999999999995</ele><time>2026-04-23T16:37:57.999Z</time></trkpt><trkpt lat="45.86238905024193" lon="8.973671081516102"><ele>342.4</ele><time>2026-04-23T16:37:58.999Z</time></trkpt><trkpt lat="45.862329062758384" lon="8.973551288910352"><ele>343.0</ele><time>2026-04-23T16:37:59.999Z</time></trkpt><trkpt lat="45.86227830730139" lon="8.973457813600493"><ele>343.0</ele><time>2026-04-23T16:38:00.999Z</time></trkpt><trkpt lat="45.8622396606341" lon="8.97338572314816"><ele>343.0</ele><time>2026-04-23T16:38:01.999Z</time></trkpt><trkpt lat="45.862189776554395" lon="8.973275393094559"><ele>343.0</ele><time>2026-04-23T16:38:03.999Z</time></trkpt><trkpt lat="45.86212804595304" lon="8.973230189345038"><ele>343.0</ele><time>2026-04-23T16:38:06.999Z</time></trkpt><trkpt lat="45.862088255198614" lon="8.9731315643858"><ele>343.0</ele><time>2026-04-23T16:38:44Z</time></trkpt><trkpt lat="45.862022785270256" lon="8.973032612420111"><ele>343.0</ele><time>2026-04-23T16:38:46Z</time></trkpt><trkpt lat="45.86196561430564" lon="8.972954179342077"><ele>343.2</ele><time>2026-04-23T16:38:47Z</time></trkpt><trkpt lat="45.86190914234281" lon="8.972876705780026"><ele>343.4</ele><time>2026-04-23T16:38:48Z</time></trkpt><trkpt lat="45.86183699774236" lon="8.97278614849948"><ele>343.59999999999997</ele><time>2026-04-23T16:38:49Z</time></trkpt><trkpt lat="45.86176113590965" lon="8.972691190330856"><ele>343.79999999999995</ele><time>2026-04-23T16:38:50Z</time></trkpt><trkpt lat="45.861685013151565" lon="8.972591687010238"><ele>344.0</ele><time>2026-04-23T16:38:51Z</time></trkpt><trkpt lat="45.86161319139792" lon="8.972492898278757"><ele>343.5</ele><time>2026-04-23T16:38:52Z</time></trkpt><trkpt lat="45.86152410463152" lon="8.972369769503722"><ele>343.0</ele><time>2026-04-23T16:38:53Z</time></trkpt><trkpt lat="45.8614249168303" lon="8.972250503122549"><ele>342.5</ele><time>2026-04-23T16:38:54Z</time></trkpt><trkpt lat="45.861328039865484" lon="8.972133149388988"><ele>342.0</ele><time>2026-04-23T16:38:55Z</time></trkpt><trkpt lat="45.861227980037576" lon="8.972011940272612"><ele>342.0</ele><time>2026-04-23T16:38:56Z</time></trkpt><trkpt lat="45.86112455882079" lon="8.971901114593086"><ele>342.0</ele><time>2026-04-23T16:38:57Z</time></trkpt><trkpt lat="45.861017914676054" lon="8.971780493189291"><ele>342.0</ele><time>2026-04-23T16:38:58Z</time></trkpt><trkpt lat="45.860911312466" lon="8.97166552510611"><ele>342.0</ele><time>2026-04-23T16:38:59Z</time></trkpt><trkpt lat="45.860799671027884" lon="8.971541221824106"><ele>341.25</ele><time>2026-04-23T16:39:00Z</time></trkpt><trkpt lat="45.86068831683158" lon="8.971418487074974"><ele>340.5</ele><time>2026-04-23T16:39:01Z</time></trkpt><trkpt lat="45.86058351858024" lon="8.971302336853556"><ele>339.75</ele><time>2026-04-23T16:39:02Z</time></trkpt><trkpt lat="45.86047122428557" lon="8.971178155975082"><ele>339.0</ele><time>2026-04-23T16:39:03Z</time></trkpt><trkpt lat="45.860396480244624" lon="8.971130691882717"><ele>339.0</ele><time>2026-04-23T16:39:04Z</time></trkpt><trkpt lat="45.86030687330598" lon="8.971032930349871"><ele>339.0</ele><time>2026-04-23T16:39:05Z</time></trkpt><trkpt lat="45.86020807827292" lon="8.970947958203825"><ele>339.0</ele><time>2026-04-23T16:39:06Z</time></trkpt><trkpt lat="45.86013435952992" lon="8.970849361972686"><ele>339.0</ele><time>2026-04-23T16:39:07Z</time></trkpt><trkpt lat="45.86006660164019" lon="8.970767819867794"><ele>339.0</ele><time>2026-04-23T16:39:08Z</time></trkpt><trkpt lat="45.86003277043101" lon="8.970661743216917"><ele>339.2</ele><time>2026-04-23T16:39:09Z</time></trkpt><trkpt lat="45.86000187336609" lon="8.970554925196424"><ele>339.4</ele><time>2026-04-23T16:39:10Z</time></trkpt><trkpt lat="45.860013211830164" lon="8.97042509487909"><ele>339.6</ele><time>2026-04-23T16:39:11Z</time></trkpt><trkpt lat="45.85997917230897" lon="8.970329179242855"><ele>339.8</ele><time>2026-04-23T16:39:12Z</time></trkpt><trkpt lat="45.859899282274185" lon="8.970275260302923"><ele>340.0</ele><time>2026-04-23T16:39:13Z</time></trkpt><trkpt lat="45.85977039439434" lon="8.970336812334981"><ele>340.0</ele><time>2026-04-23T16:39:14Z</time></trkpt><trkpt lat="45.8596720045052" lon="8.97034028794265"><ele>340.0</ele><time>2026-04-23T16:39:15Z</time></trkpt><trkpt lat="45.85957328231552" lon="8.970352382645434"><ele>340.0</ele><time>2026-04-23T16:39:16Z</time></trkpt><trkpt lat="45.85949107769116" lon="8.970275883150894"><ele>340.0</ele><time>2026-04-23T16:39:17Z</time></trkpt><trkpt lat="45.8594096958437" lon="8.97023940602801"><ele>340.0</ele><time>2026-04-23T16:39:18Z</time></trkpt><trkpt lat="45.859328151025814" lon="8.970192141456108"><ele>340.5</ele><time>2026-04-23T16:39:19Z</time></trkpt><trkpt lat="45.85925054069138" lon="8.970147157235"><ele>341.0</ele><time>2026-04-23T16:39:20Z</time></trkpt><trkpt lat="45.859179300078516" lon="8.970105124266164"><ele>341.5</ele><time>2026-04-23T16:39:21Z</time></trkpt><trkpt lat="45.8591154876298" lon="8.970087752561398"><ele>342.0</ele><time>2026-04-23T16:39:22Z</time></trkpt><trkpt lat="45.85899701248477" lon="8.96999804502367"><ele>342.5</ele><time>2026-04-23T16:39:24Z</time></trkpt><trkpt lat="45.858923920200176" lon="8.969955349893556"><ele>343.0</ele><time>2026-04-23T16:39:25Z</time></trkpt><trkpt lat="45.858843926772316" lon="8.969900930722472"><ele>343.2</ele><time>2026-04-23T16:39:26Z</time></trkpt><trkpt lat="45.85875764571726" lon="8.969849082467327"><ele>343.4</ele><time>2026-04-23T16:39:27Z</time></trkpt><trkpt lat="45.85867149920048" lon="8.969790017976147"><ele>343.59999999999997</ele><time>2026-04-23T16:39:28Z</time></trkpt><trkpt lat="45.858577826652024" lon="8.96971992015611"><ele>343.79999999999995</ele><time>2026-04-23T16:39:29Z</time></trkpt><trkpt lat="45.858485115019924" lon="8.969667574806964"><ele>344.0</ele><time>2026-04-23T16:39:30Z</time></trkpt><trkpt lat="45.85839064055507" lon="8.969609775233211"><ele>344.0</ele><time>2026-04-23T16:39:31Z</time></trkpt><trkpt lat="45.85830239801911" lon="8.969542752316459"><ele>344.0</ele><time>2026-04-23T16:39:32Z</time></trkpt><trkpt lat="45.85821041861838" lon="8.969490826479626"><ele>344.0</ele><time>2026-04-23T16:39:33Z</time></trkpt><trkpt lat="45.85812387788323" lon="8.969434530557352"><ele>344.0</ele><time>2026-04-23T16:39:34Z</time></trkpt><trkpt lat="45.85805423201738" lon="8.969340243950333"><ele>344.0</ele><time>2026-04-23T16:39:35Z</time></trkpt><trkpt lat="45.85797171648738" lon="8.969283029649404"><ele>344.0</ele><time>2026-04-23T16:39:36Z</time></trkpt><trkpt lat="45.857908592134436" lon="8.969206653952085"><ele>344.0</ele><time>2026-04-23T16:39:37Z</time></trkpt><trkpt lat="45.85784372066339" lon="8.969163322740775"><ele>344.0</ele><time>2026-04-23T16:39:37.999Z</time></trkpt><trkpt lat="45.85779480900056" lon="8.96910409146476"><ele>344.0</ele><time>2026-04-23T16:39:38.999Z</time></trkpt><trkpt lat="45.857695617408034" lon="8.968968797226818"><ele>344.0</ele><time>2026-04-23T16:39:40.999Z</time></trkpt><trkpt lat="45.85761886300434" lon="8.968889283545488"><ele>343.6</ele><time>2026-04-23T16:39:41.999Z</time></trkpt><trkpt lat="45.85751136296339" lon="8.968852854490748"><ele>343.2</ele><time>2026-04-23T16:39:42.999Z</time></trkpt><trkpt lat="45.857408509795356" lon="8.968840936996445"><ele>342.8</ele><time>2026-04-23T16:39:43.999Z</time></trkpt><trkpt lat="45.85732742817031" lon="8.96880836261134"><ele>342.40000000000003</ele><time>2026-04-23T16:39:44.999Z</time></trkpt><trkpt lat="45.857266807452156" lon="8.968718393339945"><ele>342.0</ele><time>2026-04-23T16:39:45.999Z</time></trkpt><trkpt lat="45.857232568150486" lon="8.968624344004423"><ele>342.0</ele><time>2026-04-23T16:39:46.999Z</time></trkpt><trkpt lat="45.857175959771865" lon="8.968561412728278"><ele>342.0</ele><time>2026-04-23T16:39:47.999Z</time></trkpt><trkpt lat="45.857112705042006" lon="8.968491093380157"><ele>342.0</ele><time>2026-04-23T16:39:48.999Z</time></trkpt><trkpt lat="45.857048911988926" lon="8.968419970082852"><ele>342.0</ele><time>2026-04-23T16:39:49.999Z</time></trkpt><trkpt lat="45.856985987440446" lon="8.968347710085895"><ele>342.0</ele><time>2026-04-23T16:39:50.999Z</time></trkpt><trkpt lat="45.856926565890646" lon="8.96827395715457"><ele>342.0</ele><time>2026-04-23T16:39:51.999Z</time></trkpt><trkpt lat="45.856869691468475" lon="8.968201380641043"><ele>342.0</ele><time>2026-04-23T16:39:52.999Z</time></trkpt><trkpt lat="45.85681436460788" lon="8.968130363602489"><ele>342.0</ele><time>2026-04-23T16:39:53.999Z</time></trkpt><trkpt lat="45.85674566652242" lon="8.968042322997077"><ele>342.0</ele><time>2026-04-23T16:39:54.999Z</time></trkpt><trkpt lat="45.85669224451674" lon="8.967977334687628"><ele>342.0</ele><time>2026-04-23T16:39:55.999Z</time></trkpt><trkpt lat="45.856633649675075" lon="8.967912018714086"><ele>342.0</ele><time>2026-04-23T16:39:56.999Z</time></trkpt><trkpt lat="45.85656227352388" lon="8.967835476148162"><ele>342.0</ele><time>2026-04-23T16:39:57.999Z</time></trkpt><trkpt lat="45.856506155059826" lon="8.967775138655481"><ele>341.8333333333333</ele><time>2026-04-23T16:39:58.999Z</time></trkpt><trkpt lat="45.856447318374" lon="8.96771354752193"><ele>341.6666666666667</ele><time>2026-04-23T16:39:59.999Z</time></trkpt><trkpt lat="45.85638798193788" lon="8.967651767907702"><ele>341.5</ele><time>2026-04-23T16:40:00.999Z</time></trkpt><trkpt lat="45.85633212431013" lon="8.96759361030267"><ele>341.33333333333337</ele><time>2026-04-23T16:40:01.999Z</time></trkpt><trkpt lat="45.85625949186738" lon="8.967521339497036"><ele>341.1666666666667</ele><time>2026-04-23T16:40:02.999Z</time></trkpt><trkpt lat="45.85617996702342" lon="8.967443112085725"><ele>341.0</ele><time>2026-04-23T16:40:03.999Z</time></trkpt><trkpt lat="45.85609777000114" lon="8.967363507271836"><ele>341.25</ele><time>2026-04-23T16:40:04.999Z</time></trkpt><trkpt lat="45.85600407554117" lon="8.967277329330695"><ele>341.5</ele><time>2026-04-23T16:40:05.999Z</time></trkpt><trkpt lat="45.85590013652482" lon="8.967187882029108"><ele>341.75</ele><time>2026-04-23T16:40:06.999Z</time></trkpt><trkpt lat="45.855793773683466" lon="8.967100311361417"><ele>342.0</ele><time>2026-04-23T16:40:07.999Z</time></trkpt><trkpt lat="45.85569339185198" lon="8.967019882877706"><ele>342.0</ele><time>2026-04-23T16:40:08.999Z</time></trkpt><trkpt lat="45.85559130655301" lon="8.966942643291471"><ele>342.0</ele><time>2026-04-23T16:40:09.999Z</time></trkpt><trkpt lat="45.855492587553066" lon="8.966870528922703"><ele>342.0</ele><time>2026-04-23T16:40:10.999Z</time></trkpt><trkpt lat="45.855385980280424" lon="8.966794920446242"><ele>342.0</ele><time>2026-04-23T16:40:11.999Z</time></trkpt><trkpt lat="45.855282369286904" lon="8.966723487068483"><ele>342.0</ele><time>2026-04-23T16:40:12.999Z</time></trkpt><trkpt lat="45.85517810962618" lon="8.966653909548391"><ele>342.0</ele><time>2026-04-23T16:40:13.999Z</time></trkpt><trkpt lat="45.85507755184125" lon="8.966588109543071"><ele>342.0</ele><time>2026-04-23T16:40:14.999Z</time></trkpt><trkpt lat="45.8549775701301" lon="8.966523935752802"><ele>342.0</ele><time>2026-04-23T16:40:15.999Z</time></trkpt><trkpt lat="45.85487416565212" lon="8.966459448002922"><ele>342.0</ele><time>2026-04-23T16:40:16.999Z</time></trkpt><trkpt lat="45.85477298704636" lon="8.966395308857178"><ele>342.0</ele><time>2026-04-23T16:40:17.999Z</time></trkpt><trkpt lat="45.854669574853915" lon="8.966329755241626"><ele>342.0</ele><time>2026-04-23T16:40:18.999Z</time></trkpt><trkpt lat="45.85456673693948" lon="8.966263054306438"><ele>342.0</ele><time>2026-04-23T16:40:19.999Z</time></trkpt><trkpt lat="45.854456341635895" lon="8.966191403571694"><ele>342.0</ele><time>2026-04-23T16:40:20.999Z</time></trkpt><trkpt lat="45.85434121129704" lon="8.966116679561033"><ele>342.25</ele><time>2026-04-23T16:40:21.999Z</time></trkpt><trkpt lat="45.85421635911681" lon="8.966036035351147"><ele>342.5</ele><time>2026-04-23T16:40:22.999Z</time></trkpt><trkpt lat="45.85409159793625" lon="8.965956033374407"><ele>342.75</ele><time>2026-04-23T16:40:23.999Z</time></trkpt><trkpt lat="45.85396519556551" lon="8.965874979055586"><ele>343.0</ele><time>2026-04-23T16:40:24.999Z</time></trkpt><trkpt lat="45.85384660575538" lon="8.96579867168874"><ele>342.59999999999997</ele><time>2026-04-23T16:40:25.999Z</time></trkpt><trkpt lat="45.853739472079134" lon="8.965728908913754"><ele>342.2</ele><time>2026-04-23T16:40:26.999Z</time></trkpt><trkpt lat="45.85364328707934" lon="8.965662971307152"><ele>341.8</ele><time>2026-04-23T16:40:27.999Z</time></trkpt><trkpt lat="45.85355165019301" lon="8.965591823642983"><ele>341.4</ele><time>2026-04-23T16:40:28.999Z</time></trkpt><trkpt lat="45.85346484293744" lon="8.965518550653693"><ele>341.0</ele><time>2026-04-23T16:40:29.999Z</time></trkpt><trkpt lat="45.85338070664035" lon="8.965442078474897"><ele>340.8</ele><time>2026-04-23T16:40:30.999Z</time></trkpt><trkpt lat="45.85329596473961" lon="8.965358456956777"><ele>340.6</ele><time>2026-04-23T16:40:31.999Z</time></trkpt><trkpt lat="45.85321400032047" lon="8.965271926667887"><ele>340.4</ele><time>2026-04-23T16:40:32.999Z</time></trkpt><trkpt lat="45.85314155866239" lon="8.965183306256908"><ele>340.2</ele><time>2026-04-23T16:40:33.999Z</time></trkpt><trkpt lat="45.853065004985254" lon="8.965083325168992"><ele>340.0</ele><time>2026-04-23T16:40:34.999Z</time></trkpt><trkpt lat="45.85299342472888" lon="8.964984410016399"><ele>340.0</ele><time>2026-04-23T16:40:35.999Z</time></trkpt><trkpt lat="45.85292389072937" lon="8.964883522772613"><ele>340.0</ele><time>2026-04-23T16:40:36.999Z</time></trkpt><trkpt lat="45.85286145877513" lon="8.964783747338537"><ele>340.0</ele><time>2026-04-23T16:40:37.999Z</time></trkpt><trkpt lat="45.85279701140902" lon="8.964674066792556"><ele>340.0</ele><time>2026-04-23T16:40:38.999Z</time></trkpt><trkpt lat="45.85274038704873" lon="8.964561888124658"><ele>340.0</ele><time>2026-04-23T16:40:39.999Z</time></trkpt><trkpt lat="45.85268026744303" lon="8.964439184848572"><ele>340.2</ele><time>2026-04-23T16:40:40.999Z</time></trkpt><trkpt lat="45.852617792955925" lon="8.96431204938121"><ele>340.4</ele><time>2026-04-23T16:40:41.999Z</time></trkpt><trkpt lat="45.852556482815515" lon="8.964181177550524"><ele>340.6</ele><time>2026-04-23T16:40:42.999Z</time></trkpt><trkpt lat="45.85249298674711" lon="8.964047915136803"><ele>340.8</ele><time>2026-04-23T16:40:43.999Z</time></trkpt><trkpt lat="45.85243234462087" lon="8.963918439165907"><ele>341.0</ele><time>2026-04-23T16:40:44.999Z</time></trkpt><trkpt lat="45.852368656918664" lon="8.963782073094812"><ele>341.0</ele><time>2026-04-23T16:40:45.999Z</time></trkpt><trkpt lat="45.852304519565116" lon="8.96364474445862"><ele>341.0</ele><time>2026-04-23T16:40:46.999Z</time></trkpt><trkpt lat="45.852242433485245" lon="8.96350985543937"><ele>341.0</ele><time>2026-04-23T16:40:47.999Z</time></trkpt><trkpt lat="45.8521796565513" lon="8.963371468433905"><ele>341.0</ele><time>2026-04-23T16:40:49Z</time></trkpt><trkpt lat="45.85211498359918" lon="8.963228901890757"><ele>340.6</ele><time>2026-04-23T16:40:50Z</time></trkpt><trkpt lat="45.85204977527108" lon="8.96308207279855"><ele>340.20000000000005</ele><time>2026-04-23T16:40:51Z</time></trkpt><trkpt lat="45.85198876697167" lon="8.962944246497464"><ele>339.79999999999995</ele><time>2026-04-23T16:40:52Z</time></trkpt><trkpt lat="45.85193020468886" lon="8.962813057699252"><ele>339.4</ele><time>2026-04-23T16:40:53Z</time></trkpt><trkpt lat="45.85187793499037" lon="8.962697531163759"><ele>339.0</ele><time>2026-04-23T16:40:54Z</time></trkpt><trkpt lat="45.85182436066898" lon="8.962579121060802"><ele>339.0</ele><time>2026-04-23T16:40:55Z</time></trkpt><trkpt lat="45.85176725268515" lon="8.96245396034146"><ele>339.0</ele><time>2026-04-23T16:40:56Z</time></trkpt><trkpt lat="45.851710342581136" lon="8.962336705432866"><ele>339.0</ele><time>2026-04-23T16:40:57Z</time></trkpt><trkpt lat="45.851655914446575" lon="8.962218862223795"><ele>339.0</ele><time>2026-04-23T16:40:58Z</time></trkpt><trkpt lat="45.85159073399942" lon="8.96208757919388"><ele>339.0</ele><time>2026-04-23T16:40:59Z</time></trkpt><trkpt lat="45.85151170703163" lon="8.961963351366876"><ele>339.0</ele><time>2026-04-23T16:41:00Z</time></trkpt><trkpt lat="45.85142379063508" lon="8.96185058582012"><ele>339.0</ele><time>2026-04-23T16:41:01Z</time></trkpt><trkpt lat="45.85132856465271" lon="8.961749063960786"><ele>339.0</ele><time>2026-04-23T16:41:02Z</time></trkpt><trkpt lat="45.8512340935213" lon="8.961667626879144"><ele>339.0</ele><time>2026-04-23T16:41:03Z</time></trkpt><trkpt lat="45.85113365339242" lon="8.961602532902914"><ele>339.5</ele><time>2026-04-23T16:41:04Z</time></trkpt><trkpt lat="45.85102514513291" lon="8.961544557476524"><ele>340.0</ele><time>2026-04-23T16:41:05Z</time></trkpt><trkpt lat="45.850909476761196" lon="8.961507337361352"><ele>340.5</ele><time>2026-04-23T16:41:06Z</time></trkpt><trkpt lat="45.85079005537772" lon="8.961481309189443"><ele>341.0</ele><time>2026-04-23T16:41:07Z</time></trkpt><trkpt lat="45.850675255594815" lon="8.961460465226798"><ele>341.25</ele><time>2026-04-23T16:41:08Z</time></trkpt><trkpt lat="45.850550654847254" lon="8.961465937227544"><ele>341.5</ele><time>2026-04-23T16:41:09Z</time></trkpt><trkpt lat="45.850448088289454" lon="8.961594940421193"><ele>341.75</ele><time>2026-04-23T16:41:10Z</time></trkpt><trkpt lat="45.85034085709717" lon="8.961621909154513"><ele>342.0</ele><time>2026-04-23T16:41:11Z</time></trkpt><trkpt lat="45.85023908772609" lon="8.961659818113075"><ele>341.75</ele><time>2026-04-23T16:41:12Z</time></trkpt><trkpt lat="45.850142531619575" lon="8.961707373593036"><ele>341.5</ele><time>2026-04-23T16:41:13Z</time></trkpt><trkpt lat="45.850018657603975" lon="8.961657499380262"><ele>341.25</ele><time>2026-04-23T16:41:14Z</time></trkpt><trkpt lat="45.849919012929504" lon="8.96175901940727"><ele>341.0</ele><time>2026-04-23T16:41:15Z</time></trkpt><trkpt lat="45.849828854768425" lon="8.961848397504827"><ele>341.0</ele><time>2026-04-23T16:41:16Z</time></trkpt><trkpt lat="45.84974420519852" lon="8.961946618597194"><ele>341.0</ele><time>2026-04-23T16:41:17Z</time></trkpt><trkpt lat="45.84966322119487" lon="8.962041445515393"><ele>341.0</ele><time>2026-04-23T16:41:18Z</time></trkpt><trkpt lat="45.84958873677844" lon="8.962129070378507"><ele>341.0</ele><time>2026-04-23T16:41:19Z</time></trkpt><trkpt lat="45.84950413790053" lon="8.962228594290849"><ele>341.0</ele><time>2026-04-23T16:41:20Z</time></trkpt><trkpt lat="45.84941974780682" lon="8.962327872487515"><ele>341.0</ele><time>2026-04-23T16:41:21Z</time></trkpt><trkpt lat="45.8493337436737" lon="8.962429049483934"><ele>341.0</ele><time>2026-04-23T16:41:22Z</time></trkpt><trkpt lat="45.84925164288611" lon="8.96252563447459"><ele>341.0</ele><time>2026-04-23T16:41:23Z</time></trkpt><trkpt lat="45.849167993447054" lon="8.962624041333166"><ele>341.0</ele><time>2026-04-23T16:41:24Z</time></trkpt><trkpt lat="45.84908361876945" lon="8.962723301418418"><ele>341.0</ele><time>2026-04-23T16:41:25Z</time></trkpt><trkpt lat="45.8490102005169" lon="8.962809795365237"><ele>340.83333333333337</ele><time>2026-04-23T16:41:26Z</time></trkpt><trkpt lat="45.84894271840288" lon="8.962890373424747"><ele>340.6666666666667</ele><time>2026-04-23T16:41:27Z</time></trkpt><trkpt lat="45.848885992722494" lon="8.962958107548467"><ele>340.5</ele><time>2026-04-23T16:41:28Z</time></trkpt><trkpt lat="45.848830386912624" lon="8.963024504439433"><ele>340.3333333333333</ele><time>2026-04-23T16:41:29Z</time></trkpt><trkpt lat="45.848770729152434" lon="8.963095739672395"><ele>340.16666666666663</ele><time>2026-04-23T16:41:30Z</time></trkpt><trkpt lat="45.84870668866062" lon="8.96317175450983"><ele>340.0</ele><time>2026-04-23T16:41:31Z</time></trkpt><trkpt lat="45.84864062534616" lon="8.963247827379256"><ele>340.0</ele><time>2026-04-23T16:41:32Z</time></trkpt><trkpt lat="45.848577169006134" lon="8.963320898334423"><ele>340.0</ele><time>2026-04-23T16:41:33Z</time></trkpt><trkpt lat="45.84852140457509" lon="8.963385013506333"><ele>340.0</ele><time>2026-04-23T16:41:34Z</time></trkpt><trkpt lat="45.8484706799775" lon="8.963445841656094"><ele>340.0</ele><time>2026-04-23T16:41:35Z</time></trkpt><trkpt lat="45.848390014544194" lon="8.963547878163444"><ele>340.0</ele><time>2026-04-23T16:41:37Z</time></trkpt><trkpt lat="45.848334216173555" lon="8.963620155444376"><ele>340.0</ele><time>2026-04-23T16:41:39Z</time></trkpt><trkpt lat="45.84828229136789" lon="8.963557172401375"><ele>341.0</ele><time>2026-04-23T16:41:41Z</time></trkpt><trkpt lat="45.84821824948854" lon="8.963549564312038"><ele>342.0</ele><time>2026-04-23T16:41:42Z</time></trkpt><trkpt lat="45.848126052950924" lon="8.963564304278782"><ele>343.0</ele><time>2026-04-23T16:41:43Z</time></trkpt><trkpt lat="45.848047083852876" lon="8.963596526917938"><ele>344.0</ele><time>2026-04-23T16:41:44Z</time></trkpt><trkpt lat="45.847970141000005" lon="8.963628341997772"><ele>345.0</ele><time>2026-04-23T16:41:45Z</time></trkpt><trkpt lat="45.847897270342614" lon="8.963657559691862"><ele>346.0</ele><time>2026-04-23T16:41:46Z</time></trkpt><trkpt lat="45.84781720376652" lon="8.963689197732624"><ele>346.0</ele><time>2026-04-23T16:41:47Z</time></trkpt><trkpt lat="45.84773640088415" lon="8.96372112684187"><ele>346.0</ele><time>2026-04-23T16:41:47.999Z</time></trkpt><trkpt lat="45.84765973694613" lon="8.963752223253524"><ele>346.0</ele><time>2026-04-23T16:41:48.999Z</time></trkpt><trkpt lat="45.84757976016485" lon="8.96378496105644"><ele>346.0</ele><time>2026-04-23T16:41:50Z</time></trkpt><trkpt lat="45.847499937888244" lon="8.963817635638845"><ele>346.0</ele><time>2026-04-23T16:41:50.999Z</time></trkpt><trkpt lat="45.8474149780108" lon="8.963851965564869"><ele>346.0</ele><time>2026-04-23T16:41:51.999Z</time></trkpt><trkpt lat="45.847323702207824" lon="8.963887939574057"><ele>348.6</ele><time>2026-04-23T16:41:52.999Z</time></trkpt><trkpt lat="45.8472284533209" lon="8.963925479494543"><ele>351.20000000000005</ele><time>2026-04-23T16:41:53.999Z</time></trkpt><trkpt lat="45.847143367740486" lon="8.963959013826399"><ele>353.79999999999995</ele><time>2026-04-23T16:41:54.999Z</time></trkpt><trkpt lat="45.84705417037228" lon="8.963994664234948"><ele>356.4</ele><time>2026-04-23T16:41:55.999Z</time></trkpt><trkpt lat="45.84695987533379" lon="8.964032834049226"><ele>359.0</ele><time>2026-04-23T16:41:56.999Z</time></trkpt><trkpt lat="45.846864214218016" lon="8.964071556801091"><ele>360.4</ele><time>2026-04-23T16:41:57.999Z</time></trkpt><trkpt lat="45.846767810215155" lon="8.964110207383737"><ele>361.79999999999995</ele><time>2026-04-23T16:41:58.999Z</time></trkpt><trkpt lat="45.84668084249187" lon="8.964141680613725"><ele>363.20000000000005</ele><time>2026-04-23T16:41:59.999Z</time></trkpt><trkpt lat="45.846585096357956" lon="8.964173157394928"><ele>364.6</ele><time>2026-04-23T16:42:00.999Z</time></trkpt><trkpt lat="45.84649011118396" lon="8.96419981000791"><ele>366.0</ele><time>2026-04-23T16:42:01.999Z</time></trkpt><trkpt lat="45.84639386812072" lon="8.964221484570992"><ele>366.0</ele><time>2026-04-23T16:42:02.999Z</time></trkpt><trkpt lat="45.84629209898561" lon="8.964234669854358"><ele>366.0</ele><time>2026-04-23T16:42:03.999Z</time></trkpt><trkpt lat="45.846193876230835" lon="8.9642390430009"><ele>366.0</ele><time>2026-04-23T16:42:04.999Z</time></trkpt><trkpt lat="45.84609492559985" lon="8.964234260615369"><ele>366.0</ele><time>2026-04-23T16:42:05.999Z</time></trkpt><trkpt lat="45.84600149051421" lon="8.964222058497253"><ele>366.0</ele><time>2026-04-23T16:42:06.999Z</time></trkpt><trkpt lat="45.84588740984633" lon="8.964201153458877"><ele>367.6</ele><time>2026-04-23T16:42:07.999Z</time></trkpt><trkpt lat="45.845773488352656" lon="8.964173619054275"><ele>369.20000000000005</ele><time>2026-04-23T16:42:08.999Z</time></trkpt><trkpt lat="45.845667765584146" lon="8.964141806160503"><ele>370.79999999999995</ele><time>2026-04-23T16:42:09.999Z</time></trkpt><trkpt lat="45.845564126096264" lon="8.964107478536187"><ele>372.4</ele><time>2026-04-23T16:42:10.999Z</time></trkpt><trkpt lat="45.84546701220699" lon="8.964058122817887"><ele>374.0</ele><time>2026-04-23T16:42:11.999Z</time></trkpt><trkpt lat="45.84535820440268" lon="8.964004856148017"><ele>374.0</ele><time>2026-04-23T16:42:12.999Z</time></trkpt><trkpt lat="45.84522820606106" lon="8.964064164525416"><ele>374.0</ele><time>2026-04-23T16:42:13.999Z</time></trkpt><trkpt lat="45.84511657904095" lon="8.964010543898153"><ele>374.0</ele><time>2026-04-23T16:42:14.999Z</time></trkpt><trkpt lat="45.84500672137832" lon="8.963958455716156"><ele>374.0</ele><time>2026-04-23T16:42:15.999Z</time></trkpt><trkpt lat="45.844891034925055" lon="8.963906327493667"><ele>375.25</ele><time>2026-04-23T16:42:16.999Z</time></trkpt><trkpt lat="45.84480629891818" lon="8.96374643726169"><ele>376.5</ele><time>2026-04-23T16:42:17.999Z</time></trkpt><trkpt lat="45.84469207427837" lon="8.963695265052204"><ele>377.75</ele><time>2026-04-23T16:42:18.999Z</time></trkpt><trkpt lat="45.84457905493542" lon="8.963644535282244"><ele>379.0</ele><time>2026-04-23T16:42:19.999Z</time></trkpt><trkpt lat="45.84446216745734" lon="8.963592069253487"><ele>379.0</ele><time>2026-04-23T16:42:20.999Z</time></trkpt><trkpt lat="45.84434770912154" lon="8.963540693561665"><ele>379.0</ele><time>2026-04-23T16:42:21.999Z</time></trkpt><trkpt lat="45.844239722589016" lon="8.963482625742648"><ele>379.0</ele><time>2026-04-23T16:42:22.999Z</time></trkpt><trkpt lat="45.84412346884871" lon="8.963416023834752"><ele>379.0</ele><time>2026-04-23T16:42:23.999Z</time></trkpt><trkpt lat="45.844012174070464" lon="8.963356064397233"><ele>380.25</ele><time>2026-04-23T16:42:24.999Z</time></trkpt><trkpt lat="45.84388770241369" lon="8.963292890596449"><ele>381.5</ele><time>2026-04-23T16:42:25.999Z</time></trkpt><trkpt lat="45.843771944112916" lon="8.963236285465017"><ele>382.75</ele><time>2026-04-23T16:42:26.999Z</time></trkpt><trkpt lat="45.843660658410734" lon="8.96318429130634"><ele>384.0</ele><time>2026-04-23T16:42:27.999Z</time></trkpt><trkpt lat="45.8435435107519" lon="8.96312974625464"><ele>385.0</ele><time>2026-04-23T16:42:28.999Z</time></trkpt><trkpt lat="45.84343317146366" lon="8.963078671490809"><ele>386.0</ele><time>2026-04-23T16:42:29.999Z</time></trkpt><trkpt lat="45.84332009305402" lon="8.963026328799579"><ele>387.0</ele><time>2026-04-23T16:42:30.999Z</time></trkpt><trkpt lat="45.84320771793373" lon="8.96297421465213"><ele>388.0</ele><time>2026-04-23T16:42:31.999Z</time></trkpt><trkpt lat="45.843093884401675" lon="8.96292117316406"><ele>388.0</ele><time>2026-04-23T16:42:32.999Z</time></trkpt><trkpt lat="45.84298354775507" lon="8.962869759850825"><ele>388.0</ele><time>2026-04-23T16:42:33.999Z</time></trkpt><trkpt lat="45.84286846318444" lon="8.962808729614602"><ele>388.0</ele><time>2026-04-23T16:42:34.999Z</time></trkpt><trkpt lat="45.84275548325854" lon="8.962756583905596"><ele>388.0</ele><time>2026-04-23T16:42:35.999Z</time></trkpt><trkpt lat="45.8426430697966" lon="8.962699065343509"><ele>390.0</ele><time>2026-04-23T16:42:36.999Z</time></trkpt><trkpt lat="45.842535933511186" lon="8.962642413871793"><ele>392.0</ele><time>2026-04-23T16:42:37.999Z</time></trkpt><trkpt lat="45.84242228493833" lon="8.96258471591421"><ele>394.0</ele><time>2026-04-23T16:42:38.999Z</time></trkpt><trkpt lat="45.84231339334455" lon="8.962517726055053"><ele>396.0</ele><time>2026-04-23T16:42:39.999Z</time></trkpt><trkpt lat="45.842205382752375" lon="8.962430471961476"><ele>396.0</ele><time>2026-04-23T16:42:40.999Z</time></trkpt><trkpt lat="45.84209805855217" lon="8.962345266208903"><ele>396.0</ele><time>2026-04-23T16:42:41.999Z</time></trkpt><trkpt lat="45.84199116825195" lon="8.962256671483786"><ele>396.0</ele><time>2026-04-23T16:42:42.999Z</time></trkpt><trkpt lat="45.8418866851008" lon="8.962161396800752"><ele>396.0</ele><time>2026-04-23T16:42:43.999Z</time></trkpt><trkpt lat="45.84178882910369" lon="8.962064477128274"><ele>398.0</ele><time>2026-04-23T16:42:44.999Z</time></trkpt><trkpt lat="45.841705296170844" lon="8.961985755142484"><ele>400.0</ele><time>2026-04-23T16:42:45.999Z</time></trkpt><trkpt lat="45.84160523473516" lon="8.961846689744696"><ele>402.0</ele><time>2026-04-23T16:42:46.999Z</time></trkpt><trkpt lat="45.841518603826145" lon="8.96172257414993"><ele>404.0</ele><time>2026-04-23T16:42:47.999Z</time></trkpt><trkpt lat="45.841433188571045" lon="8.961594156902885"><ele>404.0</ele><time>2026-04-23T16:42:48.999Z</time></trkpt><trkpt lat="45.841356630443705" lon="8.961471455458566"><ele>404.0</ele><time>2026-04-23T16:42:49.999Z</time></trkpt><trkpt lat="45.841277791064506" lon="8.961342679016665"><ele>404.0</ele><time>2026-04-23T16:42:50.999Z</time></trkpt><trkpt lat="45.84121467256258" lon="8.96119748944561"><ele>404.0</ele><time>2026-04-23T16:42:51.999Z</time></trkpt><trkpt lat="45.84114316871231" lon="8.961066778772645"><ele>404.0</ele><time>2026-04-23T16:42:52.999Z</time></trkpt><trkpt lat="45.841070367914185" lon="8.960933233091868"><ele>404.0</ele><time>2026-04-23T16:42:53.999Z</time></trkpt><trkpt lat="45.84100264033992" lon="8.960809168331215"><ele>404.0</ele><time>2026-04-23T16:42:55Z</time></trkpt><trkpt lat="45.84093063035934" lon="8.960677967306035"><ele>404.0</ele><time>2026-04-23T16:42:56Z</time></trkpt><trkpt lat="45.840859908625795" lon="8.96055069378945"><ele>405.79999999999995</ele><time>2026-04-23T16:42:57Z</time></trkpt><trkpt lat="45.84079061361711" lon="8.96042524282692"><ele>407.59999999999997</ele><time>2026-04-23T16:42:58Z</time></trkpt><trkpt lat="45.8407039867778" lon="8.960316913636257"><ele>409.4</ele><time>2026-04-23T16:42:59Z</time></trkpt><trkpt lat="45.84065825062866" lon="8.960179566548465"><ele>411.2</ele><time>2026-04-23T16:43:00Z</time></trkpt><trkpt lat="45.84059981205099" lon="8.960048610519406"><ele>413.0</ele><time>2026-04-23T16:43:01Z</time></trkpt><trkpt lat="45.8405247114135" lon="8.959925271396115"><ele>413.59999999999997</ele><time>2026-04-23T16:43:02Z</time></trkpt><trkpt lat="45.840476691762426" lon="8.95977835497953"><ele>414.2</ele><time>2026-04-23T16:43:03Z</time></trkpt><trkpt lat="45.84040971821556" lon="8.959641826960924"><ele>414.8</ele><time>2026-04-23T16:43:04Z</time></trkpt><trkpt lat="45.84034086641052" lon="8.959541961294795"><ele>415.4</ele><time>2026-04-23T16:43:05Z</time></trkpt><trkpt lat="45.840303197918324" lon="8.959438550241869"><ele>416.0</ele><time>2026-04-23T16:43:06Z</time></trkpt><trkpt lat="45.840273561834" lon="8.959356359937953"><ele>416.0</ele><time>2026-04-23T16:43:07Z</time></trkpt><trkpt lat="45.84024594553811" lon="8.95926707051427"><ele>416.0</ele><time>2026-04-23T16:43:08Z</time></trkpt><trkpt lat="45.84022595519388" lon="8.959173954162738"><ele>416.0</ele><time>2026-04-23T16:43:09Z</time></trkpt><trkpt lat="45.84019783056393" lon="8.959015949938689"><ele>416.0</ele><time>2026-04-23T16:43:11Z</time></trkpt><trkpt lat="45.84015733618962" lon="8.958879262627637"><ele>416.0</ele><time>2026-04-23T16:43:13Z</time></trkpt><trkpt lat="45.840108828557" lon="8.958756151024426"><ele>418.3333333333333</ele><time>2026-04-23T16:43:15Z</time></trkpt><trkpt lat="45.84005214404924" lon="8.958645620492854"><ele>420.66666666666663</ele><time>2026-04-23T16:43:17Z</time></trkpt><trkpt lat="45.840013099556586" lon="8.95857438694836"><ele>423.0</ele><time>2026-04-23T16:43:18Z</time></trkpt><trkpt lat="45.83997129780893" lon="8.958498869047625"><ele>425.33333333333337</ele><time>2026-04-23T16:43:19Z</time></trkpt><trkpt lat="45.83991288330415" lon="8.95839959024137"><ele>427.6666666666667</ele><time>2026-04-23T16:43:20Z</time></trkpt><trkpt lat="45.83983611472642" lon="8.958296559458159"><ele>430.0</ele><time>2026-04-23T16:43:21Z</time></trkpt><trkpt lat="45.839765938690505" lon="8.958200987784252"><ele>430.2</ele><time>2026-04-23T16:43:22Z</time></trkpt><trkpt lat="45.83970215310074" lon="8.958099447577958"><ele>430.4</ele><time>2026-04-23T16:43:23Z</time></trkpt><trkpt lat="45.839636124604496" lon="8.957986336508949"><ele>430.6</ele><time>2026-04-23T16:43:24Z</time></trkpt><trkpt lat="45.83955966301481" lon="8.957854326704803"><ele>430.8</ele><time>2026-04-23T16:43:25Z</time></trkpt><trkpt lat="45.83948528493529" lon="8.957748048781944"><ele>431.0</ele><time>2026-04-23T16:43:26Z</time></trkpt><trkpt lat="45.839433149922435" lon="8.957585303472097"><ele>431.25</ele><time>2026-04-23T16:43:27Z</time></trkpt><trkpt lat="45.839377394644714" lon="8.957424182336354"><ele>431.5</ele><time>2026-04-23T16:43:28Z</time></trkpt><trkpt lat="45.839319945711416" lon="8.957251386258532"><ele>431.75</ele><time>2026-04-23T16:43:29Z</time></trkpt><trkpt lat="45.839264976310254" lon="8.957085544176369"><ele>432.0</ele><time>2026-04-23T16:43:30Z</time></trkpt><trkpt lat="45.83920582231156" lon="8.956920062440945"><ele>433.33333333333337</ele><time>2026-04-23T16:43:31Z</time></trkpt><trkpt lat="45.839131633655256" lon="8.956723348071858"><ele>434.6666666666667</ele><time>2026-04-23T16:43:32Z</time></trkpt><trkpt lat="45.839060710918474" lon="8.956517653712677"><ele>436.0</ele><time>2026-04-23T16:43:33Z</time></trkpt><trkpt lat="45.83899075582274" lon="8.956295820427167"><ele>436.0</ele><time>2026-04-23T16:43:34Z</time></trkpt><trkpt lat="45.83890320081095" lon="8.95604660574444"><ele>436.0</ele><time>2026-04-23T16:43:35Z</time></trkpt><trkpt lat="45.83882578229362" lon="8.955799030008592"><ele>436.0</ele><time>2026-04-23T16:43:36Z</time></trkpt><trkpt lat="45.83874330269962" lon="8.95555524292689"><ele>436.6666666666667</ele><time>2026-04-23T16:43:37Z</time></trkpt><trkpt lat="45.838651545518644" lon="8.95531720739093"><ele>437.33333333333337</ele><time>2026-04-23T16:43:38Z</time></trkpt><trkpt lat="45.838560201448935" lon="8.955102740890496"><ele>438.0</ele><time>2026-04-23T16:43:39Z</time></trkpt><trkpt lat="45.838462632134245" lon="8.954884793532928"><ele>438.0</ele><time>2026-04-23T16:43:40Z</time></trkpt><trkpt lat="45.83836109482568" lon="8.954666236738364"><ele>438.0</ele><time>2026-04-23T16:43:41Z</time></trkpt><trkpt lat="45.83826309729171" lon="8.954454029786323"><ele>438.0</ele><time>2026-04-23T16:43:42Z</time></trkpt><trkpt lat="45.83818403553646" lon="8.954234940592109"><ele>434.66666666666663</ele><time>2026-04-23T16:43:43Z</time></trkpt><trkpt lat="45.83809332196424" lon="8.95403375289129"><ele>431.3333333333333</ele><time>2026-04-23T16:43:44Z</time></trkpt><trkpt lat="45.83800368396653" lon="8.953834813127319"><ele>428.0</ele><time>2026-04-23T16:43:45Z</time></trkpt><trkpt lat="45.83792035389982" lon="8.953647353334658"><ele>428.0</ele><time>2026-04-23T16:43:46Z</time></trkpt><trkpt lat="45.837841515402275" lon="8.953471289427597"><ele>428.0</ele><time>2026-04-23T16:43:47Z</time></trkpt><trkpt lat="45.83776650506266" lon="8.953304998773993"><ele>428.0</ele><time>2026-04-23T16:43:48Z</time></trkpt><trkpt lat="45.837691202871355" lon="8.953136634304995"><ele>428.0</ele><time>2026-04-23T16:43:49Z</time></trkpt><trkpt lat="45.837610921176264" lon="8.95298320682329"><ele>428.0</ele><time>2026-04-23T16:43:50Z</time></trkpt><trkpt lat="45.837545190807965" lon="8.952820059000777"><ele>428.0</ele><time>2026-04-23T16:43:51Z</time></trkpt><trkpt lat="45.83746977525606" lon="8.952658359091524"><ele>428.0</ele><time>2026-04-23T16:43:52Z</time></trkpt><trkpt lat="45.837382660311654" lon="8.952471677595145"><ele>428.0</ele><time>2026-04-23T16:43:53Z</time></trkpt><trkpt lat="45.837297637252355" lon="8.952289339276032"><ele>428.0</ele><time>2026-04-23T16:43:54Z</time></trkpt><trkpt lat="45.837229934604345" lon="8.952130481162357"><ele>428.0</ele><time>2026-04-23T16:43:55Z</time></trkpt><trkpt lat="45.83716052620565" lon="8.951972765155718"><ele>428.0</ele><time>2026-04-23T16:43:56Z</time></trkpt><trkpt lat="45.83707450801162" lon="8.95179566661426"><ele>428.0</ele><time>2026-04-23T16:43:57Z</time></trkpt><trkpt lat="45.83696639607299" lon="8.951587126120756"><ele>425.66666666666663</ele><time>2026-04-23T16:43:58Z</time></trkpt><trkpt lat="45.83689018368615" lon="8.951391423740096"><ele>423.33333333333337</ele><time>2026-04-23T16:43:58.999Z</time></trkpt><trkpt lat="45.83679266393834" lon="8.951211457692763"><ele>421.0</ele><time>2026-04-23T16:43:59.999Z</time></trkpt><trkpt lat="45.83668932833146" lon="8.951033944361901"><ele>425.33333333333337</ele><time>2026-04-23T16:44:00.999Z</time></trkpt><trkpt lat="45.83657343594431" lon="8.950860477340175"><ele>429.66666666666663</ele><time>2026-04-23T16:44:01.999Z</time></trkpt><trkpt lat="45.8364591286262" lon="8.950712021804764"><ele>434.0</ele><time>2026-04-23T16:44:02.999Z</time></trkpt><trkpt lat="45.836344684763226" lon="8.950574315034963"><ele>434.0</ele><time>2026-04-23T16:44:03.999Z</time></trkpt><trkpt lat="45.83622483219275" lon="8.95044498375342"><ele>434.0</ele><time>2026-04-23T16:44:04.999Z</time></trkpt><trkpt lat="45.83609919203896" lon="8.950325665834242"><ele>434.0</ele><time>2026-04-23T16:44:05.999Z</time></trkpt><trkpt lat="45.83597140545644" lon="8.95021542835855"><ele>437.66666666666663</ele><time>2026-04-23T16:44:06.999Z</time></trkpt><trkpt lat="45.83582564232827" lon="8.950107494533041"><ele>441.33333333333337</ele><time>2026-04-23T16:44:07.999Z</time></trkpt><trkpt lat="45.835684147729374" lon="8.950018875625396"><ele>445.0</ele><time>2026-04-23T16:44:08.999Z</time></trkpt><trkpt lat="45.835539954965625" lon="8.949945925234312"><ele>445.0</ele><time>2026-04-23T16:44:09.999Z</time></trkpt><trkpt lat="45.83539386295284" lon="8.949881816350324"><ele>445.0</ele><time>2026-04-23T16:44:10.999Z</time></trkpt><trkpt lat="45.83523482918243" lon="8.949828156946365"><ele>445.0</ele><time>2026-04-23T16:44:11.999Z</time></trkpt><trkpt lat="45.83506242651134" lon="8.949785770534877"><ele>446.5</ele><time>2026-04-23T16:44:12.999Z</time></trkpt><trkpt lat="45.834903991690545" lon="8.94976169102848"><ele>448.0</ele><time>2026-04-23T16:44:13.999Z</time></trkpt><trkpt lat="45.83476223361579" lon="8.949747516664509"><ele>449.5</ele><time>2026-04-23T16:44:14.999Z</time></trkpt><trkpt lat="45.83464004888411" lon="8.949741153922599"><ele>451.0</ele><time>2026-04-23T16:44:15.999Z</time></trkpt><trkpt lat="45.83450876733097" lon="8.949735344305523"><ele>451.0</ele><time>2026-04-23T16:44:16.999Z</time></trkpt><trkpt lat="45.834385545420965" lon="8.949735446619757"><ele>451.0</ele><time>2026-04-23T16:44:17.999Z</time></trkpt><trkpt lat="45.834270771951665" lon="8.949748902175369"><ele>451.0</ele><time>2026-04-23T16:44:18.999Z</time></trkpt><trkpt lat="45.83417187070086" lon="8.949747477675409"><ele>451.0</ele><time>2026-04-23T16:44:19.999Z</time></trkpt><trkpt lat="45.834084345561514" lon="8.949745236050056"><ele>451.0</ele><time>2026-04-23T16:44:20.999Z</time></trkpt><trkpt lat="45.834009614605804" lon="8.94974120916117"><ele>449.25</ele><time>2026-04-23T16:44:21.999Z</time></trkpt><trkpt lat="45.83395385021067" lon="8.949663327553539"><ele>447.5</ele><time>2026-04-23T16:44:22.999Z</time></trkpt><trkpt lat="45.83385031682157" lon="8.949639934147648"><ele>445.75</ele><time>2026-04-23T16:44:23.999Z</time></trkpt><trkpt lat="45.83373020843871" lon="8.949794036959632"><ele>444.0</ele><time>2026-04-23T16:44:24.999Z</time></trkpt><trkpt lat="45.83360280898772" lon="8.949838043250919"><ele>441.66666666666663</ele><time>2026-04-23T16:44:25.999Z</time></trkpt><trkpt lat="45.83346062958427" lon="8.949864927801697"><ele>439.3333333333333</ele><time>2026-04-23T16:44:26.999Z</time></trkpt><trkpt lat="45.833300578880504" lon="8.949881616183143"><ele>437.0</ele><time>2026-04-23T16:44:27.999Z</time></trkpt><trkpt lat="45.83313619230202" lon="8.949768728634567"><ele>437.0</ele><time>2026-04-23T16:44:28.999Z</time></trkpt><trkpt lat="45.83297174962352" lon="8.949758493839534"><ele>437.0</ele><time>2026-04-23T16:44:29.999Z</time></trkpt><trkpt lat="45.83280330710237" lon="8.94973329856066"><ele>437.0</ele><time>2026-04-23T16:44:30.999Z</time></trkpt><trkpt lat="45.83262928087281" lon="8.949701175867014"><ele>436.3333333333333</ele><time>2026-04-23T16:44:31.999Z</time></trkpt><trkpt lat="45.83246156058312" lon="8.949668758726073"><ele>435.66666666666663</ele><time>2026-04-23T16:44:32.999Z</time></trkpt><trkpt lat="45.83230484982106" lon="8.949637125612982"><ele>435.0</ele><time>2026-04-23T16:44:33.999Z</time></trkpt><trkpt lat="45.83213962984521" lon="8.949603483693783"><ele>435.0</ele><time>2026-04-23T16:44:34.999Z</time></trkpt><trkpt lat="45.83193242771346" lon="8.949687590329399"><ele>435.0</ele><time>2026-04-23T16:44:35.999Z</time></trkpt><trkpt lat="45.83170675588203" lon="8.949666006808428"><ele>435.0</ele><time>2026-04-23T16:44:36.999Z</time></trkpt><trkpt lat="45.83148841855101" lon="8.949626287782234"><ele>433.66666666666663</ele><time>2026-04-23T16:44:37.999Z</time></trkpt><trkpt lat="45.83128342383274" lon="8.949580838944865"><ele>432.3333333333333</ele><time>2026-04-23T16:44:38.999Z</time></trkpt><trkpt lat="45.831109760362374" lon="8.949408012173631"><ele>431.0</ele><time>2026-04-23T16:44:39.999Z</time></trkpt><trkpt lat="45.830956563952704" lon="8.949379620054827"><ele>430.8</ele><time>2026-04-23T16:44:40.999Z</time></trkpt><trkpt lat="45.8308213630068" lon="8.949354563063391"><ele>430.6</ele><time>2026-04-23T16:44:41.999Z</time></trkpt><trkpt lat="45.830717463269366" lon="8.949335307167901"><ele>430.4</ele><time>2026-04-23T16:44:42.999Z</time></trkpt><trkpt lat="45.830624223354306" lon="8.94931802687374"><ele>430.2</ele><time>2026-04-23T16:44:43.999Z</time></trkpt><trkpt lat="45.83054641745937" lon="8.949313672707442"><ele>430.0</ele><time>2026-04-23T16:44:44.999Z</time></trkpt><trkpt lat="45.83046848064048" lon="8.949256674931014"><ele>430.0</ele><time>2026-04-23T16:44:45.999Z</time></trkpt><trkpt lat="45.830373335202395" lon="8.949261738507783"><ele>430.0</ele><time>2026-04-23T16:44:46.999Z</time></trkpt><trkpt lat="45.830277636004354" lon="8.949310040075016"><ele>430.0</ele><time>2026-04-23T16:44:47.999Z</time></trkpt><trkpt lat="45.830186873897546" lon="8.949220984004057"><ele>430.0</ele><time>2026-04-23T16:44:48.999Z</time></trkpt><trkpt lat="45.83008724732835" lon="8.949203830202194"><ele>430.0</ele><time>2026-04-23T16:44:49.999Z</time></trkpt><trkpt lat="45.82998458086787" lon="8.949184763729855"><ele>428.75</ele><time>2026-04-23T16:44:50.999Z</time></trkpt><trkpt lat="45.829878482488084" lon="8.949164420134093"><ele>427.5</ele><time>2026-04-23T16:44:51.999Z</time></trkpt><trkpt lat="45.829762386346395" lon="8.949142159538294"><ele>426.25</ele><time>2026-04-23T16:44:52.999Z</time></trkpt><trkpt lat="45.82964910736086" lon="8.949120439105613"><ele>425.0</ele><time>2026-04-23T16:44:53.999Z</time></trkpt><trkpt lat="45.82953496074109" lon="8.949098830615714"><ele>425.0</ele><time>2026-04-23T16:44:54.999Z</time></trkpt><trkpt lat="45.82943264842421" lon="8.949080902046774"><ele>425.0</ele><time>2026-04-23T16:44:55.999Z</time></trkpt><trkpt lat="45.829336436626264" lon="8.949064042502865"><ele>425.0</ele><time>2026-04-23T16:44:56.999Z</time></trkpt><trkpt lat="45.82923279447937" lon="8.949050404097628"><ele>425.0</ele><time>2026-04-23T16:44:57.999Z</time></trkpt><trkpt lat="45.82911343243592" lon="8.949042769041045"><ele>425.0</ele><time>2026-04-23T16:44:58.999Z</time></trkpt><trkpt lat="45.828986666095446" lon="8.949035287372926"><ele>424.5</ele><time>2026-04-23T16:44:59.999Z</time></trkpt><trkpt lat="45.82886774538272" lon="8.949028268748236"><ele>424.0</ele><time>2026-04-23T16:45:01Z</time></trkpt><trkpt lat="45.8287641444695" lon="8.949022154287212"><ele>423.5</ele><time>2026-04-23T16:45:02Z</time></trkpt><trkpt lat="45.82863935558119" lon="8.949234027339777"><ele>423.0</ele><time>2026-04-23T16:45:03Z</time></trkpt><trkpt lat="45.82850423080378" lon="8.949266072157693"><ele>422.25</ele><time>2026-04-23T16:45:04Z</time></trkpt><trkpt lat="45.82836829759752" lon="8.949312039710819"><ele>421.5</ele><time>2026-04-23T16:45:05Z</time></trkpt><trkpt lat="45.828237892396565" lon="8.94934952623987"><ele>420.75</ele><time>2026-04-23T16:45:06Z</time></trkpt><trkpt lat="45.82812354792699" lon="8.94938821421515"><ele>420.0</ele><time>2026-04-23T16:45:07Z</time></trkpt><trkpt lat="45.82802322747929" lon="8.949419711699218"><ele>420.0</ele><time>2026-04-23T16:45:08Z</time></trkpt><trkpt lat="45.82793934384063" lon="8.94944083212275"><ele>420.0</ele><time>2026-04-23T16:45:09Z</time></trkpt><trkpt lat="45.827870491744626" lon="8.949434702755442"><ele>420.0</ele><time>2026-04-23T16:45:10Z</time></trkpt><trkpt lat="45.82775748740782" lon="8.949420133511211"><ele>420.0</ele><time>2026-04-23T16:45:12Z</time></trkpt><trkpt lat="45.827687048195436" lon="8.949415333633363"><ele>420.0</ele><time>2026-04-23T16:45:13Z</time></trkpt><trkpt lat="45.827614457638" lon="8.949441737310869"><ele>420.0</ele><time>2026-04-23T16:45:14Z</time></trkpt><trkpt lat="45.8275414892465" lon="8.949486309230638"><ele>417.75</ele><time>2026-04-23T16:45:15Z</time></trkpt><trkpt lat="45.82745564482454" lon="8.94956346578561"><ele>415.5</ele><time>2026-04-23T16:45:16Z</time></trkpt><trkpt lat="45.82735217350278" lon="8.949651714935845"><ele>413.25</ele><time>2026-04-23T16:45:17Z</time></trkpt><trkpt lat="45.82723431610197" lon="8.94972913016278"><ele>411.0</ele><time>2026-04-23T16:45:18Z</time></trkpt><trkpt lat="45.82710994639416" lon="8.949776051347683"><ele>411.0</ele><time>2026-04-23T16:45:19Z</time></trkpt><trkpt lat="45.826975637720814" lon="8.949822608706015"><ele>411.0</ele><time>2026-04-23T16:45:20Z</time></trkpt><trkpt lat="45.82683493823972" lon="8.949873159185882"><ele>411.0</ele><time>2026-04-23T16:45:21Z</time></trkpt><trkpt lat="45.826687807953896" lon="8.949928404049173"><ele>411.0</ele><time>2026-04-23T16:45:22Z</time></trkpt><trkpt lat="45.826539460062605" lon="8.949975383355438"><ele>409.66666666666663</ele><time>2026-04-23T16:45:23Z</time></trkpt><trkpt lat="45.82638325409406" lon="8.950029608122826"><ele>408.3333333333333</ele><time>2026-04-23T16:45:24Z</time></trkpt><trkpt lat="45.826227409973185" lon="8.950095698841837"><ele>407.0</ele><time>2026-04-23T16:45:25Z</time></trkpt><trkpt lat="45.82607027784166" lon="8.950156057663424"><ele>406.5</ele><time>2026-04-23T16:45:26Z</time></trkpt><trkpt lat="45.82592167800279" lon="8.950215241902619"><ele>406.0</ele><time>2026-04-23T16:45:27Z</time></trkpt><trkpt lat="45.82578953186179" lon="8.950274325157492"><ele>405.5</ele><time>2026-04-23T16:45:28Z</time></trkpt><trkpt lat="45.82566263219379" lon="8.95033934795849"><ele>405.0</ele><time>2026-04-23T16:45:29Z</time></trkpt><trkpt lat="45.825523930455894" lon="8.950383355996724"><ele>405.0</ele><time>2026-04-23T16:45:30Z</time></trkpt><trkpt lat="45.8253870081625" lon="8.950432293848719"><ele>405.0</ele><time>2026-04-23T16:45:31Z</time></trkpt><trkpt lat="45.825251818562506" lon="8.95048469315453"><ele>405.0</ele><time>2026-04-23T16:45:32Z</time></trkpt><trkpt lat="45.825118097849774" lon="8.950527428948922"><ele>405.0</ele><time>2026-04-23T16:45:33Z</time></trkpt><trkpt lat="45.8249822772418" lon="8.950579218634571"><ele>404.5</ele><time>2026-04-23T16:45:34Z</time></trkpt><trkpt lat="45.82485378718976" lon="8.950629126030018"><ele>404.0</ele><time>2026-04-23T16:45:35Z</time></trkpt><trkpt lat="45.824728527866924" lon="8.950669398062463"><ele>403.5</ele><time>2026-04-23T16:45:36Z</time></trkpt><trkpt lat="45.82461868096569" lon="8.950712945363161"><ele>403.0</ele><time>2026-04-23T16:45:37Z</time></trkpt><trkpt lat="45.8245163796226" lon="8.950750183058831"><ele>403.0</ele><time>2026-04-23T16:45:38Z</time></trkpt><trkpt lat="45.82441023111115" lon="8.950796829077992"><ele>403.0</ele><time>2026-04-23T16:45:39Z</time></trkpt><trkpt lat="45.82429248505494" lon="8.950832245236983"><ele>403.0</ele><time>2026-04-23T16:45:40Z</time></trkpt><trkpt lat="45.82417661336706" lon="8.95086956384475"><ele>403.0</ele><time>2026-04-23T16:45:41Z</time></trkpt><trkpt lat="45.824075334672834" lon="8.950899849471925"><ele>402.79999999999995</ele><time>2026-04-23T16:45:42Z</time></trkpt><trkpt lat="45.82397386831381" lon="8.950936169973701"><ele>402.6</ele><time>2026-04-23T16:45:43Z</time></trkpt><trkpt lat="45.82386928331622" lon="8.950994134739418"><ele>402.4</ele><time>2026-04-23T16:45:44Z</time></trkpt><trkpt lat="45.82377298437245" lon="8.951029164710814"><ele>402.20000000000005</ele><time>2026-04-23T16:45:45Z</time></trkpt><trkpt lat="45.823685878960504" lon="8.951050271577403"><ele>402.0</ele><time>2026-04-23T16:45:46Z</time></trkpt><trkpt lat="45.823617873011884" lon="8.951061657648168"><ele>402.0</ele><time>2026-04-23T16:45:47Z</time></trkpt><trkpt lat="45.823532830886535" lon="8.951067884305148"><ele>402.0</ele><time>2026-04-23T16:45:49Z</time></trkpt><trkpt lat="45.82345706310308" lon="8.951057803214212"><ele>402.0</ele><time>2026-04-23T16:45:51Z</time></trkpt><trkpt lat="45.82338326797303" lon="8.951034367761173"><ele>402.0</ele><time>2026-04-23T16:45:53Z</time></trkpt><trkpt lat="45.82323823881009" lon="8.951112906915814"><ele>402.0</ele><time>2026-04-23T16:45:56Z</time></trkpt><trkpt lat="45.82314859223163" lon="8.951206467598388"><ele>402.0</ele><time>2026-04-23T16:45:58Z</time></trkpt><trkpt lat="45.823083222368865" lon="8.951262621184732"><ele>402.0</ele><time>2026-04-23T16:46:00Z</time></trkpt><trkpt lat="45.82302474879813" lon="8.951309609335972"><ele>402.0</ele><time>2026-04-23T16:46:02Z</time></trkpt><trkpt lat="45.822904498072305" lon="8.951359573851999"><ele>402.0</ele><time>2026-04-23T16:46:04Z</time></trkpt><trkpt lat="45.82283194373117" lon="8.951389100235906"><ele>402.0</ele><time>2026-04-23T16:46:05Z</time></trkpt><trkpt lat="45.82274005769421" lon="8.951413059546312"><ele>402.0</ele><time>2026-04-23T16:46:06Z</time></trkpt><trkpt lat="45.82264697063188" lon="8.951452031958711"><ele>402.0</ele><time>2026-04-23T16:46:07Z</time></trkpt><trkpt lat="45.82256067989272" lon="8.951487913389427"><ele>402.0</ele><time>2026-04-23T16:46:07.999Z</time></trkpt><trkpt lat="45.82249139449682" lon="8.951518809006833"><ele>402.0</ele><time>2026-04-23T16:46:08.999Z</time></trkpt><trkpt lat="45.82237319704597" lon="8.9515581969684"><ele>402.0</ele><time>2026-04-23T16:46:10.999Z</time></trkpt><trkpt lat="45.82228615058858" lon="8.951589505895942"><ele>402.0</ele><time>2026-04-23T16:46:11.999Z</time></trkpt><trkpt lat="45.82218140854646" lon="8.951615601277982"><ele>402.0</ele><time>2026-04-23T16:46:12.999Z</time></trkpt><trkpt lat="45.82207574779105" lon="8.951629651385538"><ele>402.0</ele><time>2026-04-23T16:46:13.999Z</time></trkpt><trkpt lat="45.821992643959426" lon="8.951653051369364"><ele>402.0</ele><time>2026-04-23T16:46:14.999Z</time></trkpt><trkpt lat="45.821919775544806" lon="8.951638026601263"><ele>402.0</ele><time>2026-04-23T16:46:15.999Z</time></trkpt><trkpt lat="45.82183745674081" lon="8.951642813532803"><ele>402.0</ele><time>2026-04-23T16:46:16.999Z</time></trkpt><trkpt lat="45.82174951059708" lon="8.951648750601542"><ele>402.0</ele><time>2026-04-23T16:46:17.999Z</time></trkpt><trkpt lat="45.82165528657981" lon="8.95166074672736"><ele>401.8</ele><time>2026-04-23T16:46:18.999Z</time></trkpt><trkpt lat="45.8215639422286" lon="8.951659464434089"><ele>401.6</ele><time>2026-04-23T16:46:19.999Z</time></trkpt><trkpt lat="45.82147312583365" lon="8.951651291675606"><ele>401.40000000000003</ele><time>2026-04-23T16:46:20.999Z</time></trkpt><trkpt lat="45.82137491434315" lon="8.951648594093093"><ele>401.20000000000005</ele><time>2026-04-23T16:46:21.999Z</time></trkpt><trkpt lat="45.82128027020512" lon="8.951646265676446"><ele>401.0</ele><time>2026-04-23T16:46:22.999Z</time></trkpt><trkpt lat="45.82119507334375" lon="8.951647448424012"><ele>401.0</ele><time>2026-04-23T16:46:23.999Z</time></trkpt><trkpt lat="45.82112573305589" lon="8.951650205573005"><ele>401.0</ele><time>2026-04-23T16:46:24.999Z</time></trkpt><trkpt lat="45.821059744561246" lon="8.95150919563874"><ele>401.0</ele><time>2026-04-23T16:46:25.999Z</time></trkpt><trkpt lat="45.82098711051371" lon="8.9515091956416"><ele>401.0</ele><time>2026-04-23T16:46:26.999Z</time></trkpt><trkpt lat="45.8208883896826" lon="8.951509195638062"><ele>401.0</ele><time>2026-04-23T16:46:27.999Z</time></trkpt><trkpt lat="45.820771558802655" lon="8.951509195638183"><ele>400.6</ele><time>2026-04-23T16:46:28.999Z</time></trkpt><trkpt lat="45.820657346120036" lon="8.951509195639227"><ele>400.20000000000005</ele><time>2026-04-23T16:46:29.999Z</time></trkpt><trkpt lat="45.820546376122145" lon="8.951509195635762"><ele>399.79999999999995</ele><time>2026-04-23T16:46:30.999Z</time></trkpt><trkpt lat="45.82044220640445" lon="8.951508702929198"><ele>399.4</ele><time>2026-04-23T16:46:31.999Z</time></trkpt><trkpt lat="45.82034191387895" lon="8.95150839772715"><ele>399.0</ele><time>2026-04-23T16:46:32.999Z</time></trkpt><trkpt lat="45.82024246485242" lon="8.951508095096397"><ele>399.0</ele><time>2026-04-23T16:46:33.999Z</time></trkpt><trkpt lat="45.820160481386644" lon="8.951507895632625"><ele>399.0</ele><time>2026-04-23T16:46:34.999Z</time></trkpt><trkpt lat="45.82007926900519" lon="8.951507895622957"><ele>399.0</ele><time>2026-04-23T16:46:35.999Z</time></trkpt><trkpt lat="45.820011417914785" lon="8.951507895630538"><ele>399.0</ele><time>2026-04-23T16:46:36.999Z</time></trkpt><trkpt lat="45.81992783285644" lon="8.951523241739395"><ele>399.0</ele><time>2026-04-23T16:46:38.999Z</time></trkpt><trkpt lat="45.81985975996944" lon="8.951496126681064"><ele>399.0</ele><time>2026-04-23T16:46:40.999Z</time></trkpt><trkpt lat="45.81977494911343" lon="8.951466722558676"><ele>398.5</ele><time>2026-04-23T16:46:43.999Z</time></trkpt><trkpt lat="45.819686604504334" lon="8.951416090267367"><ele>398.0</ele><time>2026-04-23T16:46:45.999Z</time></trkpt><trkpt lat="45.81961597772053" lon="8.951560433809123"><ele>397.5</ele><time>2026-04-23T16:46:46.999Z</time></trkpt><trkpt lat="45.819553854202255" lon="8.951591244144232"><ele>397.0</ele><time>2026-04-23T16:46:47.999Z</time></trkpt><trkpt lat="45.81948388493798" lon="8.95161882407717"><ele>396.5</ele><time>2026-04-23T16:46:48.999Z</time></trkpt><trkpt lat="45.819407646421936" lon="8.95163752470516"><ele>396.0</ele><time>2026-04-23T16:46:49.999Z</time></trkpt><trkpt lat="45.8193337716481" lon="8.951513195632701"><ele>396.0</ele><time>2026-04-23T16:46:50.999Z</time></trkpt><trkpt lat="45.81925726714678" lon="8.951513195632252"><ele>396.0</ele><time>2026-04-23T16:46:51.999Z</time></trkpt><trkpt lat="45.81918022704481" lon="8.951513195632765"><ele>396.0</ele><time>2026-04-23T16:46:52.999Z</time></trkpt><trkpt lat="45.81910998754199" lon="8.951513195634622"><ele>396.0</ele><time>2026-04-23T16:46:53.999Z</time></trkpt><trkpt lat="45.81903871399448" lon="8.951513354850794"><ele>396.0</ele><time>2026-04-23T16:46:54.999Z</time></trkpt><trkpt lat="45.81896905471343" lon="8.951513550562604"><ele>396.0</ele><time>2026-04-23T16:46:55.999Z</time></trkpt><trkpt lat="45.81888433199392" lon="8.951513788592278"><ele>396.0</ele><time>2026-04-23T16:46:56.999Z</time></trkpt><trkpt lat="45.81880070507909" lon="8.95151402354836"><ele>396.0</ele><time>2026-04-23T16:46:57.999Z</time></trkpt><trkpt lat="45.818689749154046" lon="8.951514335284926"><ele>396.0</ele><time>2026-04-23T16:46:58.999Z</time></trkpt><trkpt lat="45.81856317853708" lon="8.951514690890535"><ele>396.0</ele><time>2026-04-23T16:46:59.999Z</time></trkpt><trkpt lat="45.81843727173098" lon="8.951515300196023"><ele>396.0</ele><time>2026-04-23T16:47:00.999Z</time></trkpt><trkpt lat="45.81831430471205" lon="8.951515842351563"><ele>396.25</ele><time>2026-04-23T16:47:01.999Z</time></trkpt><trkpt lat="45.8181934886399" lon="8.951516375022793"><ele>396.5</ele><time>2026-04-23T16:47:02.999Z</time></trkpt><trkpt lat="45.8180752230058" lon="8.951516896448286"><ele>396.75</ele><time>2026-04-23T16:47:03.999Z</time></trkpt><trkpt lat="45.81795145870012" lon="8.951517442119155"><ele>397.0</ele><time>2026-04-23T16:47:04.999Z</time></trkpt><trkpt lat="45.817828222644806" lon="8.951517985459894"><ele>397.0</ele><time>2026-04-23T16:47:05.999Z</time></trkpt><trkpt lat="45.81770537944337" lon="8.951518527070712"><ele>397.0</ele><time>2026-04-23T16:47:07Z</time></trkpt><trkpt lat="45.81758527470789" lon="8.951519056603816"><ele>397.0</ele><time>2026-04-23T16:47:08Z</time></trkpt><trkpt lat="45.81745884409074" lon="8.951519614029632"><ele>397.0</ele><time>2026-04-23T16:47:09Z</time></trkpt><trkpt lat="45.81732981536503" lon="8.951520655366046"><ele>397.25</ele><time>2026-04-23T16:47:10Z</time></trkpt><trkpt lat="45.81721080740835" lon="8.951522043868259"><ele>397.5</ele><time>2026-04-23T16:47:11Z</time></trkpt><trkpt lat="45.8170815948487" lon="8.951523551435965"><ele>397.75</ele><time>2026-04-23T16:47:12Z</time></trkpt><trkpt lat="45.81694864565388" lon="8.951525102595943"><ele>398.0</ele><time>2026-04-23T16:47:13Z</time></trkpt><trkpt lat="45.81681891001102" lon="8.951526618360448"><ele>398.25</ele><time>2026-04-23T16:47:14Z</time></trkpt><trkpt lat="45.816687452786375" lon="8.95152815211509"><ele>398.5</ele><time>2026-04-23T16:47:15Z</time></trkpt><trkpt lat="45.816557057196924" lon="8.951529673483046"><ele>398.75</ele><time>2026-04-23T16:47:16Z</time></trkpt><trkpt lat="45.81642757174153" lon="8.95153118423193"><ele>399.0</ele><time>2026-04-23T16:47:17Z</time></trkpt><trkpt lat="45.81629588250957" lon="8.951532720690027"><ele>399.0</ele><time>2026-04-23T16:47:18Z</time></trkpt><trkpt lat="45.81616575043134" lon="8.951534238983287"><ele>399.0</ele><time>2026-04-23T16:47:19Z</time></trkpt><trkpt lat="45.81603492355596" lon="8.951534979024725"><ele>399.0</ele><time>2026-04-23T16:47:20Z</time></trkpt><trkpt lat="45.815899007917295" lon="8.951535396606568"><ele>399.0</ele><time>2026-04-23T16:47:21Z</time></trkpt><trkpt lat="45.81576329407013" lon="8.951535813569288"><ele>398.25</ele><time>2026-04-23T16:47:22Z</time></trkpt><trkpt lat="45.81562921355402" lon="8.951536225515639"><ele>397.5</ele><time>2026-04-23T16:47:23Z</time></trkpt><trkpt lat="45.81549368168855" lon="8.951536641922191"><ele>396.75</ele><time>2026-04-23T16:47:24Z</time></trkpt><trkpt lat="45.81535950064769" lon="8.951537054173182"><ele>396.0</ele><time>2026-04-23T16:47:25Z</time></trkpt><trkpt lat="45.81523126565738" lon="8.951537448161075"><ele>396.5</ele><time>2026-04-23T16:47:26Z</time></trkpt><trkpt lat="45.81510085005953" lon="8.951538281739449"><ele>397.0</ele><time>2026-04-23T16:47:27Z</time></trkpt><trkpt lat="45.81497559468468" lon="8.951541457856617"><ele>397.5</ele><time>2026-04-23T16:47:28Z</time></trkpt><trkpt lat="45.814837917699656" lon="8.9515540508894"><ele>398.0</ele><time>2026-04-23T16:47:29Z</time></trkpt><trkpt lat="45.81469735602244" lon="8.951579884599703"><ele>398.0</ele><time>2026-04-23T16:47:30Z</time></trkpt><trkpt lat="45.81455460688836" lon="8.951614347578609"><ele>398.0</ele><time>2026-04-23T16:47:31Z</time></trkpt><trkpt lat="45.81440976850787" lon="8.951658826486096"><ele>398.0</ele><time>2026-04-23T16:47:32Z</time></trkpt><trkpt lat="45.81425273848735" lon="8.951727940175108"><ele>397.0</ele><time>2026-04-23T16:47:33Z</time></trkpt><trkpt lat="45.81410543705624" lon="8.951801032376258"><ele>396.0</ele><time>2026-04-23T16:47:34Z</time></trkpt><trkpt lat="45.813954241539406" lon="8.951880088163376"><ele>395.0</ele><time>2026-04-23T16:47:35Z</time></trkpt><trkpt lat="45.813803516181366" lon="8.951958898109877"><ele>395.0</ele><time>2026-04-23T16:47:36Z</time></trkpt><trkpt lat="45.81366062868914" lon="8.952033609864554"><ele>395.0</ele><time>2026-04-23T16:47:37Z</time></trkpt><trkpt lat="45.81352460853709" lon="8.952104730891248"><ele>395.0</ele><time>2026-04-23T16:47:38Z</time></trkpt><trkpt lat="45.813390657612" lon="8.952174728982968"><ele>395.0</ele><time>2026-04-23T16:47:39Z</time></trkpt><trkpt lat="45.81325609916729" lon="8.952245024532258"><ele>395.25</ele><time>2026-04-23T16:47:40Z</time></trkpt><trkpt lat="45.813121566797264" lon="8.952315306457104"><ele>395.5</ele><time>2026-04-23T16:47:41Z</time></trkpt><trkpt lat="45.81298427936809" lon="8.952387027670456"><ele>395.75</ele><time>2026-04-23T16:47:42Z</time></trkpt><trkpt lat="45.812848573752724" lon="8.952458038589006"><ele>396.0</ele><time>2026-04-23T16:47:43Z</time></trkpt><trkpt lat="45.81270573457094" lon="8.952532964312315"><ele>395.66666666666663</ele><time>2026-04-23T16:47:44Z</time></trkpt><trkpt lat="45.81255622877619" lon="8.952611386972444"><ele>395.3333333333333</ele><time>2026-04-23T16:47:45Z</time></trkpt><trkpt lat="45.81241010159202" lon="8.952688037408732"><ele>395.0</ele><time>2026-04-23T16:47:46Z</time></trkpt><trkpt lat="45.81226387976928" lon="8.952764737483806"><ele>395.0</ele><time>2026-04-23T16:47:47Z</time></trkpt><trkpt lat="45.81211141511816" lon="8.952844714020308"><ele>395.0</ele><time>2026-04-23T16:47:48Z</time></trkpt><trkpt lat="45.811947431056694" lon="8.952930731326575"><ele>395.0</ele><time>2026-04-23T16:47:49Z</time></trkpt><trkpt lat="45.81178780309031" lon="8.953015082299697"><ele>394.3333333333333</ele><time>2026-04-23T16:47:50Z</time></trkpt><trkpt lat="45.81162864372117" lon="8.95309943896876"><ele>393.66666666666663</ele><time>2026-04-23T16:47:51Z</time></trkpt><trkpt lat="45.81145836645794" lon="8.953189689383814"><ele>393.0</ele><time>2026-04-23T16:47:52Z</time></trkpt><trkpt lat="45.81129656881329" lon="8.95327544533303"><ele>393.0</ele><time>2026-04-23T16:47:53Z</time></trkpt><trkpt lat="45.81114124778573" lon="8.953358066135973"><ele>393.0</ele><time>2026-04-23T16:47:54Z</time></trkpt><trkpt lat="45.81098212147887" lon="8.953442830376789"><ele>393.0</ele><time>2026-04-23T16:47:55Z</time></trkpt><trkpt lat="45.81082745659052" lon="8.95352521804978"><ele>393.0</ele><time>2026-04-23T16:47:56Z</time></trkpt><trkpt lat="45.810674287328986" lon="8.953606544639076"><ele>393.0</ele><time>2026-04-23T16:47:57Z</time></trkpt><trkpt lat="45.81052260202828" lon="8.953686923870489"><ele>393.0</ele><time>2026-04-23T16:47:58Z</time></trkpt><trkpt lat="45.81037450318253" lon="8.953765457956123"><ele>393.0</ele><time>2026-04-23T16:47:59Z</time></trkpt><trkpt lat="45.81021791705411" lon="8.95384850390749"><ele>393.0</ele><time>2026-04-23T16:48:00Z</time></trkpt><trkpt lat="45.81006071768132" lon="8.953931903537036"><ele>393.0</ele><time>2026-04-23T16:48:01Z</time></trkpt><trkpt lat="45.80989926007154" lon="8.95401756213677"><ele>392.33333333333337</ele><time>2026-04-23T16:48:02Z</time></trkpt><trkpt lat="45.80974941801322" lon="8.954096939922234"><ele>391.6666666666667</ele><time>2026-04-23T16:48:03Z</time></trkpt><trkpt lat="45.80959408941059" lon="8.954176233334765"><ele>391.0</ele><time>2026-04-23T16:48:04Z</time></trkpt><trkpt lat="45.80944330389351" lon="8.954251436365087"><ele>390.6666666666667</ele><time>2026-04-23T16:48:05Z</time></trkpt><trkpt lat="45.80930389111955" lon="8.954311658194129"><ele>390.33333333333337</ele><time>2026-04-23T16:48:05.999Z</time></trkpt><trkpt lat="45.8091529361594" lon="8.954361835582487"><ele>390.0</ele><time>2026-04-23T16:48:06.999Z</time></trkpt><trkpt lat="45.80900428457208" lon="8.954397494493652"><ele>390.0</ele><time>2026-04-23T16:48:07.999Z</time></trkpt><trkpt lat="45.80884632638583" lon="8.95442414695613"><ele>390.0</ele><time>2026-04-23T16:48:08.999Z</time></trkpt><trkpt lat="45.808690475857105" lon="8.954431800763397"><ele>390.0</ele><time>2026-04-23T16:48:09.999Z</time></trkpt><trkpt lat="45.80853032004496" lon="8.95442601862156"><ele>390.0</ele><time>2026-04-23T16:48:10.999Z</time></trkpt><trkpt lat="45.80836292139842" lon="8.954411731275533"><ele>390.0</ele><time>2026-04-23T16:48:11.999Z</time></trkpt><trkpt lat="45.808201474516714" lon="8.954381638551455"><ele>390.0</ele><time>2026-04-23T16:48:12.999Z</time></trkpt><trkpt lat="45.80803586100721" lon="8.954346036569323"><ele>390.0</ele><time>2026-04-23T16:48:13.999Z</time></trkpt><trkpt lat="45.807876468068606" lon="8.954312902352543"><ele>390.0</ele><time>2026-04-23T16:48:14.999Z</time></trkpt><trkpt lat="45.807725019593946" lon="8.954281419595137"><ele>390.0</ele><time>2026-04-23T16:48:15.999Z</time></trkpt><trkpt lat="45.80756548840005" lon="8.954248256639646"><ele>391.0</ele><time>2026-04-23T16:48:16.999Z</time></trkpt><trkpt lat="45.80740773835201" lon="8.954215463926126"><ele>392.0</ele><time>2026-04-23T16:48:17.999Z</time></trkpt><trkpt lat="45.80725332459706" lon="8.954183364770822"><ele>393.0</ele><time>2026-04-23T16:48:18.999Z</time></trkpt><trkpt lat="45.807097961817995" lon="8.95415106833358"><ele>393.0</ele><time>2026-04-23T16:48:19.999Z</time></trkpt><trkpt lat="45.80695245527309" lon="8.954120820771825"><ele>393.0</ele><time>2026-04-23T16:48:20.999Z</time></trkpt><trkpt lat="45.806801541224246" lon="8.954089449117706"><ele>393.0</ele><time>2026-04-23T16:48:21.999Z</time></trkpt><trkpt lat="45.80664475074399" lon="8.954056855896878"><ele>392.5</ele><time>2026-04-23T16:48:22.999Z</time></trkpt><trkpt lat="45.806497320786505" lon="8.954025420571448"><ele>392.0</ele><time>2026-04-23T16:48:23.999Z</time></trkpt><trkpt lat="45.80635485013263" lon="8.953994868706175"><ele>391.5</ele><time>2026-04-23T16:48:24.999Z</time></trkpt><trkpt lat="45.80620995777203" lon="8.953963896282941"><ele>391.0</ele><time>2026-04-23T16:48:25.999Z</time></trkpt><trkpt lat="45.80606009373182" lon="8.953932090861937"><ele>391.75</ele><time>2026-04-23T16:48:26.999Z</time></trkpt><trkpt lat="45.80591434025157" lon="8.953901157816606"><ele>392.5</ele><time>2026-04-23T16:48:27.999Z</time></trkpt><trkpt lat="45.80576800160958" lon="8.953870412470653"><ele>393.25</ele><time>2026-04-23T16:48:28.999Z</time></trkpt><trkpt lat="45.80562299700394" lon="8.953840357187921"><ele>394.0</ele><time>2026-04-23T16:48:29.999Z</time></trkpt><trkpt lat="45.80547408308709" lon="8.953809204713203"><ele>394.0</ele><time>2026-04-23T16:48:30.999Z</time></trkpt><trkpt lat="45.805333824310324" lon="8.953779790669865"><ele>394.0</ele><time>2026-04-23T16:48:31.999Z</time></trkpt><trkpt lat="45.8051925017105" lon="8.953750153530619"><ele>394.0</ele><time>2026-04-23T16:48:32.999Z</time></trkpt><trkpt lat="45.80504992849024" lon="8.953720254135197"><ele>394.0</ele><time>2026-04-23T16:48:33.999Z</time></trkpt><trkpt lat="45.80490772791034" lon="8.953690366744675"><ele>394.5</ele><time>2026-04-23T16:48:34.999Z</time></trkpt><trkpt lat="45.80477805611631" lon="8.95366310689368"><ele>395.0</ele><time>2026-04-23T16:48:35.999Z</time></trkpt><trkpt lat="45.804657043335894" lon="8.953637667362683"><ele>395.5</ele><time>2026-04-23T16:48:36.999Z</time></trkpt><trkpt lat="45.804545736410525" lon="8.95361426820536"><ele>396.0</ele><time>2026-04-23T16:48:37.999Z</time></trkpt><trkpt lat="45.804440311049355" lon="8.953592105487013"><ele>396.0</ele><time>2026-04-23T16:48:38.999Z</time></trkpt><trkpt lat="45.80433228318515" lon="8.953569395664692"><ele>396.0</ele><time>2026-04-23T16:48:39.999Z</time></trkpt><trkpt lat="45.804229728332714" lon="8.953547836391849"><ele>396.0</ele><time>2026-04-23T16:48:40.999Z</time></trkpt><trkpt lat="45.804118435488284" lon="8.953524440198821"><ele>396.0</ele><time>2026-04-23T16:48:41.999Z</time></trkpt><trkpt lat="45.80400563973353" lon="8.953500728151695"><ele>396.0</ele><time>2026-04-23T16:48:42.999Z</time></trkpt><trkpt lat="45.803911091925556" lon="8.953455322059376"><ele>396.0</ele><time>2026-04-23T16:48:43.999Z</time></trkpt><trkpt lat="45.803791908307396" lon="8.953407539955627"><ele>396.0</ele><time>2026-04-23T16:48:44.999Z</time></trkpt><trkpt lat="45.80367622321737" lon="8.9533600152928"><ele>396.0</ele><time>2026-04-23T16:48:45.999Z</time></trkpt><trkpt lat="45.80356553233574" lon="8.953309997210702"><ele>396.0</ele><time>2026-04-23T16:48:46.999Z</time></trkpt><trkpt lat="45.803448416031415" lon="8.953260227156127"><ele>394.75</ele><time>2026-04-23T16:48:47.999Z</time></trkpt><trkpt lat="45.803321276924486" lon="8.95322079003284"><ele>393.5</ele><time>2026-04-23T16:48:48.999Z</time></trkpt><trkpt lat="45.803203436102415" lon="8.953193049398514"><ele>392.25</ele><time>2026-04-23T16:48:49.999Z</time></trkpt><trkpt lat="45.803071849735076" lon="8.953196706276584"><ele>391.0</ele><time>2026-04-23T16:48:50.999Z</time></trkpt><trkpt lat="45.80295030105711" lon="8.953192868995313"><ele>391.0</ele><time>2026-04-23T16:48:51.999Z</time></trkpt><trkpt lat="45.80282405320393" lon="8.953190113253799"><ele>391.0</ele><time>2026-04-23T16:48:52.999Z</time></trkpt><trkpt lat="45.80269505908802" lon="8.953186363774634"><ele>391.0</ele><time>2026-04-23T16:48:53.999Z</time></trkpt><trkpt lat="45.8025489374951" lon="8.953190950275607"><ele>391.0</ele><time>2026-04-23T16:48:54.999Z</time></trkpt><trkpt lat="45.80241569509203" lon="8.953228401727038"><ele>391.75</ele><time>2026-04-23T16:48:55.999Z</time></trkpt><trkpt lat="45.80231820176511" lon="8.953138879304117"><ele>392.5</ele><time>2026-04-23T16:48:56.999Z</time></trkpt><trkpt lat="45.80218127978196" lon="8.953110639897107"><ele>393.25</ele><time>2026-04-23T16:48:57.999Z</time></trkpt><trkpt lat="45.80204579506245" lon="8.953082581855563"><ele>394.0</ele><time>2026-04-23T16:48:58.999Z</time></trkpt><trkpt lat="45.80190091628369" lon="8.95305684544769"><ele>394.6666666666667</ele><time>2026-04-23T16:48:59.999Z</time></trkpt><trkpt lat="45.80175138939472" lon="8.953046267535173"><ele>395.33333333333337</ele><time>2026-04-23T16:49:00.999Z</time></trkpt><trkpt lat="45.801601265877686" lon="8.953045820265203"><ele>396.0</ele><time>2026-04-23T16:49:01.999Z</time></trkpt><trkpt lat="45.8014450381313" lon="8.953055745202672"><ele>396.0</ele><time>2026-04-23T16:49:02.999Z</time></trkpt><trkpt lat="45.801298746453796" lon="8.953076920173443"><ele>396.0</ele><time>2026-04-23T16:49:03.999Z</time></trkpt><trkpt lat="45.8011659644036" lon="8.95310333747847"><ele>396.0</ele><time>2026-04-23T16:49:04.999Z</time></trkpt><trkpt lat="45.801039269548404" lon="8.953140197558616"><ele>396.0</ele><time>2026-04-23T16:49:05.999Z</time></trkpt><trkpt lat="45.80092424952237" lon="8.953190080470158"><ele>396.5</ele><time>2026-04-23T16:49:06.999Z</time></trkpt><trkpt lat="45.80083119408606" lon="8.953244439135164"><ele>397.0</ele><time>2026-04-23T16:49:07.999Z</time></trkpt><trkpt lat="45.800763875607934" lon="8.953282333913455"><ele>397.5</ele><time>2026-04-23T16:49:08.999Z</time></trkpt><trkpt lat="45.800691130218766" lon="8.953323283567421"><ele>398.0</ele><time>2026-04-23T16:49:09.999Z</time></trkpt><trkpt lat="45.80057824876555" lon="8.953349044187247"><ele>398.5</ele><time>2026-04-23T16:49:11.999Z</time></trkpt><trkpt lat="45.8005125075724" lon="8.953360969603157"><ele>399.0</ele><time>2026-04-23T16:49:13Z</time></trkpt><trkpt lat="45.800441425219724" lon="8.95337260544967"><ele>399.0</ele><time>2026-04-23T16:49:14Z</time></trkpt><trkpt lat="45.800322818466704" lon="8.95335812368175"><ele>399.0</ele><time>2026-04-23T16:49:16Z</time></trkpt><trkpt lat="45.800249451196564" lon="8.95339009167118"><ele>399.0</ele><time>2026-04-23T16:49:17Z</time></trkpt><trkpt lat="45.80018322556653" lon="8.953449051432678"><ele>399.0</ele><time>2026-04-23T16:49:18Z</time></trkpt><trkpt lat="45.80013424253642" lon="8.953564082844267"><ele>399.0</ele><time>2026-04-23T16:49:19Z</time></trkpt><trkpt lat="45.80013654361681" lon="8.953714775504368"><ele>397.6</ele><time>2026-04-23T16:49:20Z</time></trkpt><trkpt lat="45.80006595878204" lon="8.953769851309573"><ele>396.2</ele><time>2026-04-23T16:49:21Z</time></trkpt><trkpt lat="45.7999873017641" lon="8.953848080125132"><ele>394.8</ele><time>2026-04-23T16:49:22Z</time></trkpt><trkpt lat="45.79990168388756" lon="8.953933867039206"><ele>393.40000000000003</ele><time>2026-04-23T16:49:23Z</time></trkpt><trkpt lat="45.799825679654205" lon="8.954010021324391"><ele>392.0</ele><time>2026-04-23T16:49:24Z</time></trkpt><trkpt lat="45.79974663062621" lon="8.954089226427865"><ele>392.0</ele><time>2026-04-23T16:49:25Z</time></trkpt><trkpt lat="45.79966596134206" lon="8.9541699810433"><ele>392.0</ele><time>2026-04-23T16:49:26Z</time></trkpt><trkpt lat="45.7995771049264" lon="8.954258774814965"><ele>392.0</ele><time>2026-04-23T16:49:27Z</time></trkpt><trkpt lat="45.79947931193674" lon="8.954356498857814"><ele>392.0</ele><time>2026-04-23T16:49:28Z</time></trkpt><trkpt lat="45.799381412409446" lon="8.95445432936404"><ele>392.0</ele><time>2026-04-23T16:49:29Z</time></trkpt><trkpt lat="45.79927857287242" lon="8.954557096394272"><ele>391.5</ele><time>2026-04-23T16:49:30Z</time></trkpt><trkpt lat="45.79917396241618" lon="8.95466159673143"><ele>391.0</ele><time>2026-04-23T16:49:31Z</time></trkpt><trkpt lat="45.799067626844824" lon="8.95476781624249"><ele>390.5</ele><time>2026-04-23T16:49:32Z</time></trkpt><trkpt lat="45.798959882065176" lon="8.954875443435443"><ele>390.0</ele><time>2026-04-23T16:49:33Z</time></trkpt><trkpt lat="45.79884705815009" lon="8.954988144345291"><ele>390.5</ele><time>2026-04-23T16:49:34Z</time></trkpt><trkpt lat="45.79873243361742" lon="8.955103785977386"><ele>391.0</ele><time>2026-04-23T16:49:35Z</time></trkpt><trkpt lat="45.798614563664394" lon="8.955222323472636"><ele>391.5</ele><time>2026-04-23T16:49:36Z</time></trkpt><trkpt lat="45.79849359306314" lon="8.955343979180231"><ele>392.0</ele><time>2026-04-23T16:49:37Z</time></trkpt><trkpt lat="45.79836735886272" lon="8.955470928307175"><ele>392.0</ele><time>2026-04-23T16:49:38Z</time></trkpt><trkpt lat="45.79824431700598" lon="8.955594667000975"><ele>392.0</ele><time>2026-04-23T16:49:39Z</time></trkpt><trkpt lat="45.798113402093264" lon="8.955725826573115"><ele>392.0</ele><time>2026-04-23T16:49:40Z</time></trkpt><trkpt lat="45.797981221380184" lon="8.955857345480215"><ele>392.0</ele><time>2026-04-23T16:49:41Z</time></trkpt><trkpt lat="45.79783943496577" lon="8.955997835029123"><ele>392.0</ele><time>2026-04-23T16:49:42Z</time></trkpt><trkpt lat="45.79770741901478" lon="8.956129504085887"><ele>392.0</ele><time>2026-04-23T16:49:43Z</time></trkpt><trkpt lat="45.797575553479504" lon="8.95626161964569"><ele>392.0</ele><time>2026-04-23T16:49:44Z</time></trkpt><trkpt lat="45.797447677434164" lon="8.956389783718127"><ele>392.0</ele><time>2026-04-23T16:49:45Z</time></trkpt><trkpt lat="45.79732081693749" lon="8.95651695607138"><ele>392.0</ele><time>2026-04-23T16:49:46Z</time></trkpt><trkpt lat="45.79719535612978" lon="8.95664272529085"><ele>392.0</ele><time>2026-04-23T16:49:47Z</time></trkpt><trkpt lat="45.79706843770475" lon="8.956769638550286"><ele>392.0</ele><time>2026-04-23T16:49:48Z</time></trkpt><trkpt lat="45.79694371502983" lon="8.956893928792693"><ele>392.0</ele><time>2026-04-23T16:49:49Z</time></trkpt><trkpt lat="45.79682262124806" lon="8.957014178164586"><ele>392.0</ele><time>2026-04-23T16:49:50Z</time></trkpt><trkpt lat="45.79669831887028" lon="8.957137508172842"><ele>392.0</ele><time>2026-04-23T16:49:51Z</time></trkpt><trkpt lat="45.79657871930106" lon="8.957256172250093"><ele>392.0</ele><time>2026-04-23T16:49:52Z</time></trkpt><trkpt lat="45.79645353933817" lon="8.957381882908281"><ele>392.0</ele><time>2026-04-23T16:49:53Z</time></trkpt><trkpt lat="45.79633239099308" lon="8.957503228744526"><ele>392.25</ele><time>2026-04-23T16:49:54Z</time></trkpt><trkpt lat="45.796207914556085" lon="8.957626212297411"><ele>392.5</ele><time>2026-04-23T16:49:55Z</time></trkpt><trkpt lat="45.79608379503935" lon="8.95774840139734"><ele>392.75</ele><time>2026-04-23T16:49:56Z</time></trkpt><trkpt lat="45.79596460855977" lon="8.957865734178586"><ele>393.0</ele><time>2026-04-23T16:49:57Z</time></trkpt><trkpt lat="45.79584107755683" lon="8.957988075699838"><ele>392.5</ele><time>2026-04-23T16:49:58Z</time></trkpt><trkpt lat="45.79572035865707" lon="8.958108551790831"><ele>392.0</ele><time>2026-04-23T16:49:59Z</time></trkpt><trkpt lat="45.79560371097977" lon="8.95822496484607"><ele>391.5</ele><time>2026-04-23T16:50:00Z</time></trkpt><trkpt lat="45.795487077671744" lon="8.958339010659165"><ele>391.0</ele><time>2026-04-23T16:50:01Z</time></trkpt><trkpt lat="45.79536440007562" lon="8.958458811814431"><ele>391.0</ele><time>2026-04-23T16:50:02Z</time></trkpt><trkpt lat="45.795246055626265" lon="8.95857041682475"><ele>391.0</ele><time>2026-04-23T16:50:03Z</time></trkpt><trkpt lat="45.795133602934214" lon="8.958665800293694"><ele>391.0</ele><time>2026-04-23T16:50:04Z</time></trkpt><trkpt lat="45.7950252080763" lon="8.958745466993209"><ele>391.0</ele><time>2026-04-23T16:50:05Z</time></trkpt><trkpt lat="45.79493323781175" lon="8.958802229384686"><ele>390.6666666666667</ele><time>2026-04-23T16:50:06Z</time></trkpt><trkpt lat="45.79484490942579" lon="8.958851334029656"><ele>390.33333333333337</ele><time>2026-04-23T16:50:07Z</time></trkpt><trkpt lat="45.794780376553526" lon="8.958883926514153"><ele>390.0</ele><time>2026-04-23T16:50:08Z</time></trkpt><trkpt lat="45.79472026126029" lon="8.958912394707957"><ele>389.66666666666663</ele><time>2026-04-23T16:50:09Z</time></trkpt><trkpt lat="45.79464024597392" lon="8.958946148905587"><ele>389.3333333333333</ele><time>2026-04-23T16:50:11Z</time></trkpt><trkpt lat="45.79457431048252" lon="8.958969420770762"><ele>389.0</ele><time>2026-04-23T16:50:14Z</time></trkpt><trkpt lat="45.79449527181055" lon="8.958995949813323"><ele>389.0</ele><time>2026-04-23T16:50:18Z</time></trkpt><trkpt lat="45.79442277407584" lon="8.959018182272478"><ele>389.0</ele><time>2026-04-23T16:50:43.999Z</time></trkpt><trkpt lat="45.794360440800844" lon="8.959035341498979"><ele>389.0</ele><time>2026-04-23T16:50:49.999Z</time></trkpt><trkpt lat="45.79428488899545" lon="8.959052662881023"><ele>389.0</ele><time>2026-04-23T16:50:55.999Z</time></trkpt><trkpt lat="45.79419179176541" lon="8.959069987959799"><ele>389.0</ele><time>2026-04-23T16:51:07.999Z</time></trkpt><trkpt lat="45.794128805726814" lon="8.95907920893605"><ele>389.0</ele><time>2026-04-23T16:51:11.999Z</time></trkpt><trkpt lat="45.79405695050192" lon="8.959088310904919"><ele>389.0</ele><time>2026-04-23T16:51:14.999Z</time></trkpt><trkpt lat="45.79399071486867" lon="8.959094964113211"><ele>388.66666666666663</ele><time>2026-04-23T16:51:16.999Z</time></trkpt><trkpt lat="45.79392181683403" lon="8.959099401045712"><ele>388.3333333333333</ele><time>2026-04-23T16:51:19Z</time></trkpt><trkpt lat="45.793857579540365" lon="8.959101033459646"><ele>388.0</ele><time>2026-04-23T16:51:22Z</time></trkpt><trkpt lat="45.79377114641404" lon="8.959098351049402"><ele>387.66666666666663</ele><time>2026-04-23T16:51:26Z</time></trkpt><trkpt lat="45.793690623368015" lon="8.95909099721512"><ele>387.3333333333333</ele><time>2026-04-23T16:51:29Z</time></trkpt><trkpt lat="45.79359047513422" lon="8.959076458310097"><ele>387.0</ele><time>2026-04-23T16:51:32Z</time></trkpt><trkpt lat="45.79349144324355" lon="8.959057267161807"><ele>387.6666666666667</ele><time>2026-04-23T16:51:34Z</time></trkpt><trkpt lat="45.793389358633796" lon="8.959028821474867"><ele>388.33333333333337</ele><time>2026-04-23T16:51:36Z</time></trkpt><trkpt lat="45.79332353045066" lon="8.959010140503711"><ele>389.0</ele><time>2026-04-23T16:51:37Z</time></trkpt><trkpt lat="45.79325489474513" lon="8.958989690847158"><ele>389.6666666666667</ele><time>2026-04-23T16:51:38Z</time></trkpt><trkpt lat="45.79318733380382" lon="8.958969403950475"><ele>390.33333333333337</ele><time>2026-04-23T16:51:39Z</time></trkpt><trkpt lat="45.79311118845929" lon="8.958946539368416"><ele>391.0</ele><time>2026-04-23T16:51:40Z</time></trkpt><trkpt lat="45.79304932127227" lon="8.958927962173089"><ele>391.00000000000006</ele><time>2026-04-23T16:51:41Z</time></trkpt><trkpt lat="45.792986322215995" lon="8.958909045097714"><ele>391.0</ele><time>2026-04-23T16:51:42Z</time></trkpt><trkpt lat="45.792910479024926" lon="8.958886271247602"><ele>391.0</ele><time>2026-04-23T16:51:43Z</time></trkpt><trkpt lat="45.79282291041655" lon="8.95885997653891"><ele>391.0</ele><time>2026-04-23T16:51:44Z</time></trkpt><trkpt lat="45.7927267233409" lon="8.958831062115172"><ele>391.00000000000006</ele><time>2026-04-23T16:51:45Z</time></trkpt><trkpt lat="45.79262431351977" lon="8.958799803876255"><ele>391.0</ele><time>2026-04-23T16:51:46Z</time></trkpt><trkpt lat="45.79252572090003" lon="8.958769710754698"><ele>391.6666666666667</ele><time>2026-04-23T16:51:47Z</time></trkpt><trkpt lat="45.79242686941539" lon="8.958739538628247"><ele>392.33333333333337</ele><time>2026-04-23T16:51:48Z</time></trkpt><trkpt lat="45.79233411435739" lon="8.958711227293007"><ele>393.0</ele><time>2026-04-23T16:51:49Z</time></trkpt><trkpt lat="45.79225343723866" lon="8.95868660246366"><ele>393.66666666666663</ele><time>2026-04-23T16:51:50Z</time></trkpt><trkpt lat="45.79217588023419" lon="8.958662929987568"><ele>394.3333333333333</ele><time>2026-04-23T16:51:51Z</time></trkpt><trkpt lat="45.792109176730904" lon="8.958642570283986"><ele>395.0</ele><time>2026-04-23T16:51:52Z</time></trkpt><trkpt lat="45.79203445180581" lon="8.958619762151386"><ele>395.0</ele><time>2026-04-23T16:51:53Z</time></trkpt><trkpt lat="45.791911871761805" lon="8.95858237350363"><ele>395.0</ele><time>2026-04-23T16:51:55Z</time></trkpt><trkpt lat="45.79184224780975" lon="8.958561134187944"><ele>395.0</ele><time>2026-04-23T16:51:56Z</time></trkpt><trkpt lat="45.791752075418415" lon="8.958533626420248"><ele>395.0</ele><time>2026-04-23T16:51:57Z</time></trkpt><trkpt lat="45.79164530725839" lon="8.958500479499731"><ele>395.0</ele><time>2026-04-23T16:51:58Z</time></trkpt><trkpt lat="45.791545516248526" lon="8.958469503807985"><ele>396.0</ele><time>2026-04-23T16:51:59Z</time></trkpt><trkpt lat="45.79146138992517" lon="8.95844339053017"><ele>397.0</ele><time>2026-04-23T16:52:00Z</time></trkpt><trkpt lat="45.791364025872966" lon="8.958413168169134"><ele>398.0</ele><time>2026-04-23T16:52:01Z</time></trkpt><trkpt lat="45.7912480063839" lon="8.958377154925259"><ele>399.0</ele><time>2026-04-23T16:52:02Z</time></trkpt><trkpt lat="45.79112515810118" lon="8.958339618097176"><ele>400.0</ele><time>2026-04-23T16:52:03Z</time></trkpt><trkpt lat="45.79100403726302" lon="8.958302557046537"><ele>400.5</ele><time>2026-04-23T16:52:04Z</time></trkpt><trkpt lat="45.79087987113592" lon="8.958264713882617"><ele>401.0</ele><time>2026-04-23T16:52:05Z</time></trkpt><trkpt lat="45.79075188124664" lon="8.958225705306507"><ele>401.5</ele><time>2026-04-23T16:52:06Z</time></trkpt><trkpt lat="45.79061857347073" lon="8.958185142883265"><ele>402.0</ele><time>2026-04-23T16:52:07Z</time></trkpt><trkpt lat="45.79049051790399" lon="8.958146281522861"><ele>402.0</ele><time>2026-04-23T16:52:08Z</time></trkpt><trkpt lat="45.790362666412136" lon="8.958107414511957"><ele>402.0</ele><time>2026-04-23T16:52:09Z</time></trkpt><trkpt lat="45.79023504208455" lon="8.95806856397492"><ele>402.0</ele><time>2026-04-23T16:52:10Z</time></trkpt><trkpt lat="45.79011509813146" lon="8.958032051469676"><ele>402.0</ele><time>2026-04-23T16:52:11Z</time></trkpt><trkpt lat="45.790010230663725" lon="8.957999896657585"><ele>402.8</ele><time>2026-04-23T16:52:12Z</time></trkpt><trkpt lat="45.78990424983659" lon="8.95796728717254"><ele>403.6</ele><time>2026-04-23T16:52:13Z</time></trkpt><trkpt lat="45.78979864860293" lon="8.957934793165006"><ele>404.40000000000003</ele><time>2026-04-23T16:52:14Z</time></trkpt><trkpt lat="45.78969431348217" lon="8.957902807989871"><ele>405.20000000000005</ele><time>2026-04-23T16:52:15Z</time></trkpt><trkpt lat="45.78959000165799" lon="8.95787082993753"><ele>406.0</ele><time>2026-04-23T16:52:16Z</time></trkpt><trkpt lat="45.78949252841431" lon="8.957840948324904"><ele>406.00000000000006</ele><time>2026-04-23T16:52:17Z</time></trkpt><trkpt lat="45.78940347044299" lon="8.957813646498899"><ele>406.0</ele><time>2026-04-23T16:52:18Z</time></trkpt><trkpt lat="45.78932553425772" lon="8.957789754238442"><ele>406.0</ele><time>2026-04-23T16:52:19Z</time></trkpt><trkpt lat="45.78925146812733" lon="8.957767048347465"><ele>406.0</ele><time>2026-04-23T16:52:20Z</time></trkpt><trkpt lat="45.78918420162386" lon="8.957746432776105"><ele>406.00000000000006</ele><time>2026-04-23T16:52:21Z</time></trkpt><trkpt lat="45.78911358783539" lon="8.957725423123454"><ele>406.0</ele><time>2026-04-23T16:52:22Z</time></trkpt><trkpt lat="45.78902709292964" lon="8.957699688373722"><ele>406.0</ele><time>2026-04-23T16:52:22.999Z</time></trkpt><trkpt lat="45.78893233921008" lon="8.957671496396857"><ele>406.0</ele><time>2026-04-23T16:52:23.999Z</time></trkpt><trkpt lat="45.7888268133985" lon="8.95764009942193"><ele>406.0</ele><time>2026-04-23T16:52:24.999Z</time></trkpt><trkpt lat="45.788718254229" lon="8.957607799524133"><ele>406.0</ele><time>2026-04-23T16:52:25.999Z</time></trkpt><trkpt lat="45.78861818640798" lon="8.957577825607181"><ele>406.0</ele><time>2026-04-23T16:52:26.999Z</time></trkpt><trkpt lat="45.78851678541839" lon="8.957546509490717"><ele>406.1666666666667</ele><time>2026-04-23T16:52:27.999Z</time></trkpt><trkpt lat="45.78842710510404" lon="8.957518813111363"><ele>406.33333333333337</ele><time>2026-04-23T16:52:28.999Z</time></trkpt><trkpt lat="45.78835031169141" lon="8.957495096657174"><ele>406.5</ele><time>2026-04-23T16:52:29.999Z</time></trkpt><trkpt lat="45.78827860843497" lon="8.957473010810471"><ele>406.66666666666663</ele><time>2026-04-23T16:52:30.999Z</time></trkpt><trkpt lat="45.788207044898975" lon="8.957451069591185"><ele>406.8333333333333</ele><time>2026-04-23T16:52:31.999Z</time></trkpt><trkpt lat="45.78812666029797" lon="8.957426423870476"><ele>407.0</ele><time>2026-04-23T16:52:32.999Z</time></trkpt><trkpt lat="45.78804034567289" lon="8.957399959813506"><ele>406.99999999999994</ele><time>2026-04-23T16:52:33.999Z</time></trkpt><trkpt lat="45.78795390307366" lon="8.957374355497702"><ele>407.0</ele><time>2026-04-23T16:52:34.999Z</time></trkpt><trkpt lat="45.787863722362275" lon="8.957347678708592"><ele>407.0</ele><time>2026-04-23T16:52:35.999Z</time></trkpt><trkpt lat="45.78777854850708" lon="8.95732250444544"><ele>407.0</ele><time>2026-04-23T16:52:36.999Z</time></trkpt><trkpt lat="45.787696011569636" lon="8.95729810955647"><ele>406.99999999999994</ele><time>2026-04-23T16:52:37.999Z</time></trkpt><trkpt lat="45.787628897598886" lon="8.957278273077497"><ele>407.0</ele><time>2026-04-23T16:52:38.999Z</time></trkpt><trkpt lat="45.78755851687053" lon="8.957256909498117"><ele>406.49999999999994</ele><time>2026-04-23T16:52:39.999Z</time></trkpt><trkpt lat="45.787484099995055" lon="8.957234361679154"><ele>406.0</ele><time>2026-04-23T16:52:40.999Z</time></trkpt><trkpt lat="45.787412213832226" lon="8.9572116664586"><ele>405.5</ele><time>2026-04-23T16:52:41.999Z</time></trkpt><trkpt lat="45.787334681054034" lon="8.957184595072695"><ele>405.0</ele><time>2026-04-23T16:52:42.999Z</time></trkpt><trkpt lat="45.78726124042674" lon="8.957157858364173"><ele>404.49999999999994</ele><time>2026-04-23T16:52:43.999Z</time></trkpt><trkpt lat="45.78719587508944" lon="8.95713406108215"><ele>404.0</ele><time>2026-04-23T16:52:44.999Z</time></trkpt><trkpt lat="45.78711250966684" lon="8.957053828308439"><ele>404.0</ele><time>2026-04-23T16:52:46.999Z</time></trkpt><trkpt lat="45.78703761398522" lon="8.956958089220603"><ele>404.0</ele><time>2026-04-23T16:52:48.999Z</time></trkpt><trkpt lat="45.786964697698096" lon="8.956823860362725"><ele>404.0</ele><time>2026-04-23T16:52:50.999Z</time></trkpt><trkpt lat="45.78691637308964" lon="8.956652124679767"><ele>404.0</ele><time>2026-04-23T16:52:52.999Z</time></trkpt><trkpt lat="45.78686753591059" lon="8.956550162987861"><ele>404.0</ele><time>2026-04-23T16:52:53.999Z</time></trkpt><trkpt lat="45.7866521794656" lon="8.95648069478202"><ele>403.5</ele><time>2026-04-23T16:52:55.999Z</time></trkpt><trkpt lat="45.78654903200437" lon="8.956519657164334"><ele>403.0</ele><time>2026-04-23T16:52:56.999Z</time></trkpt><trkpt lat="45.78646967613377" lon="8.956691399322793"><ele>402.5</ele><time>2026-04-23T16:52:57.999Z</time></trkpt><trkpt lat="45.78637183085745" lon="8.956672047269175"><ele>402.0</ele><time>2026-04-23T16:52:58.999Z</time></trkpt><trkpt lat="45.78626895374056" lon="8.956742700086506"><ele>402.0</ele><time>2026-04-23T16:52:59.999Z</time></trkpt><trkpt lat="45.786194337277585" lon="8.956709408327628"><ele>402.0</ele><time>2026-04-23T16:53:00.999Z</time></trkpt><trkpt lat="45.786079606218266" lon="8.95671348275766"><ele>402.0</ele><time>2026-04-23T16:53:01.999Z</time></trkpt><trkpt lat="45.78595699609277" lon="8.956717887260574"><ele>402.0</ele><time>2026-04-23T16:53:02.999Z</time></trkpt><trkpt lat="45.78583472334874" lon="8.956720314088368"><ele>402.0</ele><time>2026-04-23T16:53:03.999Z</time></trkpt><trkpt lat="45.78571425412281" lon="8.956722294344997"><ele>401.5</ele><time>2026-04-23T16:53:04.999Z</time></trkpt><trkpt lat="45.78558905150421" lon="8.956724684309973"><ele>401.0</ele><time>2026-04-23T16:53:05.999Z</time></trkpt><trkpt lat="45.78545460476925" lon="8.956727560765179"><ele>400.5</ele><time>2026-04-23T16:53:06.999Z</time></trkpt><trkpt lat="45.78531733863334" lon="8.956733300879153"><ele>400.0</ele><time>2026-04-23T16:53:07.999Z</time></trkpt><trkpt lat="45.785172346913726" lon="8.956745963662696"><ele>399.25</ele><time>2026-04-23T16:53:08.999Z</time></trkpt><trkpt lat="45.78502696465883" lon="8.956773428085254"><ele>398.5</ele><time>2026-04-23T16:53:09.999Z</time></trkpt><trkpt lat="45.78489656124109" lon="8.956813903965367"><ele>397.75</ele><time>2026-04-23T16:53:10.999Z</time></trkpt><trkpt lat="45.7847576139527" lon="8.956864374615634"><ele>397.0</ele><time>2026-04-23T16:53:11.999Z</time></trkpt><trkpt lat="45.78462871876714" lon="8.956921726798607"><ele>397.0</ele><time>2026-04-23T16:53:12.999Z</time></trkpt><trkpt lat="45.78450273420226" lon="8.956982435555025"><ele>397.0</ele><time>2026-04-23T16:53:13.999Z</time></trkpt><trkpt lat="45.78437984799477" lon="8.957048882236453"><ele>397.0</ele><time>2026-04-23T16:53:14.999Z</time></trkpt><trkpt lat="45.78426834595321" lon="8.95713222032457"><ele>397.0</ele><time>2026-04-23T16:53:15.999Z</time></trkpt><trkpt lat="45.78415055759354" lon="8.957194072957808"><ele>395.75</ele><time>2026-04-23T16:53:16.999Z</time></trkpt><trkpt lat="45.784026988670846" lon="8.957260751414061"><ele>394.5</ele><time>2026-04-23T16:53:17.999Z</time></trkpt><trkpt lat="45.783908461318475" lon="8.957327942505453"><ele>393.25</ele><time>2026-04-23T16:53:18.999Z</time></trkpt><trkpt lat="45.783795114958565" lon="8.957390471243192"><ele>392.0</ele><time>2026-04-23T16:53:19.999Z</time></trkpt><trkpt lat="45.78368271782382" lon="8.957449016659272"><ele>392.0</ele><time>2026-04-23T16:53:20.999Z</time></trkpt><trkpt lat="45.78356460307873" lon="8.957531304918497"><ele>392.0</ele><time>2026-04-23T16:53:21.999Z</time></trkpt><trkpt lat="45.78343485159831" lon="8.957577636583583"><ele>392.0</ele><time>2026-04-23T16:53:22.999Z</time></trkpt><trkpt lat="45.78331023216804" lon="8.957643851145713"><ele>392.0</ele><time>2026-04-23T16:53:23.999Z</time></trkpt><trkpt lat="45.78319117076536" lon="8.957724555037204"><ele>391.5</ele><time>2026-04-23T16:53:25Z</time></trkpt><trkpt lat="45.783066386837056" lon="8.957781958574191"><ele>391.0</ele><time>2026-04-23T16:53:26Z</time></trkpt><trkpt lat="45.78294619906765" lon="8.957856302426233"><ele>390.5</ele><time>2026-04-23T16:53:27Z</time></trkpt><trkpt lat="45.78282497839936" lon="8.957918715967779"><ele>390.0</ele><time>2026-04-23T16:53:28Z</time></trkpt><trkpt lat="45.782703794538165" lon="8.957983283832704"><ele>390.0</ele><time>2026-04-23T16:53:29Z</time></trkpt><trkpt lat="45.78258293913037" lon="8.958048690668921"><ele>390.0</ele><time>2026-04-23T16:53:30Z</time></trkpt><trkpt lat="45.78246359583585" lon="8.958099846345426"><ele>390.0</ele><time>2026-04-23T16:53:31Z</time></trkpt><trkpt lat="45.782341057931184" lon="8.958168123100512"><ele>390.0</ele><time>2026-04-23T16:53:32Z</time></trkpt><trkpt lat="45.782218660510566" lon="8.9582303447362"><ele>390.0</ele><time>2026-04-23T16:53:33Z</time></trkpt><trkpt lat="45.7820957122265" lon="8.958297206187414"><ele>390.0</ele><time>2026-04-23T16:53:34Z</time></trkpt><trkpt lat="45.78197448470171" lon="8.958363282920024"><ele>390.0</ele><time>2026-04-23T16:53:35Z</time></trkpt><trkpt lat="45.78185348116327" lon="8.958413721632683"><ele>390.0</ele><time>2026-04-23T16:53:36Z</time></trkpt><trkpt lat="45.78173862970248" lon="8.958487290813233"><ele>389.75</ele><time>2026-04-23T16:53:37Z</time></trkpt><trkpt lat="45.78161902144162" lon="8.958548292966187"><ele>389.5</ele><time>2026-04-23T16:53:38Z</time></trkpt><trkpt lat="45.78148513258237" lon="8.958617346212595"><ele>389.25</ele><time>2026-04-23T16:53:39Z</time></trkpt><trkpt lat="45.78134531146503" lon="8.958692359335103"><ele>389.0</ele><time>2026-04-23T16:53:40Z</time></trkpt><trkpt lat="45.78119760552929" lon="8.958767489115493"><ele>389.0</ele><time>2026-04-23T16:53:41Z</time></trkpt><trkpt lat="45.781047190688916" lon="8.958843328290682"><ele>389.0</ele><time>2026-04-23T16:53:42Z</time></trkpt><trkpt lat="45.78090213336203" lon="8.958927129347126"><ele>389.0</ele><time>2026-04-23T16:53:43Z</time></trkpt><trkpt lat="45.7807709764497" lon="8.958999458415274"><ele>390.0</ele><time>2026-04-23T16:53:44Z</time></trkpt><trkpt lat="45.78060033856655" lon="8.9590829355603"><ele>391.0</ele><time>2026-04-23T16:53:45Z</time></trkpt><trkpt lat="45.780464252618245" lon="8.959158594444093"><ele>392.0</ele><time>2026-04-23T16:53:46Z</time></trkpt><trkpt lat="45.78033901159886" lon="8.959229316257192"><ele>392.0</ele><time>2026-04-23T16:53:47Z</time></trkpt><trkpt lat="45.78022081566095" lon="8.959294705483083"><ele>392.0</ele><time>2026-04-23T16:53:48Z</time></trkpt><trkpt lat="45.78009874130421" lon="8.959328813655945"><ele>392.0</ele><time>2026-04-23T16:53:49Z</time></trkpt><trkpt lat="45.779981144430344" lon="8.959390693981089"><ele>392.0</ele><time>2026-04-23T16:53:50Z</time></trkpt><trkpt lat="45.77986693137705" lon="8.959450793505827"><ele>392.25</ele><time>2026-04-23T16:53:51Z</time></trkpt><trkpt lat="45.779744183395074" lon="8.959516090706508"><ele>392.5</ele><time>2026-04-23T16:53:52Z</time></trkpt><trkpt lat="45.77963089376046" lon="8.959576387208674"><ele>392.75</ele><time>2026-04-23T16:53:53Z</time></trkpt><trkpt lat="45.77951505907104" lon="8.959657701689641"><ele>393.0</ele><time>2026-04-23T16:53:54Z</time></trkpt><trkpt lat="45.77938576394501" lon="8.959702477885333"><ele>394.33333333333337</ele><time>2026-04-23T16:53:55Z</time></trkpt><trkpt lat="45.779254695191376" lon="8.959784539495393"><ele>395.6666666666667</ele><time>2026-04-23T16:53:56Z</time></trkpt><trkpt lat="45.779100627985386" lon="8.959867835236626"><ele>397.0</ele><time>2026-04-23T16:53:57Z</time></trkpt><trkpt lat="45.778947086624186" lon="8.959944973776047"><ele>397.0</ele><time>2026-04-23T16:53:58Z</time></trkpt><trkpt lat="45.778823779533646" lon="8.960023219052243"><ele>397.0</ele><time>2026-04-23T16:53:59Z</time></trkpt><trkpt lat="45.77870156159173" lon="8.960077675000772"><ele>397.0</ele><time>2026-04-23T16:54:00Z</time></trkpt><trkpt lat="45.778604622509455" lon="8.96013714721695"><ele>397.0</ele><time>2026-04-23T16:54:01Z</time></trkpt><trkpt lat="45.77852821706899" lon="8.96018366834562"><ele>395.83333333333337</ele><time>2026-04-23T16:54:02Z</time></trkpt><trkpt lat="45.77845169733578" lon="8.960212963476357"><ele>394.6666666666667</ele><time>2026-04-23T16:54:03Z</time></trkpt><trkpt lat="45.77837108021383" lon="8.96025022068382"><ele>393.5</ele><time>2026-04-23T16:54:04Z</time></trkpt><trkpt lat="45.77828450657312" lon="8.96029262953726"><ele>392.33333333333337</ele><time>2026-04-23T16:54:05Z</time></trkpt><trkpt lat="45.778198086874916" lon="8.960341950554795"><ele>391.1666666666667</ele><time>2026-04-23T16:54:06Z</time></trkpt><trkpt lat="45.77810910685635" lon="8.96039384107862"><ele>390.0</ele><time>2026-04-23T16:54:07Z</time></trkpt><trkpt lat="45.778007375060504" lon="8.96046241342278"><ele>390.0</ele><time>2026-04-23T16:54:08Z</time></trkpt><trkpt lat="45.77789675867873" lon="8.960519194575488"><ele>390.0</ele><time>2026-04-23T16:54:09Z</time></trkpt><trkpt lat="45.77778060260364" lon="8.96056537808722"><ele>390.0</ele><time>2026-04-23T16:54:10Z</time></trkpt><trkpt lat="45.777683723097724" lon="8.96062847427584"><ele>390.0</ele><time>2026-04-23T16:54:11Z</time></trkpt><trkpt lat="45.77759419356665" lon="8.960634623885248"><ele>390.0</ele><time>2026-04-23T16:54:12Z</time></trkpt><trkpt lat="45.777519858453815" lon="8.96070098264347"><ele>390.0</ele><time>2026-04-23T16:54:13Z</time></trkpt><trkpt lat="45.777442098007135" lon="8.960757850362878"><ele>390.0</ele><time>2026-04-23T16:54:14Z</time></trkpt><trkpt lat="45.777362127305246" lon="8.96077677988003"><ele>390.0</ele><time>2026-04-23T16:54:15Z</time></trkpt><trkpt lat="45.777282161578846" lon="8.96081866265764"><ele>390.0</ele><time>2026-04-23T16:54:16Z</time></trkpt><trkpt lat="45.77720658205228" lon="8.960858433187887"><ele>390.0</ele><time>2026-04-23T16:54:17Z</time></trkpt><trkpt lat="45.7771458918334" lon="8.960886436017693"><ele>390.0</ele><time>2026-04-23T16:54:18Z</time></trkpt><trkpt lat="45.77705355491802" lon="8.960907494970028"><ele>390.0</ele><time>2026-04-23T16:54:20Z</time></trkpt><trkpt lat="45.77698381903211" lon="8.960895644587556"><ele>390.0</ele><time>2026-04-23T16:54:23Z</time></trkpt><trkpt lat="45.776869892393755" lon="8.960883695919357"><ele>390.0</ele><time>2026-04-23T16:54:25Z</time></trkpt><trkpt lat="45.776807491912216" lon="8.960921096016397"><ele>390.0</ele><time>2026-04-23T16:54:26Z</time></trkpt><trkpt lat="45.77675458252678" lon="8.961018297389947"><ele>390.0</ele><time>2026-04-23T16:54:27Z</time></trkpt><trkpt lat="45.7767074895218" lon="8.961116500404945"><ele>390.0</ele><time>2026-04-23T16:54:28Z</time></trkpt><trkpt lat="45.77662572517309" lon="8.961178478476418"><ele>390.25</ele><time>2026-04-23T16:54:29Z</time></trkpt><trkpt lat="45.776519827491306" lon="8.961241134322394"><ele>390.5</ele><time>2026-04-23T16:54:29.999Z</time></trkpt><trkpt lat="45.776410882295394" lon="8.961303837158479"><ele>390.75</ele><time>2026-04-23T16:54:30.999Z</time></trkpt><trkpt lat="45.77629942807068" lon="8.96138332323251"><ele>391.0</ele><time>2026-04-23T16:54:31.999Z</time></trkpt><trkpt lat="45.776180558140524" lon="8.961428948924075"><ele>391.0</ele><time>2026-04-23T16:54:32.999Z</time></trkpt><trkpt lat="45.77605396762178" lon="8.961507862156452"><ele>391.0</ele><time>2026-04-23T16:54:33.999Z</time></trkpt><trkpt lat="45.77591538774879" lon="8.961572347143122"><ele>391.0</ele><time>2026-04-23T16:54:34.999Z</time></trkpt><trkpt lat="45.77577610231503" lon="8.96159960449294"><ele>391.0</ele><time>2026-04-23T16:54:35.999Z</time></trkpt><trkpt lat="45.7756306020981" lon="8.961635078091408"><ele>390.33333333333337</ele><time>2026-04-23T16:54:36.999Z</time></trkpt><trkpt lat="45.77548098313876" lon="8.96166164534256"><ele>389.66666666666663</ele><time>2026-04-23T16:54:37.999Z</time></trkpt><trkpt lat="45.775330947809046" lon="8.9616790958882"><ele>389.0</ele><time>2026-04-23T16:54:38.999Z</time></trkpt><trkpt lat="45.77517504961306" lon="8.961684414613972"><ele>388.66666666666663</ele><time>2026-04-23T16:54:39.999Z</time></trkpt><trkpt lat="45.77502233460839" lon="8.961675833120287"><ele>388.33333333333337</ele><time>2026-04-23T16:54:40.999Z</time></trkpt><trkpt lat="45.774868641598374" lon="8.961663605397831"><ele>388.0</ele><time>2026-04-23T16:54:41.999Z</time></trkpt><trkpt lat="45.77471351079462" lon="8.961646677312945"><ele>388.0</ele><time>2026-04-23T16:54:42.999Z</time></trkpt><trkpt lat="45.77456157512847" lon="8.961629759617692"><ele>388.0</ele><time>2026-04-23T16:54:43.999Z</time></trkpt><trkpt lat="45.77440769486795" lon="8.961612625408558"><ele>388.0</ele><time>2026-04-23T16:54:44.999Z</time></trkpt><trkpt lat="45.77425388188752" lon="8.96159622802611"><ele>389.33333333333337</ele><time>2026-04-23T16:54:45.999Z</time></trkpt><trkpt lat="45.77410025144583" lon="8.961579959815346"><ele>390.66666666666663</ele><time>2026-04-23T16:54:46.999Z</time></trkpt><trkpt lat="45.77394051220664" lon="8.96156304474344"><ele>392.0</ele><time>2026-04-23T16:54:47.999Z</time></trkpt><trkpt lat="45.77377782150039" lon="8.961545293173007"><ele>392.0</ele><time>2026-04-23T16:54:48.999Z</time></trkpt><trkpt lat="45.773617238099646" lon="8.961527562264054"><ele>392.0</ele><time>2026-04-23T16:54:49.999Z</time></trkpt><trkpt lat="45.77345864162155" lon="8.9615102875882"><ele>392.0</ele><time>2026-04-23T16:54:50.999Z</time></trkpt><trkpt lat="45.773297250571744" lon="8.961492679896457"><ele>393.0</ele><time>2026-04-23T16:54:51.999Z</time></trkpt><trkpt lat="45.773137254349614" lon="8.961569164144224"><ele>394.0</ele><time>2026-04-23T16:54:52.999Z</time></trkpt><trkpt lat="45.77298252022281" lon="8.961551659187238"><ele>395.0</ele><time>2026-04-23T16:54:53.999Z</time></trkpt><trkpt lat="45.77283289656671" lon="8.961527178759713"><ele>395.66666666666663</ele><time>2026-04-23T16:54:54.999Z</time></trkpt><trkpt lat="45.77267946821408" lon="8.961509844509635"><ele>396.33333333333337</ele><time>2026-04-23T16:54:55.999Z</time></trkpt><trkpt lat="45.772527793747095" lon="8.961411182060932"><ele>397.0</ele><time>2026-04-23T16:54:56.999Z</time></trkpt><trkpt lat="45.77237317511799" lon="8.961394796762583"><ele>397.0</ele><time>2026-04-23T16:54:57.999Z</time></trkpt><trkpt lat="45.77221634438401" lon="8.961377979640506"><ele>397.0</ele><time>2026-04-23T16:54:58.999Z</time></trkpt><trkpt lat="45.772062277554575" lon="8.961361315374722"><ele>397.0</ele><time>2026-04-23T16:54:59.999Z</time></trkpt><trkpt lat="45.77190964063072" lon="8.961344805768611"><ele>397.25</ele><time>2026-04-23T16:55:00.999Z</time></trkpt><trkpt lat="45.771764334858474" lon="8.96132908911835"><ele>397.5</ele><time>2026-04-23T16:55:01.999Z</time></trkpt><trkpt lat="45.771619378094414" lon="8.961313410220598"><ele>397.75</ele><time>2026-04-23T16:55:02.999Z</time></trkpt><trkpt lat="45.77146656750653" lon="8.961296881812377"><ele>398.0</ele><time>2026-04-23T16:55:03.999Z</time></trkpt><trkpt lat="45.771307881648355" lon="8.961279533020113"><ele>398.0</ele><time>2026-04-23T16:55:04.999Z</time></trkpt><trkpt lat="45.77114190754713" lon="8.961261033676031"><ele>398.0</ele><time>2026-04-23T16:55:05.999Z</time></trkpt><trkpt lat="45.77096828451499" lon="8.961241683801175"><ele>398.0</ele><time>2026-04-23T16:55:06.999Z</time></trkpt><trkpt lat="45.77078673990186" lon="8.96122144896949"><ele>397.66666666666663</ele><time>2026-04-23T16:55:07.999Z</time></trkpt><trkpt lat="45.770629308373955" lon="8.961203901777186"><ele>397.33333333333337</ele><time>2026-04-23T16:55:08.999Z</time></trkpt><trkpt lat="45.77043958086059" lon="8.961182755447288"><ele>397.0</ele><time>2026-04-23T16:55:09.999Z</time></trkpt><trkpt lat="45.770273503496014" lon="8.961278022800885"><ele>396.75</ele><time>2026-04-23T16:55:10.999Z</time></trkpt><trkpt lat="45.77012762520561" lon="8.961254792761135"><ele>396.5</ele><time>2026-04-23T16:55:11.999Z</time></trkpt><trkpt lat="45.76999773283461" lon="8.961252743824847"><ele>396.25</ele><time>2026-04-23T16:55:12.999Z</time></trkpt><trkpt lat="45.76988413679037" lon="8.96124556616909"><ele>396.0</ele><time>2026-04-23T16:55:13.999Z</time></trkpt><trkpt lat="45.76980201838996" lon="8.961113175535925"><ele>396.0</ele><time>2026-04-23T16:55:14.999Z</time></trkpt><trkpt lat="45.76971695319246" lon="8.961103660243142"><ele>396.0</ele><time>2026-04-23T16:55:15.999Z</time></trkpt><trkpt lat="45.76964424231276" lon="8.961196854137492"><ele>396.0</ele><time>2026-04-23T16:55:16.999Z</time></trkpt><trkpt lat="45.76956371334144" lon="8.961166642996682"><ele>396.0</ele><time>2026-04-23T16:55:18.999Z</time></trkpt><trkpt lat="45.769502277502525" lon="8.961109017477469"><ele>396.0</ele><time>2026-04-23T16:55:20.999Z</time></trkpt><trkpt lat="45.76950068392996" lon="8.960950833250267"><ele>396.0</ele><time>2026-04-23T16:55:21.999Z</time></trkpt><trkpt lat="45.769427078362895" lon="8.960898616183218"><ele>396.0</ele><time>2026-04-23T16:55:22.999Z</time></trkpt><trkpt lat="45.76931965569732" lon="8.960914782721249"><ele>396.0</ele><time>2026-04-23T16:55:23.999Z</time></trkpt><trkpt lat="45.76922750748643" lon="8.961019897784997"><ele>396.0</ele><time>2026-04-23T16:55:24.999Z</time></trkpt><trkpt lat="45.76914332939836" lon="8.961126768141003"><ele>396.0</ele><time>2026-04-23T16:55:25.999Z</time></trkpt><trkpt lat="45.76903500265567" lon="8.961036194290392"><ele>398.0</ele><time>2026-04-23T16:55:26.999Z</time></trkpt><trkpt lat="45.76891247390275" lon="8.961022368421572"><ele>400.0</ele><time>2026-04-23T16:55:27.999Z</time></trkpt><trkpt lat="45.768777528163206" lon="8.961009211985644"><ele>402.0</ele><time>2026-04-23T16:55:28.999Z</time></trkpt><trkpt lat="45.76863665033156" lon="8.960996139316645"><ele>404.0</ele><time>2026-04-23T16:55:29.999Z</time></trkpt><trkpt lat="45.76849341054964" lon="8.96098275981107"><ele>404.0</ele><time>2026-04-23T16:55:31Z</time></trkpt><trkpt lat="45.76833775694622" lon="8.960967189812099"><ele>404.0</ele><time>2026-04-23T16:55:32Z</time></trkpt><trkpt lat="45.76818321827356" lon="8.960951731317188"><ele>404.0</ele><time>2026-04-23T16:55:33Z</time></trkpt><trkpt lat="45.76803405816874" lon="8.960936801039168"><ele>404.0</ele><time>2026-04-23T16:55:34Z</time></trkpt><trkpt lat="45.767889656070764" lon="8.960922346127035"><ele>404.0</ele><time>2026-04-23T16:55:35Z</time></trkpt><trkpt lat="45.76774559752912" lon="8.960907661437654"><ele>404.0</ele><time>2026-04-23T16:55:36Z</time></trkpt><trkpt lat="45.76761128080791" lon="8.960910492086573"><ele>404.0</ele><time>2026-04-23T16:55:37Z</time></trkpt><trkpt lat="45.76747394345455" lon="8.960901193835909"><ele>404.0</ele><time>2026-04-23T16:55:38Z</time></trkpt><trkpt lat="45.76733032670028" lon="8.960886549928626"><ele>404.0</ele><time>2026-04-23T16:55:39Z</time></trkpt><trkpt lat="45.767199507350014" lon="8.960877086137083"><ele>404.0</ele><time>2026-04-23T16:55:40Z</time></trkpt><trkpt lat="45.76707244596599" lon="8.960869009523657"><ele>404.0</ele><time>2026-04-23T16:55:41Z</time></trkpt><trkpt lat="45.76693788908316" lon="8.960864133982561"><ele>403.75</ele><time>2026-04-23T16:55:42Z</time></trkpt><trkpt lat="45.76679807031338" lon="8.960835536616502"><ele>403.5</ele><time>2026-04-23T16:55:43Z</time></trkpt><trkpt lat="45.76665986293243" lon="8.960853318502116"><ele>403.25</ele><time>2026-04-23T16:55:44Z</time></trkpt><trkpt lat="45.76651981953083" lon="8.960888838962319"><ele>403.0</ele><time>2026-04-23T16:55:45Z</time></trkpt><trkpt lat="45.76637744667474" lon="8.960930606232434"><ele>403.0</ele><time>2026-04-23T16:55:46Z</time></trkpt><trkpt lat="45.766234239093" lon="8.960976008084291"><ele>403.0</ele><time>2026-04-23T16:55:47Z</time></trkpt><trkpt lat="45.76608946331005" lon="8.961022669104343"><ele>403.0</ele><time>2026-04-23T16:55:48Z</time></trkpt><trkpt lat="45.765949750474526" lon="8.96106252599859"><ele>403.0</ele><time>2026-04-23T16:55:49Z</time></trkpt><trkpt lat="45.76580485625915" lon="8.961100417691028"><ele>402.33333333333337</ele><time>2026-04-23T16:55:50Z</time></trkpt><trkpt lat="45.76566024865412" lon="8.961145467506727"><ele>401.66666666666663</ele><time>2026-04-23T16:55:51Z</time></trkpt><trkpt lat="45.765511644456595" lon="8.961191288913241"><ele>401.0</ele><time>2026-04-23T16:55:52Z</time></trkpt><trkpt lat="45.76536469381374" lon="8.961245906107065"><ele>401.0</ele><time>2026-04-23T16:55:53Z</time></trkpt><trkpt lat="45.76520466638331" lon="8.961307838182265"><ele>401.0</ele><time>2026-04-23T16:55:54Z</time></trkpt><trkpt lat="45.765054726692334" lon="8.961347092440874"><ele>401.0</ele><time>2026-04-23T16:55:55Z</time></trkpt><trkpt lat="45.76488922619969" lon="8.961399200914444"><ele>400.66666666666663</ele><time>2026-04-23T16:55:56Z</time></trkpt><trkpt lat="45.764726983506556" lon="8.961450126060697"><ele>400.33333333333337</ele><time>2026-04-23T16:55:57Z</time></trkpt><trkpt lat="45.76455423475983" lon="8.961504348880617"><ele>400.0</ele><time>2026-04-23T16:55:58Z</time></trkpt><trkpt lat="45.76437449925526" lon="8.961560764726665"><ele>401.0</ele><time>2026-04-23T16:55:59Z</time></trkpt><trkpt lat="45.7641939857826" lon="8.961617424768706"><ele>402.0</ele><time>2026-04-23T16:56:00Z</time></trkpt><trkpt lat="45.76402532179494" lon="8.961740094816577"><ele>403.0</ele><time>2026-04-23T16:56:01Z</time></trkpt><trkpt lat="45.76385184475905" lon="8.961800732111417"><ele>403.33333333333337</ele><time>2026-04-23T16:56:02Z</time></trkpt><trkpt lat="45.76368125927522" lon="8.961858274040846"><ele>403.66666666666663</ele><time>2026-04-23T16:56:03Z</time></trkpt><trkpt lat="45.76350206186608" lon="8.961906670918095"><ele>404.0</ele><time>2026-04-23T16:56:04Z</time></trkpt><trkpt lat="45.763319137374964" lon="8.961888872592734"><ele>402.66666666666663</ele><time>2026-04-23T16:56:05Z</time></trkpt><trkpt lat="45.76315417779626" lon="8.96194078686125"><ele>401.33333333333337</ele><time>2026-04-23T16:56:06Z</time></trkpt><trkpt lat="45.7629836650514" lon="8.961996736712452"><ele>400.0</ele><time>2026-04-23T16:56:07Z</time></trkpt><trkpt lat="45.762811047036124" lon="8.96206384981576"><ele>397.0</ele><time>2026-04-23T16:56:08Z</time></trkpt><trkpt lat="45.76264004114861" lon="8.962148377322443"><ele>394.0</ele><time>2026-04-23T16:56:09Z</time></trkpt><trkpt lat="45.76248297926742" lon="8.962244027868923"><ele>391.0</ele><time>2026-04-23T16:56:10Z</time></trkpt><trkpt lat="45.76233989091114" lon="8.962351481850941"><ele>391.0</ele><time>2026-04-23T16:56:11Z</time></trkpt><trkpt lat="45.76219703926922" lon="8.96247234789664"><ele>391.0</ele><time>2026-04-23T16:56:12Z</time></trkpt><trkpt lat="45.76205856342133" lon="8.962596749271993"><ele>391.0</ele><time>2026-04-23T16:56:13Z</time></trkpt><trkpt lat="45.761921820095786" lon="8.962720335624184"><ele>391.33333333333337</ele><time>2026-04-23T16:56:14Z</time></trkpt><trkpt lat="45.76178656479712" lon="8.96284118209738"><ele>391.66666666666663</ele><time>2026-04-23T16:56:15Z</time></trkpt><trkpt lat="45.76164183172007" lon="8.962970496909387"><ele>392.0</ele><time>2026-04-23T16:56:16Z</time></trkpt><trkpt lat="45.761513500510496" lon="8.96308515658569"><ele>392.0</ele><time>2026-04-23T16:56:17Z</time></trkpt><trkpt lat="45.76138615996481" lon="8.96319893339856"><ele>392.0</ele><time>2026-04-23T16:56:18Z</time></trkpt><trkpt lat="45.76125984728725" lon="8.963311862605238"><ele>392.0</ele><time>2026-04-23T16:56:19Z</time></trkpt><trkpt lat="45.76113401670504" lon="8.963424369789456"><ele>392.0</ele><time>2026-04-23T16:56:20Z</time></trkpt><trkpt lat="45.761011632785696" lon="8.963533795229933"><ele>392.0</ele><time>2026-04-23T16:56:21Z</time></trkpt><trkpt lat="45.76088762473801" lon="8.963644672823719"><ele>392.0</ele><time>2026-04-23T16:56:22Z</time></trkpt><trkpt lat="45.76076000697965" lon="8.963758777905056"><ele>392.0</ele><time>2026-04-23T16:56:23Z</time></trkpt><trkpt lat="45.76063515131585" lon="8.9638704134163"><ele>392.0</ele><time>2026-04-23T16:56:24Z</time></trkpt><trkpt lat="45.76051683172643" lon="8.963976315990617"><ele>392.0</ele><time>2026-04-23T16:56:25Z</time></trkpt><trkpt lat="45.76039713170464" lon="8.96408360837636"><ele>392.0</ele><time>2026-04-23T16:56:25.999Z</time></trkpt><trkpt lat="45.760267554643775" lon="8.964199754155587"><ele>392.0</ele><time>2026-04-23T16:56:26.999Z</time></trkpt><trkpt lat="45.76013936801728" lon="8.964314653558938"><ele>392.0</ele><time>2026-04-23T16:56:27.999Z</time></trkpt><trkpt lat="45.76000093832344" lon="8.96443873431554"><ele>390.3333333333333</ele><time>2026-04-23T16:56:28.999Z</time></trkpt><trkpt lat="45.75986097308146" lon="8.964564191420138"><ele>388.66666666666663</ele><time>2026-04-23T16:56:29.999Z</time></trkpt><trkpt lat="45.75972844747453" lon="8.964683157357614"><ele>387.0</ele><time>2026-04-23T16:56:30.999Z</time></trkpt><trkpt lat="45.7595937761754" lon="8.964804065894532"><ele>387.0</ele><time>2026-04-23T16:56:31.999Z</time></trkpt><trkpt lat="45.759462016174496" lon="8.964922821116147"><ele>387.0</ele><time>2026-04-23T16:56:32.999Z</time></trkpt><trkpt lat="45.759331336559534" lon="8.965040693326948"><ele>387.0</ele><time>2026-04-23T16:56:33.999Z</time></trkpt><trkpt lat="45.75919350729662" lon="8.965165014454993"><ele>385.5</ele><time>2026-04-23T16:56:34.999Z</time></trkpt><trkpt lat="45.759045411768874" lon="8.9652985957168"><ele>384.0</ele><time>2026-04-23T16:56:35.999Z</time></trkpt><trkpt lat="45.758913891931286" lon="8.965417225724135"><ele>382.5</ele><time>2026-04-23T16:56:36.999Z</time></trkpt><trkpt lat="45.75881996080801" lon="8.965501776381794"><ele>381.0</ele><time>2026-04-23T16:56:37.999Z</time></trkpt><trkpt lat="45.758695073492675" lon="8.965613875554006"><ele>381.0</ele><time>2026-04-23T16:56:38.999Z</time></trkpt><trkpt lat="45.758555307941485" lon="8.96573870183607"><ele>381.0</ele><time>2026-04-23T16:56:39.999Z</time></trkpt><trkpt lat="45.75841507831535" lon="8.965863727966731"><ele>381.0</ele><time>2026-04-23T16:56:40.999Z</time></trkpt><trkpt lat="45.75828917331563" lon="8.965975982571997"><ele>381.0</ele><time>2026-04-23T16:56:41.999Z</time></trkpt><trkpt lat="45.75817371963917" lon="8.96608585332054"><ele>381.0</ele><time>2026-04-23T16:56:42.999Z</time></trkpt><trkpt lat="45.75806038605851" lon="8.96619441367411"><ele>381.0</ele><time>2026-04-23T16:56:43.999Z</time></trkpt><trkpt lat="45.75795667826448" lon="8.966292889101025"><ele>381.0</ele><time>2026-04-23T16:56:44.999Z</time></trkpt><trkpt lat="45.757880751965544" lon="8.966417272511835"><ele>381.0</ele><time>2026-04-23T16:56:45.999Z</time></trkpt><trkpt lat="45.757771491290434" lon="8.966462700026728"><ele>381.0</ele><time>2026-04-23T16:56:46.999Z</time></trkpt><trkpt lat="45.757662519687095" lon="8.966529547496142"><ele>381.0</ele><time>2026-04-23T16:56:47.999Z</time></trkpt><trkpt lat="45.7575368593112" lon="8.966573659200865"><ele>381.0</ele><time>2026-04-23T16:56:48.999Z</time></trkpt><trkpt lat="45.75745709631408" lon="8.966753482553372"><ele>380.75</ele><time>2026-04-23T16:56:49.999Z</time></trkpt><trkpt lat="45.757350450000786" lon="8.966864688285936"><ele>380.5</ele><time>2026-04-23T16:56:50.999Z</time></trkpt><trkpt lat="45.75724074808504" lon="8.966979053825336"><ele>380.25</ele><time>2026-04-23T16:56:51.999Z</time></trkpt><trkpt lat="45.75711574737075" lon="8.967106689876804"><ele>380.0</ele><time>2026-04-23T16:56:52.999Z</time></trkpt><trkpt lat="45.75696949418791" lon="8.96716925754304"><ele>379.0</ele><time>2026-04-23T16:56:53.999Z</time></trkpt><trkpt lat="45.75682475349437" lon="8.967299139791143"><ele>378.0</ele><time>2026-04-23T16:56:54.999Z</time></trkpt><trkpt lat="45.75667117416234" lon="8.967436953102222"><ele>377.0</ele><time>2026-04-23T16:56:55.999Z</time></trkpt><trkpt lat="45.75651444643353" lon="8.967577715006199"><ele>376.6666666666667</ele><time>2026-04-23T16:56:56.999Z</time></trkpt><trkpt lat="45.75636318287348" lon="8.967714807350328"><ele>376.3333333333333</ele><time>2026-04-23T16:56:57.999Z</time></trkpt><trkpt lat="45.75622657255532" lon="8.967838466381608"><ele>376.0</ele><time>2026-04-23T16:56:58.999Z</time></trkpt><trkpt lat="45.75609099484587" lon="8.967961190757162"><ele>376.3333333333333</ele><time>2026-04-23T16:56:59.999Z</time></trkpt><trkpt lat="45.75596154381483" lon="8.968078369282567"><ele>376.6666666666667</ele><time>2026-04-23T16:57:00.999Z</time></trkpt><trkpt lat="45.75582165005692" lon="8.968205000415312"><ele>377.0</ele><time>2026-04-23T16:57:01.999Z</time></trkpt><trkpt lat="45.755689503889116" lon="8.968324618508792"><ele>373.0</ele><time>2026-04-23T16:57:02.999Z</time></trkpt><trkpt lat="45.755513505182826" lon="8.96848268790085"><ele>369.0</ele><time>2026-04-23T16:57:03.999Z</time></trkpt><trkpt lat="45.755303387092916" lon="8.968671552330976"><ele>368.0</ele><time>2026-04-23T16:57:04.999Z</time></trkpt><trkpt lat="45.75508785018608" lon="8.968866123583453"><ele>367.0</ele><time>2026-04-23T16:57:05.999Z</time></trkpt><trkpt lat="45.754894882728216" lon="8.969041065339548"><ele>365.66666666666663</ele><time>2026-04-23T16:57:06.999Z</time></trkpt><trkpt lat="45.75472154910989" lon="8.96919820735067"><ele>364.3333333333333</ele><time>2026-04-23T16:57:07.999Z</time></trkpt><trkpt lat="45.75456033093993" lon="8.969344365566528"><ele>363.0</ele><time>2026-04-23T16:57:08.999Z</time></trkpt><trkpt lat="45.75440272185382" lon="8.96948725066301"><ele>363.3333333333333</ele><time>2026-04-23T16:57:09.999Z</time></trkpt><trkpt lat="45.75425553561756" lon="8.96961828572462"><ele>363.66666666666663</ele><time>2026-04-23T16:57:10.999Z</time></trkpt><trkpt lat="45.75410323676132" lon="8.969754357892004"><ele>364.0</ele><time>2026-04-23T16:57:11.999Z</time></trkpt><trkpt lat="45.75394651136893" lon="8.969894645321542"><ele>364.0</ele><time>2026-04-23T16:57:12.999Z</time></trkpt><trkpt lat="45.753793270157765" lon="8.97003306981492"><ele>364.0</ele><time>2026-04-23T16:57:13.999Z</time></trkpt><trkpt lat="45.753630872606024" lon="8.970180812432258"><ele>364.0</ele><time>2026-04-23T16:57:14.999Z</time></trkpt><trkpt lat="45.753473215828215" lon="8.970324328727662"><ele>364.3333333333333</ele><time>2026-04-23T16:57:15.999Z</time></trkpt><trkpt lat="45.75331524752393" lon="8.970466192470543"><ele>364.6666666666667</ele><time>2026-04-23T16:57:16.999Z</time></trkpt><trkpt lat="45.75315834917872" lon="8.970606422543357"><ele>365.0</ele><time>2026-04-23T16:57:17.999Z</time></trkpt><trkpt lat="45.752999335851015" lon="8.970748914067281"><ele>366.33333333333337</ele><time>2026-04-23T16:57:18.999Z</time></trkpt><trkpt lat="45.75284337850709" lon="8.97088684678054"><ele>367.6666666666667</ele><time>2026-04-23T16:57:19.999Z</time></trkpt><trkpt lat="45.75269191892802" lon="8.971043149909816"><ele>369.0</ele><time>2026-04-23T16:57:20.999Z</time></trkpt><trkpt lat="45.75253512419706" lon="8.971179248650031"><ele>369.3333333333333</ele><time>2026-04-23T16:57:21.999Z</time></trkpt><trkpt lat="45.75238957008183" lon="8.971307862810821"><ele>369.66666666666663</ele><time>2026-04-23T16:57:22.999Z</time></trkpt><trkpt lat="45.752245279275215" lon="8.971442259235289"><ele>370.0</ele><time>2026-04-23T16:57:23.999Z</time></trkpt><trkpt lat="45.752104453606016" lon="8.971587152925009"><ele>371.0</ele><time>2026-04-23T16:57:24.999Z</time></trkpt><trkpt lat="45.75197928259875" lon="8.971732620128863"><ele>372.0</ele><time>2026-04-23T16:57:25.999Z</time></trkpt><trkpt lat="45.7518656722691" lon="8.97187512774864"><ele>373.0</ele><time>2026-04-23T16:57:26.999Z</time></trkpt><trkpt lat="45.751767087085916" lon="8.972010592077638"><ele>374.0</ele><time>2026-04-23T16:57:27.999Z</time></trkpt><trkpt lat="45.75165262322977" lon="8.972159334571502"><ele>374.0</ele><time>2026-04-23T16:57:28.999Z</time></trkpt><trkpt lat="45.75155796120822" lon="8.97229828624475"><ele>374.0</ele><time>2026-04-23T16:57:29.999Z</time></trkpt><trkpt lat="45.75146011769457" lon="8.972437856663886"><ele>374.0</ele><time>2026-04-23T16:57:30.999Z</time></trkpt><trkpt lat="45.751366199267565" lon="8.972562442736692"><ele>374.0</ele><time>2026-04-23T16:57:31.999Z</time></trkpt><trkpt lat="45.75126998790141" lon="8.9726847397483"><ele>374.25</ele><time>2026-04-23T16:57:32.999Z</time></trkpt><trkpt lat="45.751171336855016" lon="8.972805135357861"><ele>374.5</ele><time>2026-04-23T16:57:33.999Z</time></trkpt><trkpt lat="45.75108439606646" lon="8.97291141253039"><ele>374.75</ele><time>2026-04-23T16:57:34.999Z</time></trkpt><trkpt lat="45.75101703628134" lon="8.973024095325014"><ele>375.0</ele><time>2026-04-23T16:57:35.999Z</time></trkpt><trkpt lat="45.75093213047562" lon="8.973115999050844"><ele>375.0</ele><time>2026-04-23T16:57:37Z</time></trkpt><trkpt lat="45.750871540553085" lon="8.9732024293081"><ele>375.0</ele><time>2026-04-23T16:57:38Z</time></trkpt><trkpt lat="45.750819092546784" lon="8.97327251279837"><ele>375.0</ele><time>2026-04-23T16:57:39Z</time></trkpt><trkpt lat="45.750725050133205" lon="8.973366162946625"><ele>375.0</ele><time>2026-04-23T16:57:41Z</time></trkpt><trkpt lat="45.75066224422674" lon="8.973410808891046"><ele>375.0</ele><time>2026-04-23T16:57:42Z</time></trkpt><trkpt lat="45.75058821582838" lon="8.97341475512335"><ele>375.0</ele><time>2026-04-23T16:57:43Z</time></trkpt><trkpt lat="45.750531266708386" lon="8.973525594011251"><ele>375.0</ele><time>2026-04-23T16:57:44Z</time></trkpt><trkpt lat="45.75048303680359" lon="8.97364072570491"><ele>375.0</ele><time>2026-04-23T16:57:45Z</time></trkpt><trkpt lat="45.750429477558114" lon="8.97376951671003"><ele>375.0</ele><time>2026-04-23T16:57:46Z</time></trkpt><trkpt lat="45.750351888851" lon="8.973902403081846"><ele>375.0</ele><time>2026-04-23T16:57:47Z</time></trkpt><trkpt lat="45.750263432407095" lon="8.97402059453382"><ele>375.0</ele><time>2026-04-23T16:57:48Z</time></trkpt><trkpt lat="45.75016468672113" lon="8.974155461758723"><ele>377.6666666666667</ele><time>2026-04-23T16:57:49Z</time></trkpt><trkpt lat="45.75002577955073" lon="8.974313954902279"><ele>380.33333333333337</ele><time>2026-04-23T16:57:50Z</time></trkpt><trkpt lat="45.74989263697467" lon="8.974492293960145"><ele>383.0</ele><time>2026-04-23T16:57:51Z</time></trkpt><trkpt lat="45.74975357935372" lon="8.974681555936959"><ele>383.0</ele><time>2026-04-23T16:57:52Z</time></trkpt><trkpt lat="45.749639588980486" lon="8.97486917588617"><ele>383.0</ele><time>2026-04-23T16:57:53Z</time></trkpt><trkpt lat="45.74953702493766" lon="8.975056926492474"><ele>383.0</ele><time>2026-04-23T16:57:54Z</time></trkpt><trkpt lat="45.74945335203071" lon="8.975232661098714"><ele>384.5</ele><time>2026-04-23T16:57:55Z</time></trkpt><trkpt lat="45.749380276478654" lon="8.975424348993112"><ele>386.0</ele><time>2026-04-23T16:57:56Z</time></trkpt><trkpt lat="45.74932627912955" lon="8.975623220387709"><ele>387.5</ele><time>2026-04-23T16:57:57Z</time></trkpt><trkpt lat="45.74927234743204" lon="8.975786673333575"><ele>389.0</ele><time>2026-04-23T16:57:58Z</time></trkpt><trkpt lat="45.74923155824566" lon="8.975948587828093"><ele>386.0</ele><time>2026-04-23T16:57:59Z</time></trkpt><trkpt lat="45.74918193829805" lon="8.976121337173774"><ele>383.0</ele><time>2026-04-23T16:58:00Z</time></trkpt><trkpt lat="45.74914190697698" lon="8.976316953709494"><ele>380.0</ele><time>2026-04-23T16:58:01Z</time></trkpt><trkpt lat="45.74909784566989" lon="8.976482367244847"><ele>377.0</ele><time>2026-04-23T16:58:02Z</time></trkpt><trkpt lat="45.749040455065405" lon="8.976621360947597"><ele>377.0</ele><time>2026-04-23T16:58:03Z</time></trkpt><trkpt lat="45.749000828773404" lon="8.97678884299593"><ele>377.0</ele><time>2026-04-23T16:58:04Z</time></trkpt><trkpt lat="45.748956028389976" lon="8.976972514294626"><ele>377.0</ele><time>2026-04-23T16:58:05Z</time></trkpt><trkpt lat="45.7488934609799" lon="8.977169331428223"><ele>377.0</ele><time>2026-04-23T16:58:06Z</time></trkpt><trkpt lat="45.74883333056371" lon="8.977390773244606"><ele>374.6666666666667</ele><time>2026-04-23T16:58:07Z</time></trkpt><trkpt lat="45.748775472650046" lon="8.977597058430256"><ele>372.3333333333333</ele><time>2026-04-23T16:58:08Z</time></trkpt><trkpt lat="45.74871037282632" lon="8.977836160021877"><ele>370.0</ele><time>2026-04-23T16:58:09Z</time></trkpt><trkpt lat="45.74864654139081" lon="8.978064177759672"><ele>370.0</ele><time>2026-04-23T16:58:10Z</time></trkpt><trkpt lat="45.74858741923513" lon="8.97827483095837"><ele>370.0</ele><time>2026-04-23T16:58:11Z</time></trkpt><trkpt lat="45.74852035079917" lon="8.978461308184299"><ele>370.0</ele><time>2026-04-23T16:58:12Z</time></trkpt><trkpt lat="45.74848822591995" lon="8.978633897668367"><ele>370.0</ele><time>2026-04-23T16:58:13Z</time></trkpt><trkpt lat="45.74844240021972" lon="8.97882818606921"><ele>367.75</ele><time>2026-04-23T16:58:14Z</time></trkpt><trkpt lat="45.74839556418143" lon="8.978999638248007"><ele>365.5</ele><time>2026-04-23T16:58:15Z</time></trkpt><trkpt lat="45.74834640773621" lon="8.979159860106977"><ele>363.25</ele><time>2026-04-23T16:58:16Z</time></trkpt><trkpt lat="45.748302097138634" lon="8.97933068766139"><ele>361.0</ele><time>2026-04-23T16:58:17Z</time></trkpt><trkpt lat="45.74824139043416" lon="8.979478160872615"><ele>360.0</ele><time>2026-04-23T16:58:18Z</time></trkpt><trkpt lat="45.74818994114992" lon="8.979627307822017"><ele>359.0</ele><time>2026-04-23T16:58:19Z</time></trkpt><trkpt lat="45.74812811556084" lon="8.97977648809965"><ele>358.0</ele><time>2026-04-23T16:58:20Z</time></trkpt><trkpt lat="45.74806371480839" lon="8.979923771178292"><ele>357.0</ele><time>2026-04-23T16:58:21Z</time></trkpt><trkpt lat="45.748000104170025" lon="8.980063257727837"><ele>356.8</ele><time>2026-04-23T16:58:22Z</time></trkpt><trkpt lat="45.74795154048232" lon="8.980209472520412"><ele>356.6</ele><time>2026-04-23T16:58:23Z</time></trkpt><trkpt lat="45.747893542249834" lon="8.980324225632021"><ele>356.40000000000003</ele><time>2026-04-23T16:58:24Z</time></trkpt><trkpt lat="45.7478385145082" lon="8.980443773931347"><ele>356.20000000000005</ele><time>2026-04-23T16:58:25Z</time></trkpt><trkpt lat="45.7477555033033" lon="8.98055959915198"><ele>356.0</ele><time>2026-04-23T16:58:26Z</time></trkpt><trkpt lat="45.7476865338532" lon="8.980717532253593"><ele>355.83333333333337</ele><time>2026-04-23T16:58:28Z</time></trkpt><trkpt lat="45.74763250602598" lon="8.980795715926996"><ele>355.6666666666667</ele><time>2026-04-23T16:58:29Z</time></trkpt><trkpt lat="45.74756945645282" lon="8.980858055955238"><ele>355.5</ele><time>2026-04-23T16:58:30Z</time></trkpt><trkpt lat="45.747493580645276" lon="8.980874771514374"><ele>355.3333333333333</ele><time>2026-04-23T16:58:31Z</time></trkpt><trkpt lat="45.74740714892585" lon="8.980940542934055"><ele>355.16666666666663</ele><time>2026-04-23T16:58:32Z</time></trkpt><trkpt lat="45.74732801231841" lon="8.980989452608238"><ele>355.0</ele><time>2026-04-23T16:58:33Z</time></trkpt><trkpt lat="45.74724412646947" lon="8.981035986185024"><ele>355.0</ele><time>2026-04-23T16:58:34Z</time></trkpt><trkpt lat="45.74716363183069" lon="8.981080533266242"><ele>355.0</ele><time>2026-04-23T16:58:35Z</time></trkpt><trkpt lat="45.74706857857284" lon="8.981136910504059"><ele>355.0</ele><time>2026-04-23T16:58:36Z</time></trkpt><trkpt lat="45.746980011837096" lon="8.981228488416024"><ele>355.0</ele><time>2026-04-23T16:58:37Z</time></trkpt><trkpt lat="45.74687649020047" lon="8.981248867320232"><ele>355.0</ele><time>2026-04-23T16:58:38Z</time></trkpt><trkpt lat="45.746784950086784" lon="8.98132327556859"><ele>354.6</ele><time>2026-04-23T16:58:39Z</time></trkpt><trkpt lat="45.74670652677911" lon="8.98141038453869"><ele>354.2</ele><time>2026-04-23T16:58:40Z</time></trkpt><trkpt lat="45.746619135514116" lon="8.981484265247532"><ele>353.79999999999995</ele><time>2026-04-23T16:58:41Z</time></trkpt><trkpt lat="45.746520172843724" lon="8.98156746333713"><ele>353.4</ele><time>2026-04-23T16:58:42Z</time></trkpt><trkpt lat="45.74643022618951" lon="8.981654336644608"><ele>353.0</ele><time>2026-04-23T16:58:43Z</time></trkpt><trkpt lat="45.74635170854553" lon="8.98173427237699"><ele>353.0</ele><time>2026-04-23T16:58:44Z</time></trkpt><trkpt lat="45.746271760903795" lon="8.981813684506406"><ele>353.0</ele><time>2026-04-23T16:58:45Z</time></trkpt><trkpt lat="45.74619809500174" lon="8.98188614023775"><ele>353.0</ele><time>2026-04-23T16:58:46Z</time></trkpt><trkpt lat="45.74609267892504" lon="8.981986295381098"><ele>353.0</ele><time>2026-04-23T16:58:47Z</time></trkpt><trkpt lat="45.74602013972168" lon="8.982050333459043"><ele>353.0</ele><time>2026-04-23T16:58:48Z</time></trkpt><trkpt lat="45.74594403755182" lon="8.982112735923579"><ele>354.0</ele><time>2026-04-23T16:58:49Z</time></trkpt><trkpt lat="45.74586832369241" lon="8.982174818814633"><ele>355.0</ele><time>2026-04-23T16:58:49.999Z</time></trkpt><trkpt lat="45.74579579457716" lon="8.982227389853009"><ele>356.0</ele><time>2026-04-23T16:58:50.999Z</time></trkpt><trkpt lat="45.74572739447171" lon="8.982275127134981"><ele>357.0</ele><time>2026-04-23T16:58:51.999Z</time></trkpt><trkpt lat="45.745665262012515" lon="8.982312580682857"><ele>358.0</ele><time>2026-04-23T16:58:52.999Z</time></trkpt><trkpt lat="45.745601378719314" lon="8.982350846158136"><ele>359.0</ele><time>2026-04-23T16:58:53.999Z</time></trkpt><trkpt lat="45.74553894293452" lon="8.98238546275649"><ele>360.0</ele><time>2026-04-23T16:58:54.999Z</time></trkpt><trkpt lat="45.74541139979613" lon="8.982445166402371"><ele>360.0</ele><time>2026-04-23T16:58:56.999Z</time></trkpt><trkpt lat="45.745347039322105" lon="8.982471864931926"><ele>360.0</ele><time>2026-04-23T16:58:57.999Z</time></trkpt><trkpt lat="45.74522262829108" lon="8.982516202668679"><ele>360.0</ele><time>2026-04-23T16:58:59.999Z</time></trkpt><trkpt lat="45.74515571364679" lon="8.982536283847974"><ele>360.0</ele><time>2026-04-23T16:59:00.999Z</time></trkpt><trkpt lat="45.74508777731354" lon="8.98255419765748"><ele>360.0</ele><time>2026-04-23T16:59:01.999Z</time></trkpt><trkpt lat="45.74501926150219" lon="8.98257045325359"><ele>360.0</ele><time>2026-04-23T16:59:02.999Z</time></trkpt><trkpt lat="45.744945044148395" lon="8.98258576308471"><ele>358.6</ele><time>2026-04-23T16:59:03.999Z</time></trkpt><trkpt lat="45.744879212181495" lon="8.982598848895494"><ele>357.2</ele><time>2026-04-23T16:59:04.999Z</time></trkpt><trkpt lat="45.74480665293615" lon="8.98261110204024"><ele>355.79999999999995</ele><time>2026-04-23T16:59:05.999Z</time></trkpt><trkpt lat="45.74469671264087" lon="8.98262516864824"><ele>354.4</ele><time>2026-04-23T16:59:07.999Z</time></trkpt><trkpt lat="45.74456461304615" lon="8.982632770535163"><ele>353.0</ele><time>2026-04-23T16:59:08.999Z</time></trkpt><trkpt lat="45.744487917870195" lon="8.982635103758422"><ele>353.0</ele><time>2026-04-23T16:59:09.999Z</time></trkpt><trkpt lat="45.744411886325295" lon="8.982638583169063"><ele>353.0</ele><time>2026-04-23T16:59:10.999Z</time></trkpt><trkpt lat="45.744338163738306" lon="8.982637335252289"><ele>353.0</ele><time>2026-04-23T16:59:11.999Z</time></trkpt><trkpt lat="45.74421792609133" lon="8.982633990182272"><ele>353.0</ele><time>2026-04-23T16:59:13.999Z</time></trkpt><trkpt lat="45.74409984175485" lon="8.982629509876876"><ele>353.0</ele><time>2026-04-23T16:59:15.999Z</time></trkpt><trkpt lat="45.74399912308078" lon="8.982625688456668"><ele>353.0</ele><time>2026-04-23T16:59:17.999Z</time></trkpt><trkpt lat="45.74393362435713" lon="8.98262320332638"><ele>353.0</ele><time>2026-04-23T16:59:18.999Z</time></trkpt><trkpt lat="45.74384187979038" lon="8.982619722399644"><ele>353.0</ele><time>2026-04-23T16:59:19.999Z</time></trkpt><trkpt lat="45.74373870305249" lon="8.982615927516036"><ele>353.0</ele><time>2026-04-23T16:59:20.999Z</time></trkpt><trkpt lat="45.743625627680615" lon="8.98261186165455"><ele>353.0</ele><time>2026-04-23T16:59:21.999Z</time></trkpt><trkpt lat="45.74354626856918" lon="8.982610063887192"><ele>353.0</ele><time>2026-04-23T16:59:22.999Z</time></trkpt><trkpt lat="45.743471052746045" lon="8.982600093981288"><ele>353.0</ele><time>2026-04-23T16:59:23.999Z</time></trkpt><trkpt lat="45.743392995476704" lon="8.982588147581422"><ele>353.0</ele><time>2026-04-23T16:59:24.999Z</time></trkpt><trkpt lat="45.74330526056122" lon="8.982572959588877"><ele>353.0</ele><time>2026-04-23T16:59:25.999Z</time></trkpt><trkpt lat="45.74321594472784" lon="8.98257713563071"><ele>353.0</ele><time>2026-04-23T16:59:26.999Z</time></trkpt><trkpt lat="45.74315017936061" lon="8.982481714655549"><ele>353.0</ele><time>2026-04-23T16:59:27.999Z</time></trkpt><trkpt lat="45.743076536294794" lon="8.982462517124942"><ele>353.0</ele><time>2026-04-23T16:59:28.999Z</time></trkpt><trkpt lat="45.742988349979306" lon="8.9824796725508"><ele>353.0</ele><time>2026-04-23T16:59:29.999Z</time></trkpt><trkpt lat="45.74292594265846" lon="8.98266327708589"><ele>353.0</ele><time>2026-04-23T16:59:30.999Z</time></trkpt><trkpt lat="45.74286531341396" lon="8.982777293090209"><ele>353.0</ele><time>2026-04-23T16:59:31.999Z</time></trkpt><trkpt lat="45.74276741174629" lon="8.982920552200008"><ele>353.5</ele><time>2026-04-23T16:59:32.999Z</time></trkpt><trkpt lat="45.74266459937541" lon="8.982971956213737"><ele>354.0</ele><time>2026-04-23T16:59:33.999Z</time></trkpt><trkpt lat="45.74252813822428" lon="8.983070657533656"><ele>354.5</ele><time>2026-04-23T16:59:34.999Z</time></trkpt><trkpt lat="45.74241718552811" lon="8.983153243684775"><ele>355.0</ele><time>2026-04-23T16:59:35.999Z</time></trkpt><trkpt lat="45.74230057544969" lon="8.983240777065957"><ele>355.0</ele><time>2026-04-23T16:59:36.999Z</time></trkpt><trkpt lat="45.742186305697054" lon="8.983326886706799"><ele>355.0</ele><time>2026-04-23T16:59:37.999Z</time></trkpt><trkpt lat="45.74207291570886" lon="8.983412333505843"><ele>355.0</ele><time>2026-04-23T16:59:38.999Z</time></trkpt><trkpt lat="45.741958887720635" lon="8.983498261003078"><ele>355.0</ele><time>2026-04-23T16:59:39.999Z</time></trkpt><trkpt lat="45.74184024011082" lon="8.983586249133896"><ele>353.75</ele><time>2026-04-23T16:59:40.999Z</time></trkpt><trkpt lat="45.74171165501482" lon="8.983680549112936"><ele>352.5</ele><time>2026-04-23T16:59:41.999Z</time></trkpt><trkpt lat="45.741579826288664" lon="8.983777226033329"><ele>351.25</ele><time>2026-04-23T16:59:43Z</time></trkpt><trkpt lat="45.741457088337945" lon="8.98386824583528"><ele>350.0</ele><time>2026-04-23T16:59:44Z</time></trkpt><trkpt lat="45.741321529460535" lon="8.983969257843707"><ele>350.0</ele><time>2026-04-23T16:59:45Z</time></trkpt><trkpt lat="45.74120922874739" lon="8.984111673376555"><ele>350.0</ele><time>2026-04-23T16:59:46Z</time></trkpt><trkpt lat="45.74108163608793" lon="8.984206195322669"><ele>350.0</ele><time>2026-04-23T16:59:47Z</time></trkpt><trkpt lat="45.74096832555923" lon="8.98429480960614"><ele>350.0</ele><time>2026-04-23T16:59:48Z</time></trkpt><trkpt lat="45.740850339064686" lon="8.984386699235325"><ele>350.33333333333337</ele><time>2026-04-23T16:59:49Z</time></trkpt><trkpt lat="45.74072732902961" lon="8.984479990657928"><ele>350.6666666666667</ele><time>2026-04-23T16:59:50Z</time></trkpt><trkpt lat="45.740587573331" lon="8.984592999692104"><ele>351.0</ele><time>2026-04-23T16:59:51Z</time></trkpt><trkpt lat="45.74044189064277" lon="8.984707856095676"><ele>351.0</ele><time>2026-04-23T16:59:52Z</time></trkpt><trkpt lat="45.74030535327295" lon="8.98479815227704"><ele>351.0</ele><time>2026-04-23T16:59:53Z</time></trkpt><trkpt lat="45.7401361375168" lon="8.984853065857022"><ele>351.0</ele><time>2026-04-23T16:59:54Z</time></trkpt><trkpt lat="45.74002142762753" lon="8.985008842801708"><ele>351.5</ele><time>2026-04-23T16:59:55Z</time></trkpt><trkpt lat="45.73988789663674" lon="8.98511013224573"><ele>352.0</ele><time>2026-04-23T16:59:56Z</time></trkpt><trkpt lat="45.73976246198962" lon="8.985208815799515"><ele>352.5</ele><time>2026-04-23T16:59:57Z</time></trkpt><trkpt lat="45.739643179079856" lon="8.985296812014775"><ele>353.0</ele><time>2026-04-23T16:59:58Z</time></trkpt><trkpt lat="45.73950204173473" lon="8.985323806285132"><ele>353.0</ele><time>2026-04-23T16:59:59Z</time></trkpt><trkpt lat="45.73938460787293" lon="8.985410469785998"><ele>353.0</ele><time>2026-04-23T17:00:00Z</time></trkpt><trkpt lat="45.73925292379375" lon="8.985507649640784"><ele>353.0</ele><time>2026-04-23T17:00:01Z</time></trkpt><trkpt lat="45.739136316840245" lon="8.98560384922667"><ele>353.0</ele><time>2026-04-23T17:00:02Z</time></trkpt><trkpt lat="45.739020010221346" lon="8.985709537193125"><ele>352.5</ele><time>2026-04-23T17:00:03Z</time></trkpt><trkpt lat="45.73892052253438" lon="8.985818976637905"><ele>352.0</ele><time>2026-04-23T17:00:04Z</time></trkpt><trkpt lat="45.73880259367663" lon="8.985937145876612"><ele>351.5</ele><time>2026-04-23T17:00:05Z</time></trkpt><trkpt lat="45.73870175616035" lon="8.98606930236268"><ele>351.0</ele><time>2026-04-23T17:00:06Z</time></trkpt><trkpt lat="45.73861047913852" lon="8.986202147042425"><ele>350.25</ele><time>2026-04-23T17:00:07Z</time></trkpt><trkpt lat="45.73851703261939" lon="8.98634197804601"><ele>349.5</ele><time>2026-04-23T17:00:08Z</time></trkpt><trkpt lat="45.738452836998334" lon="8.986468304958791"><ele>348.75</ele><time>2026-04-23T17:00:09Z</time></trkpt><trkpt lat="45.738360590924685" lon="8.986578113018123"><ele>348.0</ele><time>2026-04-23T17:00:10Z</time></trkpt><trkpt lat="45.73827595493566" lon="8.986664492835274"><ele>348.25</ele><time>2026-04-23T17:00:11Z</time></trkpt><trkpt lat="45.73821019678524" lon="8.986827916006433"><ele>348.5</ele><time>2026-04-23T17:00:12Z</time></trkpt><trkpt lat="45.738134745802114" lon="8.986951860188764"><ele>348.75</ele><time>2026-04-23T17:00:13Z</time></trkpt><trkpt lat="45.73806301580252" lon="8.987071909922898"><ele>349.0</ele><time>2026-04-23T17:00:14Z</time></trkpt><trkpt lat="45.73799099025965" lon="8.987176260071097"><ele>349.0</ele><time>2026-04-23T17:00:15Z</time></trkpt><trkpt lat="45.73792657049201" lon="8.987266429980595"><ele>349.0</ele><time>2026-04-23T17:00:16Z</time></trkpt><trkpt lat="45.737859929862005" lon="8.98736521849318"><ele>349.0</ele><time>2026-04-23T17:00:17Z</time></trkpt><trkpt lat="45.73779389629767" lon="8.98745837656727"><ele>349.0</ele><time>2026-04-23T17:00:18Z</time></trkpt><trkpt lat="45.737745894275584" lon="8.987540601687929"><ele>349.0</ele><time>2026-04-23T17:00:19Z</time></trkpt><trkpt lat="45.737693755818974" lon="8.987610703198609"><ele>349.0</ele><time>2026-04-23T17:00:20Z</time></trkpt><trkpt lat="45.737596983181746" lon="8.987694774120376"><ele>348.4</ele><time>2026-04-23T17:00:22Z</time></trkpt><trkpt lat="45.73748191712702" lon="8.98772238619064"><ele>347.79999999999995</ele><time>2026-04-23T17:00:29Z</time></trkpt><trkpt lat="45.737419432064456" lon="8.987780121552145"><ele>347.20000000000005</ele><time>2026-04-23T17:00:30Z</time></trkpt><trkpt lat="45.737380849867506" lon="8.987931315913102"><ele>346.6</ele><time>2026-04-23T17:00:31Z</time></trkpt><trkpt lat="45.73732674164107" lon="8.988062232234219"><ele>346.0</ele><time>2026-04-23T17:00:32Z</time></trkpt><trkpt lat="45.73724463427245" lon="8.988210094596909"><ele>346.0</ele><time>2026-04-23T17:00:33Z</time></trkpt><trkpt lat="45.737187324653824" lon="8.988361962117965"><ele>346.0</ele><time>2026-04-23T17:00:34Z</time></trkpt><trkpt lat="45.737098535861676" lon="8.988510405600119"><ele>346.0</ele><time>2026-04-23T17:00:35Z</time></trkpt><trkpt lat="45.736976213591404" lon="8.988698904080437"><ele>346.0</ele><time>2026-04-23T17:00:36Z</time></trkpt><trkpt lat="45.73685804523145" lon="8.988878422353064"><ele>345.66666666666663</ele><time>2026-04-23T17:00:37Z</time></trkpt><trkpt lat="45.736739395411114" lon="8.98906516435508"><ele>345.3333333333333</ele><time>2026-04-23T17:00:38Z</time></trkpt><trkpt lat="45.73661219072411" lon="8.989267423943199"><ele>345.0</ele><time>2026-04-23T17:00:39Z</time></trkpt><trkpt lat="45.73648403173862" lon="8.989462706721056"><ele>346.0</ele><time>2026-04-23T17:00:40Z</time></trkpt><trkpt lat="45.736356665365" lon="8.989661691146368"><ele>347.0</ele><time>2026-04-23T17:00:41Z</time></trkpt><trkpt lat="45.736232150220474" lon="8.98983115196651"><ele>348.0</ele><time>2026-04-23T17:00:42Z</time></trkpt><trkpt lat="45.73610926246606" lon="8.989941652169026"><ele>345.5</ele><time>2026-04-23T17:00:43Z</time></trkpt><trkpt lat="45.73599820066242" lon="8.990050985802318"><ele>343.0</ele><time>2026-04-23T17:00:44Z</time></trkpt><trkpt lat="45.73590513714621" lon="8.990157670028315"><ele>340.5</ele><time>2026-04-23T17:00:44.999Z</time></trkpt><trkpt lat="45.73579286939983" lon="8.990254952079395"><ele>338.0</ele><time>2026-04-23T17:00:45.999Z</time></trkpt><trkpt lat="45.73569054939107" lon="8.990307177653591"><ele>338.0</ele><time>2026-04-23T17:00:46.999Z</time></trkpt><trkpt lat="45.735575689027726" lon="8.99036144174598"><ele>338.0</ele><time>2026-04-23T17:00:47.999Z</time></trkpt><trkpt lat="45.73545655997653" lon="8.99043038728268"><ele>338.0</ele><time>2026-04-23T17:00:48.999Z</time></trkpt><trkpt lat="45.73531581422866" lon="8.990494603546248"><ele>338.0</ele><time>2026-04-23T17:00:49.999Z</time></trkpt><trkpt lat="45.73518598503142" lon="8.990544494068091"><ele>337.75</ele><time>2026-04-23T17:00:50.999Z</time></trkpt><trkpt lat="45.73504592837883" lon="8.990583159840774"><ele>337.5</ele><time>2026-04-23T17:00:51.999Z</time></trkpt><trkpt lat="45.73491556113665" lon="8.990609476864698"><ele>337.25</ele><time>2026-04-23T17:00:52.999Z</time></trkpt><trkpt lat="45.73478494621504" lon="8.99062771671833"><ele>337.0</ele><time>2026-04-23T17:00:53.999Z</time></trkpt><trkpt lat="45.73465808853176" lon="8.990637673837059"><ele>337.0</ele><time>2026-04-23T17:00:54.999Z</time></trkpt><trkpt lat="45.734537441628326" lon="8.990638646963225"><ele>337.0</ele><time>2026-04-23T17:00:55.999Z</time></trkpt><trkpt lat="45.73441153157955" lon="8.990633302965877"><ele>337.0</ele><time>2026-04-23T17:00:56.999Z</time></trkpt><trkpt lat="45.734288621580305" lon="8.990623306375705"><ele>337.0</ele><time>2026-04-23T17:00:57.999Z</time></trkpt><trkpt lat="45.73416501708116" lon="8.990611893574536"><ele>337.25</ele><time>2026-04-23T17:00:58.999Z</time></trkpt><trkpt lat="45.734041882710116" lon="8.990600524181783"><ele>337.5</ele><time>2026-04-23T17:00:59.999Z</time></trkpt><trkpt lat="45.73392102848332" lon="8.990588951480925"><ele>337.75</ele><time>2026-04-23T17:01:00.999Z</time></trkpt><trkpt lat="45.733801766395636" lon="8.990576480167327"><ele>338.0</ele><time>2026-04-23T17:01:01.999Z</time></trkpt><trkpt lat="45.73368222321595" lon="8.9905639794306"><ele>338.0</ele><time>2026-04-23T17:01:02.999Z</time></trkpt><trkpt lat="45.73357366281399" lon="8.990552627191112"><ele>338.0</ele><time>2026-04-23T17:01:03.999Z</time></trkpt><trkpt lat="45.7334711009052" lon="8.990541863881944"><ele>338.0</ele><time>2026-04-23T17:01:04.999Z</time></trkpt><trkpt lat="45.733376511308265" lon="8.990531869932596"><ele>338.0</ele><time>2026-04-23T17:01:05.999Z</time></trkpt><trkpt lat="45.73328448482237" lon="8.990541814383716"><ele>338.0</ele><time>2026-04-23T17:01:06.999Z</time></trkpt><trkpt lat="45.7331766806299" lon="8.990481254853957"><ele>338.1666666666667</ele><time>2026-04-23T17:01:07.999Z</time></trkpt><trkpt lat="45.73306964057309" lon="8.990456363115879"><ele>338.33333333333337</ele><time>2026-04-23T17:01:09.999Z</time></trkpt><trkpt lat="45.73299365946373" lon="8.990405263748752"><ele>338.5</ele><time>2026-04-23T17:01:10.999Z</time></trkpt><trkpt lat="45.73293068196392" lon="8.990349797943294"><ele>338.6666666666667</ele><time>2026-04-23T17:01:11.999Z</time></trkpt><trkpt lat="45.73283772892823" lon="8.990302501992547"><ele>338.8333333333333</ele><time>2026-04-23T17:01:12.999Z</time></trkpt><trkpt lat="45.732762916989245" lon="8.990264005841055"><ele>339.0</ele><time>2026-04-23T17:01:13.999Z</time></trkpt><trkpt lat="45.73268645754157" lon="8.990226102309148"><ele>339.79999999999995</ele><time>2026-04-23T17:01:14.999Z</time></trkpt><trkpt lat="45.732572764711044" lon="8.990228894065208"><ele>340.59999999999997</ele><time>2026-04-23T17:01:15.999Z</time></trkpt><trkpt lat="45.7324875569511" lon="8.990306506075846"><ele>341.4</ele><time>2026-04-23T17:01:16.999Z</time></trkpt><trkpt lat="45.73243179426327" lon="8.99040754258737"><ele>342.2</ele><time>2026-04-23T17:01:17.999Z</time></trkpt><trkpt lat="45.73243307015035" lon="8.990566188374162"><ele>343.0</ele><time>2026-04-23T17:01:18.999Z</time></trkpt><trkpt lat="45.73248546943809" lon="8.990725497006457"><ele>343.25</ele><time>2026-04-23T17:01:19.999Z</time></trkpt><trkpt lat="45.73254796485037" lon="8.990873364190927"><ele>343.5</ele><time>2026-04-23T17:01:20.999Z</time></trkpt><trkpt lat="45.73256483314514" lon="8.991046740778396"><ele>343.75</ele><time>2026-04-23T17:01:21.999Z</time></trkpt><trkpt lat="45.73259903223663" lon="8.991213973268742"><ele>344.0</ele><time>2026-04-23T17:01:22.999Z</time></trkpt><trkpt lat="45.73259800254809" lon="8.991394650404573"><ele>344.0</ele><time>2026-04-23T17:01:23.999Z</time></trkpt><trkpt lat="45.73261669729392" lon="8.991570934362308"><ele>344.0</ele><time>2026-04-23T17:01:24.999Z</time></trkpt><trkpt lat="45.732618559487705" lon="8.991748829974012"><ele>344.0</ele><time>2026-04-23T17:01:25.999Z</time></trkpt><trkpt lat="45.73254959224761" lon="8.991922240013752"><ele>344.0</ele><time>2026-04-23T17:01:26.999Z</time></trkpt><trkpt lat="45.732510095082844" lon="8.992075032296963"><ele>343.25</ele><time>2026-04-23T17:01:27.999Z</time></trkpt><trkpt lat="45.732456480125975" lon="8.99222716894551"><ele>342.5</ele><time>2026-04-23T17:01:28.999Z</time></trkpt><trkpt lat="45.73239983930764" lon="8.992388428932177"><ele>341.75</ele><time>2026-04-23T17:01:29.999Z</time></trkpt><trkpt lat="45.73232403428939" lon="8.992543366857749"><ele>341.0</ele><time>2026-04-23T17:01:30.999Z</time></trkpt><trkpt lat="45.732253584870705" lon="8.992720574229226"><ele>338.6666666666667</ele><time>2026-04-23T17:01:31.999Z</time></trkpt><trkpt lat="45.732177606289476" lon="8.992899516067219"><ele>336.3333333333333</ele><time>2026-04-23T17:01:32.999Z</time></trkpt><trkpt lat="45.73208359523866" lon="8.993087920785978"><ele>334.0</ele><time>2026-04-23T17:01:33.999Z</time></trkpt><trkpt lat="45.73197668814065" lon="8.993343748542582"><ele>334.3333333333333</ele><time>2026-04-23T17:01:34.999Z</time></trkpt><trkpt lat="45.73187561930664" lon="8.993576118710493"><ele>334.6666666666667</ele><time>2026-04-23T17:01:35.999Z</time></trkpt><trkpt lat="45.73174923983672" lon="8.993860052517304"><ele>335.0</ele><time>2026-04-23T17:01:36.999Z</time></trkpt><trkpt lat="45.73162778905372" lon="8.994121749993834"><ele>334.33333333333337</ele><time>2026-04-23T17:01:37.999Z</time></trkpt><trkpt lat="45.73151551814635" lon="8.994397857957699"><ele>333.6666666666667</ele><time>2026-04-23T17:01:38.999Z</time></trkpt><trkpt lat="45.73139759771105" lon="8.994667405421911"><ele>333.0</ele><time>2026-04-23T17:01:39.999Z</time></trkpt><trkpt lat="45.7312781602402" lon="8.994948451781935"><ele>333.5</ele><time>2026-04-23T17:01:40.999Z</time></trkpt><trkpt lat="45.7311413829921" lon="8.995219866249345"><ele>334.0</ele><time>2026-04-23T17:01:41.999Z</time></trkpt><trkpt lat="45.731032768720254" lon="8.995515105689671"><ele>334.0</ele><time>2026-04-23T17:01:42.999Z</time></trkpt><trkpt lat="45.730911160622654" lon="8.995784181290444"><ele>334.0</ele><time>2026-04-23T17:01:43.999Z</time></trkpt><trkpt lat="45.730813059051535" lon="8.996044496544423"><ele>334.0</ele><time>2026-04-23T17:01:44.999Z</time></trkpt><trkpt lat="45.73071185650212" lon="8.99630569392339"><ele>333.0</ele><time>2026-04-23T17:01:45.999Z</time></trkpt><trkpt lat="45.73061560977851" lon="8.996571940194075"><ele>332.0</ele><time>2026-04-23T17:01:46.999Z</time></trkpt><trkpt lat="45.730527229022876" lon="8.996807399140852"><ele>331.0</ele><time>2026-04-23T17:01:47.999Z</time></trkpt><trkpt lat="45.730436768596554" lon="8.997039535211417"><ele>330.66666666666663</ele><time>2026-04-23T17:01:49Z</time></trkpt><trkpt lat="45.730358877188685" lon="8.997268730451259"><ele>330.3333333333333</ele><time>2026-04-23T17:01:50Z</time></trkpt><trkpt lat="45.73026140190857" lon="8.997493656541803"><ele>330.0</ele><time>2026-04-23T17:01:51Z</time></trkpt><trkpt lat="45.73017409195497" lon="8.99772341626196"><ele>331.0</ele><time>2026-04-23T17:01:52Z</time></trkpt><trkpt lat="45.730083418795324" lon="8.997945102353615"><ele>332.0</ele><time>2026-04-23T17:01:53Z</time></trkpt><trkpt lat="45.72998452322597" lon="8.99816585500188"><ele>333.0</ele><time>2026-04-23T17:01:54Z</time></trkpt><trkpt lat="45.729875368301215" lon="8.99838447970354"><ele>333.0</ele><time>2026-04-23T17:01:55Z</time></trkpt><trkpt lat="45.72975971744316" lon="8.9985847185186"><ele>333.0</ele><time>2026-04-23T17:01:56Z</time></trkpt><trkpt lat="45.72964051169522" lon="8.998776557687298"><ele>333.0</ele><time>2026-04-23T17:01:57Z</time></trkpt><trkpt lat="45.72952197786929" lon="8.998963590306998"><ele>333.0</ele><time>2026-04-23T17:01:58Z</time></trkpt><trkpt lat="45.729406404883896" lon="8.999146426095207"><ele>333.0</ele><time>2026-04-23T17:01:59Z</time></trkpt><trkpt lat="45.72929528617082" lon="8.9993414346144"><ele>333.0</ele><time>2026-04-23T17:02:00Z</time></trkpt><trkpt lat="45.729195866443284" lon="8.999545905012532"><ele>331.0</ele><time>2026-04-23T17:02:01Z</time></trkpt><trkpt lat="45.729112819754384" lon="8.999750651919467"><ele>329.0</ele><time>2026-04-23T17:02:02Z</time></trkpt><trkpt lat="45.72903776349317" lon="8.99996882679233"><ele>327.0</ele><time>2026-04-23T17:02:03Z</time></trkpt><trkpt lat="45.7289848043034" lon="9.000197113534705"><ele>327.0</ele><time>2026-04-23T17:02:04Z</time></trkpt><trkpt lat="45.72891034566699" lon="9.000394555705903"><ele>327.0</ele><time>2026-04-23T17:02:05Z</time></trkpt><trkpt lat="45.72885061669348" lon="9.000601472480609"><ele>327.0</ele><time>2026-04-23T17:02:06Z</time></trkpt><trkpt lat="45.728789167930124" lon="9.000820380245584"><ele>326.0</ele><time>2026-04-23T17:02:07Z</time></trkpt><trkpt lat="45.728728997612876" lon="9.001034733584941"><ele>325.0</ele><time>2026-04-23T17:02:08Z</time></trkpt><trkpt lat="45.72867158250901" lon="9.001239271835852"><ele>324.0</ele><time>2026-04-23T17:02:09Z</time></trkpt><trkpt lat="45.728609461125934" lon="9.001454846125558"><ele>323.0</ele><time>2026-04-23T17:02:10Z</time></trkpt><trkpt lat="45.728548440543754" lon="9.0016585191659"><ele>322.0</ele><time>2026-04-23T17:02:11Z</time></trkpt><trkpt lat="45.72848871641508" lon="9.001861975176823"><ele>321.0</ele><time>2026-04-23T17:02:12Z</time></trkpt><trkpt lat="45.728435185325516" lon="9.002063389336977"><ele>321.0</ele><time>2026-04-23T17:02:13Z</time></trkpt><trkpt lat="45.72836620203307" lon="9.002258918760386"><ele>321.0</ele><time>2026-04-23T17:02:14Z</time></trkpt><trkpt lat="45.72830580178839" lon="9.002456895719932"><ele>321.0</ele><time>2026-04-23T17:02:15Z</time></trkpt><trkpt lat="45.72825732024381" lon="9.002653718956264"><ele>321.0</ele><time>2026-04-23T17:02:16Z</time></trkpt><trkpt lat="45.7282121150089" lon="9.002856816925723"><ele>322.0</ele><time>2026-04-23T17:02:17Z</time></trkpt><trkpt lat="45.728170078253136" lon="9.00305583730861"><ele>323.0</ele><time>2026-04-23T17:02:18Z</time></trkpt><trkpt lat="45.728131289667566" lon="9.003249915684341"><ele>324.0</ele><time>2026-04-23T17:02:19Z</time></trkpt><trkpt lat="45.72808544394656" lon="9.003442969269129"><ele>325.0</ele><time>2026-04-23T17:02:20Z</time></trkpt><trkpt lat="45.728034135036545" lon="9.003640602853043"><ele>325.5</ele><time>2026-04-23T17:02:21Z</time></trkpt><trkpt lat="45.72797628273218" lon="9.003837117277772"><ele>326.0</ele><time>2026-04-23T17:02:22Z</time></trkpt><trkpt lat="45.727919770313605" lon="9.004026140377114"><ele>326.5</ele><time>2026-04-23T17:02:23Z</time></trkpt><trkpt lat="45.727867347071" lon="9.004226901277955"><ele>327.0</ele><time>2026-04-23T17:02:24Z</time></trkpt><trkpt lat="45.72779562320733" lon="9.004402915560703"><ele>327.0</ele><time>2026-04-23T17:02:25Z</time></trkpt><trkpt lat="45.727739125049546" lon="9.004601044860046"><ele>327.0</ele><time>2026-04-23T17:02:26Z</time></trkpt><trkpt lat="45.727702296189555" lon="9.004802283329045"><ele>327.0</ele><time>2026-04-23T17:02:27Z</time></trkpt><trkpt lat="45.72762408369576" lon="9.004998808649042"><ele>327.25</ele><time>2026-04-23T17:02:28Z</time></trkpt><trkpt lat="45.72756279840596" lon="9.005137672909271"><ele>327.5</ele><time>2026-04-23T17:02:29Z</time></trkpt><trkpt lat="45.72753861341615" lon="9.005373113545454"><ele>327.75</ele><time>2026-04-23T17:02:30Z</time></trkpt><trkpt lat="45.727485128084574" lon="9.005557930578458"><ele>328.0</ele><time>2026-04-23T17:02:31Z</time></trkpt><trkpt lat="45.7274165240399" lon="9.00573684067925"><ele>328.0</ele><time>2026-04-23T17:02:32Z</time></trkpt><trkpt lat="45.727401797380644" lon="9.005964895097138"><ele>328.0</ele><time>2026-04-23T17:02:33Z</time></trkpt><trkpt lat="45.72736740301657" lon="9.006151817282728"><ele>328.0</ele><time>2026-04-23T17:02:34Z</time></trkpt><trkpt lat="45.727330322981025" lon="9.006326501670596"><ele>328.0</ele><time>2026-04-23T17:02:35Z</time></trkpt><trkpt lat="45.72728904098394" lon="9.006510861167385"><ele>327.5</ele><time>2026-04-23T17:02:36Z</time></trkpt><trkpt lat="45.72725139265119" lon="9.006700961789699"><ele>327.0</ele><time>2026-04-23T17:02:37Z</time></trkpt><trkpt lat="45.727206253376444" lon="9.006889454169583"><ele>326.5</ele><time>2026-04-23T17:02:38Z</time></trkpt><trkpt lat="45.72717071561263" lon="9.007079103285104"><ele>326.0</ele><time>2026-04-23T17:02:39Z</time></trkpt><trkpt lat="45.72713189834474" lon="9.007244841547735"><ele>326.0</ele><time>2026-04-23T17:02:40Z</time></trkpt><trkpt lat="45.72709396228509" lon="9.007421681064981"><ele>326.0</ele><time>2026-04-23T17:02:41Z</time></trkpt><trkpt lat="45.727066326485414" lon="9.007572876531627"><ele>326.0</ele><time>2026-04-23T17:02:42Z</time></trkpt><trkpt lat="45.72703617613836" lon="9.00771682325782"><ele>326.0</ele><time>2026-04-23T17:02:43Z</time></trkpt><trkpt lat="45.727005096887225" lon="9.00785133133925"><ele>326.0</ele><time>2026-04-23T17:02:44Z</time></trkpt><trkpt lat="45.72696314177527" lon="9.00796550303802"><ele>326.0</ele><time>2026-04-23T17:02:45Z</time></trkpt><trkpt lat="45.72694333343743" lon="9.008116300084035"><ele>326.0</ele><time>2026-04-23T17:02:47Z</time></trkpt><trkpt lat="45.72691019620943" lon="9.008203329313908"><ele>326.0</ele><time>2026-04-23T17:02:51Z</time></trkpt><trkpt lat="45.726836300195" lon="9.008327239281446"><ele>326.0</ele><time>2026-04-23T17:02:59Z</time></trkpt><trkpt lat="45.72675303832394" lon="9.00834269113243"><ele>326.0</ele><time>2026-04-23T17:02:59.999Z</time></trkpt><trkpt lat="45.7267586081983" lon="9.008507615066584"><ele>326.75</ele><time>2026-04-23T17:03:00.999Z</time></trkpt><trkpt lat="45.72677605867049" lon="9.00865127888938"><ele>327.5</ele><time>2026-04-23T17:03:03.999Z</time></trkpt><trkpt lat="45.726722251676755" lon="9.008837092135629"><ele>328.25</ele><time>2026-04-23T17:03:05.999Z</time></trkpt><trkpt lat="45.726745085909535" lon="9.008994091293797"><ele>329.0</ele><time>2026-04-23T17:03:06.999Z</time></trkpt><trkpt lat="45.72671756902395" lon="9.009140871996047"><ele>329.4</ele><time>2026-04-23T17:03:07.999Z</time></trkpt><trkpt lat="45.726692828475244" lon="9.00926703042259"><ele>329.79999999999995</ele><time>2026-04-23T17:03:08.999Z</time></trkpt><trkpt lat="45.726656928577135" lon="9.0094133312286"><ele>330.20000000000005</ele><time>2026-04-23T17:03:09.999Z</time></trkpt><trkpt lat="45.72662097183441" lon="9.009566303895584"><ele>330.6</ele><time>2026-04-23T17:03:10.999Z</time></trkpt><trkpt lat="45.72658505527355" lon="9.009737278599431"><ele>331.0</ele><time>2026-04-23T17:03:11.999Z</time></trkpt><trkpt lat="45.72655590253352" lon="9.009923875438192"><ele>330.5</ele><time>2026-04-23T17:03:12.999Z</time></trkpt><trkpt lat="45.72652291865493" lon="9.010083982832713"><ele>330.0</ele><time>2026-04-23T17:03:13.999Z</time></trkpt><trkpt lat="45.72647114402091" lon="9.010276534247065"><ele>329.5</ele><time>2026-04-23T17:03:14.999Z</time></trkpt><trkpt lat="45.72643621245395" lon="9.010437505024582"><ele>329.0</ele><time>2026-04-23T17:03:15.999Z</time></trkpt><trkpt lat="45.72640224687585" lon="9.010595129136377"><ele>329.0</ele><time>2026-04-23T17:03:16.999Z</time></trkpt><trkpt lat="45.726364518856634" lon="9.010770031625066"><ele>329.0</ele><time>2026-04-23T17:03:17.999Z</time></trkpt><trkpt lat="45.726331599486635" lon="9.010914213439483"><ele>329.0</ele><time>2026-04-23T17:03:18.999Z</time></trkpt><trkpt lat="45.72629022843157" lon="9.011078757340233"><ele>329.0</ele><time>2026-04-23T17:03:19.999Z</time></trkpt><trkpt lat="45.72624035364153" lon="9.011236111664433"><ele>328.5</ele><time>2026-04-23T17:03:20.999Z</time></trkpt><trkpt lat="45.72618516766165" lon="9.011399351507475"><ele>328.0</ele><time>2026-04-23T17:03:21.999Z</time></trkpt><trkpt lat="45.7261292646999" lon="9.011554171900107"><ele>327.5</ele><time>2026-04-23T17:03:22.999Z</time></trkpt><trkpt lat="45.726083518115054" lon="9.01169568980507"><ele>327.0</ele><time>2026-04-23T17:03:23.999Z</time></trkpt><trkpt lat="45.72602699603104" lon="9.011832528925432"><ele>328.25</ele><time>2026-04-23T17:03:24.999Z</time></trkpt><trkpt lat="45.725957334525965" lon="9.011982681510688"><ele>329.5</ele><time>2026-04-23T17:03:25.999Z</time></trkpt><trkpt lat="45.72591166489654" lon="9.012149782159447"><ele>330.75</ele><time>2026-04-23T17:03:26.999Z</time></trkpt><trkpt lat="45.72585694509021" lon="9.01229671010213"><ele>332.0</ele><time>2026-04-23T17:03:27.999Z</time></trkpt><trkpt lat="45.725811919123565" lon="9.012424778347047"><ele>331.8</ele><time>2026-04-23T17:03:28.999Z</time></trkpt><trkpt lat="45.72576607397907" lon="9.01254934260401"><ele>331.6</ele><time>2026-04-23T17:03:29.999Z</time></trkpt><trkpt lat="45.72572883377091" lon="9.012696456190708"><ele>331.40000000000003</ele><time>2026-04-23T17:03:30.999Z</time></trkpt><trkpt lat="45.725682076689274" lon="9.01280290197242"><ele>331.20000000000005</ele><time>2026-04-23T17:03:31.999Z</time></trkpt><trkpt lat="45.72565476957937" lon="9.012917492830399"><ele>331.0</ele><time>2026-04-23T17:03:32.999Z</time></trkpt><trkpt lat="45.72560575644598" lon="9.013014511351825"><ele>331.0</ele><time>2026-04-23T17:03:33.999Z</time></trkpt><trkpt lat="45.72556632988025" lon="9.01312168826389"><ele>331.0</ele><time>2026-04-23T17:03:34.999Z</time></trkpt><trkpt lat="45.725528385916995" lon="9.013238280531672"><ele>331.0</ele><time>2026-04-23T17:03:35.999Z</time></trkpt><trkpt lat="45.7254737629225" lon="9.013382239383231"><ele>331.0</ele><time>2026-04-23T17:03:36.999Z</time></trkpt><trkpt lat="45.72541426393906" lon="9.013518857664474"><ele>331.0</ele><time>2026-04-23T17:03:38.999Z</time></trkpt><trkpt lat="45.725363766999166" lon="9.013612307697308"><ele>330.66666666666663</ele><time>2026-04-23T17:03:39.999Z</time></trkpt><trkpt lat="45.72532501898221" lon="9.01369453693692"><ele>330.3333333333333</ele><time>2026-04-23T17:03:40.999Z</time></trkpt><trkpt lat="45.72526129816992" lon="9.013743746052194"><ele>330.0</ele><time>2026-04-23T17:03:41.999Z</time></trkpt><trkpt lat="45.725156718470686" lon="9.013829990522295"><ele>329.6666666666667</ele><time>2026-04-23T17:03:43.999Z</time></trkpt><trkpt lat="45.725122741054776" lon="9.013918973172597"><ele>329.33333333333337</ele><time>2026-04-23T17:03:44.999Z</time></trkpt><trkpt lat="45.72507218955097" lon="9.013974100759544"><ele>329.0</ele><time>2026-04-23T17:03:45.999Z</time></trkpt><trkpt lat="45.724993931159" lon="9.014089243462523"><ele>329.33333333333337</ele><time>2026-04-23T17:03:47.999Z</time></trkpt><trkpt lat="45.72492845800375" lon="9.014131595988967"><ele>329.6666666666667</ele><time>2026-04-23T17:03:48.999Z</time></trkpt><trkpt lat="45.724887380741556" lon="9.014211424014963"><ele>330.0</ele><time>2026-04-23T17:03:49.999Z</time></trkpt><trkpt lat="45.724772013738665" lon="9.014298880498869"><ele>330.3333333333333</ele><time>2026-04-23T17:03:51.999Z</time></trkpt><trkpt lat="45.72470822365792" lon="9.014334127407944"><ele>330.66666666666663</ele><time>2026-04-23T17:03:52.999Z</time></trkpt><trkpt lat="45.72464812326218" lon="9.014361820839243"><ele>331.0</ele><time>2026-04-23T17:03:53.999Z</time></trkpt><trkpt lat="45.72451230961819" lon="9.014427880541614"><ele>331.0</ele><time>2026-04-23T17:03:55Z</time></trkpt><trkpt lat="45.724401247680824" lon="9.014481949251032"><ele>331.0</ele><time>2026-04-23T17:03:56Z</time></trkpt><trkpt lat="45.724292997279605" lon="9.01454843246987"><ele>331.0</ele><time>2026-04-23T17:03:57Z</time></trkpt><trkpt lat="45.724172717743585" lon="9.014591460580625"><ele>331.0</ele><time>2026-04-23T17:03:58Z</time></trkpt><trkpt lat="45.72406923100158" lon="9.014645101306535"><ele>331.25</ele><time>2026-04-23T17:03:59Z</time></trkpt><trkpt lat="45.72395693951189" lon="9.01469936097174"><ele>331.5</ele><time>2026-04-23T17:04:00Z</time></trkpt><trkpt lat="45.7238466242058" lon="9.014771260964796"><ele>331.75</ele><time>2026-04-23T17:04:01Z</time></trkpt><trkpt lat="45.723721522350004" lon="9.014823425316456"><ele>332.0</ele><time>2026-04-23T17:04:02Z</time></trkpt><trkpt lat="45.723604343578025" lon="9.014879394240339"><ele>330.75</ele><time>2026-04-23T17:04:03Z</time></trkpt><trkpt lat="45.72348745782483" lon="9.014930772751976"><ele>329.5</ele><time>2026-04-23T17:04:04Z</time></trkpt><trkpt lat="45.723370831484736" lon="9.014971638338631"><ele>328.25</ele><time>2026-04-23T17:04:05Z</time></trkpt><trkpt lat="45.72325379932564" lon="9.015034367667845"><ele>327.0</ele><time>2026-04-23T17:04:06Z</time></trkpt><trkpt lat="45.72312961493595" lon="9.015068646938055"><ele>326.25</ele><time>2026-04-23T17:04:07Z</time></trkpt><trkpt lat="45.72301961492367" lon="9.015142092135612"><ele>325.5</ele><time>2026-04-23T17:04:08Z</time></trkpt><trkpt lat="45.72292273760917" lon="9.015211874595991"><ele>324.75</ele><time>2026-04-23T17:04:09Z</time></trkpt><trkpt lat="45.72279892174938" lon="9.01525361578509"><ele>324.0</ele><time>2026-04-23T17:04:10Z</time></trkpt><trkpt lat="45.722682436129794" lon="9.015312055898015"><ele>323.75</ele><time>2026-04-23T17:04:11Z</time></trkpt><trkpt lat="45.72255873174841" lon="9.015335413691995"><ele>323.5</ele><time>2026-04-23T17:04:12Z</time></trkpt><trkpt lat="45.72243206528345" lon="9.015374705151798"><ele>323.25</ele><time>2026-04-23T17:04:13Z</time></trkpt><trkpt lat="45.72229692757183" lon="9.015376524784962"><ele>323.0</ele><time>2026-04-23T17:04:14Z</time></trkpt><trkpt lat="45.72218795918803" lon="9.01539460882296"><ele>323.0</ele><time>2026-04-23T17:04:15Z</time></trkpt><trkpt lat="45.722046779191075" lon="9.015412695363555"><ele>323.0</ele><time>2026-04-23T17:04:16Z</time></trkpt><trkpt lat="45.721908025241014" lon="9.01544177264538"><ele>323.0</ele><time>2026-04-23T17:04:17Z</time></trkpt><trkpt lat="45.721735483716834" lon="9.015445470115669"><ele>323.0</ele><time>2026-04-23T17:04:18Z</time></trkpt><trkpt lat="45.72155299418505" lon="9.015470378235602"><ele>323.0</ele><time>2026-04-23T17:04:19Z</time></trkpt><trkpt lat="45.72136940233037" lon="9.015481858715424"><ele>323.0</ele><time>2026-04-23T17:04:20Z</time></trkpt><trkpt lat="45.721184759717055" lon="9.015476284136714"><ele>322.33333333333337</ele><time>2026-04-23T17:04:21Z</time></trkpt><trkpt lat="45.720968470306026" lon="9.015494126431053"><ele>321.6666666666667</ele><time>2026-04-23T17:04:22Z</time></trkpt><trkpt lat="45.72076994628683" lon="9.01548128978807"><ele>321.0</ele><time>2026-04-23T17:04:23Z</time></trkpt><trkpt lat="45.720715242916306" lon="9.015543849241855"><ele>321.0</ele><time>2026-04-23T17:04:24Z</time></trkpt><trkpt lat="45.72057782051291" lon="9.015583581892564"><ele>321.0</ele><time>2026-04-23T17:04:25Z</time></trkpt><trkpt lat="45.720434851803915" lon="9.015632923934167"><ele>321.0</ele><time>2026-04-23T17:04:26Z</time></trkpt><trkpt lat="45.72028875873206" lon="9.015694144833294"><ele>321.0</ele><time>2026-04-23T17:04:27Z</time></trkpt><trkpt lat="45.72014565402585" lon="9.015766222727892"><ele>320.5</ele><time>2026-04-23T17:04:28Z</time></trkpt><trkpt lat="45.719992972338105" lon="9.015830269940063"><ele>320.0</ele><time>2026-04-23T17:04:29Z</time></trkpt><trkpt lat="45.7198725408266" lon="9.015951396934538"><ele>319.5</ele><time>2026-04-23T17:04:30Z</time></trkpt><trkpt lat="45.71975544002711" lon="9.016034949682258"><ele>319.0</ele><time>2026-04-23T17:04:31Z</time></trkpt><trkpt lat="45.71963673289811" lon="9.016092126297275"><ele>319.0</ele><time>2026-04-23T17:04:32Z</time></trkpt><trkpt lat="45.71952431899269" lon="9.016149173568353"><ele>319.0</ele><time>2026-04-23T17:04:33Z</time></trkpt><trkpt lat="45.71941365773678" lon="9.016212555116521"><ele>319.0</ele><time>2026-04-23T17:04:34Z</time></trkpt><trkpt lat="45.71930475112492" lon="9.016279494986428"><ele>319.0</ele><time>2026-04-23T17:04:35Z</time></trkpt><trkpt lat="45.719191696660424" lon="9.01635528087594"><ele>318.75</ele><time>2026-04-23T17:04:36Z</time></trkpt><trkpt lat="45.719084299923566" lon="9.016436073013892"><ele>318.5</ele><time>2026-04-23T17:04:37Z</time></trkpt><trkpt lat="45.71897436377374" lon="9.016524977908553"><ele>318.25</ele><time>2026-04-23T17:04:38Z</time></trkpt><trkpt lat="45.718876237362984" lon="9.016631977838504"><ele>318.0</ele><time>2026-04-23T17:04:39Z</time></trkpt><trkpt lat="45.718784369178636" lon="9.01670468625815"><ele>318.0</ele><time>2026-04-23T17:04:40Z</time></trkpt><trkpt lat="45.71871130960791" lon="9.01680917261123"><ele>318.0</ele><time>2026-04-23T17:04:41Z</time></trkpt><trkpt lat="45.718627263414675" lon="9.016868066300376"><ele>318.0</ele><time>2026-04-23T17:04:42Z</time></trkpt><trkpt lat="45.718557682913854" lon="9.016947276999199"><ele>318.0</ele><time>2026-04-23T17:04:43Z</time></trkpt><trkpt lat="45.7184837223903" lon="9.017036361848756"><ele>318.0</ele><time>2026-04-23T17:04:44Z</time></trkpt><trkpt lat="45.71840106026872" lon="9.017123049782644"><ele>317.6</ele><time>2026-04-23T17:04:45Z</time></trkpt><trkpt lat="45.718328623340554" lon="9.017212866451594"><ele>317.20000000000005</ele><time>2026-04-23T17:04:46Z</time></trkpt><trkpt lat="45.718261046225784" lon="9.01729574220841"><ele>316.8</ele><time>2026-04-23T17:04:47Z</time></trkpt><trkpt lat="45.718201238384985" lon="9.017373019735679"><ele>316.40000000000003</ele><time>2026-04-23T17:04:48Z</time></trkpt><trkpt lat="45.71813396638153" lon="9.017416437386741"><ele>316.0</ele><time>2026-04-23T17:04:49Z</time></trkpt><trkpt lat="45.71804785814008" lon="9.01754549842794"><ele>316.0</ele><time>2026-04-23T17:04:51Z</time></trkpt><trkpt lat="45.7179892749189" lon="9.017612513703552"><ele>316.0</ele><time>2026-04-23T17:04:52Z</time></trkpt><trkpt lat="45.71789345129476" lon="9.01772567054694"><ele>316.0</ele><time>2026-04-23T17:04:54Z</time></trkpt><trkpt lat="45.71776709992402" lon="9.017851692520237"><ele>316.0</ele><time>2026-04-23T17:04:55Z</time></trkpt><trkpt lat="45.71769685325472" lon="9.01792757366376"><ele>316.0</ele><time>2026-04-23T17:04:56Z</time></trkpt><trkpt lat="45.71761734465684" lon="9.01800629091084"><ele>316.0</ele><time>2026-04-23T17:04:57Z</time></trkpt><trkpt lat="45.717538700154265" lon="9.018094095405766"><ele>316.0</ele><time>2026-04-23T17:04:58Z</time></trkpt><trkpt lat="45.71745439152463" lon="9.018192292416314"><ele>316.0</ele><time>2026-04-23T17:04:59Z</time></trkpt><trkpt lat="45.71733530352179" lon="9.018235313314852"><ele>316.0</ele><time>2026-04-23T17:04:59.999Z</time></trkpt><trkpt lat="45.717264118426485" lon="9.01830961102873"><ele>316.0</ele><time>2026-04-23T17:05:00.999Z</time></trkpt><trkpt lat="45.717199009232985" lon="9.018379905397275"><ele>316.0</ele><time>2026-04-23T17:05:01.999Z</time></trkpt><trkpt lat="45.7171600764961" lon="9.018509814410566"><ele>316.0</ele><time>2026-04-23T17:05:02.999Z</time></trkpt><trkpt lat="45.71707326706495" lon="9.01860608548489"><ele>316.0</ele><time>2026-04-23T17:05:03.999Z</time></trkpt><trkpt lat="45.716975925053845" lon="9.018715333745616"><ele>316.0</ele><time>2026-04-23T17:05:04.999Z</time></trkpt><trkpt lat="45.71687846185496" lon="9.018767109116347"><ele>316.0</ele><time>2026-04-23T17:05:05.999Z</time></trkpt><trkpt lat="45.716698374060535" lon="9.018908202279626"><ele>315.75</ele><time>2026-04-23T17:05:06.999Z</time></trkpt><trkpt lat="45.716563860560434" lon="9.019049431926089"><ele>315.5</ele><time>2026-04-23T17:05:07.999Z</time></trkpt><trkpt lat="45.71646676971661" lon="9.01915137040665"><ele>315.25</ele><time>2026-04-23T17:05:08.999Z</time></trkpt><trkpt lat="45.716349720091614" lon="9.019274264232537"><ele>315.0</ele><time>2026-04-23T17:05:09.999Z</time></trkpt><trkpt lat="45.71622910689772" lon="9.019401168034117"><ele>315.0</ele><time>2026-04-23T17:05:10.999Z</time></trkpt><trkpt lat="45.71613246042655" lon="9.019503254693799"><ele>315.0</ele><time>2026-04-23T17:05:11.999Z</time></trkpt><trkpt lat="45.716028307852106" lon="9.019613269981388"><ele>315.0</ele><time>2026-04-23T17:05:12.999Z</time></trkpt><trkpt lat="45.7159222485208" lon="9.019725299346078"><ele>315.0</ele><time>2026-04-23T17:05:13.999Z</time></trkpt><trkpt lat="45.71579910609581" lon="9.019855460262368"><ele>315.3333333333333</ele><time>2026-04-23T17:05:14.999Z</time></trkpt><trkpt lat="45.71566388464539" lon="9.019997557654127"><ele>315.66666666666663</ele><time>2026-04-23T17:05:15.999Z</time></trkpt><trkpt lat="45.71551689807743" lon="9.020151190555387"><ele>316.0</ele><time>2026-04-23T17:05:16.999Z</time></trkpt><trkpt lat="45.715397668334255" lon="9.020377800327573"><ele>316.0</ele><time>2026-04-23T17:05:17.999Z</time></trkpt><trkpt lat="45.71525061160749" lon="9.02054767144545"><ele>316.0</ele><time>2026-04-23T17:05:18.999Z</time></trkpt><trkpt lat="45.71509662261188" lon="9.02070735798589"><ele>316.0</ele><time>2026-04-23T17:05:19.999Z</time></trkpt><trkpt lat="45.714940907675654" lon="9.020854741862177"><ele>315.3333333333333</ele><time>2026-04-23T17:05:20.999Z</time></trkpt><trkpt lat="45.71476988733278" lon="9.020944613123454"><ele>314.6666666666667</ele><time>2026-04-23T17:05:21.999Z</time></trkpt><trkpt lat="45.71464997730651" lon="9.021071987183651"><ele>314.0</ele><time>2026-04-23T17:05:22.999Z</time></trkpt><trkpt lat="45.71452522938341" lon="9.021203968389317"><ele>314.6666666666667</ele><time>2026-04-23T17:05:23.999Z</time></trkpt><trkpt lat="45.714392200432826" lon="9.02134299878531"><ele>315.3333333333333</ele><time>2026-04-23T17:05:24.999Z</time></trkpt><trkpt lat="45.71425469621317" lon="9.02148821816198"><ele>316.0</ele><time>2026-04-23T17:05:25.999Z</time></trkpt><trkpt lat="45.714123780660344" lon="9.021626478909095"><ele>315.66666666666663</ele><time>2026-04-23T17:05:26.999Z</time></trkpt><trkpt lat="45.71399894462744" lon="9.021755665606934"><ele>315.3333333333333</ele><time>2026-04-23T17:05:27.999Z</time></trkpt><trkpt lat="45.71387502636066" lon="9.021884960331862"><ele>315.0</ele><time>2026-04-23T17:05:28.999Z</time></trkpt><trkpt lat="45.71374836034601" lon="9.022019922054232"><ele>315.0</ele><time>2026-04-23T17:05:29.999Z</time></trkpt><trkpt lat="45.713623101659124" lon="9.022153540393116"><ele>315.0</ele><time>2026-04-23T17:05:30.999Z</time></trkpt><trkpt lat="45.71352941961358" lon="9.022338733288912"><ele>315.0</ele><time>2026-04-23T17:05:31.999Z</time></trkpt><trkpt lat="45.71340864982626" lon="9.022466201094502"><ele>314.0</ele><time>2026-04-23T17:05:32.999Z</time></trkpt><trkpt lat="45.713286881995536" lon="9.022605397034463"><ele>313.0</ele><time>2026-04-23T17:05:33.999Z</time></trkpt><trkpt lat="45.71316521824762" lon="9.02273207166688"><ele>312.0</ele><time>2026-04-23T17:05:34.999Z</time></trkpt><trkpt lat="45.71304741062628" lon="9.022853080579772"><ele>312.0</ele><time>2026-04-23T17:05:35.999Z</time></trkpt><trkpt lat="45.71292052178392" lon="9.022992086594439"><ele>312.0</ele><time>2026-04-23T17:05:36.999Z</time></trkpt><trkpt lat="45.712804715921266" lon="9.023107211904705"><ele>312.0</ele><time>2026-04-23T17:05:37.999Z</time></trkpt><trkpt lat="45.71265619959251" lon="9.023167618470067"><ele>312.0</ele><time>2026-04-23T17:05:38.999Z</time></trkpt><trkpt lat="45.712581599096566" lon="9.023246279495611"><ele>312.0</ele><time>2026-04-23T17:05:39.999Z</time></trkpt><trkpt lat="45.71248062415884" lon="9.023342802895947"><ele>312.0</ele><time>2026-04-23T17:05:40.999Z</time></trkpt><trkpt lat="45.7123876948872" lon="9.023465282792095"><ele>312.0</ele><time>2026-04-23T17:05:41.999Z</time></trkpt><trkpt lat="45.71227004319953" lon="9.023569636828713"><ele>312.25</ele><time>2026-04-23T17:05:42.999Z</time></trkpt><trkpt lat="45.71216270097708" lon="9.02368479304704"><ele>312.5</ele><time>2026-04-23T17:05:43.999Z</time></trkpt><trkpt lat="45.712048885490304" lon="9.023785033363758"><ele>312.75</ele><time>2026-04-23T17:05:44.999Z</time></trkpt><trkpt lat="45.71193763694069" lon="9.023906906352135"><ele>313.0</ele><time>2026-04-23T17:05:45.999Z</time></trkpt><trkpt lat="45.711819202440324" lon="9.024030344012399"><ele>312.66666666666663</ele><time>2026-04-23T17:05:46.999Z</time></trkpt><trkpt lat="45.711694171564424" lon="9.024177912384342"><ele>312.3333333333333</ele><time>2026-04-23T17:05:47.999Z</time></trkpt><trkpt lat="45.711569038234735" lon="9.02432849556275"><ele>312.0</ele><time>2026-04-23T17:05:48.999Z</time></trkpt><trkpt lat="45.711417888854776" lon="9.024456349705325"><ele>312.0</ele><time>2026-04-23T17:05:49.999Z</time></trkpt><trkpt lat="45.711269079320566" lon="9.024592592776665"><ele>312.0</ele><time>2026-04-23T17:05:50.999Z</time></trkpt><trkpt lat="45.711148183922546" lon="9.024694753318048"><ele>312.0</ele><time>2026-04-23T17:05:51.999Z</time></trkpt><trkpt lat="45.71101774035985" lon="9.024809596891696"><ele>312.0</ele><time>2026-04-23T17:05:52.999Z</time></trkpt><trkpt lat="45.71087090028792" lon="9.024896909959917"><ele>312.0</ele><time>2026-04-23T17:05:53.999Z</time></trkpt><trkpt lat="45.71074989838651" lon="9.025023723260743"><ele>312.0</ele><time>2026-04-23T17:05:54.999Z</time></trkpt><trkpt lat="45.710611662451676" lon="9.025103539471177"><ele>312.0</ele><time>2026-04-23T17:05:55.999Z</time></trkpt><trkpt lat="45.71046421241934" lon="9.025183658431171"><ele>312.0</ele><time>2026-04-23T17:05:56.999Z</time></trkpt><trkpt lat="45.71033745751885" lon="9.025267883559865"><ele>312.0</ele><time>2026-04-23T17:05:57.999Z</time></trkpt><trkpt lat="45.71022042072414" lon="9.025367954736586"><ele>312.0</ele><time>2026-04-23T17:05:58.999Z</time></trkpt><trkpt lat="45.710086138496315" lon="9.0254080702595"><ele>311.75</ele><time>2026-04-23T17:05:59.999Z</time></trkpt><trkpt lat="45.70996591847332" lon="9.025507298709641"><ele>311.5</ele><time>2026-04-23T17:06:01Z</time></trkpt><trkpt lat="45.70986304468017" lon="9.025596438264039"><ele>311.25</ele><time>2026-04-23T17:06:02Z</time></trkpt><trkpt lat="45.70976348994812" lon="9.025673932164288"><ele>311.0</ele><time>2026-04-23T17:06:03Z</time></trkpt><trkpt lat="45.70969236749332" lon="9.025757601084832"><ele>311.40000000000003</ele><time>2026-04-23T17:06:04Z</time></trkpt><trkpt lat="45.70961795108606" lon="9.025837516178797"><ele>311.8</ele><time>2026-04-23T17:06:05Z</time></trkpt><trkpt lat="45.70954858511244" lon="9.025932673961377"><ele>312.20000000000005</ele><time>2026-04-23T17:06:06Z</time></trkpt><trkpt lat="45.70947206739626" lon="9.025984569311907"><ele>312.6</ele><time>2026-04-23T17:06:07Z</time></trkpt><trkpt lat="45.70941737001185" lon="9.026035034365904"><ele>313.0</ele><time>2026-04-23T17:06:08Z</time></trkpt><trkpt lat="45.70931414936728" lon="9.026155068460099"><ele>312.3333333333333</ele><time>2026-04-23T17:06:10Z</time></trkpt><trkpt lat="45.70924709603653" lon="9.026177940960714"><ele>311.66666666666663</ele><time>2026-04-23T17:06:11Z</time></trkpt><trkpt lat="45.709167763470504" lon="9.026184258109343"><ele>311.0</ele><time>2026-04-23T17:06:12Z</time></trkpt><trkpt lat="45.70906925705032" lon="9.026159559999885"><ele>310.3333333333333</ele><time>2026-04-23T17:06:13Z</time></trkpt><trkpt lat="45.70898949015508" lon="9.026159743875589"><ele>309.6666666666667</ele><time>2026-04-23T17:06:14Z</time></trkpt><trkpt lat="45.70892047726823" lon="9.02622297573063"><ele>309.0</ele><time>2026-04-23T17:06:15Z</time></trkpt><trkpt lat="45.7088514015092" lon="9.026338069850791"><ele>309.0</ele><time>2026-04-23T17:06:16Z</time></trkpt><trkpt lat="45.70882673538681" lon="9.026492308453491"><ele>309.0</ele><time>2026-04-23T17:06:17Z</time></trkpt><trkpt lat="45.70877201250626" lon="9.02666525949986"><ele>309.0</ele><time>2026-04-23T17:06:18Z</time></trkpt><trkpt lat="45.70872918768309" lon="9.026823670967485"><ele>309.0</ele><time>2026-04-23T17:06:19Z</time></trkpt><trkpt lat="45.70862447053236" lon="9.026923158417919"><ele>309.0</ele><time>2026-04-23T17:06:20Z</time></trkpt><trkpt lat="45.70852613008032" lon="9.02697422966333"><ele>309.0</ele><time>2026-04-23T17:06:21Z</time></trkpt><trkpt lat="45.70844176676823" lon="9.027049229925787"><ele>309.0</ele><time>2026-04-23T17:06:22Z</time></trkpt><trkpt lat="45.70833882173328" lon="9.027142991282192"><ele>309.0</ele><time>2026-04-23T17:06:23Z</time></trkpt><trkpt lat="45.7082263718424" lon="9.027227476540448"><ele>309.0</ele><time>2026-04-23T17:06:24Z</time></trkpt><trkpt lat="45.70812604123177" lon="9.02732952643519"><ele>309.0</ele><time>2026-04-23T17:06:25Z</time></trkpt><trkpt lat="45.708021467715405" lon="9.027437042262493"><ele>309.0</ele><time>2026-04-23T17:06:26Z</time></trkpt><trkpt lat="45.70790177108137" lon="9.02756094300744"><ele>309.0</ele><time>2026-04-23T17:06:27Z</time></trkpt><trkpt lat="45.707790128886096" lon="9.027678921660135"><ele>308.0</ele><time>2026-04-23T17:06:28Z</time></trkpt><trkpt lat="45.707678359956624" lon="9.02779373230019"><ele>307.0</ele><time>2026-04-23T17:06:29Z</time></trkpt><trkpt lat="45.707561479966294" lon="9.027930068669804"><ele>306.0</ele><time>2026-04-23T17:06:30Z</time></trkpt><trkpt lat="45.70744408716181" lon="9.028046207128416"><ele>305.0</ele><time>2026-04-23T17:06:31Z</time></trkpt><trkpt lat="45.70731344848444" lon="9.028157854731408"><ele>305.0</ele><time>2026-04-23T17:06:32Z</time></trkpt><trkpt lat="45.707196764839765" lon="9.028302119792365"><ele>305.0</ele><time>2026-04-23T17:06:33Z</time></trkpt><trkpt lat="45.707077577234394" lon="9.028424584057932"><ele>305.0</ele><time>2026-04-23T17:06:34Z</time></trkpt><trkpt lat="45.706947992476096" lon="9.028505870759224"><ele>305.0</ele><time>2026-04-23T17:06:35Z</time></trkpt><trkpt lat="45.706829665583875" lon="9.028656748868944"><ele>304.6666666666667</ele><time>2026-04-23T17:06:36Z</time></trkpt><trkpt lat="45.70671739009408" lon="9.028780241339518"><ele>304.3333333333333</ele><time>2026-04-23T17:06:37Z</time></trkpt><trkpt lat="45.70658905228017" lon="9.028911453316024"><ele>304.0</ele><time>2026-04-23T17:06:38Z</time></trkpt><trkpt lat="45.70646735341985" lon="9.029037902663385"><ele>303.75</ele><time>2026-04-23T17:06:39Z</time></trkpt><trkpt lat="45.70634318187942" lon="9.029171615323428"><ele>303.5</ele><time>2026-04-23T17:06:40Z</time></trkpt><trkpt lat="45.70623116434121" lon="9.02928769839876"><ele>303.25</ele><time>2026-04-23T17:06:41Z</time></trkpt><trkpt lat="45.70610918140293" lon="9.029377062095039"><ele>303.0</ele><time>2026-04-23T17:06:42Z</time></trkpt><trkpt lat="45.70600028049027" lon="9.029503367819151"><ele>303.0</ele><time>2026-04-23T17:06:43Z</time></trkpt><trkpt lat="45.7058964867212" lon="9.029630952997225"><ele>303.0</ele><time>2026-04-23T17:06:44Z</time></trkpt><trkpt lat="45.705766863589155" lon="9.029741729429821"><ele>303.0</ele><time>2026-04-23T17:06:45Z</time></trkpt><trkpt lat="45.705668717791035" lon="9.029864516317215"><ele>303.0</ele><time>2026-04-23T17:06:46Z</time></trkpt><trkpt lat="45.70554685481532" lon="9.029985610504685"><ele>303.0</ele><time>2026-04-23T17:06:47Z</time></trkpt><trkpt lat="45.70541016248178" lon="9.030107279571641"><ele>303.0</ele><time>2026-04-23T17:06:48Z</time></trkpt><trkpt lat="45.7052948970935" lon="9.030224105099126"><ele>303.0</ele><time>2026-04-23T17:06:49Z</time></trkpt><trkpt lat="45.70517365062532" lon="9.030348840177211"><ele>303.0</ele><time>2026-04-23T17:06:50Z</time></trkpt><trkpt lat="45.70508303819259" lon="9.030441070887454"><ele>303.0</ele><time>2026-04-23T17:06:51Z</time></trkpt><trkpt lat="45.70500097102371" lon="9.030580393680191"><ele>303.0</ele><time>2026-04-23T17:06:52Z</time></trkpt><trkpt lat="45.70488000081714" lon="9.030700467279567"><ele>303.0</ele><time>2026-04-23T17:06:53Z</time></trkpt><trkpt lat="45.70477445501433" lon="9.03082983732754"><ele>303.0</ele><time>2026-04-23T17:06:54Z</time></trkpt><trkpt lat="45.70464837353862" lon="9.0308833999232"><ele>303.0</ele><time>2026-04-23T17:06:55Z</time></trkpt><trkpt lat="45.704540296025606" lon="9.030993252522691"><ele>303.0</ele><time>2026-04-23T17:06:56Z</time></trkpt><trkpt lat="45.70444465680123" lon="9.031093002961365"><ele>303.0</ele><time>2026-04-23T17:06:57Z</time></trkpt><trkpt lat="45.70435220357676" lon="9.031199489091197"><ele>302.5</ele><time>2026-04-23T17:06:58Z</time></trkpt><trkpt lat="45.70425733115398" lon="9.031296901229394"><ele>302.0</ele><time>2026-04-23T17:06:58.999Z</time></trkpt><trkpt lat="45.70416657469409" lon="9.031380843275189"><ele>301.5</ele><time>2026-04-23T17:06:59.999Z</time></trkpt><trkpt lat="45.704073219640854" lon="9.031472880049622"><ele>301.0</ele><time>2026-04-23T17:07:00.999Z</time></trkpt><trkpt lat="45.70397879460673" lon="9.03156208488043"><ele>301.0</ele><time>2026-04-23T17:07:01.999Z</time></trkpt><trkpt lat="45.703877229855436" lon="9.031692699015807"><ele>301.0</ele><time>2026-04-23T17:07:02.999Z</time></trkpt><trkpt lat="45.70376095776016" lon="9.031807878501102"><ele>301.0</ele><time>2026-04-23T17:07:03.999Z</time></trkpt><trkpt lat="45.70366301555808" lon="9.03188509212034"><ele>301.0</ele><time>2026-04-23T17:07:04.999Z</time></trkpt><trkpt lat="45.7035494687515" lon="9.031980241586565"><ele>301.6</ele><time>2026-04-23T17:07:05.999Z</time></trkpt><trkpt lat="45.703461447575215" lon="9.032092552951342"><ele>302.20000000000005</ele><time>2026-04-23T17:07:06.999Z</time></trkpt><trkpt lat="45.70336190985012" lon="9.032193348998852"><ele>302.79999999999995</ele><time>2026-04-23T17:07:07.999Z</time></trkpt><trkpt lat="45.70327387448574" lon="9.03227525761074"><ele>303.4</ele><time>2026-04-23T17:07:08.999Z</time></trkpt><trkpt lat="45.70319930298885" lon="9.03235621628134"><ele>304.0</ele><time>2026-04-23T17:07:09.999Z</time></trkpt><trkpt lat="45.70313612777681" lon="9.032436267093551"><ele>303.8</ele><time>2026-04-23T17:07:10.999Z</time></trkpt><trkpt lat="45.7030770366844" lon="9.03250223861254"><ele>303.59999999999997</ele><time>2026-04-23T17:07:11.999Z</time></trkpt><trkpt lat="45.70300711212321" lon="9.032550929316267"><ele>303.4</ele><time>2026-04-23T17:07:12.999Z</time></trkpt><trkpt lat="45.702892576793865" lon="9.032655196292694"><ele>303.2</ele><time>2026-04-23T17:07:14.999Z</time></trkpt><trkpt lat="45.702802453885155" lon="9.032694517610762"><ele>303.0</ele><time>2026-04-23T17:07:15.999Z</time></trkpt><trkpt lat="45.70269738966407" lon="9.032711594399725"><ele>303.0</ele><time>2026-04-23T17:07:16.999Z</time></trkpt><trkpt lat="45.70260339078609" lon="9.032723923051908"><ele>303.0</ele><time>2026-04-23T17:07:17.999Z</time></trkpt><trkpt lat="45.702504332112525" lon="9.032691714018505"><ele>303.0</ele><time>2026-04-23T17:07:18.999Z</time></trkpt><trkpt lat="45.70238017214662" lon="9.032666886359626"><ele>303.0</ele><time>2026-04-23T17:07:19.999Z</time></trkpt><trkpt lat="45.702263355528245" lon="9.032641893265248"><ele>303.0</ele><time>2026-04-23T17:07:20.999Z</time></trkpt><trkpt lat="45.70214329547131" lon="9.032621772826971"><ele>303.0</ele><time>2026-04-23T17:07:21.999Z</time></trkpt><trkpt lat="45.70201915979907" lon="9.032607087195021"><ele>303.0</ele><time>2026-04-23T17:07:22.999Z</time></trkpt><trkpt lat="45.70187556827621" lon="9.032566362492048"><ele>303.0</ele><time>2026-04-23T17:07:23.999Z</time></trkpt><trkpt lat="45.70174302632484" lon="9.03252859031099"><ele>303.0</ele><time>2026-04-23T17:07:24.999Z</time></trkpt><trkpt lat="45.70161282374198" lon="9.032537624334852"><ele>303.3333333333333</ele><time>2026-04-23T17:07:25.999Z</time></trkpt><trkpt lat="45.70142184988269" lon="9.032485247796952"><ele>303.66666666666663</ele><time>2026-04-23T17:07:26.999Z</time></trkpt><trkpt lat="45.7012548827749" lon="9.032459251510467"><ele>304.0</ele><time>2026-04-23T17:07:27.999Z</time></trkpt><trkpt lat="45.70106406376369" lon="9.032427729743745"><ele>304.0</ele><time>2026-04-23T17:07:28.999Z</time></trkpt><trkpt lat="45.700939208728336" lon="9.032407395384643"><ele>304.0</ele><time>2026-04-23T17:07:29.999Z</time></trkpt><trkpt lat="45.700789715099866" lon="9.032372908669505"><ele>304.0</ele><time>2026-04-23T17:07:30.999Z</time></trkpt><trkpt lat="45.700658160573724" lon="9.032352072257327"><ele>304.0</ele><time>2026-04-23T17:07:31.999Z</time></trkpt><trkpt lat="45.700507446364156" lon="9.032313400878474"><ele>304.0</ele><time>2026-04-23T17:07:32.999Z</time></trkpt><trkpt lat="45.70035748378673" lon="9.03232786355995"><ele>304.0</ele><time>2026-04-23T17:07:33.999Z</time></trkpt><trkpt lat="45.70022576869577" lon="9.032296950923808"><ele>304.0</ele><time>2026-04-23T17:07:34.999Z</time></trkpt><trkpt lat="45.70008229795832" lon="9.03227470768799"><ele>304.0</ele><time>2026-04-23T17:07:35.999Z</time></trkpt><trkpt lat="45.69994267200573" lon="9.032253609462858"><ele>303.0</ele><time>2026-04-23T17:07:36.999Z</time></trkpt><trkpt lat="45.69976391298036" lon="9.03222856926674"><ele>302.0</ele><time>2026-04-23T17:07:37.999Z</time></trkpt><trkpt lat="45.699589687601055" lon="9.032202853024643"><ele>301.0</ele><time>2026-04-23T17:07:38.999Z</time></trkpt><trkpt lat="45.69941464366377" lon="9.032175665103647"><ele>300.40000000000003</ele><time>2026-04-23T17:07:39.999Z</time></trkpt><trkpt lat="45.699284015985164" lon="9.03215333249581"><ele>299.8</ele><time>2026-04-23T17:07:40.999Z</time></trkpt><trkpt lat="45.69916368567123" lon="9.03214400471026"><ele>299.20000000000005</ele><time>2026-04-23T17:07:41.999Z</time></trkpt><trkpt lat="45.69906893475133" lon="9.032109400096033"><ele>298.6</ele><time>2026-04-23T17:07:42.999Z</time></trkpt><trkpt lat="45.698988274422376" lon="9.032085312861067"><ele>298.0</ele><time>2026-04-23T17:07:44.999Z</time></trkpt><trkpt lat="45.69893393409656" lon="9.03201086051695"><ele>298.0</ele><time>2026-04-23T17:07:46.999Z</time></trkpt><trkpt lat="45.69885822575389" lon="9.031959363370204"><ele>298.0</ele><time>2026-04-23T17:07:48.999Z</time></trkpt><trkpt lat="45.69871200070523" lon="9.03201550119768"><ele>298.0</ele><time>2026-04-23T17:07:50.999Z</time></trkpt><trkpt lat="45.698587470229896" lon="9.032047997647624"><ele>298.0</ele><time>2026-04-23T17:07:51.999Z</time></trkpt><trkpt lat="45.69844208811933" lon="9.03205593925879"><ele>298.0</ele><time>2026-04-23T17:07:52.999Z</time></trkpt><trkpt lat="45.698234120884244" lon="9.032067329042002"><ele>298.0</ele><time>2026-04-23T17:07:53.999Z</time></trkpt><trkpt lat="45.69802958976681" lon="9.032070099601526"><ele>298.0</ele><time>2026-04-23T17:07:54.999Z</time></trkpt><trkpt lat="45.697818747333905" lon="9.032052227894148"><ele>297.0</ele><time>2026-04-23T17:07:55.999Z</time></trkpt><trkpt lat="45.69760863785193" lon="9.032088726513138"><ele>296.0</ele><time>2026-04-23T17:07:56.999Z</time></trkpt><trkpt lat="45.69738092084224" lon="9.032096502406594"><ele>295.0</ele><time>2026-04-23T17:07:57.999Z</time></trkpt><trkpt lat="45.69715441338104" lon="9.03210360393046"><ele>295.0</ele><time>2026-04-23T17:07:58.999Z</time></trkpt><trkpt lat="45.6969210416664" lon="9.032089117724833"><ele>295.0</ele><time>2026-04-23T17:07:59.999Z</time></trkpt><trkpt lat="45.69669696875488" lon="9.032090729549747"><ele>293.0</ele><time>2026-04-23T17:08:00.999Z</time></trkpt><trkpt lat="45.69645633553251" lon="9.03210015052579"><ele>291.0</ele><time>2026-04-23T17:08:01.999Z</time></trkpt><trkpt lat="45.69620344875284" lon="9.032130109780544"><ele>290.0</ele><time>2026-04-23T17:08:02.999Z</time></trkpt><trkpt lat="45.69595887104343" lon="9.032115274297393"><ele>289.0</ele><time>2026-04-23T17:08:03.999Z</time></trkpt><trkpt lat="45.69580109777955" lon="9.032163096006208"><ele>288.0</ele><time>2026-04-23T17:08:04.999Z</time></trkpt><trkpt lat="45.6955931927728" lon="9.032180878591678"><ele>288.0</ele><time>2026-04-23T17:08:05.999Z</time></trkpt><trkpt lat="45.69539480927812" lon="9.032135753830879"><ele>288.0</ele><time>2026-04-23T17:08:07Z</time></trkpt><trkpt lat="45.6952043616972" lon="9.032142343539476"><ele>288.0</ele><time>2026-04-23T17:08:08Z</time></trkpt><trkpt lat="45.695025299374244" lon="9.032148539310281"><ele>287.0</ele><time>2026-04-23T17:08:09Z</time></trkpt><trkpt lat="45.69481434322954" lon="9.03215842243598"><ele>286.0</ele><time>2026-04-23T17:08:10Z</time></trkpt><trkpt lat="45.694637213592976" lon="9.03217632127799"><ele>285.0</ele><time>2026-04-23T17:08:11Z</time></trkpt><trkpt lat="45.69445574923733" lon="9.03222709805998"><ele>284.5</ele><time>2026-04-23T17:08:12Z</time></trkpt><trkpt lat="45.694314486769414" lon="9.032284517432227"><ele>284.0</ele><time>2026-04-23T17:08:13Z</time></trkpt><trkpt lat="45.69417648198148" lon="9.032353461381836"><ele>283.5</ele><time>2026-04-23T17:08:14Z</time></trkpt><trkpt lat="45.69404368956593" lon="9.032437636775084"><ele>283.0</ele><time>2026-04-23T17:08:15Z</time></trkpt><trkpt lat="45.693918689852744" lon="9.032518387229981"><ele>283.0</ele><time>2026-04-23T17:08:16Z</time></trkpt><trkpt lat="45.69384914251969" lon="9.032496793626885"><ele>283.0</ele><time>2026-04-23T17:08:17Z</time></trkpt><trkpt lat="45.69376405595001" lon="9.032507207862082"><ele>283.0</ele><time>2026-04-23T17:08:18Z</time></trkpt><trkpt lat="45.69368375499502" lon="9.032517036364885"><ele>283.0</ele><time>2026-04-23T17:08:19Z</time></trkpt><trkpt lat="45.69366007517539" lon="9.032704211412597"><ele>283.0</ele><time>2026-04-23T17:08:20Z</time></trkpt><trkpt lat="45.69363499226497" lon="9.032901410676832"><ele>282.5</ele><time>2026-04-23T17:08:21Z</time></trkpt><trkpt lat="45.69358482104545" lon="9.033023513945189"><ele>282.0</ele><time>2026-04-23T17:08:22Z</time></trkpt><trkpt lat="45.69352690088761" lon="9.033122758665629"><ele>281.5</ele><time>2026-04-23T17:08:23Z</time></trkpt><trkpt lat="45.69351176302108" lon="9.033291483209053"><ele>281.0</ele><time>2026-04-23T17:08:24Z</time></trkpt><trkpt lat="45.69332461861809" lon="9.033207479434633"><ele>280.75</ele><time>2026-04-23T17:08:25Z</time></trkpt><trkpt lat="45.69330571126065" lon="9.033324876297296"><ele>280.5</ele><time>2026-04-23T17:08:26Z</time></trkpt><trkpt lat="45.69327466009665" lon="9.033488008536754"><ele>280.25</ele><time>2026-04-23T17:08:27Z</time></trkpt><trkpt lat="45.693231918469266" lon="9.033669305681869"><ele>280.0</ele><time>2026-04-23T17:08:28Z</time></trkpt><trkpt lat="45.69318410193233" lon="9.033831081068083"><ele>280.0</ele><time>2026-04-23T17:08:29Z</time></trkpt><trkpt lat="45.693134590204515" lon="9.033956171324709"><ele>280.0</ele><time>2026-04-23T17:08:30Z</time></trkpt><trkpt lat="45.69317769777964" lon="9.034178028048597"><ele>280.0</ele><time>2026-04-23T17:08:31Z</time></trkpt><trkpt lat="45.693133723153785" lon="9.034312493626373"><ele>280.0</ele><time>2026-04-23T17:08:32Z</time></trkpt><trkpt lat="45.693054735579565" lon="9.034321317230754"><ele>280.0</ele><time>2026-04-23T17:08:37Z</time></trkpt><trkpt lat="45.692933219738514" lon="9.034225859861241"><ele>280.0</ele><time>2026-04-23T17:08:38Z</time></trkpt><trkpt lat="45.69285662522904" lon="9.03437684576778"><ele>280.0</ele><time>2026-04-23T17:08:40Z</time></trkpt><trkpt lat="45.69283446546906" lon="9.03452411792615"><ele>280.0</ele><time>2026-04-23T17:08:41Z</time></trkpt><trkpt lat="45.69286536135189" lon="9.034665896251356"><ele>280.0</ele><time>2026-04-23T17:08:42Z</time></trkpt><trkpt lat="45.692856920955315" lon="9.034783550014108"><ele>280.0</ele><time>2026-04-23T17:08:43Z</time></trkpt><trkpt lat="45.69284446379221" lon="9.0349052825411"><ele>280.0</ele><time>2026-04-23T17:08:44Z</time></trkpt><trkpt lat="45.69288414077892" lon="9.035092453284305"><ele>280.0</ele><time>2026-04-23T17:08:45Z</time></trkpt><trkpt lat="45.69288592529136" lon="9.035268826342207"><ele>280.0</ele><time>2026-04-23T17:08:46Z</time></trkpt><trkpt lat="45.69281026711207" lon="9.035425420525547"><ele>280.0</ele><time>2026-04-23T17:08:47Z</time></trkpt><trkpt lat="45.69276093935166" lon="9.035632231723978"><ele>279.25</ele><time>2026-04-23T17:08:48Z</time></trkpt><trkpt lat="45.69272316216112" lon="9.035781436003969"><ele>278.5</ele><time>2026-04-23T17:08:49Z</time></trkpt><trkpt lat="45.69268804369077" lon="9.035918419710427"><ele>277.75</ele><time>2026-04-23T17:08:50Z</time></trkpt><trkpt lat="45.692650869345094" lon="9.036062038488595"><ele>277.0</ele><time>2026-04-23T17:08:51Z</time></trkpt><trkpt lat="45.69257520199112" lon="9.036352494061653"><ele>277.0</ele><time>2026-04-23T17:08:52Z</time></trkpt><trkpt lat="45.69251590277887" lon="9.03658011918168"><ele>277.0</ele><time>2026-04-23T17:08:53Z</time></trkpt><trkpt lat="45.69246147784911" lon="9.036802367020664"><ele>277.0</ele><time>2026-04-23T17:08:54Z</time></trkpt><trkpt lat="45.692408539197714" lon="9.037016224661524"><ele>277.25</ele><time>2026-04-23T17:08:55Z</time></trkpt><trkpt lat="45.69235697975456" lon="9.03721018792695"><ele>277.5</ele><time>2026-04-23T17:08:56Z</time></trkpt><trkpt lat="45.692307411065485" lon="9.037392400987802"><ele>277.75</ele><time>2026-04-23T17:08:57Z</time></trkpt><trkpt lat="45.69225405218931" lon="9.037588514313244"><ele>278.0</ele><time>2026-04-23T17:08:58Z</time></trkpt><trkpt lat="45.69220157784125" lon="9.037784559908323"><ele>278.5</ele><time>2026-04-23T17:08:59Z</time></trkpt><trkpt lat="45.692140140079836" lon="9.038018261016457"><ele>279.0</ele><time>2026-04-23T17:09:00Z</time></trkpt><trkpt lat="45.69208624144803" lon="9.038221886548028"><ele>279.5</ele><time>2026-04-23T17:09:01Z</time></trkpt><trkpt lat="45.69205045189529" lon="9.03837885198548"><ele>280.0</ele><time>2026-04-23T17:09:02Z</time></trkpt><trkpt lat="45.69199885297391" lon="9.038550421407761"><ele>280.0</ele><time>2026-04-23T17:09:03Z</time></trkpt><trkpt lat="45.69196017076341" lon="9.038722959891379"><ele>280.0</ele><time>2026-04-23T17:09:03.999Z</time></trkpt><trkpt lat="45.69191034965098" lon="9.038836046490118"><ele>280.0</ele><time>2026-04-23T17:09:04.999Z</time></trkpt><trkpt lat="45.6918707229446" lon="9.0390113230513"><ele>280.0</ele><time>2026-04-23T17:09:05.999Z</time></trkpt><trkpt lat="45.691832672100404" lon="9.039161730198726"><ele>279.6</ele><time>2026-04-23T17:09:06.999Z</time></trkpt><trkpt lat="45.69179743807721" lon="9.039310234615037"><ele>279.2</ele><time>2026-04-23T17:09:07.999Z</time></trkpt><trkpt lat="45.69176734846262" lon="9.039438715693562"><ele>278.8</ele><time>2026-04-23T17:09:08.999Z</time></trkpt><trkpt lat="45.69173628339641" lon="9.03956272836949"><ele>278.4</ele><time>2026-04-23T17:09:09.999Z</time></trkpt><trkpt lat="45.69169835079246" lon="9.039702621775836"><ele>278.0</ele><time>2026-04-23T17:09:10.999Z</time></trkpt><trkpt lat="45.691672326094114" lon="9.03980612126491"><ele>278.0</ele><time>2026-04-23T17:09:11.999Z</time></trkpt><trkpt lat="45.691625038703876" lon="9.03990201046446"><ele>278.0</ele><time>2026-04-23T17:09:12.999Z</time></trkpt><trkpt lat="45.69157554465568" lon="9.040002918744998"><ele>278.0</ele><time>2026-04-23T17:09:13.999Z</time></trkpt><trkpt lat="45.691542509808535" lon="9.04011787106879"><ele>278.0</ele><time>2026-04-23T17:09:14.999Z</time></trkpt><trkpt lat="45.691499942825395" lon="9.04024601557571"><ele>278.0</ele><time>2026-04-23T17:09:15.999Z</time></trkpt><trkpt lat="45.691471489413004" lon="9.040371510425535"><ele>278.0</ele><time>2026-04-23T17:09:16.999Z</time></trkpt><trkpt lat="45.691529843250684" lon="9.040527016596721"><ele>277.8</ele><time>2026-04-23T17:09:17.999Z</time></trkpt><trkpt lat="45.691531055849566" lon="9.040661010226746"><ele>277.6</ele><time>2026-04-23T17:09:18.999Z</time></trkpt><trkpt lat="45.69155883931364" lon="9.04078171271704"><ele>277.4</ele><time>2026-04-23T17:09:19.999Z</time></trkpt><trkpt lat="45.69149356535121" lon="9.040950427158823"><ele>277.2</ele><time>2026-04-23T17:09:20.999Z</time></trkpt><trkpt lat="45.691489094562044" lon="9.041094226324924"><ele>277.0</ele><time>2026-04-23T17:09:21.999Z</time></trkpt><trkpt lat="45.691483767133214" lon="9.041245060782588"><ele>277.0</ele><time>2026-04-23T17:09:22.999Z</time></trkpt><trkpt lat="45.69148079016657" lon="9.041399282274456"><ele>277.0</ele><time>2026-04-23T17:09:23.999Z</time></trkpt><trkpt lat="45.69145501604547" lon="9.041568283736652"><ele>277.0</ele><time>2026-04-23T17:09:24.999Z</time></trkpt><trkpt lat="45.69143300029844" lon="9.04173499591182"><ele>277.0</ele><time>2026-04-23T17:09:25.999Z</time></trkpt><trkpt lat="45.69141986906488" lon="9.041925802879424"><ele>277.0</ele><time>2026-04-23T17:09:26.999Z</time></trkpt><trkpt lat="45.69141098418054" lon="9.042103536849863"><ele>277.0</ele><time>2026-04-23T17:09:27.999Z</time></trkpt><trkpt lat="45.69138783942844" lon="9.042267697327514"><ele>277.0</ele><time>2026-04-23T17:09:28.999Z</time></trkpt><trkpt lat="45.69137644451317" lon="9.042424881620693"><ele>277.0</ele><time>2026-04-23T17:09:29.999Z</time></trkpt><trkpt lat="45.69134390460089" lon="9.042591309340477"><ele>277.0</ele><time>2026-04-23T17:09:30.999Z</time></trkpt><trkpt lat="45.69134157633728" lon="9.042754547563199"><ele>277.0</ele><time>2026-04-23T17:09:31.999Z</time></trkpt><trkpt lat="45.69132889452832" lon="9.042918282978533"><ele>277.0</ele><time>2026-04-23T17:09:32.999Z</time></trkpt><trkpt lat="45.69131492897136" lon="9.043058504394262"><ele>277.0</ele><time>2026-04-23T17:09:33.999Z</time></trkpt><trkpt lat="45.69130397576389" lon="9.043210846949982"><ele>277.0</ele><time>2026-04-23T17:09:34.999Z</time></trkpt><trkpt lat="45.691286467521266" lon="9.043394126124689"><ele>277.0</ele><time>2026-04-23T17:09:35.999Z</time></trkpt><trkpt lat="45.691259809975726" lon="9.04357583401237"><ele>277.0</ele><time>2026-04-23T17:09:36.999Z</time></trkpt><trkpt lat="45.691226964500224" lon="9.043779216475349"><ele>277.0</ele><time>2026-04-23T17:09:37.999Z</time></trkpt><trkpt lat="45.69118853694991" lon="9.043979084724153"><ele>277.0</ele><time>2026-04-23T17:09:38.999Z</time></trkpt><trkpt lat="45.69115619408229" lon="9.044165475192507"><ele>276.5</ele><time>2026-04-23T17:09:39.999Z</time></trkpt><trkpt lat="45.69109612848535" lon="9.04433316912497"><ele>276.0</ele><time>2026-04-23T17:09:40.999Z</time></trkpt><trkpt lat="45.69106929814346" lon="9.044516178611104"><ele>275.5</ele><time>2026-04-23T17:09:41.999Z</time></trkpt><trkpt lat="45.691026211880136" lon="9.044716266697359"><ele>275.0</ele><time>2026-04-23T17:09:42.999Z</time></trkpt><trkpt lat="45.69097955635098" lon="9.044914678099097"><ele>272.33333333333337</ele><time>2026-04-23T17:09:43.999Z</time></trkpt><trkpt lat="45.69092102269546" lon="9.045195769602094"><ele>269.6666666666667</ele><time>2026-04-23T17:09:44.999Z</time></trkpt><trkpt lat="45.690870924289676" lon="9.04542003236962"><ele>267.0</ele><time>2026-04-23T17:09:45.999Z</time></trkpt><trkpt lat="45.69082856429761" lon="9.045623421548024"><ele>265.75</ele><time>2026-04-23T17:09:46.999Z</time></trkpt><trkpt lat="45.6907859880642" lon="9.045814230707657"><ele>264.5</ele><time>2026-04-23T17:09:47.999Z</time></trkpt><trkpt lat="45.69074285752383" lon="9.045993637361322"><ele>263.25</ele><time>2026-04-23T17:09:48.999Z</time></trkpt><trkpt lat="45.69070174160446" lon="9.046179184031699"><ele>262.0</ele><time>2026-04-23T17:09:49.999Z</time></trkpt><trkpt lat="45.69066009437505" lon="9.04637904964334"><ele>262.0</ele><time>2026-04-23T17:09:50.999Z</time></trkpt><trkpt lat="45.690614407506786" lon="9.046575565967817"><ele>262.0</ele><time>2026-04-23T17:09:51.999Z</time></trkpt><trkpt lat="45.690571627629005" lon="9.046760073073843"><ele>262.0</ele><time>2026-04-23T17:09:52.999Z</time></trkpt><trkpt lat="45.69053990135254" lon="9.046947036765108"><ele>262.0</ele><time>2026-04-23T17:09:53.999Z</time></trkpt><trkpt lat="45.690514639535365" lon="9.04714152418343"><ele>261.25</ele><time>2026-04-23T17:09:54.999Z</time></trkpt><trkpt lat="45.69049115637227" lon="9.04733693975684"><ele>260.5</ele><time>2026-04-23T17:09:55.999Z</time></trkpt><trkpt lat="45.690498349231994" lon="9.047528758423029"><ele>259.75</ele><time>2026-04-23T17:09:56.999Z</time></trkpt><trkpt lat="45.69050742000212" lon="9.047723510830881"><ele>259.0</ele><time>2026-04-23T17:09:57.999Z</time></trkpt><trkpt lat="45.69052860645715" lon="9.047921370887034"><ele>259.0</ele><time>2026-04-23T17:09:58.999Z</time></trkpt><trkpt lat="45.690555680419486" lon="9.048113502379513"><ele>259.0</ele><time>2026-04-23T17:09:59.999Z</time></trkpt><trkpt lat="45.690572410803924" lon="9.048275388477837"><ele>259.0</ele><time>2026-04-23T17:10:00.999Z</time></trkpt><trkpt lat="45.690620731143966" lon="9.04850849033776"><ele>259.0</ele><time>2026-04-23T17:10:01.999Z</time></trkpt><trkpt lat="45.69065799677978" lon="9.048718440059051"><ele>258.0</ele><time>2026-04-23T17:10:02.999Z</time></trkpt><trkpt lat="45.69071919765973" lon="9.048983004326502"><ele>257.0</ele><time>2026-04-23T17:10:03.999Z</time></trkpt><trkpt lat="45.690729481149226" lon="9.049112558399695"><ele>256.0</ele><time>2026-04-23T17:10:04.999Z</time></trkpt><trkpt lat="45.690769186323266" lon="9.049344763943381"><ele>255.66666666666666</ele><time>2026-04-23T17:10:05.999Z</time></trkpt><trkpt lat="45.69081751349462" lon="9.04960257326375"><ele>255.33333333333331</ele><time>2026-04-23T17:10:06.999Z</time></trkpt><trkpt lat="45.69083606833662" lon="9.049816163150455"><ele>255.0</ele><time>2026-04-23T17:10:07.999Z</time></trkpt><trkpt lat="45.69087785414516" lon="9.050080489017637"><ele>257.0</ele><time>2026-04-23T17:10:08.999Z</time></trkpt><trkpt lat="45.690897816791114" lon="9.05032747502791"><ele>259.0</ele><time>2026-04-23T17:10:09.999Z</time></trkpt><trkpt lat="45.69099868272069" lon="9.050621617792755"><ele>261.0</ele><time>2026-04-23T17:10:10.999Z</time></trkpt><trkpt lat="45.69103831829054" lon="9.050874578190301"><ele>265.5</ele><time>2026-04-23T17:10:11.999Z</time></trkpt><trkpt lat="45.69107299991805" lon="9.05116632954743"><ele>270.0</ele><time>2026-04-23T17:10:13Z</time></trkpt><trkpt lat="45.691133820836335" lon="9.051647935681313"><ele>270.0</ele><time>2026-04-23T17:10:14Z</time></trkpt><trkpt lat="45.691202710783436" lon="9.051979823001183"><ele>270.0</ele><time>2026-04-23T17:10:15Z</time></trkpt><trkpt lat="45.69122738454386" lon="9.052242246907515"><ele>270.0</ele><time>2026-04-23T17:10:16Z</time></trkpt><trkpt lat="45.69127327395535" lon="9.052517003462162"><ele>270.75</ele><time>2026-04-23T17:10:17Z</time></trkpt><trkpt lat="45.691315740332456" lon="9.052751834037677"><ele>271.5</ele><time>2026-04-23T17:10:18Z</time></trkpt><trkpt lat="45.691334893716004" lon="9.052976575753526"><ele>272.25</ele><time>2026-04-23T17:10:19Z</time></trkpt><trkpt lat="45.69135338695125" lon="9.05313843842857"><ele>273.0</ele><time>2026-04-23T17:10:20Z</time></trkpt><trkpt lat="45.69136654191827" lon="9.053289221893477"><ele>273.0</ele><time>2026-04-23T17:10:21Z</time></trkpt><trkpt lat="45.69139358624802" lon="9.053471213285606"><ele>273.0</ele><time>2026-04-23T17:10:22Z</time></trkpt><trkpt lat="45.691443535456195" lon="9.05362540383599"><ele>273.0</ele><time>2026-04-23T17:10:23Z</time></trkpt><trkpt lat="45.69144575583312" lon="9.053746610117464"><ele>273.0</ele><time>2026-04-23T17:10:24Z</time></trkpt><trkpt lat="45.691426113476524" lon="9.053953850165673"><ele>273.0</ele><time>2026-04-23T17:10:25Z</time></trkpt><trkpt lat="45.69148871533687" lon="9.0541175809003"><ele>273.0</ele><time>2026-04-23T17:10:26Z</time></trkpt><trkpt lat="45.69153224358981" lon="9.054322206721446"><ele>273.0</ele><time>2026-04-23T17:10:27Z</time></trkpt><trkpt lat="45.69154027445121" lon="9.054563746427414"><ele>273.0</ele><time>2026-04-23T17:10:28Z</time></trkpt><trkpt lat="45.69156182585729" lon="9.054794195234578"><ele>273.6666666666667</ele><time>2026-04-23T17:10:29Z</time></trkpt><trkpt lat="45.691577025979704" lon="9.05506193746513"><ele>274.33333333333337</ele><time>2026-04-23T17:10:30Z</time></trkpt><trkpt lat="45.6915502658837" lon="9.055330540362883"><ele>275.0</ele><time>2026-04-23T17:10:31Z</time></trkpt><trkpt lat="45.69152007885432" lon="9.05548543719239"><ele>275.0</ele><time>2026-04-23T17:10:33Z</time></trkpt><trkpt lat="45.69148630912373" lon="9.055636972646948"><ele>275.0</ele><time>2026-04-23T17:10:34Z</time></trkpt><trkpt lat="45.69144589560217" lon="9.055818021635305"><ele>275.0</ele><time>2026-04-23T17:10:35Z</time></trkpt><trkpt lat="45.69140315147594" lon="9.05598796005812"><ele>275.0</ele><time>2026-04-23T17:10:36Z</time></trkpt><trkpt lat="45.691338791002586" lon="9.056151444860799"><ele>275.25</ele><time>2026-04-23T17:10:37Z</time></trkpt><trkpt lat="45.691292448260825" lon="9.056317876776806"><ele>275.5</ele><time>2026-04-23T17:10:38Z</time></trkpt><trkpt lat="45.69124951205329" lon="9.05647035873547"><ele>275.75</ele><time>2026-04-23T17:10:39Z</time></trkpt><trkpt lat="45.691212603898684" lon="9.056630104497223"><ele>276.0</ele><time>2026-04-23T17:10:40Z</time></trkpt><trkpt lat="45.691158764496905" lon="9.056789962736621"><ele>276.0</ele><time>2026-04-23T17:10:41Z</time></trkpt><trkpt lat="45.691111138876174" lon="9.056963354447808"><ele>276.0</ele><time>2026-04-23T17:10:42Z</time></trkpt><trkpt lat="45.69106320450365" lon="9.057106321930624"><ele>276.0</ele><time>2026-04-23T17:10:43Z</time></trkpt><trkpt lat="45.691005581087985" lon="9.057249026435152"><ele>276.0</ele><time>2026-04-23T17:10:44Z</time></trkpt><trkpt lat="45.69094511684855" lon="9.057355123180356"><ele>276.0</ele><time>2026-04-23T17:10:45Z</time></trkpt><trkpt lat="45.69089436161857" lon="9.05743453481023"><ele>276.0</ele><time>2026-04-23T17:10:46Z</time></trkpt><trkpt lat="45.69084692985205" lon="9.057573407525418"><ele>276.0</ele><time>2026-04-23T17:10:48Z</time></trkpt><trkpt lat="45.690777944517805" lon="9.057604153860002"><ele>276.0</ele><time>2026-04-23T17:10:49Z</time></trkpt><trkpt lat="45.69072223252348" lon="9.057714440766947"><ele>276.0</ele><time>2026-04-23T17:10:50Z</time></trkpt><trkpt lat="45.69070225524576" lon="9.057884607920855"><ele>276.0</ele><time>2026-04-23T17:10:52Z</time></trkpt><trkpt lat="45.6906961018551" lon="9.058017318576045"><ele>276.0</ele><time>2026-04-23T17:10:53Z</time></trkpt><trkpt lat="45.69069693722411" lon="9.058157722961313"><ele>276.0</ele><time>2026-04-23T17:10:54Z</time></trkpt><trkpt lat="45.69070293329549" lon="9.058309330504795"><ele>276.0</ele><time>2026-04-23T17:10:55Z</time></trkpt><trkpt lat="45.69067289979345" lon="9.058457203696486"><ele>276.0</ele><time>2026-04-23T17:10:56Z</time></trkpt><trkpt lat="45.690639356034396" lon="9.05860556067527"><ele>276.0</ele><time>2026-04-23T17:10:57Z</time></trkpt><trkpt lat="45.69060654410692" lon="9.05877565811025"><ele>276.0</ele><time>2026-04-23T17:10:58Z</time></trkpt><trkpt lat="45.690574916193306" lon="9.058950306611264"><ele>276.0</ele><time>2026-04-23T17:10:59Z</time></trkpt><trkpt lat="45.690544179009855" lon="9.059150793862287"><ele>276.0</ele><time>2026-04-23T17:11:00Z</time></trkpt><trkpt lat="45.690529679980216" lon="9.059330188059208"><ele>276.0</ele><time>2026-04-23T17:11:01Z</time></trkpt><trkpt lat="45.69051344166484" lon="9.059527574893885"><ele>276.0</ele><time>2026-04-23T17:11:02Z</time></trkpt><trkpt lat="45.690523814848795" lon="9.059680141794344"><ele>276.0</ele><time>2026-04-23T17:11:03Z</time></trkpt><trkpt lat="45.690520786424436" lon="9.059840726050977"><ele>276.0</ele><time>2026-04-23T17:11:04Z</time></trkpt><trkpt lat="45.69055805641333" lon="9.059983670100774"><ele>275.75</ele><time>2026-04-23T17:11:05Z</time></trkpt><trkpt lat="45.69059583175241" lon="9.060174370776384"><ele>275.5</ele><time>2026-04-23T17:11:06Z</time></trkpt><trkpt lat="45.69063711105562" lon="9.060354662638789"><ele>275.25</ele><time>2026-04-23T17:11:07Z</time></trkpt><trkpt lat="45.69068663993647" lon="9.060512595253716"><ele>275.0</ele><time>2026-04-23T17:11:08Z</time></trkpt><trkpt lat="45.69072405752179" lon="9.060607593090122"><ele>275.0</ele><time>2026-04-23T17:11:09Z</time></trkpt><trkpt lat="45.69076814276088" lon="9.060775742797475"><ele>275.0</ele><time>2026-04-23T17:11:09.999Z</time></trkpt><trkpt lat="45.69081769168376" lon="9.060885936133266"><ele>275.0</ele><time>2026-04-23T17:11:10.999Z</time></trkpt><trkpt lat="45.690864834900935" lon="9.061006729372712"><ele>275.0</ele><time>2026-04-23T17:11:11.999Z</time></trkpt><trkpt lat="45.690924223725666" lon="9.061196794713643"><ele>275.5</ele><time>2026-04-23T17:11:12.999Z</time></trkpt><trkpt lat="45.69098659691035" lon="9.061347016037264"><ele>276.0</ele><time>2026-04-23T17:11:13.999Z</time></trkpt><trkpt lat="45.691054692864476" lon="9.061507107472732"><ele>276.5</ele><time>2026-04-23T17:11:14.999Z</time></trkpt><trkpt lat="45.69110943799625" lon="9.061668432569803"><ele>277.0</ele><time>2026-04-23T17:11:15.999Z</time></trkpt><trkpt lat="45.69117754265672" lon="9.061843143879775"><ele>277.0</ele><time>2026-04-23T17:11:16.999Z</time></trkpt><trkpt lat="45.691250075686916" lon="9.062034227080838"><ele>277.0</ele><time>2026-04-23T17:11:17.999Z</time></trkpt><trkpt lat="45.69133026272724" lon="9.062257232172914"><ele>277.0</ele><time>2026-04-23T17:11:18.999Z</time></trkpt><trkpt lat="45.69141914838892" lon="9.062501534688346"><ele>277.0</ele><time>2026-04-23T17:11:19.999Z</time></trkpt><trkpt lat="45.69150501257797" lon="9.0627577172648"><ele>277.0</ele><time>2026-04-23T17:11:20.999Z</time></trkpt><trkpt lat="45.69160411849515" lon="9.063052320148387"><ele>277.0</ele><time>2026-04-23T17:11:21.999Z</time></trkpt><trkpt lat="45.69169682733656" lon="9.063319204188321"><ele>276.66666666666663</ele><time>2026-04-23T17:11:22.999Z</time></trkpt><trkpt lat="45.69180159274718" lon="9.063587141861241"><ele>276.3333333333333</ele><time>2026-04-23T17:11:23.999Z</time></trkpt><trkpt lat="45.69189078457151" lon="9.06384965351698"><ele>276.0</ele><time>2026-04-23T17:11:24.999Z</time></trkpt><trkpt lat="45.69198257078643" lon="9.064087208680466"><ele>277.6666666666667</ele><time>2026-04-23T17:11:25.999Z</time></trkpt><trkpt lat="45.69206996812795" lon="9.064312167087463"><ele>279.33333333333337</ele><time>2026-04-23T17:11:26.999Z</time></trkpt><trkpt lat="45.69217739264351" lon="9.06451857499308"><ele>281.0</ele><time>2026-04-23T17:11:27.999Z</time></trkpt><trkpt lat="45.692225651329274" lon="9.064718499210995"><ele>281.0</ele><time>2026-04-23T17:11:28.999Z</time></trkpt><trkpt lat="45.692283907393254" lon="9.064923837210438"><ele>281.0</ele><time>2026-04-23T17:11:29.999Z</time></trkpt><trkpt lat="45.69234863555621" lon="9.065136622237375"><ele>281.0</ele><time>2026-04-23T17:11:30.999Z</time></trkpt><trkpt lat="45.69240693208736" lon="9.065327524636155"><ele>280.25</ele><time>2026-04-23T17:11:31.999Z</time></trkpt><trkpt lat="45.692483066372965" lon="9.065550250279912"><ele>279.5</ele><time>2026-04-23T17:11:33.999Z</time></trkpt><trkpt lat="45.692546476935924" lon="9.065677260573494"><ele>278.75</ele><time>2026-04-23T17:11:34.999Z</time></trkpt><trkpt lat="45.6926128461789" lon="9.065804781394101"><ele>278.0</ele><time>2026-04-23T17:11:35.999Z</time></trkpt><trkpt lat="45.69263026080229" lon="9.065930307620283"><ele>277.8</ele><time>2026-04-23T17:11:36.999Z</time></trkpt><trkpt lat="45.692669473589746" lon="9.066051896829993"><ele>277.6</ele><time>2026-04-23T17:11:37.999Z</time></trkpt><trkpt lat="45.69270075599784" lon="9.066173382637695"><ele>277.4</ele><time>2026-04-23T17:11:38.999Z</time></trkpt><trkpt lat="45.69272109819309" lon="9.066337490066994"><ele>277.2</ele><time>2026-04-23T17:11:40.999Z</time></trkpt><trkpt lat="45.6926707983108" lon="9.066470200098374"><ele>277.0</ele><time>2026-04-23T17:11:43.999Z</time></trkpt><trkpt lat="45.69264588746053" lon="9.066569348444744"><ele>277.0</ele><time>2026-04-23T17:11:44.999Z</time></trkpt><trkpt lat="45.69257686216888" lon="9.066624330788263"><ele>277.0</ele><time>2026-04-23T17:11:45.999Z</time></trkpt><trkpt lat="45.69247813074053" lon="9.06655562337564"><ele>277.0</ele><time>2026-04-23T17:11:46.999Z</time></trkpt><trkpt lat="45.69235677370397" lon="9.066529022300099"><ele>277.0</ele><time>2026-04-23T17:11:49.999Z</time></trkpt><trkpt lat="45.69225778385896" lon="9.066533860832099"><ele>277.0</ele><time>2026-04-23T17:11:50.999Z</time></trkpt><trkpt lat="45.692128288377084" lon="9.066541080472124"><ele>275.0</ele><time>2026-04-23T17:11:51.999Z</time></trkpt><trkpt lat="45.691843474141386" lon="9.066556959455868"><ele>273.0</ele><time>2026-04-23T17:11:52.999Z</time></trkpt><trkpt lat="45.69146418108765" lon="9.066581249058894"><ele>273.0</ele><time>2026-04-23T17:11:53.999Z</time></trkpt><trkpt lat="45.69122891813053" lon="9.066595077166324"><ele>273.0</ele><time>2026-04-23T17:11:54.999Z</time></trkpt><trkpt lat="45.69103982551528" lon="9.066582361686102"><ele>273.0</ele><time>2026-04-23T17:11:55.999Z</time></trkpt><trkpt lat="45.690801706755224" lon="9.0665963728539"><ele>271.5</ele><time>2026-04-23T17:11:56.999Z</time></trkpt><trkpt lat="45.69054257199438" lon="9.066612326479639"><ele>270.0</ele><time>2026-04-23T17:11:57.999Z</time></trkpt><trkpt lat="45.690306229427705" lon="9.066624394771148"><ele>270.0</ele><time>2026-04-23T17:11:58.999Z</time></trkpt><trkpt lat="45.69003971150882" lon="9.066636259303728"><ele>270.0</ele><time>2026-04-23T17:11:59.999Z</time></trkpt><trkpt lat="45.68978365455344" lon="9.066682585561788"><ele>270.0</ele><time>2026-04-23T17:12:00.999Z</time></trkpt><trkpt lat="45.68953494980961" lon="9.066650846538838"><ele>270.0</ele><time>2026-04-23T17:12:01.999Z</time></trkpt><trkpt lat="45.689228714641466" lon="9.06662033384269"><ele>269.5</ele><time>2026-04-23T17:12:02.999Z</time></trkpt><trkpt lat="45.68897248477121" lon="9.066581695002217"><ele>269.0</ele><time>2026-04-23T17:12:03.999Z</time></trkpt><trkpt lat="45.68874288143009" lon="9.066544116310347"><ele>269.0</ele><time>2026-04-23T17:12:04.999Z</time></trkpt><trkpt lat="45.68849375586739" lon="9.066490041778811"><ele>269.0</ele><time>2026-04-23T17:12:05.999Z</time></trkpt><trkpt lat="45.688229633391366" lon="9.066402035343685"><ele>269.0</ele><time>2026-04-23T17:12:06.999Z</time></trkpt><trkpt lat="45.6879775268874" lon="9.066318174783458"><ele>269.0</ele><time>2026-04-23T17:12:07.999Z</time></trkpt><trkpt lat="45.687800717643135" lon="9.066257744334736"><ele>269.0</ele><time>2026-04-23T17:12:08.999Z</time></trkpt><trkpt lat="45.68756916436328" lon="9.066175483300073"><ele>269.0</ele><time>2026-04-23T17:12:09.999Z</time></trkpt><trkpt lat="45.687340734165794" lon="9.066093319987942"><ele>269.0</ele><time>2026-04-23T17:12:10.999Z</time></trkpt><trkpt lat="45.687047619474384" lon="9.065987890656958"><ele>268.0</ele><time>2026-04-23T17:12:11.999Z</time></trkpt><trkpt lat="45.686843112848884" lon="9.065914332422235"><ele>267.0</ele><time>2026-04-23T17:12:12.999Z</time></trkpt><trkpt lat="45.686621428261844" lon="9.065834784498298"><ele>266.0</ele><time>2026-04-23T17:12:13.999Z</time></trkpt><trkpt lat="45.686390224285326" lon="9.06575187964095"><ele>267.5</ele><time>2026-04-23T17:12:14.999Z</time></trkpt><trkpt lat="45.686060861488876" lon="9.065633777133536"><ele>269.0</ele><time>2026-04-23T17:12:15.999Z</time></trkpt><trkpt lat="45.685937628748015" lon="9.065589588476842"><ele>269.0</ele><time>2026-04-23T17:12:16.999Z</time></trkpt><trkpt lat="45.68571798426841" lon="9.065510828618548"><ele>269.0</ele><time>2026-04-23T17:12:17.999Z</time></trkpt><trkpt lat="45.68552536406951" lon="9.065441759110895"><ele>269.0</ele><time>2026-04-23T17:12:19Z</time></trkpt><trkpt lat="45.68539315643713" lon="9.065394352240201"><ele>267.5</ele><time>2026-04-23T17:12:20Z</time></trkpt><trkpt lat="45.685148883999844" lon="9.065307927936761"><ele>266.0</ele><time>2026-04-23T17:12:21Z</time></trkpt><trkpt lat="45.68495026518355" lon="9.065240990583229"><ele>266.0</ele><time>2026-04-23T17:12:22Z</time></trkpt><trkpt lat="45.68473784664422" lon="9.065175456550387"><ele>266.0</ele><time>2026-04-23T17:12:23Z</time></trkpt><trkpt lat="45.6845063523298" lon="9.065106688134792"><ele>265.0</ele><time>2026-04-23T17:12:24Z</time></trkpt><trkpt lat="45.68430490902575" lon="9.065054123327535"><ele>264.0</ele><time>2026-04-23T17:12:25Z</time></trkpt><trkpt lat="45.6841356771304" lon="9.065016382925908"><ele>263.0</ele><time>2026-04-23T17:12:26Z</time></trkpt><trkpt lat="45.68387964609623" lon="9.064971614299374"><ele>263.33333333333337</ele><time>2026-04-23T17:12:27Z</time></trkpt><trkpt lat="45.683684055008385" lon="9.064920393474955"><ele>263.6666666666667</ele><time>2026-04-23T17:12:28Z</time></trkpt><trkpt lat="45.68343702256424" lon="9.064936798038797"><ele>264.0</ele><time>2026-04-23T17:12:29Z</time></trkpt><trkpt lat="45.68319366989436" lon="9.064862784515118"><ele>264.0</ele><time>2026-04-23T17:12:30Z</time></trkpt><trkpt lat="45.68296346476916" lon="9.064892804800293"><ele>264.0</ele><time>2026-04-23T17:12:31Z</time></trkpt><trkpt lat="45.68272493335304" lon="9.064881488537942"><ele>264.0</ele><time>2026-04-23T17:12:32Z</time></trkpt><trkpt lat="45.682492539263144" lon="9.064879723602733"><ele>264.0</ele><time>2026-04-23T17:12:33Z</time></trkpt><trkpt lat="45.6822671973877" lon="9.065023978507623"><ele>263.0</ele><time>2026-04-23T17:12:34Z</time></trkpt><trkpt lat="45.68203096681863" lon="9.065052571567985"><ele>262.0</ele><time>2026-04-23T17:12:35Z</time></trkpt><trkpt lat="45.6818013821915" lon="9.06508945863183"><ele>263.66666666666663</ele><time>2026-04-23T17:12:36Z</time></trkpt><trkpt lat="45.6815721498858" lon="9.065111651110016"><ele>265.3333333333333</ele><time>2026-04-23T17:12:37Z</time></trkpt><trkpt lat="45.68137646795374" lon="9.065144143641596"><ele>267.0</ele><time>2026-04-23T17:12:38Z</time></trkpt><trkpt lat="45.681180745934114" lon="9.065157114445343"><ele>267.3333333333333</ele><time>2026-04-23T17:12:39Z</time></trkpt><trkpt lat="45.680936406256556" lon="9.065245746718873"><ele>267.66666666666663</ele><time>2026-04-23T17:12:40Z</time></trkpt><trkpt lat="45.68076499766008" lon="9.06524513361384"><ele>268.0</ele><time>2026-04-23T17:12:41Z</time></trkpt><trkpt lat="45.68057438389101" lon="9.065271469045932"><ele>268.0</ele><time>2026-04-23T17:12:42Z</time></trkpt><trkpt lat="45.68040589587276" lon="9.065319963803198"><ele>268.0</ele><time>2026-04-23T17:12:43Z</time></trkpt><trkpt lat="45.680228870689156" lon="9.065366377872564"><ele>268.0</ele><time>2026-04-23T17:12:44Z</time></trkpt><trkpt lat="45.6800435575449" lon="9.06542232258664"><ele>267.6</ele><time>2026-04-23T17:12:45Z</time></trkpt><trkpt lat="45.679891358696395" lon="9.065426746215246"><ele>267.20000000000005</ele><time>2026-04-23T17:12:47Z</time></trkpt><trkpt lat="45.67980972185112" lon="9.065441528255965"><ele>266.8</ele><time>2026-04-23T17:12:48Z</time></trkpt><trkpt lat="45.67972145841394" lon="9.06536027957874"><ele>266.40000000000003</ele><time>2026-04-23T17:12:49Z</time></trkpt><trkpt lat="45.67964772209665" lon="9.065307190220622"><ele>266.0</ele><time>2026-04-23T17:12:50Z</time></trkpt><trkpt lat="45.679558516725194" lon="9.065106775895751"><ele>265.6666666666667</ele><time>2026-04-23T17:12:51Z</time></trkpt><trkpt lat="45.67943489916648" lon="9.064878400224451"><ele>265.3333333333333</ele><time>2026-04-23T17:12:52Z</time></trkpt><trkpt lat="45.67928949526545" lon="9.06461369184291"><ele>265.0</ele><time>2026-04-23T17:12:53Z</time></trkpt><trkpt lat="45.67918287260728" lon="9.064965472295146"><ele>265.6</ele><time>2026-04-23T17:12:54Z</time></trkpt><trkpt lat="45.679087975569736" lon="9.06502432356367"><ele>266.2</ele><time>2026-04-23T17:12:55Z</time></trkpt><trkpt lat="45.67901876032565" lon="9.065116073853307"><ele>266.8</ele><time>2026-04-23T17:12:56Z</time></trkpt><trkpt lat="45.67896327052341" lon="9.065243624503335"><ele>267.4</ele><time>2026-04-23T17:12:57Z</time></trkpt><trkpt lat="45.67891970326862" lon="9.065375022067197"><ele>268.0</ele><time>2026-04-23T17:12:58Z</time></trkpt><trkpt lat="45.678917740031444" lon="9.06555468726273"><ele>268.0</ele><time>2026-04-23T17:12:59Z</time></trkpt><trkpt lat="45.67893309610092" lon="9.065713716256873"><ele>268.0</ele><time>2026-04-23T17:13:00Z</time></trkpt><trkpt lat="45.678962976973615" lon="9.06585314571552"><ele>268.0</ele><time>2026-04-23T17:13:01Z</time></trkpt><trkpt lat="45.679055816776724" lon="9.06596695603562"><ele>268.0</ele><time>2026-04-23T17:13:02Z</time></trkpt><trkpt lat="45.679162243229335" lon="9.066039809882838"><ele>268.0</ele><time>2026-04-23T17:13:03Z</time></trkpt><trkpt lat="45.679258851850726" lon="9.066178476882907"><ele>268.0</ele><time>2026-04-23T17:13:04Z</time></trkpt><trkpt lat="45.67939546538375" lon="9.06606115789398"><ele>268.0</ele><time>2026-04-23T17:13:05Z</time></trkpt><trkpt lat="45.67951957822847" lon="9.06609423961253"><ele>268.0</ele><time>2026-04-23T17:13:06Z</time></trkpt><trkpt lat="45.67962549474423" lon="9.06608721249761"><ele>268.0</ele><time>2026-04-23T17:13:07Z</time></trkpt><trkpt lat="45.67976776584774" lon="9.066103462157356"><ele>268.0</ele><time>2026-04-23T17:13:08Z</time></trkpt><trkpt lat="45.67989711893929" lon="9.065975248151977"><ele>268.0</ele><time>2026-04-23T17:13:09Z</time></trkpt><trkpt lat="45.67991276467855" lon="9.06567445139659"><ele>268.0</ele><time>2026-04-23T17:13:10Z</time></trkpt><trkpt lat="45.68002265206486" lon="9.065574502272105"><ele>268.0</ele><time>2026-04-23T17:13:11Z</time></trkpt><trkpt lat="45.68015132910508" lon="9.065524327075453"><ele>268.0</ele><time>2026-04-23T17:13:12Z</time></trkpt><trkpt lat="45.680274693752374" lon="9.065457516489777"><ele>268.0</ele><time>2026-04-23T17:13:13Z</time></trkpt><trkpt lat="45.68046864451671" lon="9.06543721155469"><ele>268.0</ele><time>2026-04-23T17:13:14Z</time></trkpt><trkpt lat="45.68062099964017" lon="9.065389277422224"><ele>268.0</ele><time>2026-04-23T17:13:15Z</time></trkpt><trkpt lat="45.68081921859288" lon="9.065377300288489"><ele>268.0</ele><time>2026-04-23T17:13:16Z</time></trkpt><trkpt lat="45.68099269214218" lon="9.06536847538033"><ele>267.66666666666663</ele><time>2026-04-23T17:13:17Z</time></trkpt><trkpt lat="45.68117406506258" lon="9.065356866797105"><ele>267.3333333333333</ele><time>2026-04-23T17:13:18Z</time></trkpt><trkpt lat="45.681426669273534" lon="9.065244502955542"><ele>267.0</ele><time>2026-04-23T17:13:18.999Z</time></trkpt><trkpt lat="45.68174382396318" lon="9.065143456246245"><ele>264.5</ele><time>2026-04-23T17:13:19.999Z</time></trkpt><trkpt lat="45.68199710850032" lon="9.065102589252913"><ele>262.0</ele><time>2026-04-23T17:13:20.999Z</time></trkpt><trkpt lat="45.682256351539074" lon="9.065066181343344"><ele>262.0</ele><time>2026-04-23T17:13:21.999Z</time></trkpt><trkpt lat="45.68251271935246" lon="9.065026386533214"><ele>262.0</ele><time>2026-04-23T17:13:22.999Z</time></trkpt><trkpt lat="45.682757260546445" lon="9.064993277139672"><ele>263.5</ele><time>2026-04-23T17:13:23.999Z</time></trkpt><trkpt lat="45.68299944209841" lon="9.064973072435091"><ele>265.0</ele><time>2026-04-23T17:13:24.999Z</time></trkpt><trkpt lat="45.683265298048816" lon="9.064970911583833"><ele>265.0</ele><time>2026-04-23T17:13:25.999Z</time></trkpt><trkpt lat="45.68351893057457" lon="9.06499453785889"><ele>265.0</ele><time>2026-04-23T17:13:26.999Z</time></trkpt><trkpt lat="45.68377846030639" lon="9.065027922296812"><ele>264.0</ele><time>2026-04-23T17:13:27.999Z</time></trkpt><trkpt lat="45.68402406168137" lon="9.065070265273727"><ele>263.0</ele><time>2026-04-23T17:13:28.999Z</time></trkpt><trkpt lat="45.68427451807047" lon="9.065119192682058"><ele>264.5</ele><time>2026-04-23T17:13:29.999Z</time></trkpt><trkpt lat="45.68451433256859" lon="9.06518127416093"><ele>266.0</ele><time>2026-04-23T17:13:30.999Z</time></trkpt><trkpt lat="45.68475841716682" lon="9.065254615094359"><ele>266.0</ele><time>2026-04-23T17:13:31.999Z</time></trkpt><trkpt lat="45.684993918873836" lon="9.065327883639698"><ele>266.0</ele><time>2026-04-23T17:13:32.999Z</time></trkpt><trkpt lat="45.68522622118758" lon="9.065408504132634"><ele>267.5</ele><time>2026-04-23T17:13:33.999Z</time></trkpt><trkpt lat="45.68544327177355" lon="9.06548577747484"><ele>269.0</ele><time>2026-04-23T17:13:34.999Z</time></trkpt><trkpt lat="45.68566945873458" lon="9.065566883516292"><ele>269.0</ele><time>2026-04-23T17:13:35.999Z</time></trkpt><trkpt lat="45.68588721327709" lon="9.065644965746587"><ele>269.0</ele><time>2026-04-23T17:13:36.999Z</time></trkpt><trkpt lat="45.6860924607599" lon="9.065718563173997"><ele>269.0</ele><time>2026-04-23T17:13:37.999Z</time></trkpt><trkpt lat="45.68629967029912" lon="9.065792864094416"><ele>266.5</ele><time>2026-04-23T17:13:38.999Z</time></trkpt><trkpt lat="45.6865001926074" lon="9.065864767034103"><ele>264.0</ele><time>2026-04-23T17:13:39.999Z</time></trkpt><trkpt lat="45.68674541484701" lon="9.06595269854103"><ele>266.5</ele><time>2026-04-23T17:13:40.999Z</time></trkpt><trkpt lat="45.6869694219975" lon="9.066033236629453"><ele>269.0</ele><time>2026-04-23T17:13:41.999Z</time></trkpt><trkpt lat="45.68719091692878" lon="9.066112905306534"><ele>269.0</ele><time>2026-04-23T17:13:42.999Z</time></trkpt><trkpt lat="45.68740066025149" lon="9.066188347103163"><ele>269.0</ele><time>2026-04-23T17:13:43.999Z</time></trkpt><trkpt lat="45.687620318564484" lon="9.066267355183658"><ele>269.0</ele><time>2026-04-23T17:13:44.999Z</time></trkpt><trkpt lat="45.68781691889064" lon="9.06633660091378"><ele>269.0</ele><time>2026-04-23T17:13:45.999Z</time></trkpt><trkpt lat="45.68799204846899" lon="9.066396246083094"><ele>269.0</ele><time>2026-04-23T17:13:46.999Z</time></trkpt><trkpt lat="45.688194640417585" lon="9.066464187293937"><ele>269.0</ele><time>2026-04-23T17:13:47.999Z</time></trkpt><trkpt lat="45.68839553416005" lon="9.06652570879566"><ele>269.0</ele><time>2026-04-23T17:13:48.999Z</time></trkpt><trkpt lat="45.68858466452713" lon="9.066576180877579"><ele>269.0</ele><time>2026-04-23T17:13:49.999Z</time></trkpt><trkpt lat="45.68870620597716" lon="9.066578824448943"><ele>269.0</ele><time>2026-04-23T17:13:50.999Z</time></trkpt><trkpt lat="45.68882956041566" lon="9.066631593389282"><ele>269.0</ele><time>2026-04-23T17:13:51.999Z</time></trkpt><trkpt lat="45.68910982885711" lon="9.06669532605854"><ele>269.33333333333337</ele><time>2026-04-23T17:13:52.999Z</time></trkpt><trkpt lat="45.68933552936892" lon="9.066703954987466"><ele>269.6666666666667</ele><time>2026-04-23T17:13:53.999Z</time></trkpt><trkpt lat="45.6895258362351" lon="9.066720751674486"><ele>270.0</ele><time>2026-04-23T17:13:54.999Z</time></trkpt><trkpt lat="45.68973150422754" lon="9.06675113164106"><ele>270.0</ele><time>2026-04-23T17:13:55.999Z</time></trkpt><trkpt lat="45.68993470797208" lon="9.066732052688433"><ele>270.0</ele><time>2026-04-23T17:13:56.999Z</time></trkpt><trkpt lat="45.69013699308675" lon="9.066727495532978"><ele>270.0</ele><time>2026-04-23T17:13:57.999Z</time></trkpt><trkpt lat="45.69032951889334" lon="9.066718331963258"><ele>270.0</ele><time>2026-04-23T17:13:58.999Z</time></trkpt><trkpt lat="45.69055383505466" lon="9.066706714333401"><ele>270.0</ele><time>2026-04-23T17:13:59.999Z</time></trkpt><trkpt lat="45.69073917783998" lon="9.066695303700195"><ele>270.0</ele><time>2026-04-23T17:14:00.999Z</time></trkpt><trkpt lat="45.69093438773957" lon="9.066683597381635"><ele>270.3333333333333</ele><time>2026-04-23T17:14:01.999Z</time></trkpt><trkpt lat="45.691091424632624" lon="9.066674418086615"><ele>270.66666666666663</ele><time>2026-04-23T17:14:02.999Z</time></trkpt><trkpt lat="45.69125184011097" lon="9.066665041304"><ele>271.0</ele><time>2026-04-23T17:14:03.999Z</time></trkpt><trkpt lat="45.69140017060655" lon="9.066656370929328"><ele>271.0</ele><time>2026-04-23T17:14:04.999Z</time></trkpt><trkpt lat="45.69154515092655" lon="9.066647350329752"><ele>271.0</ele><time>2026-04-23T17:14:05.999Z</time></trkpt><trkpt lat="45.69169076680635" lon="9.066637974746913"><ele>271.0</ele><time>2026-04-23T17:14:06.999Z</time></trkpt><trkpt lat="45.69181887871654" lon="9.06662972267321"><ele>271.0</ele><time>2026-04-23T17:14:07.999Z</time></trkpt><trkpt lat="45.691923875974815" lon="9.066623779458585"><ele>271.6</ele><time>2026-04-23T17:14:08.999Z</time></trkpt><trkpt lat="45.692039220609864" lon="9.066612322180337"><ele>272.20000000000005</ele><time>2026-04-23T17:14:09.999Z</time></trkpt><trkpt lat="45.69211363973451" lon="9.066612864961344"><ele>272.79999999999995</ele><time>2026-04-23T17:14:10.999Z</time></trkpt><trkpt lat="45.69219081119253" lon="9.066602404460646"><ele>273.4</ele><time>2026-04-23T17:14:11.999Z</time></trkpt><trkpt lat="45.69231075714028" lon="9.06659990479368"><ele>274.0</ele><time>2026-04-23T17:14:13.999Z</time></trkpt><trkpt lat="45.69240436258315" lon="9.066592075532311"><ele>274.0</ele><time>2026-04-23T17:14:15.999Z</time></trkpt><trkpt lat="45.69247955648805" lon="9.066615569837726"><ele>274.0</ele><time>2026-04-23T17:14:17.999Z</time></trkpt><trkpt lat="45.692562750663136" lon="9.066620682306517"><ele>274.0</ele><time>2026-04-23T17:14:20.999Z</time></trkpt><trkpt lat="45.692640643593926" lon="9.06672202445753"><ele>274.0</ele><time>2026-04-23T17:14:33Z</time></trkpt><trkpt lat="45.692640094722485" lon="9.066838799703584"><ele>274.0</ele><time>2026-04-23T17:14:34Z</time></trkpt><trkpt lat="45.692684166487986" lon="9.066914191380189"><ele>274.0</ele><time>2026-04-23T17:14:35Z</time></trkpt><trkpt lat="45.692801349959744" lon="9.06701503849136"><ele>274.0</ele><time>2026-04-23T17:14:37Z</time></trkpt><trkpt lat="45.692893255443934" lon="9.06695278161866"><ele>274.0</ele><time>2026-04-23T17:14:38Z</time></trkpt><trkpt lat="45.693033857112354" lon="9.067054580021267"><ele>274.0</ele><time>2026-04-23T17:14:40Z</time></trkpt><trkpt lat="45.693139054687315" lon="9.06718203576323"><ele>274.0</ele><time>2026-04-23T17:14:41Z</time></trkpt><trkpt lat="45.69321116540699" lon="9.067264722180642"><ele>274.3333333333333</ele><time>2026-04-23T17:14:42Z</time></trkpt><trkpt lat="45.69318726683673" lon="9.067592076932268"><ele>274.6666666666667</ele><time>2026-04-23T17:14:43Z</time></trkpt><trkpt lat="45.69322666262809" lon="9.067728702710772"><ele>275.0</ele><time>2026-04-23T17:14:44Z</time></trkpt><trkpt lat="45.69329535794864" lon="9.067905098342989"><ele>275.0</ele><time>2026-04-23T17:14:45Z</time></trkpt><trkpt lat="45.69339338614182" lon="9.068152934133657"><ele>275.0</ele><time>2026-04-23T17:14:46Z</time></trkpt><trkpt lat="45.69344529245872" lon="9.068344907621197"><ele>275.0</ele><time>2026-04-23T17:14:47Z</time></trkpt><trkpt lat="45.69350951936547" lon="9.068550746734413"><ele>275.5</ele><time>2026-04-23T17:14:48Z</time></trkpt><trkpt lat="45.69358351903732" lon="9.068729864936442"><ele>276.0</ele><time>2026-04-23T17:14:49Z</time></trkpt><trkpt lat="45.69363787862231" lon="9.068894006780301"><ele>276.5</ele><time>2026-04-23T17:14:50Z</time></trkpt><trkpt lat="45.69369960188517" lon="9.069061385237772"><ele>277.0</ele><time>2026-04-23T17:14:51Z</time></trkpt><trkpt lat="45.69375231341958" lon="9.069234938314095"><ele>277.5</ele><time>2026-04-23T17:14:52Z</time></trkpt><trkpt lat="45.69379712647073" lon="9.069402888028586"><ele>278.0</ele><time>2026-04-23T17:14:53Z</time></trkpt><trkpt lat="45.69382305879912" lon="9.069535217122084"><ele>278.5</ele><time>2026-04-23T17:14:54Z</time></trkpt><trkpt lat="45.6938884611338" lon="9.069786740359476"><ele>279.0</ele><time>2026-04-23T17:14:55Z</time></trkpt><trkpt lat="45.69393025053578" lon="9.069985615471056"><ele>279.0</ele><time>2026-04-23T17:14:56Z</time></trkpt><trkpt lat="45.69397308800519" lon="9.070149468735371"><ele>279.0</ele><time>2026-04-23T17:14:57Z</time></trkpt><trkpt lat="45.69399545291898" lon="9.070291603167204"><ele>279.0</ele><time>2026-04-23T17:14:58Z</time></trkpt><trkpt lat="45.69402462546049" lon="9.070439716557106"><ele>279.0</ele><time>2026-04-23T17:14:59Z</time></trkpt><trkpt lat="45.69403867970742" lon="9.070567600492074"><ele>279.0</ele><time>2026-04-23T17:15:00Z</time></trkpt><trkpt lat="45.69406584414689" lon="9.070721188401778"><ele>279.4</ele><time>2026-04-23T17:15:01Z</time></trkpt><trkpt lat="45.69401854643858" lon="9.070921520255"><ele>279.79999999999995</ele><time>2026-04-23T17:15:03Z</time></trkpt><trkpt lat="45.694000806310235" lon="9.071031288957338"><ele>280.20000000000005</ele><time>2026-04-23T17:15:04Z</time></trkpt><trkpt lat="45.69398429468425" lon="9.071149465085732"><ele>280.6</ele><time>2026-04-23T17:15:05Z</time></trkpt><trkpt lat="45.69400357308167" lon="9.07126205244072"><ele>281.0</ele><time>2026-04-23T17:15:06Z</time></trkpt><trkpt lat="45.694094174961855" lon="9.071329203847217"><ele>281.0</ele><time>2026-04-23T17:15:07Z</time></trkpt><trkpt lat="45.69411796196417" lon="9.071479982077145"><ele>281.0</ele><time>2026-04-23T17:15:08Z</time></trkpt><trkpt lat="45.69414570348143" lon="9.07171121531235"><ele>281.0</ele><time>2026-04-23T17:15:10Z</time></trkpt><trkpt lat="45.69417240218077" lon="9.072001830562343"><ele>281.0</ele><time>2026-04-23T17:15:11Z</time></trkpt><trkpt lat="45.694209006630935" lon="9.072236409551167"><ele>281.0</ele><time>2026-04-23T17:15:12Z</time></trkpt><trkpt lat="45.69424441773408" lon="9.07250459502912"><ele>281.0</ele><time>2026-04-23T17:15:13Z</time></trkpt><trkpt lat="45.694256494301925" lon="9.072794580387045"><ele>281.0</ele><time>2026-04-23T17:15:14Z</time></trkpt><trkpt lat="45.69427476792978" lon="9.073049113620618"><ele>281.0</ele><time>2026-04-23T17:15:15Z</time></trkpt><trkpt lat="45.69428580760179" lon="9.073229969648898"><ele>281.0</ele><time>2026-04-23T17:15:16Z</time></trkpt><trkpt lat="45.69428310124228" lon="9.073458724613245"><ele>280.5</ele><time>2026-04-23T17:15:17Z</time></trkpt><trkpt lat="45.69431513949315" lon="9.073660614780403"><ele>280.0</ele><time>2026-04-23T17:15:18Z</time></trkpt><trkpt lat="45.69433408257996" lon="9.07384412824576"><ele>279.5</ele><time>2026-04-23T17:15:19Z</time></trkpt><trkpt lat="45.694358153842366" lon="9.07405906998418"><ele>279.0</ele><time>2026-04-23T17:15:19.999Z</time></trkpt><trkpt lat="45.694368656729836" lon="9.07424362096522"><ele>279.0</ele><time>2026-04-23T17:15:20.999Z</time></trkpt><trkpt lat="45.69437769073472" lon="9.074386421297381"><ele>279.0</ele><time>2026-04-23T17:15:21.999Z</time></trkpt><trkpt lat="45.6943881759407" lon="9.074496036901904"><ele>279.0</ele><time>2026-04-23T17:15:22.999Z</time></trkpt><trkpt lat="45.69445593145689" lon="9.074762741463454"><ele>279.0</ele><time>2026-04-23T17:15:23.999Z</time></trkpt><trkpt lat="45.6944777547802" lon="9.074911258542507"><ele>279.0</ele><time>2026-04-23T17:15:24.999Z</time></trkpt><trkpt lat="45.69449645746955" lon="9.07504618632061"><ele>279.0</ele><time>2026-04-23T17:15:25.999Z</time></trkpt><trkpt lat="45.69451614773396" lon="9.075176303184689"><ele>279.0</ele><time>2026-04-23T17:15:26.999Z</time></trkpt><trkpt lat="45.69453056458207" lon="9.075295775845353"><ele>279.0</ele><time>2026-04-23T17:15:27.999Z</time></trkpt><trkpt lat="45.69455916163302" lon="9.075427220510328"><ele>279.0</ele><time>2026-04-23T17:15:28.999Z</time></trkpt><trkpt lat="45.69458160768769" lon="9.075572306288825"><ele>279.0</ele><time>2026-04-23T17:15:29.999Z</time></trkpt><trkpt lat="45.69459520602969" lon="9.07570771549043"><ele>279.0</ele><time>2026-04-23T17:15:30.999Z</time></trkpt><trkpt lat="45.69461874298661" lon="9.07586380143714"><ele>279.0</ele><time>2026-04-23T17:15:31.999Z</time></trkpt><trkpt lat="45.69465652165111" lon="9.076034408181537"><ele>279.0</ele><time>2026-04-23T17:15:32.999Z</time></trkpt><trkpt lat="45.694712475646725" lon="9.076186542144898"><ele>279.4</ele><time>2026-04-23T17:15:33.999Z</time></trkpt><trkpt lat="45.694699490505684" lon="9.076317338174846"><ele>279.79999999999995</ele><time>2026-04-23T17:15:34.999Z</time></trkpt><trkpt lat="45.69470533509474" lon="9.076452599604801"><ele>280.20000000000005</ele><time>2026-04-23T17:15:35.999Z</time></trkpt><trkpt lat="45.69471815360712" lon="9.07660288626636"><ele>280.6</ele><time>2026-04-23T17:15:36.999Z</time></trkpt><trkpt lat="45.694749640754786" lon="9.076798798675282"><ele>281.0</ele><time>2026-04-23T17:15:37.999Z</time></trkpt><trkpt lat="45.69478513282895" lon="9.076967464206685"><ele>281.0</ele><time>2026-04-23T17:15:38.999Z</time></trkpt><trkpt lat="45.69481293732662" lon="9.07713801577667"><ele>281.0</ele><time>2026-04-23T17:15:39.999Z</time></trkpt><trkpt lat="45.69483187342446" lon="9.077303229794646"><ele>281.0</ele><time>2026-04-23T17:15:40.999Z</time></trkpt><trkpt lat="45.69483473562168" lon="9.077449341991047"><ele>281.0</ele><time>2026-04-23T17:15:41.999Z</time></trkpt><trkpt lat="45.69484699689561" lon="9.077592126211645"><ele>281.0</ele><time>2026-04-23T17:15:42.999Z</time></trkpt><trkpt lat="45.69485120191419" lon="9.077757119730482"><ele>281.0</ele><time>2026-04-23T17:15:43.999Z</time></trkpt><trkpt lat="45.69487170994151" lon="9.077903213109373"><ele>281.0</ele><time>2026-04-23T17:15:44.999Z</time></trkpt><trkpt lat="45.69488904141168" lon="9.078057183342997"><ele>281.0</ele><time>2026-04-23T17:15:45.999Z</time></trkpt><trkpt lat="45.694906761381986" lon="9.078215427457092"><ele>281.0</ele><time>2026-04-23T17:15:46.999Z</time></trkpt><trkpt lat="45.694932754567574" lon="9.078375259047425"><ele>281.0</ele><time>2026-04-23T17:15:47.999Z</time></trkpt><trkpt lat="45.69495386961559" lon="9.078537232250568"><ele>281.0</ele><time>2026-04-23T17:15:48.999Z</time></trkpt><trkpt lat="45.69497163421378" lon="9.078705947210977"><ele>281.0</ele><time>2026-04-23T17:15:49.999Z</time></trkpt><trkpt lat="45.69496922962616" lon="9.078890130451644"><ele>281.0</ele><time>2026-04-23T17:15:51.999Z</time></trkpt><trkpt lat="45.694964769924646" lon="9.078992280599076"><ele>281.0</ele><time>2026-04-23T17:15:52.999Z</time></trkpt><trkpt lat="45.694971246685505" lon="9.07908454913562"><ele>281.0</ele><time>2026-04-23T17:15:53.999Z</time></trkpt><trkpt lat="45.69494951864344" lon="9.07924418288455"><ele>281.0</ele><time>2026-04-23T17:15:55.999Z</time></trkpt><trkpt lat="45.694887761609706" lon="9.079422728561466"><ele>281.0</ele><time>2026-04-23T17:15:57.999Z</time></trkpt><trkpt lat="45.69486638709224" lon="9.07951118232587"><ele>281.0</ele><time>2026-04-23T17:15:58.999Z</time></trkpt><trkpt lat="45.6948591332649" lon="9.079625374584896"><ele>281.0</ele><time>2026-04-23T17:15:59.999Z</time></trkpt><trkpt lat="45.69486933537224" lon="9.079743919089744"><ele>281.0</ele><time>2026-04-23T17:16:00.999Z</time></trkpt><trkpt lat="45.6949262752789" lon="9.07982319605172"><ele>281.0</ele><time>2026-04-23T17:16:01.999Z</time></trkpt><trkpt lat="45.69496389453985" lon="9.079904167252032"><ele>281.0</ele><time>2026-04-23T17:16:02.999Z</time></trkpt><trkpt lat="45.69502656913896" lon="9.0800869321419"><ele>281.0</ele><time>2026-04-23T17:16:04.999Z</time></trkpt><trkpt lat="45.69505656877376" lon="9.080189983042562"><ele>281.0</ele><time>2026-04-23T17:16:05.999Z</time></trkpt><trkpt lat="45.69497417313713" lon="9.080377440753871"><ele>281.0</ele><time>2026-04-23T17:16:06.999Z</time></trkpt><trkpt lat="45.69504110736945" lon="9.080462544500394"><ele>281.00000000000006</ele><time>2026-04-23T17:16:07.999Z</time></trkpt><trkpt lat="45.69507262104435" lon="9.080560477458523"><ele>281.0</ele><time>2026-04-23T17:16:08.999Z</time></trkpt><trkpt lat="45.695092833633424" lon="9.080657433442653"><ele>281.0</ele><time>2026-04-23T17:16:09.999Z</time></trkpt><trkpt lat="45.695110730985704" lon="9.080745032813399"><ele>281.0</ele><time>2026-04-23T17:16:10.999Z</time></trkpt><trkpt lat="45.695130377192456" lon="9.080839760952399"><ele>281.0</ele><time>2026-04-23T17:16:11.999Z</time></trkpt><trkpt lat="45.69515795515798" lon="9.080936633706946"><ele>281.00000000000006</ele><time>2026-04-23T17:16:12.999Z</time></trkpt><trkpt lat="45.69520068108486" lon="9.081054412986685"><ele>281.0</ele><time>2026-04-23T17:16:13.999Z</time></trkpt><trkpt lat="45.69520571382593" lon="9.08123881828284"><ele>281.0</ele><time>2026-04-23T17:16:15.999Z</time></trkpt><trkpt lat="45.69522595769044" lon="9.081416107249627"><ele>281.0</ele><time>2026-04-23T17:16:17.999Z</time></trkpt><trkpt lat="45.69525506389257" lon="9.081505271568249"><ele>281.0</ele><time>2026-04-23T17:16:18.999Z</time></trkpt><trkpt lat="45.69528589297385" lon="9.081801246507222"><ele>281.0</ele><time>2026-04-23T17:16:19.999Z</time></trkpt><trkpt lat="45.69532995348128" lon="9.082014391058634"><ele>281.0</ele><time>2026-04-23T17:16:20.999Z</time></trkpt><trkpt lat="45.69536581274065" lon="9.082169180888659"><ele>281.0</ele><time>2026-04-23T17:16:21.999Z</time></trkpt><trkpt lat="45.695379907552656" lon="9.08235746737974"><ele>281.0</ele><time>2026-04-23T17:16:22.999Z</time></trkpt><trkpt lat="45.69543006191741" lon="9.082534766100753"><ele>281.0</ele><time>2026-04-23T17:16:23.999Z</time></trkpt><trkpt lat="45.695456647741146" lon="9.082723638925193"><ele>280.75</ele><time>2026-04-23T17:16:24.999Z</time></trkpt><trkpt lat="45.69549262180697" lon="9.082856910714767"><ele>280.5</ele><time>2026-04-23T17:16:25.999Z</time></trkpt><trkpt lat="45.69553438432324" lon="9.083042356102109"><ele>280.25</ele><time>2026-04-23T17:16:26.999Z</time></trkpt><trkpt lat="45.6955889428786" lon="9.083251459543048"><ele>280.0</ele><time>2026-04-23T17:16:27.999Z</time></trkpt><trkpt lat="45.69560502623392" lon="9.083449570139045"><ele>280.0</ele><time>2026-04-23T17:16:28.999Z</time></trkpt><trkpt lat="45.69564480769939" lon="9.083689013417183"><ele>280.0</ele><time>2026-04-23T17:16:29.999Z</time></trkpt><trkpt lat="45.69567904144058" lon="9.083936534719381"><ele>280.0</ele><time>2026-04-23T17:16:31Z</time></trkpt><trkpt lat="45.69569319910409" lon="9.084203399376678"><ele>280.66666666666663</ele><time>2026-04-23T17:16:32Z</time></trkpt><trkpt lat="45.69570738965177" lon="9.084466309698003"><ele>281.3333333333333</ele><time>2026-04-23T17:16:33Z</time></trkpt><trkpt lat="45.69572104544124" lon="9.084725271718261"><ele>282.0</ele><time>2026-04-23T17:16:34Z</time></trkpt><trkpt lat="45.695730344219825" lon="9.084993375569885"><ele>282.5</ele><time>2026-04-23T17:16:35Z</time></trkpt><trkpt lat="45.69575404328685" lon="9.085177898257985"><ele>283.0</ele><time>2026-04-23T17:16:36Z</time></trkpt><trkpt lat="45.69576688134653" lon="9.085374166835875"><ele>283.5</ele><time>2026-04-23T17:16:37Z</time></trkpt><trkpt lat="45.69577363111103" lon="9.085530207425025"><ele>284.0</ele><time>2026-04-23T17:16:38Z</time></trkpt><trkpt lat="45.69577814264903" lon="9.085684394471231"><ele>283.83333333333337</ele><time>2026-04-23T17:16:39Z</time></trkpt><trkpt lat="45.69578487828646" lon="9.085805625204433"><ele>283.6666666666667</ele><time>2026-04-23T17:16:40Z</time></trkpt><trkpt lat="45.69579624378741" lon="9.085940928024376"><ele>283.5</ele><time>2026-04-23T17:16:41Z</time></trkpt><trkpt lat="45.69579375708023" lon="9.08604970214344"><ele>283.3333333333333</ele><time>2026-04-23T17:16:42Z</time></trkpt><trkpt lat="45.69578597036929" lon="9.086185376267059"><ele>283.16666666666663</ele><time>2026-04-23T17:16:43Z</time></trkpt><trkpt lat="45.695763279368265" lon="9.086321566262129"><ele>283.0</ele><time>2026-04-23T17:16:44Z</time></trkpt><trkpt lat="45.69575324798112" lon="9.086419212769831"><ele>283.0</ele><time>2026-04-23T17:16:45Z</time></trkpt><trkpt lat="45.695733451155775" lon="9.086538711514818"><ele>283.0</ele><time>2026-04-23T17:16:46Z</time></trkpt><trkpt lat="45.69577023786993" lon="9.086659717288072"><ele>283.0</ele><time>2026-04-23T17:16:47Z</time></trkpt><trkpt lat="45.69582783721875" lon="9.086769934486062"><ele>283.0</ele><time>2026-04-23T17:16:48Z</time></trkpt><trkpt lat="45.69587367876973" lon="9.08683305153564"><ele>283.0</ele><time>2026-04-23T17:16:49Z</time></trkpt><trkpt lat="45.69593593438297" lon="9.087016296755822"><ele>283.5</ele><time>2026-04-23T17:16:50Z</time></trkpt><trkpt lat="45.695926147404215" lon="9.087200219771221"><ele>284.0</ele><time>2026-04-23T17:16:51Z</time></trkpt><trkpt lat="45.69598011020338" lon="9.087343308462827"><ele>284.5</ele><time>2026-04-23T17:16:52Z</time></trkpt><trkpt lat="45.696016203014736" lon="9.087476669338873"><ele>285.0</ele><time>2026-04-23T17:16:53Z</time></trkpt><trkpt lat="45.69607298272952" lon="9.08768686589546"><ele>285.0</ele><time>2026-04-23T17:16:54Z</time></trkpt><trkpt lat="45.69612373075046" lon="9.08787381535959"><ele>285.0</ele><time>2026-04-23T17:16:55Z</time></trkpt><trkpt lat="45.69620840376066" lon="9.0881056892648"><ele>285.0</ele><time>2026-04-23T17:16:56Z</time></trkpt><trkpt lat="45.69625441605273" lon="9.08823985696742"><ele>285.0</ele><time>2026-04-23T17:16:57Z</time></trkpt><trkpt lat="45.69630479407898" lon="9.08842905257513"><ele>285.5</ele><time>2026-04-23T17:16:58Z</time></trkpt><trkpt lat="45.69635332171431" lon="9.088615990674656"><ele>286.0</ele><time>2026-04-23T17:16:59Z</time></trkpt><trkpt lat="45.69638815106864" lon="9.088801746816804"><ele>286.5</ele><time>2026-04-23T17:17:00Z</time></trkpt><trkpt lat="45.696449893479254" lon="9.088993498037661"><ele>287.0</ele><time>2026-04-23T17:17:01Z</time></trkpt><trkpt lat="45.69649152162897" lon="9.089173967873693"><ele>287.0</ele><time>2026-04-23T17:17:02Z</time></trkpt><trkpt lat="45.6965286750606" lon="9.089299846712512"><ele>287.0</ele><time>2026-04-23T17:17:03Z</time></trkpt><trkpt lat="45.6966091601181" lon="9.089579721697522"><ele>287.0</ele><time>2026-04-23T17:17:04Z</time></trkpt><trkpt lat="45.69666264725013" lon="9.08977995756473"><ele>287.33333333333337</ele><time>2026-04-23T17:17:05Z</time></trkpt><trkpt lat="45.69671847296337" lon="9.089982981359993"><ele>287.6666666666667</ele><time>2026-04-23T17:17:06Z</time></trkpt><trkpt lat="45.696771446531955" lon="9.090206667145983"><ele>288.0</ele><time>2026-04-23T17:17:07Z</time></trkpt><trkpt lat="45.69685250632182" lon="9.09051181030427"><ele>288.3333333333333</ele><time>2026-04-23T17:17:08Z</time></trkpt><trkpt lat="45.6968765506152" lon="9.090806812134291"><ele>288.66666666666663</ele><time>2026-04-23T17:17:09Z</time></trkpt><trkpt lat="45.69687295038742" lon="9.090998866733482"><ele>289.0</ele><time>2026-04-23T17:17:10Z</time></trkpt><trkpt lat="45.69685922607062" lon="9.091163784969078"><ele>289.0</ele><time>2026-04-23T17:17:11Z</time></trkpt><trkpt lat="45.696845195934245" lon="9.091332702187568"><ele>289.0</ele><time>2026-04-23T17:17:12Z</time></trkpt><trkpt lat="45.696830004237306" lon="9.09146847173924"><ele>289.0</ele><time>2026-04-23T17:17:13Z</time></trkpt><trkpt lat="45.69681383542629" lon="9.091592724523988"><ele>289.0</ele><time>2026-04-23T17:17:14Z</time></trkpt><trkpt lat="45.69679365310919" lon="9.091755150750268"><ele>289.0</ele><time>2026-04-23T17:17:15Z</time></trkpt><trkpt lat="45.69674871993145" lon="9.092126171165885"><ele>288.3333333333333</ele><time>2026-04-23T17:17:16Z</time></trkpt><trkpt lat="45.69672016722531" lon="9.09236331738722"><ele>287.6666666666667</ele><time>2026-04-23T17:17:17Z</time></trkpt><trkpt lat="45.69669336642224" lon="9.092580853774807"><ele>287.0</ele><time>2026-04-23T17:17:18Z</time></trkpt><trkpt lat="45.696667201920995" lon="9.092794752947306"><ele>286.33333333333337</ele><time>2026-04-23T17:17:19Z</time></trkpt><trkpt lat="45.69664334288558" lon="9.092991493100017"><ele>285.6666666666667</ele><time>2026-04-23T17:17:20Z</time></trkpt><trkpt lat="45.69660650507139" lon="9.093220360006988"><ele>285.0</ele><time>2026-04-23T17:17:21Z</time></trkpt><trkpt lat="45.69658855597739" lon="9.093437258487848"><ele>284.6666666666667</ele><time>2026-04-23T17:17:22Z</time></trkpt><trkpt lat="45.69656845063801" lon="9.093714193590358"><ele>284.33333333333337</ele><time>2026-04-23T17:17:22.999Z</time></trkpt><trkpt lat="45.69657971824277" lon="9.093865410598927"><ele>284.0</ele><time>2026-04-23T17:17:23.999Z</time></trkpt><trkpt lat="45.69658319436851" lon="9.094078456517028"><ele>283.6666666666667</ele><time>2026-04-23T17:17:24.999Z</time></trkpt><trkpt lat="45.696613068142966" lon="9.094288650606423"><ele>283.3333333333333</ele><time>2026-04-23T17:17:25.999Z</time></trkpt><trkpt lat="45.69665444612997" lon="9.094512441890469"><ele>283.0</ele><time>2026-04-23T17:17:26.999Z</time></trkpt><trkpt lat="45.69670186596168" lon="9.094726335134323"><ele>282.0</ele><time>2026-04-23T17:17:27.999Z</time></trkpt><trkpt lat="45.69674815768555" lon="9.094947542922258"><ele>281.0</ele><time>2026-04-23T17:17:28.999Z</time></trkpt><trkpt lat="45.69680259959082" lon="9.095148420028826"><ele>280.0</ele><time>2026-04-23T17:17:29.999Z</time></trkpt><trkpt lat="45.69686178925249" lon="9.095336621461994"><ele>280.0</ele><time>2026-04-23T17:17:30.999Z</time></trkpt><trkpt lat="45.696919469117766" lon="9.095515378415362"><ele>280.0</ele><time>2026-04-23T17:17:31.999Z</time></trkpt><trkpt lat="45.69691372616971" lon="9.09568133956678"><ele>280.0</ele><time>2026-04-23T17:17:32.999Z</time></trkpt><trkpt lat="45.696949286739944" lon="9.095863016030766"><ele>280.0</ele><time>2026-04-23T17:17:33.999Z</time></trkpt><trkpt lat="45.69700061987815" lon="9.096033023466212"><ele>281.75</ele><time>2026-04-23T17:17:34.999Z</time></trkpt><trkpt lat="45.69701358098621" lon="9.096224657458988"><ele>283.5</ele><time>2026-04-23T17:17:35.999Z</time></trkpt><trkpt lat="45.69705238446802" lon="9.096394578906144"><ele>285.25</ele><time>2026-04-23T17:17:36.999Z</time></trkpt><trkpt lat="45.697066262885805" lon="9.09656204393263"><ele>287.0</ele><time>2026-04-23T17:17:37.999Z</time></trkpt><trkpt lat="45.69708007010961" lon="9.096754903021242"><ele>287.0</ele><time>2026-04-23T17:17:38.999Z</time></trkpt><trkpt lat="45.697047277493226" lon="9.096919763297578"><ele>287.0</ele><time>2026-04-23T17:17:39.999Z</time></trkpt><trkpt lat="45.69700014809919" lon="9.09709136275014"><ele>287.0</ele><time>2026-04-23T17:17:40.999Z</time></trkpt><trkpt lat="45.696911758113735" lon="9.097267300109444"><ele>287.0</ele><time>2026-04-23T17:17:41.999Z</time></trkpt><trkpt lat="45.69682545867371" lon="9.097382812049439"><ele>285.75</ele><time>2026-04-23T17:17:42.999Z</time></trkpt><trkpt lat="45.69671542890363" lon="9.09750681492983"><ele>284.5</ele><time>2026-04-23T17:17:43.999Z</time></trkpt><trkpt lat="45.69662201674388" lon="9.097600834960158"><ele>283.25</ele><time>2026-04-23T17:17:44.999Z</time></trkpt><trkpt lat="45.69648585657109" lon="9.097722188938732"><ele>282.0</ele><time>2026-04-23T17:17:45.999Z</time></trkpt><trkpt lat="45.69637603564081" lon="9.097821131019808"><ele>282.0</ele><time>2026-04-23T17:17:46.999Z</time></trkpt><trkpt lat="45.696261440709975" lon="9.097920549530244"><ele>282.0</ele><time>2026-04-23T17:17:47.999Z</time></trkpt><trkpt lat="45.69614794089871" lon="9.098023240340378"><ele>282.0</ele><time>2026-04-23T17:17:48.999Z</time></trkpt><trkpt lat="45.69603066938488" lon="9.098146191724584"><ele>282.0</ele><time>2026-04-23T17:17:49.999Z</time></trkpt><trkpt lat="45.69587279972099" lon="9.098283152167829"><ele>281.0</ele><time>2026-04-23T17:17:50.999Z</time></trkpt><trkpt lat="45.69569071430616" lon="9.098270234602625"><ele>280.0</ele><time>2026-04-23T17:17:51.999Z</time></trkpt><trkpt lat="45.69553913543868" lon="9.098361804261682"><ele>279.0</ele><time>2026-04-23T17:17:52.999Z</time></trkpt><trkpt lat="45.69539543355191" lon="9.098422292992433"><ele>279.0</ele><time>2026-04-23T17:17:53.999Z</time></trkpt><trkpt lat="45.69523104658327" lon="9.098473767227166"><ele>279.0</ele><time>2026-04-23T17:17:54.999Z</time></trkpt><trkpt lat="45.695066385388614" lon="9.098521962650032"><ele>279.0</ele><time>2026-04-23T17:17:55.999Z</time></trkpt><trkpt lat="45.69490025861635" lon="9.098559531300971"><ele>279.0</ele><time>2026-04-23T17:17:56.999Z</time></trkpt><trkpt lat="45.69471343019908" lon="9.09860048836528"><ele>279.0</ele><time>2026-04-23T17:17:57.999Z</time></trkpt><trkpt lat="45.694526666755934" lon="9.098680388363858"><ele>279.0</ele><time>2026-04-23T17:17:58.999Z</time></trkpt><trkpt lat="45.69433127774898" lon="9.098701256216934"><ele>278.3333333333333</ele><time>2026-04-23T17:17:59.999Z</time></trkpt><trkpt lat="45.694116574842184" lon="9.098703462337442"><ele>277.66666666666663</ele><time>2026-04-23T17:18:00.999Z</time></trkpt><trkpt lat="45.69397716572397" lon="9.098687636879431"><ele>277.0</ele><time>2026-04-23T17:18:01.999Z</time></trkpt><trkpt lat="45.69381383228808" lon="9.098663398163783"><ele>277.0</ele><time>2026-04-23T17:18:02.999Z</time></trkpt><trkpt lat="45.69363143963365" lon="9.09862919526772"><ele>277.0</ele><time>2026-04-23T17:18:03.999Z</time></trkpt><trkpt lat="45.693444961733114" lon="9.098586796024962"><ele>277.0</ele><time>2026-04-23T17:18:04.999Z</time></trkpt><trkpt lat="45.6932469201926" lon="9.09852082999282"><ele>277.3333333333333</ele><time>2026-04-23T17:18:05.999Z</time></trkpt><trkpt lat="45.69305499063279" lon="9.098442245526403"><ele>277.6666666666667</ele><time>2026-04-23T17:18:06.999Z</time></trkpt><trkpt lat="45.692864608612446" lon="9.098348124658811"><ele>278.0</ele><time>2026-04-23T17:18:07.999Z</time></trkpt><trkpt lat="45.692660961731285" lon="9.098222138703498"><ele>277.33333333333337</ele><time>2026-04-23T17:18:08.999Z</time></trkpt><trkpt lat="45.69247986241835" lon="9.09809301166104"><ele>276.6666666666667</ele><time>2026-04-23T17:18:09.999Z</time></trkpt><trkpt lat="45.692329715478884" lon="9.09797369252088"><ele>276.0</ele><time>2026-04-23T17:18:10.999Z</time></trkpt><trkpt lat="45.69216000058272" lon="9.097816033468762"><ele>276.0</ele><time>2026-04-23T17:18:11.999Z</time></trkpt><trkpt lat="45.69200756073153" lon="9.097664990637895"><ele>276.0</ele><time>2026-04-23T17:18:12.999Z</time></trkpt><trkpt lat="45.69183075900154" lon="9.097478638407456"><ele>276.0</ele><time>2026-04-23T17:18:13.999Z</time></trkpt><trkpt lat="45.691657058320324" lon="9.097283249355085"><ele>275.6666666666667</ele><time>2026-04-23T17:18:14.999Z</time></trkpt><trkpt lat="45.69146085160595" lon="9.097060508360947"><ele>275.33333333333337</ele><time>2026-04-23T17:18:15.999Z</time></trkpt><trkpt lat="45.691307188988525" lon="9.096888366936465"><ele>275.0</ele><time>2026-04-23T17:18:16.999Z</time></trkpt><trkpt lat="45.69115354608053" lon="9.096717657453878"><ele>275.0</ele><time>2026-04-23T17:18:17.999Z</time></trkpt><trkpt lat="45.69106625570778" lon="9.096622629775158"><ele>275.0</ele><time>2026-04-23T17:18:18.999Z</time></trkpt><trkpt lat="45.69093361837853" lon="9.096476663332554"><ele>275.0</ele><time>2026-04-23T17:18:19.999Z</time></trkpt><trkpt lat="45.69078942661244" lon="9.096316692201782"><ele>275.0</ele><time>2026-04-23T17:18:20.999Z</time></trkpt><trkpt lat="45.690603212028364" lon="9.096109523864351"><ele>275.0</ele><time>2026-04-23T17:18:21.999Z</time></trkpt><trkpt lat="45.69045508198401" lon="9.09594472549481"><ele>275.0</ele><time>2026-04-23T17:18:22.999Z</time></trkpt><trkpt lat="45.69029135373418" lon="9.095762573839693"><ele>274.0</ele><time>2026-04-23T17:18:23.999Z</time></trkpt><trkpt lat="45.690128317719946" lon="9.095582268122271"><ele>273.0</ele><time>2026-04-23T17:18:24.999Z</time></trkpt><trkpt lat="45.6899450239944" lon="9.095380352018886"><ele>272.0</ele><time>2026-04-23T17:18:25.999Z</time></trkpt><trkpt lat="45.68976709487944" lon="9.09518286221461"><ele>272.0</ele><time>2026-04-23T17:18:26.999Z</time></trkpt><trkpt lat="45.689638045481736" lon="9.095039684396138"><ele>272.0</ele><time>2026-04-23T17:18:27.999Z</time></trkpt><trkpt lat="45.6894877100359" lon="9.094874395659726"><ele>272.0</ele><time>2026-04-23T17:18:28.999Z</time></trkpt><trkpt lat="45.689322159005705" lon="9.094696143011399"><ele>271.0</ele><time>2026-04-23T17:18:29.999Z</time></trkpt><trkpt lat="45.689167502476174" lon="9.094529985774846"><ele>270.0</ele><time>2026-04-23T17:18:30.999Z</time></trkpt><trkpt lat="45.689051625714036" lon="9.094405492057998"><ele>269.0</ele><time>2026-04-23T17:18:31.999Z</time></trkpt><trkpt lat="45.688945755179645" lon="9.09429130260862"><ele>269.0</ele><time>2026-04-23T17:18:32.999Z</time></trkpt><trkpt lat="45.6887442570665" lon="9.094077911573471"><ele>269.0</ele><time>2026-04-23T17:18:33.999Z</time></trkpt><trkpt lat="45.688594326031435" lon="9.093915771695908"><ele>269.0</ele><time>2026-04-23T17:18:34.999Z</time></trkpt><trkpt lat="45.688448692909695" lon="9.093752454466369"><ele>269.0</ele><time>2026-04-23T17:18:35.999Z</time></trkpt><trkpt lat="45.6883108128799" lon="9.093597800666837"><ele>269.0</ele><time>2026-04-23T17:18:37Z</time></trkpt><trkpt lat="45.688166647884024" lon="9.093436061975796"><ele>269.0</ele><time>2026-04-23T17:18:38Z</time></trkpt><trkpt lat="45.688022639955314" lon="9.093274489671655"><ele>269.6666666666667</ele><time>2026-04-23T17:18:39Z</time></trkpt><trkpt lat="45.68788180580914" lon="9.093116476021795"><ele>270.3333333333333</ele><time>2026-04-23T17:18:40Z</time></trkpt><trkpt lat="45.68772921899393" lon="9.092945272490041"><ele>271.0</ele><time>2026-04-23T17:18:41Z</time></trkpt><trkpt lat="45.687570597155" lon="9.092812959492152"><ele>271.0</ele><time>2026-04-23T17:18:42Z</time></trkpt><trkpt lat="45.68741849357559" lon="9.09268100913064"><ele>271.0</ele><time>2026-04-23T17:18:43Z</time></trkpt><trkpt lat="45.68730088373001" lon="9.092485910235375"><ele>271.0</ele><time>2026-04-23T17:18:44Z</time></trkpt><trkpt lat="45.68715864453102" lon="9.092300963199468"><ele>271.0</ele><time>2026-04-23T17:18:45Z</time></trkpt><trkpt lat="45.68703523667271" lon="9.092107993947076"><ele>271.0</ele><time>2026-04-23T17:18:46Z</time></trkpt><trkpt lat="45.68691484573793" lon="9.091913044515024"><ele>271.0</ele><time>2026-04-23T17:18:47Z</time></trkpt><trkpt lat="45.68678608636717" lon="9.091659342119419"><ele>270.0</ele><time>2026-04-23T17:18:48Z</time></trkpt><trkpt lat="45.686679436824754" lon="9.091457856959485"><ele>269.0</ele><time>2026-04-23T17:18:49Z</time></trkpt><trkpt lat="45.68655658508666" lon="9.091231442246693"><ele>268.0</ele><time>2026-04-23T17:18:50Z</time></trkpt><trkpt lat="45.68643495189788" lon="9.091033419030353"><ele>268.0</ele><time>2026-04-23T17:18:51Z</time></trkpt><trkpt lat="45.68634367123288" lon="9.09084539333359"><ele>268.0</ele><time>2026-04-23T17:18:52Z</time></trkpt><trkpt lat="45.68618622125328" lon="9.090668196106543"><ele>268.0</ele><time>2026-04-23T17:18:53Z</time></trkpt><trkpt lat="45.68608891167437" lon="9.090510098069814"><ele>268.0</ele><time>2026-04-23T17:18:54Z</time></trkpt><trkpt lat="45.685938551968455" lon="9.090328493544662"><ele>268.0</ele><time>2026-04-23T17:18:55Z</time></trkpt><trkpt lat="45.685717525284815" lon="9.090342683489746"><ele>268.0</ele><time>2026-04-23T17:18:56Z</time></trkpt><trkpt lat="45.68556999652028" lon="9.09027026845918"><ele>268.0</ele><time>2026-04-23T17:18:57Z</time></trkpt><trkpt lat="45.68536579441344" lon="9.090226980213579"><ele>268.0</ele><time>2026-04-23T17:18:58Z</time></trkpt><trkpt lat="45.68518621653197" lon="9.090216782356901"><ele>268.0</ele><time>2026-04-23T17:18:59Z</time></trkpt><trkpt lat="45.685000289087405" lon="9.090243798387371"><ele>267.0</ele><time>2026-04-23T17:19:00Z</time></trkpt><trkpt lat="45.68483392162586" lon="9.090302604493544"><ele>266.0</ele><time>2026-04-23T17:19:01Z</time></trkpt><trkpt lat="45.68468715687476" lon="9.090400392554937"><ele>265.0</ele><time>2026-04-23T17:19:02Z</time></trkpt><trkpt lat="45.6845411667575" lon="9.090532811284373"><ele>265.3333333333333</ele><time>2026-04-23T17:19:03Z</time></trkpt><trkpt lat="45.68442492186394" lon="9.090703767046081"><ele>265.6666666666667</ele><time>2026-04-23T17:19:04Z</time></trkpt><trkpt lat="45.684316478187775" lon="9.090901087977628"><ele>266.0</ele><time>2026-04-23T17:19:05Z</time></trkpt><trkpt lat="45.68423120666493" lon="9.091104336877306"><ele>266.0</ele><time>2026-04-23T17:19:06Z</time></trkpt><trkpt lat="45.684152585692686" lon="9.091312894134745"><ele>266.0</ele><time>2026-04-23T17:19:07Z</time></trkpt><trkpt lat="45.68410317535068" lon="9.09157150831035"><ele>266.0</ele><time>2026-04-23T17:19:08Z</time></trkpt><trkpt lat="45.6840649402865" lon="9.091825451792111"><ele>266.0</ele><time>2026-04-23T17:19:09Z</time></trkpt><trkpt lat="45.684015705468134" lon="9.092083166893483"><ele>266.0</ele><time>2026-04-23T17:19:10Z</time></trkpt><trkpt lat="45.68398328930372" lon="9.092336630288685"><ele>266.0</ele><time>2026-04-23T17:19:11Z</time></trkpt><trkpt lat="45.683945053292426" lon="9.092586662512955"><ele>266.0</ele><time>2026-04-23T17:19:12Z</time></trkpt><trkpt lat="45.68390831684776" lon="9.092829920245434"><ele>266.0</ele><time>2026-04-23T17:19:13Z</time></trkpt><trkpt lat="45.683863929556246" lon="9.09302441327846"><ele>266.0</ele><time>2026-04-23T17:19:14Z</time></trkpt><trkpt lat="45.68380990993267" lon="9.093287705793921"><ele>265.33333333333337</ele><time>2026-04-23T17:19:15Z</time></trkpt><trkpt lat="45.683745972973476" lon="9.09354598489861"><ele>264.6666666666667</ele><time>2026-04-23T17:19:16Z</time></trkpt><trkpt lat="45.683685666354954" lon="9.093799085561823"><ele>264.0</ele><time>2026-04-23T17:19:17Z</time></trkpt><trkpt lat="45.68362020214141" lon="9.094051582125985"><ele>263.6666666666667</ele><time>2026-04-23T17:19:18Z</time></trkpt><trkpt lat="45.68354953524629" lon="9.094277295572132"><ele>263.33333333333337</ele><time>2026-04-23T17:19:19Z</time></trkpt><trkpt lat="45.683498145059865" lon="9.094558600367678"><ele>263.0</ele><time>2026-04-23T17:19:20Z</time></trkpt><trkpt lat="45.683455074488826" lon="9.09485346150604"><ele>262.5</ele><time>2026-04-23T17:19:21Z</time></trkpt><trkpt lat="45.68338063792913" lon="9.095133786167063"><ele>262.0</ele><time>2026-04-23T17:19:22Z</time></trkpt><trkpt lat="45.68332382233287" lon="9.095539385184253"><ele>263.5</ele><time>2026-04-23T17:19:23Z</time></trkpt><trkpt lat="45.68326138501832" lon="9.095880969558902"><ele>265.0</ele><time>2026-04-23T17:19:24Z</time></trkpt><trkpt lat="45.68320810000537" lon="9.096193663844781"><ele>266.0</ele><time>2026-04-23T17:19:25Z</time></trkpt><trkpt lat="45.683149654944444" lon="9.096609142171122"><ele>267.0</ele><time>2026-04-23T17:19:26Z</time></trkpt><trkpt lat="45.68310411776998" lon="9.09698947088148"><ele>267.0</ele><time>2026-04-23T17:19:27Z</time></trkpt><trkpt lat="45.68306512625067" lon="9.097401056191728"><ele>267.0</ele><time>2026-04-23T17:19:28Z</time></trkpt><trkpt lat="45.6830506412701" lon="9.09779362120271"><ele>267.5</ele><time>2026-04-23T17:19:29Z</time></trkpt><trkpt lat="45.683018085504195" lon="9.098181109384505"><ele>268.0</ele><time>2026-04-23T17:19:30Z</time></trkpt><trkpt lat="45.682980225737424" lon="9.098566972632193"><ele>267.5</ele><time>2026-04-23T17:19:31Z</time></trkpt><trkpt lat="45.68294580714079" lon="9.098950862268577"><ele>267.0</ele><time>2026-04-23T17:19:32Z</time></trkpt><trkpt lat="45.68294654543254" lon="9.099375543953078"><ele>267.0</ele><time>2026-04-23T17:19:33Z</time></trkpt><trkpt lat="45.682937497921515" lon="9.099785333047812"><ele>267.0</ele><time>2026-04-23T17:19:34Z</time></trkpt><trkpt lat="45.682912598159405" lon="9.100185324039021"><ele>267.5</ele><time>2026-04-23T17:19:35Z</time></trkpt><trkpt lat="45.68289553172676" lon="9.100583238379599"><ele>268.0</ele><time>2026-04-23T17:19:36Z</time></trkpt><trkpt lat="45.682881729533506" lon="9.100983647652907"><ele>268.0</ele><time>2026-04-23T17:19:36.999Z</time></trkpt><trkpt lat="45.682862648360725" lon="9.101368625691423"><ele>268.0</ele><time>2026-04-23T17:19:37.999Z</time></trkpt><trkpt lat="45.682846797912774" lon="9.10165493585201"><ele>268.0</ele><time>2026-04-23T17:19:38.999Z</time></trkpt><trkpt lat="45.682851264317286" lon="9.101963615235203"><ele>268.0</ele><time>2026-04-23T17:19:39.999Z</time></trkpt><trkpt lat="45.68280609891211" lon="9.102337941671225"><ele>265.5</ele><time>2026-04-23T17:19:40.999Z</time></trkpt><trkpt lat="45.68272907052298" lon="9.102807860559643"><ele>263.0</ele><time>2026-04-23T17:19:41.999Z</time></trkpt><trkpt lat="45.68266486670422" lon="9.103217621727312"><ele>264.0</ele><time>2026-04-23T17:19:42.999Z</time></trkpt><trkpt lat="45.68255309251442" lon="9.103574078882836"><ele>265.0</ele><time>2026-04-23T17:19:43.999Z</time></trkpt><trkpt lat="45.682485241579286" lon="9.103953999445462"><ele>264.5</ele><time>2026-04-23T17:19:44.999Z</time></trkpt><trkpt lat="45.68237394499058" lon="9.104327907281858"><ele>264.0</ele><time>2026-04-23T17:19:45.999Z</time></trkpt><trkpt lat="45.68222986222226" lon="9.104713609818374"><ele>264.5</ele><time>2026-04-23T17:19:46.999Z</time></trkpt><trkpt lat="45.682093931872934" lon="9.10506719450956"><ele>265.0</ele><time>2026-04-23T17:19:47.999Z</time></trkpt><trkpt lat="45.68190446467304" lon="9.105440662473763"><ele>266.5</ele><time>2026-04-23T17:19:48.999Z</time></trkpt><trkpt lat="45.681740712196294" lon="9.105782570665541"><ele>268.0</ele><time>2026-04-23T17:19:49.999Z</time></trkpt><trkpt lat="45.68156777865482" lon="9.106142541102384"><ele>268.0</ele><time>2026-04-23T17:19:50.999Z</time></trkpt><trkpt lat="45.68140003984023" lon="9.106499835834857"><ele>268.0</ele><time>2026-04-23T17:19:51.999Z</time></trkpt><trkpt lat="45.68122689455652" lon="9.106867244350063"><ele>266.5</ele><time>2026-04-23T17:19:53.015Z</time></trkpt><trkpt lat="45.681060495720835" lon="9.107224307468561"><ele>265.0</ele><time>2026-04-23T17:19:54.015Z</time></trkpt><trkpt lat="45.680876276138704" lon="9.107576593669014"><ele>262.5</ele><time>2026-04-23T17:19:55.02Z</time></trkpt><trkpt lat="45.680709345136485" lon="9.107930571916407"><ele>260.0</ele><time>2026-04-23T17:19:56.02Z</time></trkpt><trkpt lat="45.68035748791478" lon="9.108078153812427"><ele>259.0</ele><time>2026-04-23T17:19:56.999Z</time></trkpt><trkpt lat="45.68017943005714" lon="9.108372632480831"><ele>258.0</ele><time>2026-04-23T17:19:57.999Z</time></trkpt><trkpt lat="45.67971497486953" lon="9.108178072844888"><ele>257.0</ele><time>2026-04-23T17:19:58.999Z</time></trkpt><trkpt lat="45.67943713198468" lon="9.108344370353501"><ele>256.0</ele><time>2026-04-23T17:19:59.999Z</time></trkpt><trkpt lat="45.6791817676089" lon="9.108574760480307"><ele>256.0</ele><time>2026-04-23T17:20:00.999Z</time></trkpt><trkpt lat="45.67890643218845" lon="9.108763097830957"><ele>256.0</ele><time>2026-04-23T17:20:01.999Z</time></trkpt><trkpt lat="45.678740466653124" lon="9.108991931916293"><ele>254.5</ele><time>2026-04-23T17:20:02.999Z</time></trkpt><trkpt lat="45.67853119468136" lon="9.109144495237597"><ele>253.0</ele><time>2026-04-23T17:20:03.999Z</time></trkpt><trkpt lat="45.67834954764823" lon="9.109364557439878"><ele>254.0</ele><time>2026-04-23T17:20:04.999Z</time></trkpt><trkpt lat="45.67774069155911" lon="9.109189643134505"><ele>254.0</ele><time>2026-04-23T17:20:05.999Z</time></trkpt><trkpt lat="45.67741447969851" lon="9.109276839617594"><ele>254.0</ele><time>2026-04-23T17:20:06.999Z</time></trkpt><trkpt lat="45.67709516670362" lon="9.109364181546727"><ele>253.0</ele><time>2026-04-23T17:20:07.999Z</time></trkpt><trkpt lat="45.676797301648804" lon="9.109450665514087"><ele>252.0</ele><time>2026-04-23T17:20:08.999Z</time></trkpt><trkpt lat="45.676503418081715" lon="9.109550043062027"><ele>252.0</ele><time>2026-04-23T17:20:09.999Z</time></trkpt><trkpt lat="45.676190294418625" lon="9.10965022301744"><ele>252.0</ele><time>2026-04-23T17:20:10.999Z</time></trkpt><trkpt lat="45.675868832317086" lon="9.109752629882228"><ele>251.5</ele><time>2026-04-23T17:20:11.999Z</time></trkpt><trkpt lat="45.67558288250469" lon="9.109907816425377"><ele>251.0</ele><time>2026-04-23T17:20:12.999Z</time></trkpt><trkpt lat="45.6752926490517" lon="9.110056645689953"><ele>249.0</ele><time>2026-04-23T17:20:13.999Z</time></trkpt><trkpt lat="45.67501621031253" lon="9.110258022983041"><ele>247.0</ele><time>2026-04-23T17:20:14.999Z</time></trkpt><trkpt lat="45.67476404847076" lon="9.110422482996775"><ele>247.0</ele><time>2026-04-23T17:20:15.999Z</time></trkpt><trkpt lat="45.67450510837087" lon="9.110659132494554"><ele>247.0</ele><time>2026-04-23T17:20:16.999Z</time></trkpt><trkpt lat="45.67426585129456" lon="9.110919281913988"><ele>249.0</ele><time>2026-04-23T17:20:17.999Z</time></trkpt><trkpt lat="45.67403321241421" lon="9.111155581722873"><ele>251.0</ele><time>2026-04-23T17:20:18.999Z</time></trkpt><trkpt lat="45.6737918434233" lon="9.111391105917308"><ele>249.5</ele><time>2026-04-23T17:20:19.999Z</time></trkpt><trkpt lat="45.673544557493386" lon="9.11163199271115"><ele>248.0</ele><time>2026-04-23T17:20:21.024Z</time></trkpt><trkpt lat="45.67330324173262" lon="9.11186730270015"><ele>248.0</ele><time>2026-04-23T17:20:22.025Z</time></trkpt><trkpt lat="45.67306398025083" lon="9.112103032546877"><ele>248.0</ele><time>2026-04-23T17:20:23.023Z</time></trkpt><trkpt lat="45.67282342648537" lon="9.112338320437638"><ele>246.5</ele><time>2026-04-23T17:20:24.022Z</time></trkpt><trkpt lat="45.67258615637697" lon="9.112567480674246"><ele>245.0</ele><time>2026-04-23T17:20:24.999Z</time></trkpt><trkpt lat="45.67256612476975" lon="9.113423430818038"><ele>243.5</ele><time>2026-04-23T17:20:25.999Z</time></trkpt><trkpt lat="45.672367412683954" lon="9.113789301900574"><ele>242.0</ele><time>2026-04-23T17:20:26.999Z</time></trkpt><trkpt lat="45.67218026124584" lon="9.114189793280161"><ele>242.0</ele><time>2026-04-23T17:20:27.999Z</time></trkpt><trkpt lat="45.671978730490515" lon="9.114516658743499"><ele>242.0</ele><time>2026-04-23T17:20:28.999Z</time></trkpt><trkpt lat="45.67177034214285" lon="9.114872538796476"><ele>241.0</ele><time>2026-04-23T17:20:29.999Z</time></trkpt><trkpt lat="45.67157897195919" lon="9.115188682807506"><ele>240.0</ele><time>2026-04-23T17:20:30.999Z</time></trkpt><trkpt lat="45.67136162743168" lon="9.115539432742166"><ele>239.5</ele><time>2026-04-23T17:20:31.999Z</time></trkpt><trkpt lat="45.67114001855709" lon="9.115899798365376"><ele>239.0</ele><time>2026-04-23T17:20:32.999Z</time></trkpt><trkpt lat="45.670931171057724" lon="9.116245226624953"><ele>239.5</ele><time>2026-04-23T17:20:33.999Z</time></trkpt><trkpt lat="45.67072802028445" lon="9.116559035040838"><ele>240.0</ele><time>2026-04-23T17:20:34.999Z</time></trkpt><trkpt lat="45.67052248387718" lon="9.116901231247194"><ele>240.0</ele><time>2026-04-23T17:20:35.999Z</time></trkpt><trkpt lat="45.670310752847534" lon="9.11724087850635"><ele>240.0</ele><time>2026-04-23T17:20:36.999Z</time></trkpt><trkpt lat="45.67011354108757" lon="9.117582898061805"><ele>239.0</ele><time>2026-04-23T17:20:37.999Z</time></trkpt><trkpt lat="45.66990237925926" lon="9.117912158155177"><ele>238.0</ele><time>2026-04-23T17:20:38.999Z</time></trkpt><trkpt lat="45.66969152397285" lon="9.118234341819024"><ele>238.5</ele><time>2026-04-23T17:20:39.999Z</time></trkpt><trkpt lat="45.66950865034661" lon="9.118599885409273"><ele>239.0</ele><time>2026-04-23T17:20:40.999Z</time></trkpt><trkpt lat="45.669322679047454" lon="9.118926794992966"><ele>238.5</ele><time>2026-04-23T17:20:41.999Z</time></trkpt><trkpt lat="45.66912873796604" lon="9.119260837166589"><ele>238.0</ele><time>2026-04-23T17:20:43Z</time></trkpt><trkpt lat="45.66893253378219" lon="9.119599911851205"><ele>238.0</ele><time>2026-04-23T17:20:44Z</time></trkpt><trkpt lat="45.6687551234249" lon="9.11990483977178"><ele>238.0</ele><time>2026-04-23T17:20:45Z</time></trkpt><trkpt lat="45.66855921290541" lon="9.120216976172628"><ele>237.0</ele><time>2026-04-23T17:20:46Z</time></trkpt><trkpt lat="45.66838328967324" lon="9.120489522307137"><ele>236.0</ele><time>2026-04-23T17:20:47Z</time></trkpt><trkpt lat="45.66818081733641" lon="9.120736212381622"><ele>236.0</ele><time>2026-04-23T17:20:48Z</time></trkpt><trkpt lat="45.667955070236566" lon="9.120950634781035"><ele>236.0</ele><time>2026-04-23T17:20:49Z</time></trkpt><trkpt lat="45.66772069281733" lon="9.121152487827963"><ele>237.5</ele><time>2026-04-23T17:20:50Z</time></trkpt><trkpt lat="45.66745440373631" lon="9.121298571416643"><ele>239.0</ele><time>2026-04-23T17:20:51Z</time></trkpt><trkpt lat="45.66720305663116" lon="9.121456380678241"><ele>238.0</ele><time>2026-04-23T17:20:52Z</time></trkpt><trkpt lat="45.66694062832335" lon="9.121616961147083"><ele>237.0</ele><time>2026-04-23T17:20:53.02Z</time></trkpt><trkpt lat="45.66668144962768" lon="9.121774705900137"><ele>237.0</ele><time>2026-04-23T17:20:54.025Z</time></trkpt><trkpt lat="45.66642111087383" lon="9.121901177024782"><ele>237.0</ele><time>2026-04-23T17:20:55.024Z</time></trkpt><trkpt lat="45.66616197404519" lon="9.121688260297114"><ele>238.0</ele><time>2026-04-23T17:20:56Z</time></trkpt><trkpt lat="45.66592077896145" lon="9.121829868359189"><ele>239.0</ele><time>2026-04-23T17:20:57Z</time></trkpt><trkpt lat="45.66568264559469" lon="9.122043638911347"><ele>239.0</ele><time>2026-04-23T17:20:58Z</time></trkpt><trkpt lat="45.66544885467095" lon="9.122279018689321"><ele>239.0</ele><time>2026-04-23T17:20:59Z</time></trkpt><trkpt lat="45.66531294413835" lon="9.122508121266252"><ele>237.5</ele><time>2026-04-23T17:21:00Z</time></trkpt><trkpt lat="45.66515348424086" lon="9.122804643637425"><ele>236.0</ele><time>2026-04-23T17:21:01Z</time></trkpt><trkpt lat="45.66500998604193" lon="9.123123419623177"><ele>235.5</ele><time>2026-04-23T17:21:02Z</time></trkpt><trkpt lat="45.66488872585136" lon="9.123436994625264"><ele>235.0</ele><time>2026-04-23T17:21:03Z</time></trkpt><trkpt lat="45.664773457916475" lon="9.123794792671543"><ele>235.0</ele><time>2026-04-23T17:21:04Z</time></trkpt><trkpt lat="45.66468168429146" lon="9.124164825487028"><ele>235.0</ele><time>2026-04-23T17:21:05Z</time></trkpt><trkpt lat="45.66471448924504" lon="9.124530961777557"><ele>234.0</ele><time>2026-04-23T17:21:06Z</time></trkpt><trkpt lat="45.6647087134207" lon="9.124917523735139"><ele>233.0</ele><time>2026-04-23T17:21:07Z</time></trkpt><trkpt lat="45.664687023147195" lon="9.125301935521648"><ele>233.0</ele><time>2026-04-23T17:21:08Z</time></trkpt><trkpt lat="45.66464944687039" lon="9.125693622475364"><ele>233.0</ele><time>2026-04-23T17:21:09Z</time></trkpt><trkpt lat="45.66460486643236" lon="9.126068231576383"><ele>232.0</ele><time>2026-04-23T17:21:10Z</time></trkpt><trkpt lat="45.66454371163176" lon="9.12643869058696"><ele>231.0</ele><time>2026-04-23T17:21:11Z</time></trkpt><trkpt lat="45.66443706758903" lon="9.126785827360642"><ele>231.0</ele><time>2026-04-23T17:21:12Z</time></trkpt><trkpt lat="45.66430760694594" lon="9.127171684914154"><ele>231.0</ele><time>2026-04-23T17:21:13Z</time></trkpt><trkpt lat="45.664162853951275" lon="9.127509375483445"><ele>231.5</ele><time>2026-04-23T17:21:14Z</time></trkpt><trkpt lat="45.663997398077136" lon="9.127846708159804"><ele>232.0</ele><time>2026-04-23T17:21:15Z</time></trkpt><trkpt lat="45.66380667803816" lon="9.128165958401022"><ele>231.5</ele><time>2026-04-23T17:21:16Z</time></trkpt><trkpt lat="45.66359963302796" lon="9.128466689309068"><ele>231.0</ele><time>2026-04-23T17:21:17Z</time></trkpt><trkpt lat="45.663381089127355" lon="9.128778430589884"><ele>228.5</ele><time>2026-04-23T17:21:18Z</time></trkpt><trkpt lat="45.66315981151115" lon="9.129094792731415"><ele>226.0</ele><time>2026-04-23T17:21:19Z</time></trkpt><trkpt lat="45.66292968265653" lon="9.12942856687639"><ele>225.5</ele><time>2026-04-23T17:21:20Z</time></trkpt><trkpt lat="45.6627147663081" lon="9.1297410997234"><ele>225.0</ele><time>2026-04-23T17:21:21Z</time></trkpt><trkpt lat="45.66250059604191" lon="9.130050392747037"><ele>225.0</ele><time>2026-04-23T17:21:22Z</time></trkpt><trkpt lat="45.66227582413566" lon="9.130375857296"><ele>225.0</ele><time>2026-04-23T17:21:23Z</time></trkpt><trkpt lat="45.66206203197895" lon="9.130685710293058"><ele>225.0</ele><time>2026-04-23T17:21:24Z</time></trkpt><trkpt lat="45.66185016958958" lon="9.130992343659294"><ele>225.0</ele><time>2026-04-23T17:21:25Z</time></trkpt><trkpt lat="45.66164703755459" lon="9.131286200959725"><ele>224.0</ele><time>2026-04-23T17:21:26Z</time></trkpt><trkpt lat="45.66144085283732" lon="9.131584480968932"><ele>223.0</ele><time>2026-04-23T17:21:27Z</time></trkpt><trkpt lat="45.66121568043307" lon="9.13191022859626"><ele>223.0</ele><time>2026-04-23T17:21:28Z</time></trkpt><trkpt lat="45.66100042684149" lon="9.132221627544052"><ele>223.0</ele><time>2026-04-23T17:21:29Z</time></trkpt><trkpt lat="45.66077996090771" lon="9.132540567028018"><ele>223.0</ele><time>2026-04-23T17:21:30Z</time></trkpt><trkpt lat="45.66057186688305" lon="9.132841695763718"><ele>223.0</ele><time>2026-04-23T17:21:31Z</time></trkpt><trkpt lat="45.660356551884284" lon="9.133153407773525"><ele>222.0</ele><time>2026-04-23T17:21:32Z</time></trkpt><trkpt lat="45.660143900521604" lon="9.13346104263341"><ele>221.0</ele><time>2026-04-23T17:21:33Z</time></trkpt><trkpt lat="45.65993597324389" lon="9.13376090098437"><ele>220.0</ele><time>2026-04-23T17:21:34Z</time></trkpt><trkpt lat="45.65971417032131" lon="9.134081156058901"><ele>219.0</ele><time>2026-04-23T17:21:35Z</time></trkpt><trkpt lat="45.65949499302192" lon="9.134397619962073"><ele>220.0</ele><time>2026-04-23T17:21:36Z</time></trkpt><trkpt lat="45.659282649723195" lon="9.134729776779484"><ele>221.0</ele><time>2026-04-23T17:21:37Z</time></trkpt><trkpt lat="45.65907781311939" lon="9.135000243303566"><ele>221.5</ele><time>2026-04-23T17:21:38Z</time></trkpt><trkpt lat="45.658866598878575" lon="9.135306348586546"><ele>222.0</ele><time>2026-04-23T17:21:39Z</time></trkpt><trkpt lat="45.65866452897635" lon="9.135598154632397"><ele>220.5</ele><time>2026-04-23T17:21:40Z</time></trkpt><trkpt lat="45.658447573433676" lon="9.135916834493527"><ele>219.0</ele><time>2026-04-23T17:21:41Z</time></trkpt><trkpt lat="45.6582487197947" lon="9.136227326325416"><ele>218.5</ele><time>2026-04-23T17:21:42Z</time></trkpt><trkpt lat="45.65806133431068" lon="9.136593281921785"><ele>218.0</ele><time>2026-04-23T17:21:43Z</time></trkpt><trkpt lat="45.657863087767566" lon="9.136968836401815"><ele>218.5</ele><time>2026-04-23T17:21:44Z</time></trkpt><trkpt lat="45.65770550513636" lon="9.13731844235999"><ele>219.0</ele><time>2026-04-23T17:21:45Z</time></trkpt><trkpt lat="45.65755547414587" lon="9.13769142483045"><ele>218.0</ele><time>2026-04-23T17:21:46Z</time></trkpt><trkpt lat="45.65742875389897" lon="9.138083898862257"><ele>217.0</ele><time>2026-04-23T17:21:46.999Z</time></trkpt><trkpt lat="45.657310891019236" lon="9.138486894964666"><ele>216.5</ele><time>2026-04-23T17:21:47.999Z</time></trkpt><trkpt lat="45.657197543284326" lon="9.138885611308892"><ele>216.0</ele><time>2026-04-23T17:21:48.999Z</time></trkpt><trkpt lat="45.65708438471946" lon="9.139300558154739"><ele>216.0</ele><time>2026-04-23T17:21:49.999Z</time></trkpt><trkpt lat="45.65706319292386" lon="9.13974328902588"><ele>216.0</ele><time>2026-04-23T17:21:50.999Z</time></trkpt><trkpt lat="45.65700152803024" lon="9.14017004450656"><ele>216.0</ele><time>2026-04-23T17:21:51.999Z</time></trkpt><trkpt lat="45.65695608746407" lon="9.140593936167003"><ele>216.0</ele><time>2026-04-23T17:21:52.999Z</time></trkpt><trkpt lat="45.65691533153285" lon="9.141018119969882"><ele>216.0</ele><time>2026-04-23T17:21:53.999Z</time></trkpt><trkpt lat="45.6568638906182" lon="9.141453844433784"><ele>216.0</ele><time>2026-04-23T17:21:54.999Z</time></trkpt><trkpt lat="45.65679831478616" lon="9.14190964426376"><ele>216.0</ele><time>2026-04-23T17:21:55.999Z</time></trkpt><trkpt lat="45.65676420893375" lon="9.14232691024824"><ele>216.0</ele><time>2026-04-23T17:21:56.999Z</time></trkpt><trkpt lat="45.656717539630996" lon="9.14276168113653"><ele>216.0</ele><time>2026-04-23T17:21:57.999Z</time></trkpt><trkpt lat="45.65665472872656" lon="9.143211213340521"><ele>216.0</ele><time>2026-04-23T17:21:58.999Z</time></trkpt><trkpt lat="45.65661362188937" lon="9.14368201715666"><ele>215.5</ele><time>2026-04-23T17:21:59.999Z</time></trkpt><trkpt lat="45.65656528419597" lon="9.144128522496189"><ele>215.0</ele><time>2026-04-23T17:22:00.999Z</time></trkpt><trkpt lat="45.65651405536204" lon="9.144570026795412"><ele>215.0</ele><time>2026-04-23T17:22:01.999Z</time></trkpt><trkpt lat="45.65647308377561" lon="9.145039644678883"><ele>215.0</ele><time>2026-04-23T17:22:02.999Z</time></trkpt><trkpt lat="45.65642158830287" lon="9.145499827199679"><ele>215.5</ele><time>2026-04-23T17:22:03.999Z</time></trkpt><trkpt lat="45.656375479704685" lon="9.145955026742477"><ele>216.0</ele><time>2026-04-23T17:22:04.999Z</time></trkpt><trkpt lat="45.65632092232598" lon="9.146414841932963"><ele>217.0</ele><time>2026-04-23T17:22:05.999Z</time></trkpt><trkpt lat="45.656270356183725" lon="9.146872893006105"><ele>218.0</ele><time>2026-04-23T17:22:06.999Z</time></trkpt><trkpt lat="45.656219148171125" lon="9.147325916127096"><ele>217.5</ele><time>2026-04-23T17:22:07.999Z</time></trkpt><trkpt lat="45.65617204052801" lon="9.147779408418986"><ele>217.0</ele><time>2026-04-23T17:22:08.999Z</time></trkpt><trkpt lat="45.656128184099465" lon="9.148224254314826"><ele>217.0</ele><time>2026-04-23T17:22:09.999Z</time></trkpt><trkpt lat="45.65607747538323" lon="9.148665460977886"><ele>217.0</ele><time>2026-04-23T17:22:10.999Z</time></trkpt><trkpt lat="45.65603032315769" lon="9.149077371267209"><ele>217.0</ele><time>2026-04-23T17:22:11.999Z</time></trkpt><trkpt lat="45.655973791361866" lon="9.149464453803601"><ele>217.0</ele><time>2026-04-23T17:22:12.999Z</time></trkpt><trkpt lat="45.65590505916769" lon="9.149842125575082"><ele>217.0</ele><time>2026-04-23T17:22:13.999Z</time></trkpt><trkpt lat="45.655816892289884" lon="9.150217753004412"><ele>217.0</ele><time>2026-04-23T17:22:14.999Z</time></trkpt><trkpt lat="45.655717194437344" lon="9.150595608444776"><ele>216.5</ele><time>2026-04-23T17:22:15.999Z</time></trkpt><trkpt lat="45.65562393227999" lon="9.150985616481497"><ele>216.0</ele><time>2026-04-23T17:22:16.999Z</time></trkpt><trkpt lat="45.65542253247096" lon="9.151292048408925"><ele>217.0</ele><time>2026-04-23T17:22:17.999Z</time></trkpt><trkpt lat="45.65526725128712" lon="9.151629434444077"><ele>218.0</ele><time>2026-04-23T17:22:18.999Z</time></trkpt><trkpt lat="45.655057170361495" lon="9.151913422553736"><ele>218.0</ele><time>2026-04-23T17:22:19.999Z</time></trkpt><trkpt lat="45.65484711306669" lon="9.152191610863103"><ele>218.0</ele><time>2026-04-23T17:22:20.999Z</time></trkpt><trkpt lat="45.65464376887922" lon="9.152439908522942"><ele>218.0</ele><time>2026-04-23T17:22:21.999Z</time></trkpt><trkpt lat="45.65446428178468" lon="9.152680750629278"><ele>218.0</ele><time>2026-04-23T17:22:22.999Z</time></trkpt><trkpt lat="45.65415350025493" lon="9.152874508905688"><ele>217.5</ele><time>2026-04-23T17:22:23.999Z</time></trkpt><trkpt lat="45.65388689647195" lon="9.153050690483843"><ele>217.0</ele><time>2026-04-23T17:22:24.999Z</time></trkpt><trkpt lat="45.65360102381596" lon="9.153257416152355"><ele>216.5</ele><time>2026-04-23T17:22:25.999Z</time></trkpt><trkpt lat="45.65330813731353" lon="9.153475989064617"><ele>216.0</ele><time>2026-04-23T17:22:26.999Z</time></trkpt><trkpt lat="45.65302972921971" lon="9.153484389336924"><ele>215.0</ele><time>2026-04-23T17:22:27.999Z</time></trkpt><trkpt lat="45.65277222167101" lon="9.153490698725225"><ele>214.0</ele><time>2026-04-23T17:22:28.999Z</time></trkpt><trkpt lat="45.652476818710234" lon="9.153548625842724"><ele>214.0</ele><time>2026-04-23T17:22:29.999Z</time></trkpt><trkpt lat="45.65217890639733" lon="9.153567012950875"><ele>214.0</ele><time>2026-04-23T17:22:30.999Z</time></trkpt><trkpt lat="45.65191771917537" lon="9.153579926862495"><ele>214.0</ele><time>2026-04-23T17:22:31.999Z</time></trkpt><trkpt lat="45.65165808177616" lon="9.153589621462952"><ele>214.0</ele><time>2026-04-23T17:22:32.999Z</time></trkpt><trkpt lat="45.651393051761026" lon="9.153628270872769"><ele>214.5</ele><time>2026-04-23T17:22:33.999Z</time></trkpt><trkpt lat="45.651069889842574" lon="9.15368879714333"><ele>215.0</ele><time>2026-04-23T17:22:34.999Z</time></trkpt><trkpt lat="45.65080526735364" lon="9.153705710443221"><ele>215.0</ele><time>2026-04-23T17:22:35.999Z</time></trkpt><trkpt lat="45.6504992463195" lon="9.153792706513295"><ele>215.0</ele><time>2026-04-23T17:22:36.999Z</time></trkpt><trkpt lat="45.650204832977906" lon="9.153872997726086"><ele>214.5</ele><time>2026-04-23T17:22:37.999Z</time></trkpt><trkpt lat="45.649962154708284" lon="9.153948022166476"><ele>214.0</ele><time>2026-04-23T17:22:38.999Z</time></trkpt><trkpt lat="45.649702735165604" lon="9.154040932450311"><ele>214.5</ele><time>2026-04-23T17:22:39.999Z</time></trkpt><trkpt lat="45.649425404507184" lon="9.154145461564157"><ele>215.0</ele><time>2026-04-23T17:22:40.999Z</time></trkpt><trkpt lat="45.64917579402438" lon="9.154266107872141"><ele>215.0</ele><time>2026-04-23T17:22:41.999Z</time></trkpt><trkpt lat="45.64887794528795" lon="9.154368093860002"><ele>215.0</ele><time>2026-04-23T17:22:42.999Z</time></trkpt><trkpt lat="45.64860733289971" lon="9.154510215727024"><ele>215.5</ele><time>2026-04-23T17:22:43.999Z</time></trkpt><trkpt lat="45.64831503611198" lon="9.154641854658486"><ele>216.0</ele><time>2026-04-23T17:22:44.999Z</time></trkpt><trkpt lat="45.64796775362517" lon="9.154780108021315"><ele>215.5</ele><time>2026-04-23T17:22:45.999Z</time></trkpt><trkpt lat="45.64767020208306" lon="9.15490692867552"><ele>215.0</ele><time>2026-04-23T17:22:46.999Z</time></trkpt><trkpt lat="45.647394483790066" lon="9.155016030449998"><ele>215.0</ele><time>2026-04-23T17:22:47.999Z</time></trkpt><trkpt lat="45.64712130633106" lon="9.155147743652208"><ele>215.0</ele><time>2026-04-23T17:22:49Z</time></trkpt><trkpt lat="45.646864606377825" lon="9.155269459276825"><ele>214.5</ele><time>2026-04-23T17:22:50Z</time></trkpt><trkpt lat="45.64660620963457" lon="9.155389455380833"><ele>214.0</ele><time>2026-04-23T17:22:51Z</time></trkpt><trkpt lat="45.64631804580008" lon="9.15550829907233"><ele>214.0</ele><time>2026-04-23T17:22:52Z</time></trkpt><trkpt lat="45.64604685677876" lon="9.155645909223939"><ele>214.0</ele><time>2026-04-23T17:22:53Z</time></trkpt><trkpt lat="45.64574895754028" lon="9.155856083814784"><ele>214.0</ele><time>2026-04-23T17:22:54Z</time></trkpt><trkpt lat="45.64548971942937" lon="9.155916323263584"><ele>214.0</ele><time>2026-04-23T17:22:55Z</time></trkpt><trkpt lat="45.64522594509876" lon="9.156044819166437"><ele>213.0</ele><time>2026-04-23T17:22:56Z</time></trkpt><trkpt lat="45.64499653797919" lon="9.15605704847326"><ele>212.0</ele><time>2026-04-23T17:22:57Z</time></trkpt><trkpt lat="45.644726656534765" lon="9.156171218255423"><ele>211.0</ele><time>2026-04-23T17:22:58Z</time></trkpt><trkpt lat="45.64445884463093" lon="9.156289213676873"><ele>210.0</ele><time>2026-04-23T17:22:59Z</time></trkpt><trkpt lat="45.64419983196785" lon="9.156402674216416"><ele>210.0</ele><time>2026-04-23T17:23:00Z</time></trkpt><trkpt lat="45.643952598709575" lon="9.156510974810539"><ele>210.0</ele><time>2026-04-23T17:23:01Z</time></trkpt><trkpt lat="45.643797473388844" lon="9.156578322940415"><ele>210.0</ele><time>2026-04-23T17:23:02Z</time></trkpt><trkpt lat="45.643421755009655" lon="9.156740433469169"><ele>211.5</ele><time>2026-04-23T17:23:03Z</time></trkpt><trkpt lat="45.64314830734791" lon="9.156858417637006"><ele>213.0</ele><time>2026-04-23T17:23:04Z</time></trkpt><trkpt lat="45.64286374396547" lon="9.156980993403339"><ele>213.0</ele><time>2026-04-23T17:23:05Z</time></trkpt><trkpt lat="45.64259456868992" lon="9.157097064630923"><ele>213.0</ele><time>2026-04-23T17:23:06Z</time></trkpt><trkpt lat="45.642338090100694" lon="9.157208684651016"><ele>213.0</ele><time>2026-04-23T17:23:07Z</time></trkpt><trkpt lat="45.642067658189035" lon="9.157326487862443"><ele>213.0</ele><time>2026-04-23T17:23:08Z</time></trkpt><trkpt lat="45.64180662209616" lon="9.157440198188663"><ele>212.5</ele><time>2026-04-23T17:23:09Z</time></trkpt><trkpt lat="45.6415594189823" lon="9.15754832944266"><ele>212.0</ele><time>2026-04-23T17:23:10Z</time></trkpt><trkpt lat="45.641323786864056" lon="9.157651132646757"><ele>212.0</ele><time>2026-04-23T17:23:11Z</time></trkpt><trkpt lat="45.6410975617481" lon="9.157750326733236"><ele>212.0</ele><time>2026-04-23T17:23:12Z</time></trkpt><trkpt lat="45.64086503909798" lon="9.157852369530552"><ele>212.0</ele><time>2026-04-23T17:23:13Z</time></trkpt><trkpt lat="45.640625699502685" lon="9.157957039113766"><ele>212.0</ele><time>2026-04-23T17:23:14Z</time></trkpt><trkpt lat="45.6403791654494" lon="9.158065404867592"><ele>211.5</ele><time>2026-04-23T17:23:15Z</time></trkpt><trkpt lat="45.640135844058335" lon="9.158170898225162"><ele>211.0</ele><time>2026-04-23T17:23:16Z</time></trkpt><trkpt lat="45.63990148153534" lon="9.158272803781228"><ele>210.5</ele><time>2026-04-23T17:23:17Z</time></trkpt><trkpt lat="45.63967974947117" lon="9.158368079683283"><ele>210.0</ele><time>2026-04-23T17:23:18Z</time></trkpt><trkpt lat="45.63944481530474" lon="9.158470299451857"><ele>210.0</ele><time>2026-04-23T17:23:19Z</time></trkpt><trkpt lat="45.63917570741422" lon="9.158586466288138"><ele>210.0</ele><time>2026-04-23T17:23:20Z</time></trkpt><trkpt lat="45.63890532539574" lon="9.158704749486741"><ele>210.0</ele><time>2026-04-23T17:23:21Z</time></trkpt><trkpt lat="45.63866327131812" lon="9.158832292157092"><ele>210.0</ele><time>2026-04-23T17:23:22Z</time></trkpt><trkpt lat="45.638413138337405" lon="9.158941941907383"><ele>210.5</ele><time>2026-04-23T17:23:23Z</time></trkpt><trkpt lat="45.63816857136897" lon="9.159026843021636"><ele>211.0</ele><time>2026-04-23T17:23:24Z</time></trkpt><trkpt lat="45.637941495559296" lon="9.15912547423869"><ele>210.66666666666666</ele><time>2026-04-23T17:23:25Z</time></trkpt><trkpt lat="45.63776118144895" lon="9.159203794253049"><ele>210.33333333333331</ele><time>2026-04-23T17:23:26Z</time></trkpt><trkpt lat="45.637537568693155" lon="9.159300921251916"><ele>210.0</ele><time>2026-04-23T17:23:27Z</time></trkpt><trkpt lat="45.63729839549857" lon="9.159404476542209"><ele>210.0</ele><time>2026-04-23T17:23:28Z</time></trkpt><trkpt lat="45.637055150658625" lon="9.159510747386987"><ele>210.0</ele><time>2026-04-23T17:23:29Z</time></trkpt><trkpt lat="45.63680944086469" lon="9.159618229075608"><ele>209.0</ele><time>2026-04-23T17:23:30Z</time></trkpt><trkpt lat="45.636572626867434" lon="9.159721006561128"><ele>208.0</ele><time>2026-04-23T17:23:31Z</time></trkpt><trkpt lat="45.63634179557233" lon="9.159821187524189"><ele>208.5</ele><time>2026-04-23T17:23:32Z</time></trkpt><trkpt lat="45.63611625166296" lon="9.159919073878543"><ele>209.0</ele><time>2026-04-23T17:23:33Z</time></trkpt><trkpt lat="45.63586999398367" lon="9.160025877781669"><ele>209.0</ele><time>2026-04-23T17:23:34Z</time></trkpt><trkpt lat="45.63564454831917" lon="9.160123426650024"><ele>209.0</ele><time>2026-04-23T17:23:35Z</time></trkpt><trkpt lat="45.635417256325304" lon="9.16022177445807"><ele>207.5</ele><time>2026-04-23T17:23:36Z</time></trkpt><trkpt lat="45.63512915986451" lon="9.16034643191002"><ele>206.0</ele><time>2026-04-23T17:23:37Z</time></trkpt><trkpt lat="45.63483100575743" lon="9.160475441172473"><ele>206.0</ele><time>2026-04-23T17:23:38Z</time></trkpt><trkpt lat="45.63453858722685" lon="9.16062177715804"><ele>206.0</ele><time>2026-04-23T17:23:39Z</time></trkpt><trkpt lat="45.63423513105955" lon="9.160732829448076"><ele>206.0</ele><time>2026-04-23T17:23:40Z</time></trkpt><trkpt lat="45.633934939856964" lon="9.160862958060095"><ele>206.0</ele><time>2026-04-23T17:23:41Z</time></trkpt><trkpt lat="45.63363365142402" lon="9.160994471338403"><ele>206.0</ele><time>2026-04-23T17:23:42Z</time></trkpt><trkpt lat="45.63335093217105" lon="9.161117586425908"><ele>206.0</ele><time>2026-04-23T17:23:43Z</time></trkpt><trkpt lat="45.633061091376916" lon="9.161242561095303"><ele>206.5</ele><time>2026-04-23T17:23:44Z</time></trkpt><trkpt lat="45.63277639768686" lon="9.161365745020923"><ele>207.0</ele><time>2026-04-23T17:23:45Z</time></trkpt><trkpt lat="45.63249450343805" lon="9.161487924643628"><ele>207.0</ele><time>2026-04-23T17:23:46Z</time></trkpt><trkpt lat="45.63222865797905" lon="9.161603148367824"><ele>207.0</ele><time>2026-04-23T17:23:47Z</time></trkpt><trkpt lat="45.63194740493442" lon="9.161724978172618"><ele>207.0</ele><time>2026-04-23T17:23:48Z</time></trkpt><trkpt lat="45.631664390484325" lon="9.161847717362564"><ele>207.0</ele><time>2026-04-23T17:23:49Z</time></trkpt><trkpt lat="45.631402853284335" lon="9.16196303351787"><ele>207.0</ele><time>2026-04-23T17:23:49.999Z</time></trkpt><trkpt lat="45.631150788293894" lon="9.162072530802847"><ele>207.0</ele><time>2026-04-23T17:23:50.999Z</time></trkpt><trkpt lat="45.63084415064401" lon="9.162204099252621"><ele>206.5</ele><time>2026-04-23T17:23:51.999Z</time></trkpt><trkpt lat="45.63059635710781" lon="9.162310266335007"><ele>206.0</ele><time>2026-04-23T17:23:52.999Z</time></trkpt><trkpt lat="45.63033543923944" lon="9.162423319462716"><ele>205.5</ele><time>2026-04-23T17:23:53.999Z</time></trkpt><trkpt lat="45.63011991593221" lon="9.162516703491024"><ele>205.0</ele><time>2026-04-23T17:23:54.999Z</time></trkpt><trkpt lat="45.62987669787003" lon="9.162621156531285"><ele>205.0</ele><time>2026-04-23T17:23:55.999Z</time></trkpt><trkpt lat="45.629612858905524" lon="9.162733650605004"><ele>205.0</ele><time>2026-04-23T17:23:56.999Z</time></trkpt><trkpt lat="45.62936827320764" lon="9.162837935172522"><ele>204.5</ele><time>2026-04-23T17:23:57.999Z</time></trkpt><trkpt lat="45.629092891017024" lon="9.162956627479694"><ele>204.0</ele><time>2026-04-23T17:23:58.999Z</time></trkpt><trkpt lat="45.62887179690066" lon="9.1630973400545"><ele>204.0</ele><time>2026-04-23T17:23:59.999Z</time></trkpt><trkpt lat="45.62862005932103" lon="9.163220893927274"><ele>204.0</ele><time>2026-04-23T17:24:00.999Z</time></trkpt><trkpt lat="45.62837628554593" lon="9.163315138390601"><ele>204.0</ele><time>2026-04-23T17:24:01.999Z</time></trkpt><trkpt lat="45.628153855010254" lon="9.163419661336102"><ele>204.0</ele><time>2026-04-23T17:24:02.999Z</time></trkpt><trkpt lat="45.62789142461642" lon="9.163503801609899"><ele>204.0</ele><time>2026-04-23T17:24:03.999Z</time></trkpt><trkpt lat="45.627640710881494" lon="9.163614224527226"><ele>204.0</ele><time>2026-04-23T17:24:04.999Z</time></trkpt><trkpt lat="45.62741378205675" lon="9.163735497310624"><ele>204.0</ele><time>2026-04-23T17:24:05.999Z</time></trkpt><trkpt lat="45.62716959307743" lon="9.1638664021341"><ele>204.0</ele><time>2026-04-23T17:24:06.999Z</time></trkpt><trkpt lat="45.62690548835721" lon="9.163918622273638"><ele>203.0</ele><time>2026-04-23T17:24:07.999Z</time></trkpt><trkpt lat="45.62666520666323" lon="9.164012024435957"><ele>202.0</ele><time>2026-04-23T17:24:08.999Z</time></trkpt><trkpt lat="45.626433896789536" lon="9.164085814977323"><ele>202.0</ele><time>2026-04-23T17:24:09.999Z</time></trkpt><trkpt lat="45.626221013272406" lon="9.164158937881304"><ele>202.0</ele><time>2026-04-23T17:24:10.999Z</time></trkpt><trkpt lat="45.626003135642726" lon="9.164232211539382"><ele>202.0</ele><time>2026-04-23T17:24:11.999Z</time></trkpt><trkpt lat="45.62576865568347" lon="9.164301728611928"><ele>202.0</ele><time>2026-04-23T17:24:12.999Z</time></trkpt><trkpt lat="45.62553553812845" lon="9.164361212059871"><ele>202.0</ele><time>2026-04-23T17:24:13.999Z</time></trkpt><trkpt lat="45.62533213519039" lon="9.164407917323055"><ele>202.0</ele><time>2026-04-23T17:24:14.999Z</time></trkpt><trkpt lat="45.625091232383284" lon="9.164469148129513"><ele>203.0</ele><time>2026-04-23T17:24:15.999Z</time></trkpt><trkpt lat="45.62484260016143" lon="9.164510500238327"><ele>204.0</ele><time>2026-04-23T17:24:16.999Z</time></trkpt><trkpt lat="45.62458080623584" lon="9.164563307892735"><ele>203.33333333333331</ele><time>2026-04-23T17:24:17.999Z</time></trkpt><trkpt lat="45.624364353701225" lon="9.164618354670461"><ele>202.66666666666666</ele><time>2026-04-23T17:24:18.999Z</time></trkpt><trkpt lat="45.62414691078143" lon="9.164590205030919"><ele>202.0</ele><time>2026-04-23T17:24:19.999Z</time></trkpt><trkpt lat="45.623840359079026" lon="9.164640927672075"><ele>201.0</ele><time>2026-04-23T17:24:20.999Z</time></trkpt><trkpt lat="45.623569918468405" lon="9.164675200290363"><ele>200.0</ele><time>2026-04-23T17:24:21.999Z</time></trkpt><trkpt lat="45.62325593168383" lon="9.164705769437722"><ele>200.0</ele><time>2026-04-23T17:24:22.999Z</time></trkpt><trkpt lat="45.62297091902462" lon="9.164722158219671"><ele>200.0</ele><time>2026-04-23T17:24:23.999Z</time></trkpt><trkpt lat="45.62268839228914" lon="9.164744761869231"><ele>199.5</ele><time>2026-04-23T17:24:24.999Z</time></trkpt><trkpt lat="45.622408914382206" lon="9.16477010511825"><ele>199.0</ele><time>2026-04-23T17:24:25.999Z</time></trkpt><trkpt lat="45.62216333245392" lon="9.164770278952785"><ele>199.0</ele><time>2026-04-23T17:24:26.999Z</time></trkpt><trkpt lat="45.62190649552428" lon="9.164804324402398"><ele>199.0</ele><time>2026-04-23T17:24:27.999Z</time></trkpt><trkpt lat="45.621641810847564" lon="9.164858890448482"><ele>199.0</ele><time>2026-04-23T17:24:28.999Z</time></trkpt><trkpt lat="45.6213785050745" lon="9.164847416568778"><ele>199.0</ele><time>2026-04-23T17:24:29.999Z</time></trkpt><trkpt lat="45.62112169255115" lon="9.164861937340557"><ele>199.0</ele><time>2026-04-23T17:24:30.999Z</time></trkpt><trkpt lat="45.620878204107" lon="9.164867565917008"><ele>199.0</ele><time>2026-04-23T17:24:31.999Z</time></trkpt><trkpt lat="45.62063968391644" lon="9.164877044654856"><ele>199.0</ele><time>2026-04-23T17:24:32.999Z</time></trkpt><trkpt lat="45.620380842605584" lon="9.16489057319414"><ele>199.0</ele><time>2026-04-23T17:24:33.999Z</time></trkpt><trkpt lat="45.62013018410311" lon="9.164895365472933"><ele>198.5</ele><time>2026-04-23T17:24:34.999Z</time></trkpt><trkpt lat="45.61987851024224" lon="9.164928013427426"><ele>198.0</ele><time>2026-04-23T17:24:35.999Z</time></trkpt><trkpt lat="45.61963373278849" lon="9.164945285916156"><ele>197.5</ele><time>2026-04-23T17:24:36.999Z</time></trkpt><trkpt lat="45.61936051411717" lon="9.164986516229261"><ele>197.0</ele><time>2026-04-23T17:24:37.999Z</time></trkpt><trkpt lat="45.61911393357181" lon="9.165014729961435"><ele>197.0</ele><time>2026-04-23T17:24:38.999Z</time></trkpt><trkpt lat="45.61885525946671" lon="9.16501243050777"><ele>197.0</ele><time>2026-04-23T17:24:39.999Z</time></trkpt><trkpt lat="45.61858822695096" lon="9.165027509182808"><ele>196.5</ele><time>2026-04-23T17:24:40.999Z</time></trkpt><trkpt lat="45.61830875071391" lon="9.16503377090814"><ele>196.0</ele><time>2026-04-23T17:24:41.999Z</time></trkpt><trkpt lat="45.618020815478225" lon="9.16504326226665"><ele>196.5</ele><time>2026-04-23T17:24:42.999Z</time></trkpt><trkpt lat="45.61774627180084" lon="9.165052710390691"><ele>197.0</ele><time>2026-04-23T17:24:43.999Z</time></trkpt><trkpt lat="45.617496441278305" lon="9.165054966883716"><ele>197.0</ele><time>2026-04-23T17:24:44.999Z</time></trkpt><trkpt lat="45.61724956770734" lon="9.165101274301035"><ele>197.0</ele><time>2026-04-23T17:24:45.999Z</time></trkpt><trkpt lat="45.6168742254596" lon="9.165123397037169"><ele>196.0</ele><time>2026-04-23T17:24:46.999Z</time></trkpt><trkpt lat="45.61657155119371" lon="9.165138647523742"><ele>195.0</ele><time>2026-04-23T17:24:47.999Z</time></trkpt><trkpt lat="45.616277682882114" lon="9.165163888930294"><ele>194.5</ele><time>2026-04-23T17:24:48.999Z</time></trkpt><trkpt lat="45.61598771937003" lon="9.16517890849771"><ele>194.0</ele><time>2026-04-23T17:24:49.999Z</time></trkpt><trkpt lat="45.61572579758962" lon="9.165198792096446"><ele>194.0</ele><time>2026-04-23T17:24:50.999Z</time></trkpt><trkpt lat="45.61546636408271" lon="9.16522936288332"><ele>194.0</ele><time>2026-04-23T17:24:51.999Z</time></trkpt><trkpt lat="45.61511529824372" lon="9.165264732735753"><ele>194.5</ele><time>2026-04-23T17:24:52.999Z</time></trkpt><trkpt lat="45.61482965319352" lon="9.165301435389008"><ele>195.0</ele><time>2026-04-23T17:24:53.999Z</time></trkpt><trkpt lat="45.614549630178736" lon="9.165356460695248"><ele>194.5</ele><time>2026-04-23T17:24:55Z</time></trkpt><trkpt lat="45.61427384370039" lon="9.16533534508909"><ele>194.0</ele><time>2026-04-23T17:24:56Z</time></trkpt><trkpt lat="45.61398138195203" lon="9.165362519453522"><ele>194.0</ele><time>2026-04-23T17:24:57Z</time></trkpt><trkpt lat="45.613696095468285" lon="9.165372255417681"><ele>194.0</ele><time>2026-04-23T17:24:58Z</time></trkpt><trkpt lat="45.613406140765576" lon="9.16539570026734"><ele>192.0</ele><time>2026-04-23T17:24:59Z</time></trkpt><trkpt lat="45.613141320050325" lon="9.165408267368093"><ele>190.0</ele><time>2026-04-23T17:25:00Z</time></trkpt><trkpt lat="45.612868024028955" lon="9.165418847818163"><ele>189.5</ele><time>2026-04-23T17:25:01Z</time></trkpt><trkpt lat="45.61259486763555" lon="9.165430772934336"><ele>189.0</ele><time>2026-04-23T17:25:02Z</time></trkpt><trkpt lat="45.61231369748289" lon="9.165442445352777"><ele>189.0</ele><time>2026-04-23T17:25:03Z</time></trkpt><trkpt lat="45.61201758077218" lon="9.165472643794388"><ele>189.0</ele><time>2026-04-23T17:25:04Z</time></trkpt><trkpt lat="45.6117144181017" lon="9.165464265193581"><ele>189.5</ele><time>2026-04-23T17:25:05Z</time></trkpt><trkpt lat="45.61140791893049" lon="9.165484859586183"><ele>190.0</ele><time>2026-04-23T17:25:06Z</time></trkpt><trkpt lat="45.611134033245676" lon="9.165503262536692"><ele>190.0</ele><time>2026-04-23T17:25:07Z</time></trkpt><trkpt lat="45.6108786510847" lon="9.165520245664265"><ele>190.0</ele><time>2026-04-23T17:25:08Z</time></trkpt><trkpt lat="45.610548280332594" lon="9.165540435835666"><ele>190.5</ele><time>2026-04-23T17:25:09Z</time></trkpt><trkpt lat="45.61024397235654" lon="9.165559033253551"><ele>191.0</ele><time>2026-04-23T17:25:10Z</time></trkpt><trkpt lat="45.609954456094826" lon="9.165577731609844"><ele>191.0</ele><time>2026-04-23T17:25:11Z</time></trkpt><trkpt lat="45.6096857367338" lon="9.16560077797705"><ele>191.0</ele><time>2026-04-23T17:25:12Z</time></trkpt><trkpt lat="45.60942032523926" lon="9.165632720592775"><ele>190.5</ele><time>2026-04-23T17:25:13Z</time></trkpt><trkpt lat="45.60911620060395" lon="9.165685694369667"><ele>190.0</ele><time>2026-04-23T17:25:14Z</time></trkpt><trkpt lat="45.60888929111516" lon="9.165738638671868"><ele>188.0</ele><time>2026-04-23T17:25:15Z</time></trkpt><trkpt lat="45.60863690965036" lon="9.165817291652154"><ele>186.0</ele><time>2026-04-23T17:25:16Z</time></trkpt><trkpt lat="45.60836083901245" lon="9.165880311187848"><ele>186.0</ele><time>2026-04-23T17:25:17Z</time></trkpt><trkpt lat="45.60809825498532" lon="9.165973450297836"><ele>186.0</ele><time>2026-04-23T17:25:18Z</time></trkpt><trkpt lat="45.6078513616148" lon="9.166103383443177"><ele>186.5</ele><time>2026-04-23T17:25:19Z</time></trkpt><trkpt lat="45.60762536873877" lon="9.166224457452198"><ele>187.0</ele><time>2026-04-23T17:25:20Z</time></trkpt><trkpt lat="45.607391493279565" lon="9.166321896761177"><ele>187.0</ele><time>2026-04-23T17:25:21Z</time></trkpt><trkpt lat="45.607189561638734" lon="9.166452610612799"><ele>187.0</ele><time>2026-04-23T17:25:22Z</time></trkpt><trkpt lat="45.60697881122108" lon="9.166568948377078"><ele>187.0</ele><time>2026-04-23T17:25:23Z</time></trkpt><trkpt lat="45.60676180554263" lon="9.166701985748455"><ele>187.33333333333334</ele><time>2026-04-23T17:25:24Z</time></trkpt><trkpt lat="45.606570006553774" lon="9.166820023886563"><ele>187.66666666666666</ele><time>2026-04-23T17:25:25Z</time></trkpt><trkpt lat="45.60637767987098" lon="9.166938387427624"><ele>188.0</ele><time>2026-04-23T17:25:26Z</time></trkpt><trkpt lat="45.606165228063105" lon="9.167069286251312"><ele>187.5</ele><time>2026-04-23T17:25:27Z</time></trkpt><trkpt lat="45.60592101559847" lon="9.167219753366913"><ele>187.0</ele><time>2026-04-23T17:25:28Z</time></trkpt><trkpt lat="45.60562476944732" lon="9.167402280418473"><ele>187.0</ele><time>2026-04-23T17:25:29Z</time></trkpt><trkpt lat="45.60554929710574" lon="9.167448781416262"><ele>187.0</ele><time>2026-04-23T17:25:30Z</time></trkpt><trkpt lat="45.60535411373575" lon="9.167570295010856"><ele>187.0</ele><time>2026-04-23T17:25:31Z</time></trkpt><trkpt lat="45.605146852903935" lon="9.167697862264598"><ele>187.0</ele><time>2026-04-23T17:25:32Z</time></trkpt><trkpt lat="45.60493827290533" lon="9.167827034566933"><ele>187.0</ele><time>2026-04-23T17:25:33Z</time></trkpt><trkpt lat="45.604738593118796" lon="9.167951310656271"><ele>187.0</ele><time>2026-04-23T17:25:34Z</time></trkpt><trkpt lat="45.60451831353722" lon="9.168088407519972"><ele>186.0</ele><time>2026-04-23T17:25:35Z</time></trkpt><trkpt lat="45.604311714874065" lon="9.168216231997299"><ele>185.0</ele><time>2026-04-23T17:25:36Z</time></trkpt><trkpt lat="45.604112457010594" lon="9.168338965154843"><ele>184.0</ele><time>2026-04-23T17:25:37Z</time></trkpt><trkpt lat="45.6039002975375" lon="9.168469645085343"><ele>184.0</ele><time>2026-04-23T17:25:38Z</time></trkpt><trkpt lat="45.603697551630944" lon="9.168594526618634"><ele>184.0</ele><time>2026-04-23T17:25:39Z</time></trkpt><trkpt lat="45.60349825825875" lon="9.168717654812124"><ele>184.0</ele><time>2026-04-23T17:25:40Z</time></trkpt><trkpt lat="45.60329872710604" lon="9.168841748501707"><ele>184.5</ele><time>2026-04-23T17:25:41Z</time></trkpt><trkpt lat="45.60309276311341" lon="9.168969178433356"><ele>185.0</ele><time>2026-04-23T17:25:42Z</time></trkpt><trkpt lat="45.602877104973956" lon="9.169101474618483"><ele>185.5</ele><time>2026-04-23T17:25:43Z</time></trkpt><trkpt lat="45.60265950085124" lon="9.169234964401985"><ele>186.0</ele><time>2026-04-23T17:25:44Z</time></trkpt><trkpt lat="45.60242980033133" lon="9.16937463131202"><ele>186.0</ele><time>2026-04-23T17:25:45Z</time></trkpt><trkpt lat="45.60220829298838" lon="9.169508295261876"><ele>186.0</ele><time>2026-04-23T17:25:46Z</time></trkpt><trkpt lat="45.60196893604481" lon="9.169669775600939"><ele>186.0</ele><time>2026-04-23T17:25:47Z</time></trkpt><trkpt lat="45.60175483005122" lon="9.169789039583689"><ele>186.0</ele><time>2026-04-23T17:25:48Z</time></trkpt><trkpt lat="45.601523573086176" lon="9.169914119016552"><ele>185.5</ele><time>2026-04-23T17:25:49Z</time></trkpt><trkpt lat="45.601306231782175" lon="9.170048690368315"><ele>185.0</ele><time>2026-04-23T17:25:50Z</time></trkpt><trkpt lat="45.60108000314259" lon="9.170191165683432"><ele>183.5</ele><time>2026-04-23T17:25:51Z</time></trkpt><trkpt lat="45.60086213285311" lon="9.170326312995481"><ele>182.0</ele><time>2026-04-23T17:25:52Z</time></trkpt><trkpt lat="45.60064946746132" lon="9.17044735194028"><ele>182.0</ele><time>2026-04-23T17:25:53Z</time></trkpt><trkpt lat="45.60042974079298" lon="9.17055775146876"><ele>182.0</ele><time>2026-04-23T17:25:54Z</time></trkpt><trkpt lat="45.60024866165155" lon="9.170678500564444"><ele>182.0</ele><time>2026-04-23T17:25:54.999Z</time></trkpt><trkpt lat="45.6000310808903" lon="9.170809005856945"><ele>182.5</ele><time>2026-04-23T17:25:55.999Z</time></trkpt><trkpt lat="45.599782871003434" lon="9.170951458200006"><ele>183.0</ele><time>2026-04-23T17:25:56.999Z</time></trkpt><trkpt lat="45.599548297548054" lon="9.171084397130633"><ele>182.66666666666666</ele><time>2026-04-23T17:25:57.999Z</time></trkpt><trkpt lat="45.59936679156745" lon="9.171184473123661"><ele>182.33333333333331</ele><time>2026-04-23T17:25:58.999Z</time></trkpt><trkpt lat="45.59915313397049" lon="9.171322203248105"><ele>182.0</ele><time>2026-04-23T17:25:59.999Z</time></trkpt><trkpt lat="45.59895055192407" lon="9.171433600846523"><ele>182.5</ele><time>2026-04-23T17:26:00.999Z</time></trkpt><trkpt lat="45.59876035095434" lon="9.171547409655055"><ele>183.0</ele><time>2026-04-23T17:26:01.999Z</time></trkpt><trkpt lat="45.59852162441824" lon="9.171636000526812"><ele>181.0</ele><time>2026-04-23T17:26:02.999Z</time></trkpt><trkpt lat="45.598288591574985" lon="9.171712218909493"><ele>179.0</ele><time>2026-04-23T17:26:03.999Z</time></trkpt><trkpt lat="45.598033762273786" lon="9.171796856964713"><ele>179.5</ele><time>2026-04-23T17:26:04.999Z</time></trkpt><trkpt lat="45.59780211296843" lon="9.171854995260576"><ele>180.0</ele><time>2026-04-23T17:26:05.999Z</time></trkpt><trkpt lat="45.597565178718064" lon="9.171899839616996"><ele>180.0</ele><time>2026-04-23T17:26:06.999Z</time></trkpt><trkpt lat="45.59731347495723" lon="9.171970755852026"><ele>180.0</ele><time>2026-04-23T17:26:07.999Z</time></trkpt><trkpt lat="45.597044200095354" lon="9.172061560031867"><ele>178.5</ele><time>2026-04-23T17:26:08.999Z</time></trkpt><trkpt lat="45.596769702419664" lon="9.17209504025346"><ele>177.0</ele><time>2026-04-23T17:26:09.999Z</time></trkpt><trkpt lat="45.596520298795454" lon="9.172145752670511"><ele>177.0</ele><time>2026-04-23T17:26:10.999Z</time></trkpt><trkpt lat="45.59624168413164" lon="9.172172579786523"><ele>177.0</ele><time>2026-04-23T17:26:11.999Z</time></trkpt><trkpt lat="45.59597197328339" lon="9.172208077641372"><ele>178.0</ele><time>2026-04-23T17:26:12.999Z</time></trkpt><trkpt lat="45.59572022428572" lon="9.172316412637453"><ele>179.0</ele><time>2026-04-23T17:26:13.999Z</time></trkpt><trkpt lat="45.59546016409805" lon="9.172384499140824"><ele>180.0</ele><time>2026-04-23T17:26:14.999Z</time></trkpt><trkpt lat="45.59519443827959" lon="9.172463036821103"><ele>181.0</ele><time>2026-04-23T17:26:15.999Z</time></trkpt><trkpt lat="45.59493222920385" lon="9.17253772208193"><ele>181.0</ele><time>2026-04-23T17:26:16.999Z</time></trkpt><trkpt lat="45.594665351310645" lon="9.172608507193132"><ele>181.0</ele><time>2026-04-23T17:26:17.999Z</time></trkpt><trkpt lat="45.59440710406728" lon="9.17265986823486"><ele>180.0</ele><time>2026-04-23T17:26:18.999Z</time></trkpt><trkpt lat="45.59415042173183" lon="9.172712209514186"><ele>179.0</ele><time>2026-04-23T17:26:19.999Z</time></trkpt><trkpt lat="45.59389161629474" lon="9.172769752943754"><ele>178.5</ele><time>2026-04-23T17:26:20.999Z</time></trkpt><trkpt lat="45.593648499431076" lon="9.172832571824665"><ele>178.0</ele><time>2026-04-23T17:26:21.999Z</time></trkpt><trkpt lat="45.59341013676757" lon="9.172883650743998"><ele>178.0</ele><time>2026-04-23T17:26:22.999Z</time></trkpt><trkpt lat="45.59317717938225" lon="9.172937234743035"><ele>178.0</ele><time>2026-04-23T17:26:23.999Z</time></trkpt><trkpt lat="45.59295660534531" lon="9.172977341893592"><ele>178.33333333333334</ele><time>2026-04-23T17:26:24.999Z</time></trkpt><trkpt lat="45.59274003729257" lon="9.1730294113417"><ele>178.66666666666666</ele><time>2026-04-23T17:26:25.999Z</time></trkpt><trkpt lat="45.59251583656799" lon="9.173082202315635"><ele>179.0</ele><time>2026-04-23T17:26:26.999Z</time></trkpt><trkpt lat="45.59229185649749" lon="9.173130973293373"><ele>179.0</ele><time>2026-04-23T17:26:27.999Z</time></trkpt><trkpt lat="45.59206294826989" lon="9.173183552751098"><ele>179.0</ele><time>2026-04-23T17:26:28.999Z</time></trkpt><trkpt lat="45.59183910158429" lon="9.17323218943665"><ele>179.5</ele><time>2026-04-23T17:26:29.999Z</time></trkpt><trkpt lat="45.591594102719014" lon="9.17329093743931"><ele>180.0</ele><time>2026-04-23T17:26:30.999Z</time></trkpt><trkpt lat="45.59136681065003" lon="9.17332191818957"><ele>180.5</ele><time>2026-04-23T17:26:31.999Z</time></trkpt><trkpt lat="45.59112382481861" lon="9.173377262658073"><ele>181.0</ele><time>2026-04-23T17:26:32.999Z</time></trkpt><trkpt lat="45.59088701073487" lon="9.173452666439825"><ele>181.0</ele><time>2026-04-23T17:26:33.999Z</time></trkpt><trkpt lat="45.590649973214035" lon="9.173507692672326"><ele>181.0</ele><time>2026-04-23T17:26:34.999Z</time></trkpt><trkpt lat="45.590413332305815" lon="9.173560646640054"><ele>179.5</ele><time>2026-04-23T17:26:35.999Z</time></trkpt><trkpt lat="45.590175003295215" lon="9.173623133651935"><ele>178.0</ele><time>2026-04-23T17:26:36.999Z</time></trkpt><trkpt lat="45.58992549188185" lon="9.173703130594605"><ele>178.0</ele><time>2026-04-23T17:26:37.999Z</time></trkpt><trkpt lat="45.589706207465845" lon="9.173724103768208"><ele>178.0</ele><time>2026-04-23T17:26:38.999Z</time></trkpt><trkpt lat="45.58948239193739" lon="9.173764663867766"><ele>178.0</ele><time>2026-04-23T17:26:39.999Z</time></trkpt><trkpt lat="45.58929838692147" lon="9.173819875180387"><ele>177.33333333333334</ele><time>2026-04-23T17:26:40.999Z</time></trkpt><trkpt lat="45.589108010637155" lon="9.173856257883987"><ele>176.66666666666666</ele><time>2026-04-23T17:26:41.999Z</time></trkpt><trkpt lat="45.588914510048426" lon="9.17389748415005"><ele>176.0</ele><time>2026-04-23T17:26:42.999Z</time></trkpt><trkpt lat="45.58872253236206" lon="9.173931927777517"><ele>176.0</ele><time>2026-04-23T17:26:43.999Z</time></trkpt><trkpt lat="45.58851576678967" lon="9.173976128419504"><ele>176.0</ele><time>2026-04-23T17:26:44.999Z</time></trkpt><trkpt lat="45.588295847934425" lon="9.174082814187605"><ele>176.0</ele><time>2026-04-23T17:26:45.999Z</time></trkpt><trkpt lat="45.58809518122628" lon="9.17409950456071"><ele>176.0</ele><time>2026-04-23T17:26:46.999Z</time></trkpt><trkpt lat="45.5878812916081" lon="9.174134707138963"><ele>176.0</ele><time>2026-04-23T17:26:47.999Z</time></trkpt><trkpt lat="45.587709239135975" lon="9.174164500901464"><ele>176.0</ele><time>2026-04-23T17:26:48.999Z</time></trkpt><trkpt lat="45.58752122742665" lon="9.174215329721186"><ele>175.66666666666666</ele><time>2026-04-23T17:26:49.999Z</time></trkpt><trkpt lat="45.587381580274084" lon="9.17426298650923"><ele>175.33333333333334</ele><time>2026-04-23T17:26:50.999Z</time></trkpt><trkpt lat="45.58724033377263" lon="9.17427855809394"><ele>175.0</ele><time>2026-04-23T17:26:51.999Z</time></trkpt><trkpt lat="45.58700644375919" lon="9.174290066019147"><ele>175.0</ele><time>2026-04-23T17:26:52.999Z</time></trkpt><trkpt lat="45.58672663781488" lon="9.174356304215848"><ele>175.0</ele><time>2026-04-23T17:26:53.999Z</time></trkpt><trkpt lat="45.58648458634318" lon="9.174416938456684"><ele>175.0</ele><time>2026-04-23T17:26:54.999Z</time></trkpt><trkpt lat="45.5862513934546" lon="9.174488390714187"><ele>175.0</ele><time>2026-04-23T17:26:55.999Z</time></trkpt><trkpt lat="45.58601233914741" lon="9.174512083192443"><ele>174.5</ele><time>2026-04-23T17:26:56.999Z</time></trkpt><trkpt lat="45.58576346850789" lon="9.174557902718515"><ele>174.0</ele><time>2026-04-23T17:26:57.999Z</time></trkpt><trkpt lat="45.585520885393535" lon="9.17459924697701"><ele>174.5</ele><time>2026-04-23T17:26:58.999Z</time></trkpt><trkpt lat="45.585274989172134" lon="9.174648818952399"><ele>175.0</ele><time>2026-04-23T17:26:59.999Z</time></trkpt><trkpt lat="45.58505788923807" lon="9.17468612675767"><ele>175.0</ele><time>2026-04-23T17:27:01Z</time></trkpt><trkpt lat="45.58485664091002" lon="9.174727393220488"><ele>175.0</ele><time>2026-04-23T17:27:02Z</time></trkpt><trkpt lat="45.58464088526477" lon="9.174772302787844"><ele>175.0</ele><time>2026-04-23T17:27:03Z</time></trkpt><trkpt lat="45.58441659787367" lon="9.174811041039696"><ele>174.0</ele><time>2026-04-23T17:27:04Z</time></trkpt><trkpt lat="45.58418262967901" lon="9.174837079938102"><ele>173.0</ele><time>2026-04-23T17:27:05Z</time></trkpt><trkpt lat="45.583959021539215" lon="9.174890001606576"><ele>173.0</ele><time>2026-04-23T17:27:06Z</time></trkpt><trkpt lat="45.583732485732796" lon="9.174930926667622"><ele>173.0</ele><time>2026-04-23T17:27:07Z</time></trkpt><trkpt lat="45.58350623192257" lon="9.17495675485138"><ele>172.0</ele><time>2026-04-23T17:27:08Z</time></trkpt><trkpt lat="45.58326762161712" lon="9.174971021475482"><ele>171.0</ele><time>2026-04-23T17:27:09Z</time></trkpt><trkpt lat="45.58303544237249" lon="9.175012081613897"><ele>171.0</ele><time>2026-04-23T17:27:10Z</time></trkpt><trkpt lat="45.5828256318804" lon="9.17504670326869"><ele>171.0</ele><time>2026-04-23T17:27:11Z</time></trkpt><trkpt lat="45.582628420169925" lon="9.175079335459195"><ele>171.0</ele><time>2026-04-23T17:27:12Z</time></trkpt><trkpt lat="45.58244351820906" lon="9.17510338542685"><ele>171.0</ele><time>2026-04-23T17:27:13Z</time></trkpt><trkpt lat="45.58225369766097" lon="9.17512098055168"><ele>171.0</ele><time>2026-04-23T17:27:14Z</time></trkpt><trkpt lat="45.58201254968808" lon="9.175186846630156"><ele>171.0</ele><time>2026-04-23T17:27:15Z</time></trkpt><trkpt lat="45.581791841890585" lon="9.17520075161866"><ele>171.33333333333334</ele><time>2026-04-23T17:27:16Z</time></trkpt><trkpt lat="45.58159314214461" lon="9.175250826471153"><ele>171.66666666666669</ele><time>2026-04-23T17:27:17Z</time></trkpt><trkpt lat="45.581397604679964" lon="9.175255621923526"><ele>172.0</ele><time>2026-04-23T17:27:18Z</time></trkpt><trkpt lat="45.58114731184431" lon="9.175290457935704"><ele>172.0</ele><time>2026-04-23T17:27:19Z</time></trkpt><trkpt lat="45.5809192686811" lon="9.175338163256086"><ele>172.0</ele><time>2026-04-23T17:27:20Z</time></trkpt><trkpt lat="45.58068338703319" lon="9.175333897952404"><ele>172.0</ele><time>2026-04-23T17:27:21Z</time></trkpt><trkpt lat="45.58050274966304" lon="9.175391672080409"><ele>172.0</ele><time>2026-04-23T17:27:22Z</time></trkpt><trkpt lat="45.58029774092186" lon="9.175429225645049"><ele>172.0</ele><time>2026-04-23T17:27:23Z</time></trkpt><trkpt lat="45.580087391435534" lon="9.175448406683898"><ele>171.0</ele><time>2026-04-23T17:27:24Z</time></trkpt><trkpt lat="45.579874963166645" lon="9.175464666460295"><ele>170.0</ele><time>2026-04-23T17:27:25Z</time></trkpt><trkpt lat="45.5796518829382" lon="9.175488156622777"><ele>169.0</ele><time>2026-04-23T17:27:26Z</time></trkpt><trkpt lat="45.57942651319183" lon="9.175488433622306"><ele>169.0</ele><time>2026-04-23T17:27:27Z</time></trkpt><trkpt lat="45.57919740818984" lon="9.175549764459578"><ele>169.0</ele><time>2026-04-23T17:27:28Z</time></trkpt><trkpt lat="45.57896948491476" lon="9.175595565260862"><ele>169.0</ele><time>2026-04-23T17:27:29Z</time></trkpt><trkpt lat="45.57874299943168" lon="9.175625859332733"><ele>169.0</ele><time>2026-04-23T17:27:30Z</time></trkpt><trkpt lat="45.578498083126824" lon="9.175659053392138"><ele>169.33333333333334</ele><time>2026-04-23T17:27:31Z</time></trkpt><trkpt lat="45.57828506437985" lon="9.175689679075829"><ele>169.66666666666666</ele><time>2026-04-23T17:27:32Z</time></trkpt><trkpt lat="45.57806407898257" lon="9.175730139492584"><ele>170.0</ele><time>2026-04-23T17:27:33Z</time></trkpt><trkpt lat="45.577834474100314" lon="9.17575948278404"><ele>170.0</ele><time>2026-04-23T17:27:34Z</time></trkpt><trkpt lat="45.57761357958706" lon="9.17578561623673"><ele>170.0</ele><time>2026-04-23T17:27:35Z</time></trkpt><trkpt lat="45.57738325227607" lon="9.175822342549118"><ele>170.0</ele><time>2026-04-23T17:27:36Z</time></trkpt><trkpt lat="45.57716767561786" lon="9.175850741561355"><ele>170.0</ele><time>2026-04-23T17:27:37Z</time></trkpt><trkpt lat="45.57696609447636" lon="9.175881971260328"><ele>170.0</ele><time>2026-04-23T17:27:38Z</time></trkpt><trkpt lat="45.57677172235032" lon="9.17591123780251"><ele>169.33333333333331</ele><time>2026-04-23T17:27:39Z</time></trkpt><trkpt lat="45.57656732372108" lon="9.175946639064371"><ele>168.66666666666666</ele><time>2026-04-23T17:27:40Z</time></trkpt><trkpt lat="45.57637474133072" lon="9.175967900915493"><ele>168.0</ele><time>2026-04-23T17:27:41Z</time></trkpt><trkpt lat="45.57618089266791" lon="9.175993150651363"><ele>167.0</ele><time>2026-04-23T17:27:42Z</time></trkpt><trkpt lat="45.57595961112634" lon="9.17602907619471"><ele>166.0</ele><time>2026-04-23T17:27:43Z</time></trkpt><trkpt lat="45.57575324222472" lon="9.176063480920176"><ele>165.0</ele><time>2026-04-23T17:27:44Z</time></trkpt><trkpt lat="45.575534106343554" lon="9.176093884930896"><ele>164.33333333333334</ele><time>2026-04-23T17:27:45Z</time></trkpt><trkpt lat="45.57533024748589" lon="9.176119106865167"><ele>163.66666666666669</ele><time>2026-04-23T17:27:46Z</time></trkpt><trkpt lat="45.575128147737765" lon="9.176140887114652"><ele>163.0</ele><time>2026-04-23T17:27:47Z</time></trkpt><trkpt lat="45.57493186120741" lon="9.176162680009176"><ele>163.0</ele><time>2026-04-23T17:27:48Z</time></trkpt><trkpt lat="45.574723405284544" lon="9.176204268247794"><ele>163.0</ele><time>2026-04-23T17:27:49Z</time></trkpt><trkpt lat="45.574523326086364" lon="9.17623914155029"><ele>163.0</ele><time>2026-04-23T17:27:50Z</time></trkpt><trkpt lat="45.57434003011516" lon="9.176241171671096"><ele>163.33333333333334</ele><time>2026-04-23T17:27:51Z</time></trkpt><trkpt lat="45.57412821606255" lon="9.176292890057388"><ele>163.66666666666666</ele><time>2026-04-23T17:27:52Z</time></trkpt><trkpt lat="45.573913766403" lon="9.176305766331685"><ele>164.0</ele><time>2026-04-23T17:27:53Z</time></trkpt><trkpt lat="45.573695637814254" lon="9.176331398075462"><ele>165.33333333333331</ele><time>2026-04-23T17:27:54Z</time></trkpt><trkpt lat="45.57348854590007" lon="9.176360268630495"><ele>166.66666666666666</ele><time>2026-04-23T17:27:55Z</time></trkpt><trkpt lat="45.573290582356954" lon="9.176397050464177"><ele>168.0</ele><time>2026-04-23T17:27:56Z</time></trkpt><trkpt lat="45.57311347094953" lon="9.176406915942634"><ele>168.0</ele><time>2026-04-23T17:27:57Z</time></trkpt><trkpt lat="45.572936556393266" lon="9.176421840287455"><ele>168.0</ele><time>2026-04-23T17:27:58Z</time></trkpt><trkpt lat="45.572762674917236" lon="9.176470411133536"><ele>168.0</ele><time>2026-04-23T17:27:59Z</time></trkpt><trkpt lat="45.57258562058586" lon="9.176497942947144"><ele>167.33333333333334</ele><time>2026-04-23T17:28:00Z</time></trkpt><trkpt lat="45.572405671384125" lon="9.176520723719209"><ele>166.66666666666669</ele><time>2026-04-23T17:28:01Z</time></trkpt><trkpt lat="45.572224036327135" lon="9.176533873415975"><ele>166.0</ele><time>2026-04-23T17:28:01.999Z</time></trkpt><trkpt lat="45.57201006411776" lon="9.176569465217673"><ele>166.0</ele><time>2026-04-23T17:28:02.999Z</time></trkpt><trkpt lat="45.57182006072632" lon="9.176596180395151"><ele>166.0</ele><time>2026-04-23T17:28:03.999Z</time></trkpt><trkpt lat="45.571618493311895" lon="9.176593113886035"><ele>166.0</ele><time>2026-04-23T17:28:04.999Z</time></trkpt><trkpt lat="45.571411886462116" lon="9.176660957814773"><ele>166.0</ele><time>2026-04-23T17:28:05.999Z</time></trkpt><trkpt lat="45.57121655532417" lon="9.17668067661381"><ele>166.0</ele><time>2026-04-23T17:28:06.999Z</time></trkpt><trkpt lat="45.57101213495217" lon="9.176709697087878"><ele>166.0</ele><time>2026-04-23T17:28:07.999Z</time></trkpt><trkpt lat="45.57081540989699" lon="9.17673818575794"><ele>165.0</ele><time>2026-04-23T17:28:08.999Z</time></trkpt><trkpt lat="45.57061718859438" lon="9.176775622636097"><ele>164.0</ele><time>2026-04-23T17:28:09.999Z</time></trkpt><trkpt lat="45.570423949954815" lon="9.176807189861213"><ele>163.0</ele><time>2026-04-23T17:28:10.999Z</time></trkpt><trkpt lat="45.57023537290679" lon="9.176818949308878"><ele>163.0</ele><time>2026-04-23T17:28:11.999Z</time></trkpt><trkpt lat="45.57010453972794" lon="9.176836961289021"><ele>163.0</ele><time>2026-04-23T17:28:12.999Z</time></trkpt><trkpt lat="45.5698971333152" lon="9.176869432454376"><ele>163.0</ele><time>2026-04-23T17:28:13.999Z</time></trkpt><trkpt lat="45.56968637803216" lon="9.1769154875337"><ele>161.0</ele><time>2026-04-23T17:28:14.999Z</time></trkpt><trkpt lat="45.56943217920989" lon="9.176931028467216"><ele>159.0</ele><time>2026-04-23T17:28:15.999Z</time></trkpt><trkpt lat="45.569209369571034" lon="9.176982503341831"><ele>159.0</ele><time>2026-04-23T17:28:16.999Z</time></trkpt><trkpt lat="45.56901151415989" lon="9.177008876405038"><ele>159.0</ele><time>2026-04-23T17:28:17.999Z</time></trkpt><trkpt lat="45.568802093611076" lon="9.1770379519"><ele>159.0</ele><time>2026-04-23T17:28:18.999Z</time></trkpt><trkpt lat="45.56859411464366" lon="9.177066052772775"><ele>159.66666666666666</ele><time>2026-04-23T17:28:19.999Z</time></trkpt><trkpt lat="45.568374153341814" lon="9.177087243582196"><ele>160.33333333333331</ele><time>2026-04-23T17:28:20.999Z</time></trkpt><trkpt lat="45.56815815934311" lon="9.17711027133915"><ele>161.0</ele><time>2026-04-23T17:28:21.999Z</time></trkpt><trkpt lat="45.56793784836343" lon="9.177152859357902"><ele>161.5</ele><time>2026-04-23T17:28:22.999Z</time></trkpt><trkpt lat="45.567713818642424" lon="9.177187980974436"><ele>162.0</ele><time>2026-04-23T17:28:23.999Z</time></trkpt><trkpt lat="45.56748826061458" lon="9.177235398536258"><ele>162.0</ele><time>2026-04-23T17:28:24.999Z</time></trkpt><trkpt lat="45.567266429188145" lon="9.177260896414795"><ele>162.0</ele><time>2026-04-23T17:28:25.999Z</time></trkpt><trkpt lat="45.56704169800472" lon="9.177278946685444"><ele>162.0</ele><time>2026-04-23T17:28:26.999Z</time></trkpt><trkpt lat="45.566806787545474" lon="9.177300419660552"><ele>162.0</ele><time>2026-04-23T17:28:27.999Z</time></trkpt><trkpt lat="45.56656809837238" lon="9.177329287663515"><ele>162.0</ele><time>2026-04-23T17:28:28.999Z</time></trkpt><trkpt lat="45.566341579099046" lon="9.177326217076669"><ele>161.66666666666666</ele><time>2026-04-23T17:28:29.999Z</time></trkpt><trkpt lat="45.56613028953416" lon="9.177369883805193"><ele>161.33333333333331</ele><time>2026-04-23T17:28:30.999Z</time></trkpt><trkpt lat="45.56592550140283" lon="9.17738991067961"><ele>161.0</ele><time>2026-04-23T17:28:31.999Z</time></trkpt><trkpt lat="45.565744898411474" lon="9.17742449260846"><ele>161.0</ele><time>2026-04-23T17:28:32.999Z</time></trkpt><trkpt lat="45.56556386475915" lon="9.17747421794756"><ele>161.0</ele><time>2026-04-23T17:28:33.999Z</time></trkpt><trkpt lat="45.565262690273364" lon="9.177467410053467"><ele>160.0</ele><time>2026-04-23T17:28:34.999Z</time></trkpt><trkpt lat="45.565044061833134" lon="9.177482897809103"><ele>159.0</ele><time>2026-04-23T17:28:35.999Z</time></trkpt><trkpt lat="45.56482332118012" lon="9.177510862956346"><ele>158.0</ele><time>2026-04-23T17:28:36.999Z</time></trkpt><trkpt lat="45.56460492351657" lon="9.177619578320856"><ele>158.66666666666666</ele><time>2026-04-23T17:28:37.999Z</time></trkpt><trkpt lat="45.564390572218336" lon="9.177711196152762"><ele>159.33333333333334</ele><time>2026-04-23T17:28:38.999Z</time></trkpt><trkpt lat="45.564185355311956" lon="9.17779335369002"><ele>160.0</ele><time>2026-04-23T17:28:39.999Z</time></trkpt><trkpt lat="45.56402029901443" lon="9.177764204002184"><ele>160.0</ele><time>2026-04-23T17:28:40.999Z</time></trkpt><trkpt lat="45.56384424006883" lon="9.177592301587445"><ele>160.0</ele><time>2026-04-23T17:28:41.999Z</time></trkpt><trkpt lat="45.56366350809493" lon="9.177532703792416"><ele>160.0</ele><time>2026-04-23T17:28:42.999Z</time></trkpt><trkpt lat="45.563492585250536" lon="9.177460469707263"><ele>159.66666666666669</ele><time>2026-04-23T17:28:43.999Z</time></trkpt><trkpt lat="45.563326506865025" lon="9.177403906229818"><ele>159.33333333333334</ele><time>2026-04-23T17:28:44.999Z</time></trkpt><trkpt lat="45.56314608058426" lon="9.17727596279935"><ele>159.0</ele><time>2026-04-23T17:28:45.999Z</time></trkpt><trkpt lat="45.56298644667897" lon="9.177214821636712"><ele>159.33333333333334</ele><time>2026-04-23T17:28:46.999Z</time></trkpt><trkpt lat="45.562827341392996" lon="9.17720958667384"><ele>159.66666666666669</ele><time>2026-04-23T17:28:47.999Z</time></trkpt><trkpt lat="45.56267600460653" lon="9.177247899454287"><ele>160.0</ele><time>2026-04-23T17:28:48.999Z</time></trkpt><trkpt lat="45.56251849065208" lon="9.17730892990501"><ele>159.66666666666669</ele><time>2026-04-23T17:28:49.999Z</time></trkpt><trkpt lat="45.56236758415382" lon="9.177371159904233"><ele>159.33333333333334</ele><time>2026-04-23T17:28:50.999Z</time></trkpt><trkpt lat="45.56221617238018" lon="9.177440271710942"><ele>159.0</ele><time>2026-04-23T17:28:52.016Z</time></trkpt><trkpt lat="45.5620646020697" lon="9.17751000814542"><ele>158.33333333333334</ele><time>2026-04-23T17:28:53.015Z</time></trkpt><trkpt lat="45.561910761687734" lon="9.17759182103056"><ele>157.66666666666669</ele><time>2026-04-23T17:28:54.015Z</time></trkpt><trkpt lat="45.56175163694028" lon="9.177689642532224"><ele>157.0</ele><time>2026-04-23T17:28:55.015Z</time></trkpt><trkpt lat="45.56160257226828" lon="9.177822917807754"><ele>157.0</ele><time>2026-04-23T17:28:56.02Z</time></trkpt><trkpt lat="45.56145563223292" lon="9.177922739783927"><ele>157.0</ele><time>2026-04-23T17:28:57.016Z</time></trkpt><trkpt lat="45.561351216394044" lon="9.178070983910793"><ele>157.0</ele><time>2026-04-23T17:28:57.999Z</time></trkpt><trkpt lat="45.56172109019205" lon="9.178720141246403"><ele>156.0</ele><time>2026-04-23T17:28:58.999Z</time></trkpt><trkpt lat="45.56162561596268" lon="9.17922865951856"><ele>155.0</ele><time>2026-04-23T17:28:59.999Z</time></trkpt><trkpt lat="45.56170494855966" lon="9.179744313707804"><ele>155.5</ele><time>2026-04-23T17:29:00.999Z</time></trkpt><trkpt lat="45.56183511399988" lon="9.180020157066583"><ele>156.0</ele><time>2026-04-23T17:29:01.999Z</time></trkpt><trkpt lat="45.561940139766556" lon="9.180299640380882"><ele>156.0</ele><time>2026-04-23T17:29:02.999Z</time></trkpt><trkpt lat="45.56206732396398" lon="9.180567732680721"><ele>156.0</ele><time>2026-04-23T17:29:03.999Z</time></trkpt><trkpt lat="45.562393205612686" lon="9.180821940855486"><ele>156.0</ele><time>2026-04-23T17:29:04.999Z</time></trkpt><trkpt lat="45.562533138989615" lon="9.181074817724014"><ele>156.0</ele><time>2026-04-23T17:29:05.999Z</time></trkpt><trkpt lat="45.56264237584529" lon="9.181317838767908"><ele>156.0</ele><time>2026-04-23T17:29:07Z</time></trkpt><trkpt lat="45.562716759362935" lon="9.18153330302708"><ele>156.33333333333334</ele><time>2026-04-23T17:29:08Z</time></trkpt><trkpt lat="45.562821753178" lon="9.181748770478071"><ele>156.66666666666669</ele><time>2026-04-23T17:29:09Z</time></trkpt><trkpt lat="45.56287816392158" lon="9.18193145881351"><ele>157.0</ele><time>2026-04-23T17:29:10Z</time></trkpt><trkpt lat="45.562973024295346" lon="9.182186231600348"><ele>156.33333333333334</ele><time>2026-04-23T17:29:11Z</time></trkpt><trkpt lat="45.56306197357764" lon="9.182382067665653"><ele>155.66666666666666</ele><time>2026-04-23T17:29:12Z</time></trkpt><trkpt lat="45.563124279047486" lon="9.182619284785401"><ele>155.0</ele><time>2026-04-23T17:29:13Z</time></trkpt><trkpt lat="45.56318600340473" lon="9.182847341405711"><ele>155.0</ele><time>2026-04-23T17:29:14Z</time></trkpt><trkpt lat="45.563235665221555" lon="9.183086946804686"><ele>155.0</ele><time>2026-04-23T17:29:15Z</time></trkpt><trkpt lat="45.563242331569676" lon="9.183304085768732"><ele>155.0</ele><time>2026-04-23T17:29:16Z</time></trkpt><trkpt lat="45.56332583462312" lon="9.183514084286927"><ele>154.75</ele><time>2026-04-23T17:29:17Z</time></trkpt><trkpt lat="45.56342077463145" lon="9.183706347393766"><ele>154.5</ele><time>2026-04-23T17:29:18Z</time></trkpt><trkpt lat="45.563473123605256" lon="9.183903714370544"><ele>154.25</ele><time>2026-04-23T17:29:19Z</time></trkpt><trkpt lat="45.5635212995425" lon="9.184083980999482"><ele>154.0</ele><time>2026-04-23T17:29:20Z</time></trkpt><trkpt lat="45.56356206157624" lon="9.184266917608369"><ele>154.5</ele><time>2026-04-23T17:29:21Z</time></trkpt><trkpt lat="45.56360395461711" lon="9.184422840391004"><ele>155.0</ele><time>2026-04-23T17:29:22Z</time></trkpt><trkpt lat="45.56368068741775" lon="9.184584814007577"><ele>155.5</ele><time>2026-04-23T17:29:23Z</time></trkpt><trkpt lat="45.563723477547654" lon="9.18474148351724"><ele>156.0</ele><time>2026-04-23T17:29:24Z</time></trkpt><trkpt lat="45.56376071587261" lon="9.184886489115641"><ele>156.0</ele><time>2026-04-23T17:29:25Z</time></trkpt><trkpt lat="45.563789851193434" lon="9.185020829882129"><ele>156.0</ele><time>2026-04-23T17:29:26Z</time></trkpt><trkpt lat="45.56382233423247" lon="9.185155821703477"><ele>156.0</ele><time>2026-04-23T17:29:27Z</time></trkpt><trkpt lat="45.5638813512196" lon="9.185331739570486"><ele>156.0</ele><time>2026-04-23T17:29:28Z</time></trkpt><trkpt lat="45.56396357393346" lon="9.18554524007753"><ele>155.8</ele><time>2026-04-23T17:29:29Z</time></trkpt><trkpt lat="45.56399428343142" lon="9.185751929298322"><ele>155.6</ele><time>2026-04-23T17:29:32Z</time></trkpt><trkpt lat="45.564011832810806" lon="9.185862339225146"><ele>155.4</ele><time>2026-04-23T17:29:33Z</time></trkpt><trkpt lat="45.564049834159675" lon="9.185954183461652"><ele>155.2</ele><time>2026-04-23T17:29:34Z</time></trkpt><trkpt lat="45.564109400322145" lon="9.18611229191091"><ele>155.0</ele><time>2026-04-23T17:29:35Z</time></trkpt><trkpt lat="45.56413555576462" lon="9.186215224612019"><ele>155.0</ele><time>2026-04-23T17:29:36Z</time></trkpt><trkpt lat="45.564170602852535" lon="9.1863384183628"><ele>155.0</ele><time>2026-04-23T17:29:37Z</time></trkpt><trkpt lat="45.56419452926148" lon="9.186461569459015"><ele>155.0</ele><time>2026-04-23T17:29:38Z</time></trkpt><trkpt lat="45.56423811790114" lon="9.18657061707994"><ele>155.0</ele><time>2026-04-23T17:29:39Z</time></trkpt><trkpt lat="45.56429481459308" lon="9.186709990672759"><ele>155.0</ele><time>2026-04-23T17:29:40Z</time></trkpt><trkpt lat="45.56432598179675" lon="9.186826523589122"><ele>155.33333333333331</ele><time>2026-04-23T17:29:41Z</time></trkpt><trkpt lat="45.56435743020413" lon="9.186939570069745"><ele>155.66666666666666</ele><time>2026-04-23T17:29:42Z</time></trkpt><trkpt lat="45.56439337168794" lon="9.187054410453841"><ele>156.0</ele><time>2026-04-23T17:29:43Z</time></trkpt><trkpt lat="45.564428195345975" lon="9.187175864587418"><ele>156.33333333333334</ele><time>2026-04-23T17:29:44Z</time></trkpt><trkpt lat="45.56445765636738" lon="9.187294446649634"><ele>156.66666666666669</ele><time>2026-04-23T17:29:45Z</time></trkpt><trkpt lat="45.56448903031907" lon="9.187375543431253"><ele>157.0</ele><time>2026-04-23T17:29:46Z</time></trkpt><trkpt lat="45.564517431604116" lon="9.187471804065154"><ele>157.33333333333334</ele><time>2026-04-23T17:29:47Z</time></trkpt><trkpt lat="45.5645445832151" lon="9.187579855714043"><ele>157.66666666666669</ele><time>2026-04-23T17:29:48Z</time></trkpt><trkpt lat="45.56457001571759" lon="9.187674877007801"><ele>158.0</ele><time>2026-04-23T17:29:49Z</time></trkpt><trkpt lat="45.564602446947234" lon="9.187765309525496"><ele>158.33333333333334</ele><time>2026-04-23T17:29:50Z</time></trkpt><trkpt lat="45.564625211480326" lon="9.187857794207458"><ele>158.66666666666666</ele><time>2026-04-23T17:29:52Z</time></trkpt><trkpt lat="45.56467936147157" lon="9.188006999102353"><ele>159.0</ele><time>2026-04-23T17:29:53Z</time></trkpt><trkpt lat="45.56470502591962" lon="9.188110309950803"><ele>159.0</ele><time>2026-04-23T17:29:54Z</time></trkpt><trkpt lat="45.56474750720216" lon="9.188244537508863"><ele>159.0</ele><time>2026-04-23T17:29:55Z</time></trkpt><trkpt lat="45.56479955249571" lon="9.188399836162562"><ele>159.0</ele><time>2026-04-23T17:29:56Z</time></trkpt><trkpt lat="45.5648487706786" lon="9.188554222075261"><ele>159.0</ele><time>2026-04-23T17:29:57Z</time></trkpt><trkpt lat="45.56487755761648" lon="9.188700781734045"><ele>159.0</ele><time>2026-04-23T17:29:58Z</time></trkpt><trkpt lat="45.56491316259789" lon="9.18885359100768"><ele>159.0</ele><time>2026-04-23T17:29:59Z</time></trkpt><trkpt lat="45.564950398087014" lon="9.189007595270036"><ele>159.0</ele><time>2026-04-23T17:30:00.022Z</time></trkpt><trkpt lat="45.56504814517117" lon="9.189131390378735"><ele>159.0</ele><time>2026-04-23T17:30:01.024Z</time></trkpt><trkpt lat="45.5651049762991" lon="9.18929537359684"><ele>159.0</ele><time>2026-04-23T17:30:02.017Z</time></trkpt><trkpt lat="45.56516312142927" lon="9.189457378433245"><ele>159.0</ele><time>2026-04-23T17:30:03.021Z</time></trkpt><trkpt lat="45.56523617407873" lon="9.189646825792028"><ele>159.0</ele><time>2026-04-23T17:30:04.013Z</time></trkpt><trkpt lat="45.56528391697803" lon="9.189781245163497"><ele>159.0</ele><time>2026-04-23T17:30:05.018Z</time></trkpt><trkpt lat="45.565335002538106" lon="9.189921710069587"><ele>159.0</ele><time>2026-04-23T17:30:06.024Z</time></trkpt><trkpt lat="45.5653874168726" lon="9.190057659696201"><ele>159.0</ele><time>2026-04-23T17:30:07.023Z</time></trkpt><trkpt lat="45.56542890485768" lon="9.190149697441958"><ele>159.0</ele><time>2026-04-23T17:30:08.018Z</time></trkpt><trkpt lat="45.56552672958959" lon="9.190200423786155"><ele>159.0</ele><time>2026-04-23T17:30:08.999Z</time></trkpt><trkpt lat="45.565430920550355" lon="9.190100068538756"><ele>159.0</ele><time>2026-04-23T17:30:09.999Z</time></trkpt><trkpt lat="45.565408259604474" lon="9.19020789441157"><ele>159.0</ele><time>2026-04-23T17:30:11.999Z</time></trkpt><trkpt lat="45.56544250945983" lon="9.190354568779654"><ele>159.0</ele><time>2026-04-23T17:30:12.999Z</time></trkpt><trkpt lat="45.56547159324316" lon="9.190542144283272"><ele>159.0</ele><time>2026-04-23T17:30:13.999Z</time></trkpt><trkpt lat="45.56550179544414" lon="9.190762473777621"><ele>159.0</ele><time>2026-04-23T17:30:14.999Z</time></trkpt><trkpt lat="45.56556365099136" lon="9.190969486070719"><ele>159.0</ele><time>2026-04-23T17:30:15.999Z</time></trkpt><trkpt lat="45.56565369875166" lon="9.191164692102957"><ele>158.0</ele><time>2026-04-23T17:30:16.999Z</time></trkpt><trkpt lat="45.56571215234291" lon="9.191377568441675"><ele>157.0</ele><time>2026-04-23T17:30:17.999Z</time></trkpt><trkpt lat="45.56581723437275" lon="9.191798228676962"><ele>157.0</ele><time>2026-04-23T17:30:18.999Z</time></trkpt><trkpt lat="45.56592151733821" lon="9.192037437314271"><ele>157.0</ele><time>2026-04-23T17:30:19.999Z</time></trkpt><trkpt lat="45.56599511631741" lon="9.192120709620493"><ele>157.0</ele><time>2026-04-23T17:30:20.999Z</time></trkpt><trkpt lat="45.56603176579242" lon="9.192226116977691"><ele>157.0</ele><time>2026-04-23T17:30:21.999Z</time></trkpt><trkpt lat="45.56601793257571" lon="9.192330500754627"><ele>157.0</ele><time>2026-04-23T17:30:22.999Z</time></trkpt><trkpt lat="45.56609883122857" lon="9.192612242617601"><ele>157.0</ele><time>2026-04-23T17:30:24.999Z</time></trkpt><trkpt lat="45.56613091493766" lon="9.192767856837623"><ele>157.0</ele><time>2026-04-23T17:30:25.999Z</time></trkpt><trkpt lat="45.56618851771055" lon="9.19296335884347"><ele>157.0</ele><time>2026-04-23T17:30:26.999Z</time></trkpt><trkpt lat="45.56623422149316" lon="9.193122454717786"><ele>157.0</ele><time>2026-04-23T17:30:27.999Z</time></trkpt><trkpt lat="45.56629140664279" lon="9.193308798788216"><ele>157.33333333333334</ele><time>2026-04-23T17:30:28.999Z</time></trkpt><trkpt lat="45.56635616806479" lon="9.193502726359561"><ele>157.66666666666666</ele><time>2026-04-23T17:30:29.999Z</time></trkpt><trkpt lat="45.566418683489005" lon="9.193712724194054"><ele>158.0</ele><time>2026-04-23T17:30:30.999Z</time></trkpt><trkpt lat="45.566493141933705" lon="9.19392925945559"><ele>157.75</ele><time>2026-04-23T17:30:31.999Z</time></trkpt><trkpt lat="45.56654553442228" lon="9.194151435775467"><ele>157.5</ele><time>2026-04-23T17:30:32.999Z</time></trkpt><trkpt lat="45.56661161196873" lon="9.19429870384578"><ele>157.25</ele><time>2026-04-23T17:30:33.999Z</time></trkpt><trkpt lat="45.56665148115764" lon="9.194388614704815"><ele>157.0</ele><time>2026-04-23T17:30:34.999Z</time></trkpt><trkpt lat="45.566710230600684" lon="9.194555248721423"><ele>157.0</ele><time>2026-04-23T17:30:35.999Z</time></trkpt><trkpt lat="45.566808613005016" lon="9.194806456628655"><ele>157.0</ele><time>2026-04-23T17:30:36.999Z</time></trkpt><trkpt lat="45.566919060423345" lon="9.195079524328053"><ele>157.0</ele><time>2026-04-23T17:30:37.999Z</time></trkpt><trkpt lat="45.56703795522383" lon="9.195390144034741"><ele>157.66666666666669</ele><time>2026-04-23T17:30:38.999Z</time></trkpt><trkpt lat="45.56716154613694" lon="9.195617430572097"><ele>158.33333333333334</ele><time>2026-04-23T17:30:40.999Z</time></trkpt><trkpt lat="45.56724302636279" lon="9.195778674943405"><ele>159.0</ele><time>2026-04-23T17:30:41.999Z</time></trkpt><trkpt lat="45.56731060372193" lon="9.195940350278034"><ele>159.0</ele><time>2026-04-23T17:30:42.999Z</time></trkpt><trkpt lat="45.56744857344914" lon="9.196134530819522"><ele>159.0</ele><time>2026-04-23T17:30:43.999Z</time></trkpt><trkpt lat="45.567547897629176" lon="9.196303751306868"><ele>159.0</ele><time>2026-04-23T17:30:44.999Z</time></trkpt><trkpt lat="45.56763565754663" lon="9.196477995826877"><ele>159.25</ele><time>2026-04-23T17:30:45.999Z</time></trkpt><trkpt lat="45.567731281939096" lon="9.196639749106865"><ele>159.5</ele><time>2026-04-23T17:30:46.999Z</time></trkpt><trkpt lat="45.56783225306701" lon="9.196768279998839"><ele>159.75</ele><time>2026-04-23T17:30:47.999Z</time></trkpt><trkpt lat="45.56791771995188" lon="9.196892823432398"><ele>160.0</ele><time>2026-04-23T17:30:48.999Z</time></trkpt><trkpt lat="45.56801284140228" lon="9.197021113875568"><ele>160.0</ele><time>2026-04-23T17:30:49.999Z</time></trkpt><trkpt lat="45.56811633585328" lon="9.197154416869019"><ele>160.0</ele><time>2026-04-23T17:30:50.999Z</time></trkpt><trkpt lat="45.56819940861693" lon="9.197283265568105"><ele>160.0</ele><time>2026-04-23T17:30:51.999Z</time></trkpt><trkpt lat="45.568305888310334" lon="9.197413065646442"><ele>160.0</ele><time>2026-04-23T17:30:52.999Z</time></trkpt><trkpt lat="45.568432886852484" lon="9.197562270869925"><ele>159.75</ele><time>2026-04-23T17:30:53.999Z</time></trkpt><trkpt lat="45.568562415805744" lon="9.197702344485624"><ele>159.5</ele><time>2026-04-23T17:30:54.999Z</time></trkpt><trkpt lat="45.568637460609516" lon="9.197806885287585"><ele>159.25</ele><time>2026-04-23T17:30:55.999Z</time></trkpt><trkpt lat="45.56872875358803" lon="9.197905389366133"><ele>159.0</ele><time>2026-04-23T17:30:56.999Z</time></trkpt><trkpt lat="45.56884921188262" lon="9.197998104970406"><ele>159.0</ele><time>2026-04-23T17:30:57.999Z</time></trkpt><trkpt lat="45.56894977858781" lon="9.198098742357281"><ele>159.0</ele><time>2026-04-23T17:30:58.999Z</time></trkpt><trkpt lat="45.56904967917316" lon="9.198191774441083"><ele>159.0</ele><time>2026-04-23T17:30:59.999Z</time></trkpt><trkpt lat="45.56913296410358" lon="9.198267192185357"><ele>159.0</ele><time>2026-04-23T17:31:00.999Z</time></trkpt><trkpt lat="45.56920949558396" lon="9.198339117514987"><ele>159.0</ele><time>2026-04-23T17:31:01.999Z</time></trkpt><trkpt lat="45.56932144694762" lon="9.198439501567265"><ele>159.0</ele><time>2026-04-23T17:31:02.999Z</time></trkpt><trkpt lat="45.56941929771188" lon="9.198505404387282"><ele>159.0</ele><time>2026-04-23T17:31:03.999Z</time></trkpt><trkpt lat="45.56952815766555" lon="9.198593342202068"><ele>159.0</ele><time>2026-04-23T17:31:04.999Z</time></trkpt><trkpt lat="45.569625575319904" lon="9.198676637213616"><ele>159.0</ele><time>2026-04-23T17:31:05.999Z</time></trkpt><trkpt lat="45.56974030766095" lon="9.198751375381999"><ele>159.25</ele><time>2026-04-23T17:31:06.999Z</time></trkpt><trkpt lat="45.56986511545619" lon="9.198824535852612"><ele>159.5</ele><time>2026-04-23T17:31:07.999Z</time></trkpt><trkpt lat="45.56997817956519" lon="9.198898534428118"><ele>159.75</ele><time>2026-04-23T17:31:08.999Z</time></trkpt><trkpt lat="45.57008302765625" lon="9.198972057707941"><ele>160.0</ele><time>2026-04-23T17:31:09.999Z</time></trkpt><trkpt lat="45.57024252585298" lon="9.199074524720373"><ele>160.0</ele><time>2026-04-23T17:31:10.999Z</time></trkpt><trkpt lat="45.57037321617268" lon="9.199159712115245"><ele>160.0</ele><time>2026-04-23T17:31:11.999Z</time></trkpt><trkpt lat="45.57048459250486" lon="9.199212083330137"><ele>160.0</ele><time>2026-04-23T17:31:13Z</time></trkpt><trkpt lat="45.57069083514615" lon="9.199380789469505"><ele>160.0</ele><time>2026-04-23T17:31:14Z</time></trkpt><trkpt lat="45.57085307284219" lon="9.199490402667395"><ele>160.0</ele><time>2026-04-23T17:31:15Z</time></trkpt><trkpt lat="45.5710226835402" lon="9.19959922364739"><ele>160.0</ele><time>2026-04-23T17:31:16Z</time></trkpt><trkpt lat="45.5711619884787" lon="9.199696685547227"><ele>159.66666666666669</ele><time>2026-04-23T17:31:17Z</time></trkpt><trkpt lat="45.57131170542813" lon="9.199782559246922"><ele>159.33333333333334</ele><time>2026-04-23T17:31:18Z</time></trkpt><trkpt lat="45.57145887669" lon="9.199868877072955"><ele>159.0</ele><time>2026-04-23T17:31:19Z</time></trkpt><trkpt lat="45.57160411802363" lon="9.199952868445095"><ele>159.0</ele><time>2026-04-23T17:31:20Z</time></trkpt><trkpt lat="45.57176217461182" lon="9.200073004390093"><ele>159.0</ele><time>2026-04-23T17:31:21Z</time></trkpt><trkpt lat="45.57184972623105" lon="9.200111754067363"><ele>159.0</ele><time>2026-04-23T17:31:22Z</time></trkpt><trkpt lat="45.571942670503006" lon="9.200192763000047"><ele>159.0</ele><time>2026-04-23T17:31:23Z</time></trkpt><trkpt lat="45.572086540747435" lon="9.200300575338408"><ele>160.5</ele><time>2026-04-23T17:31:24Z</time></trkpt><trkpt lat="45.572317516754026" lon="9.200444640814435"><ele>162.0</ele><time>2026-04-23T17:31:25Z</time></trkpt><trkpt lat="45.57251845443592" lon="9.200577469342575"><ele>162.33333333333334</ele><time>2026-04-23T17:31:26Z</time></trkpt><trkpt lat="45.57273253155383" lon="9.200708349150675"><ele>162.66666666666669</ele><time>2026-04-23T17:31:27Z</time></trkpt><trkpt lat="45.572896032181056" lon="9.200817466693538"><ele>163.0</ele><time>2026-04-23T17:31:28Z</time></trkpt><trkpt lat="45.573062929444795" lon="9.200925743575924"><ele>162.0</ele><time>2026-04-23T17:31:29Z</time></trkpt><trkpt lat="45.57322130755923" lon="9.201037184373801"><ele>161.0</ele><time>2026-04-23T17:31:30Z</time></trkpt><trkpt lat="45.57338958094712" lon="9.201156144581747"><ele>160.0</ele><time>2026-04-23T17:31:31Z</time></trkpt><trkpt lat="45.57354965658094" lon="9.201257972220134"><ele>160.0</ele><time>2026-04-23T17:31:32Z</time></trkpt><trkpt lat="45.573708523420386" lon="9.201364740363738"><ele>160.0</ele><time>2026-04-23T17:31:33Z</time></trkpt><trkpt lat="45.573870358724804" lon="9.201459882062803"><ele>160.0</ele><time>2026-04-23T17:31:34Z</time></trkpt><trkpt lat="45.574020718335284" lon="9.201536736004945"><ele>160.0</ele><time>2026-04-23T17:31:35Z</time></trkpt><trkpt lat="45.57409453317492" lon="9.201566787533766"><ele>160.0</ele><time>2026-04-23T17:31:36Z</time></trkpt><trkpt lat="45.57420234225351" lon="9.201614143560214"><ele>160.0</ele><time>2026-04-23T17:31:37Z</time></trkpt><trkpt lat="45.574303571211566" lon="9.201748099909777"><ele>160.0</ele><time>2026-04-23T17:31:38Z</time></trkpt><trkpt lat="45.57442888897304" lon="9.201859104732678"><ele>161.0</ele><time>2026-04-23T17:31:39Z</time></trkpt><trkpt lat="45.574656108667774" lon="9.20202366519756"><ele>162.0</ele><time>2026-04-23T17:31:40Z</time></trkpt><trkpt lat="45.57495091841773" lon="9.20235281792716"><ele>162.0</ele><time>2026-04-23T17:31:41Z</time></trkpt><trkpt lat="45.575139489849356" lon="9.202589727888666"><ele>162.0</ele><time>2026-04-23T17:31:42Z</time></trkpt><trkpt lat="45.57527849694968" lon="9.202821045088026"><ele>162.0</ele><time>2026-04-23T17:31:43Z</time></trkpt><trkpt lat="45.57543499282098" lon="9.203049387903423"><ele>162.0</ele><time>2026-04-23T17:31:44Z</time></trkpt><trkpt lat="45.57558557831102" lon="9.203288032982359"><ele>162.0</ele><time>2026-04-23T17:31:45Z</time></trkpt><trkpt lat="45.57573300312452" lon="9.203531373011083"><ele>162.66666666666666</ele><time>2026-04-23T17:31:46Z</time></trkpt><trkpt lat="45.575882793381815" lon="9.203780615320872"><ele>163.33333333333331</ele><time>2026-04-23T17:31:47Z</time></trkpt><trkpt lat="45.57596961891922" lon="9.204067231909715"><ele>164.0</ele><time>2026-04-23T17:31:48Z</time></trkpt><trkpt lat="45.57608212867214" lon="9.204334715876573"><ele>164.0</ele><time>2026-04-23T17:31:49Z</time></trkpt><trkpt lat="45.57617426976775" lon="9.204604627311408"><ele>164.0</ele><time>2026-04-23T17:31:50Z</time></trkpt><trkpt lat="45.57626042822078" lon="9.20487679619071"><ele>164.0</ele><time>2026-04-23T17:31:51Z</time></trkpt><trkpt lat="45.576335456506065" lon="9.205132390643053"><ele>164.0</ele><time>2026-04-23T17:31:52Z</time></trkpt><trkpt lat="45.576401759270226" lon="9.20545604090243"><ele>164.0</ele><time>2026-04-23T17:31:53Z</time></trkpt><trkpt lat="45.57646059126538" lon="9.205747646556723"><ele>164.0</ele><time>2026-04-23T17:31:54Z</time></trkpt><trkpt lat="45.576517032724446" lon="9.206018221639361"><ele>164.0</ele><time>2026-04-23T17:31:55Z</time></trkpt><trkpt lat="45.57657213396257" lon="9.206295352815301"><ele>164.0</ele><time>2026-04-23T17:31:56Z</time></trkpt><trkpt lat="45.57660786648458" lon="9.206509531478346"><ele>164.0</ele><time>2026-04-23T17:31:57Z</time></trkpt><trkpt lat="45.576646495868495" lon="9.206738331697712"><ele>164.5</ele><time>2026-04-23T17:31:58Z</time></trkpt><trkpt lat="45.5766013924416" lon="9.207215082862774"><ele>165.0</ele><time>2026-04-23T17:31:59Z</time></trkpt><trkpt lat="45.57659782299442" lon="9.207555579466769"><ele>165.0</ele><time>2026-04-23T17:31:59.999Z</time></trkpt><trkpt lat="45.57660240207195" lon="9.207882754521414"><ele>165.0</ele><time>2026-04-23T17:32:00.999Z</time></trkpt><trkpt lat="45.57661024578909" lon="9.208234648119092"><ele>165.5</ele><time>2026-04-23T17:32:01.999Z</time></trkpt><trkpt lat="45.57661547369119" lon="9.208584715848716"><ele>166.0</ele><time>2026-04-23T17:32:02.999Z</time></trkpt><trkpt lat="45.57662267625102" lon="9.208920229876504"><ele>165.0</ele><time>2026-04-23T17:32:03.999Z</time></trkpt><trkpt lat="45.57661671968458" lon="9.209284236950579"><ele>164.0</ele><time>2026-04-23T17:32:04.999Z</time></trkpt><trkpt lat="45.57663552014867" lon="9.20961879548855"><ele>164.5</ele><time>2026-04-23T17:32:05.999Z</time></trkpt><trkpt lat="45.57663527538325" lon="9.209959859618888"><ele>165.0</ele><time>2026-04-23T17:32:06.999Z</time></trkpt><trkpt lat="45.57663605838536" lon="9.210307684000094"><ele>166.5</ele><time>2026-04-23T17:32:07.999Z</time></trkpt><trkpt lat="45.576631721177236" lon="9.21066368062015"><ele>168.0</ele><time>2026-04-23T17:32:08.999Z</time></trkpt><trkpt lat="45.576628199033316" lon="9.211038145695415"><ele>168.0</ele><time>2026-04-23T17:32:09.999Z</time></trkpt><trkpt lat="45.576633705512066" lon="9.211419568247065"><ele>168.0</ele><time>2026-04-23T17:32:10.999Z</time></trkpt><trkpt lat="45.57664388344736" lon="9.211810004573758"><ele>167.5</ele><time>2026-04-23T17:32:11.999Z</time></trkpt><trkpt lat="45.57657404146789" lon="9.212212059618782"><ele>167.0</ele><time>2026-04-23T17:32:12.999Z</time></trkpt><trkpt lat="45.57658206791743" lon="9.212597344633771"><ele>167.0</ele><time>2026-04-23T17:32:13.999Z</time></trkpt><trkpt lat="45.57658464457593" lon="9.212965292293433"><ele>167.0</ele><time>2026-04-23T17:32:14.999Z</time></trkpt><trkpt lat="45.57658834153606" lon="9.213493212418651"><ele>167.0</ele><time>2026-04-23T17:32:15.999Z</time></trkpt><trkpt lat="45.576591313457875" lon="9.213929342386212"><ele>167.0</ele><time>2026-04-23T17:32:16.999Z</time></trkpt><trkpt lat="45.57659458271536" lon="9.21442058062746"><ele>164.5</ele><time>2026-04-23T17:32:17.999Z</time></trkpt><trkpt lat="45.57659338217052" lon="9.214845530175488"><ele>162.0</ele><time>2026-04-23T17:32:18.999Z</time></trkpt><trkpt lat="45.57661143817033" lon="9.2152742820741"><ele>163.0</ele><time>2026-04-23T17:32:19.999Z</time></trkpt><trkpt lat="45.57662837925446" lon="9.215704948216553"><ele>164.0</ele><time>2026-04-23T17:32:20.999Z</time></trkpt><trkpt lat="45.57661873424685" lon="9.216092517584226"><ele>165.5</ele><time>2026-04-23T17:32:21.999Z</time></trkpt><trkpt lat="45.576616500021686" lon="9.216510397285617"><ele>167.0</ele><time>2026-04-23T17:32:22.999Z</time></trkpt><trkpt lat="45.576598763539735" lon="9.216955208300886"><ele>166.5</ele><time>2026-04-23T17:32:23.999Z</time></trkpt><trkpt lat="45.57657164780667" lon="9.217391949339389"><ele>166.0</ele><time>2026-04-23T17:32:24.999Z</time></trkpt><trkpt lat="45.576547761826916" lon="9.217857001606738"><ele>165.5</ele><time>2026-04-23T17:32:25.999Z</time></trkpt><trkpt lat="45.57655008228717" lon="9.21836003097203"><ele>165.0</ele><time>2026-04-23T17:32:26.999Z</time></trkpt><trkpt lat="45.576507337212334" lon="9.21878238559028"><ele>164.5</ele><time>2026-04-23T17:32:27.999Z</time></trkpt><trkpt lat="45.576549179071215" lon="9.219268054097865"><ele>164.0</ele><time>2026-04-23T17:32:28.999Z</time></trkpt><trkpt lat="45.57643223343432" lon="9.219654362365654"><ele>164.0</ele><time>2026-04-23T17:32:29.999Z</time></trkpt><trkpt lat="45.57627079299183" lon="9.21999711562945"><ele>164.0</ele><time>2026-04-23T17:32:30.999Z</time></trkpt><trkpt lat="45.57606781847368" lon="9.220339133032072"><ele>163.5</ele><time>2026-04-23T17:32:31.999Z</time></trkpt><trkpt lat="45.57592365650789" lon="9.220695438622851"><ele>163.0</ele><time>2026-04-23T17:32:32.999Z</time></trkpt><trkpt lat="45.575753844439326" lon="9.221081311464113"><ele>163.0</ele><time>2026-04-23T17:32:33.999Z</time></trkpt><trkpt lat="45.57558880718482" lon="9.221441964663047"><ele>163.0</ele><time>2026-04-23T17:32:34.999Z</time></trkpt><trkpt lat="45.575413976630365" lon="9.221785308643671"><ele>161.5</ele><time>2026-04-23T17:32:35.999Z</time></trkpt><trkpt lat="45.575229935671985" lon="9.2221221981686"><ele>160.0</ele><time>2026-04-23T17:32:36.999Z</time></trkpt><trkpt lat="45.575036269637835" lon="9.222441182765467"><ele>160.0</ele><time>2026-04-23T17:32:37.999Z</time></trkpt><trkpt lat="45.57483358579053" lon="9.222750563567173"><ele>160.0</ele><time>2026-04-23T17:32:38.999Z</time></trkpt><trkpt lat="45.57464934033055" lon="9.223045779332965"><ele>161.0</ele><time>2026-04-23T17:32:39.999Z</time></trkpt><trkpt lat="45.574427010968364" lon="9.223324590990151"><ele>162.0</ele><time>2026-04-23T17:32:40.999Z</time></trkpt><trkpt lat="45.57420369265576" lon="9.223618241883258"><ele>162.0</ele><time>2026-04-23T17:32:41.999Z</time></trkpt><trkpt lat="45.5739472155091" lon="9.223906819380417"><ele>162.0</ele><time>2026-04-23T17:32:42.999Z</time></trkpt><trkpt lat="45.5737319255079" lon="9.224199440490667"><ele>164.0</ele><time>2026-04-23T17:32:43.999Z</time></trkpt><trkpt lat="45.5735094206669" lon="9.224490726664575"><ele>166.0</ele><time>2026-04-23T17:32:44.999Z</time></trkpt><trkpt lat="45.573290211918554" lon="9.224779570694901"><ele>166.5</ele><time>2026-04-23T17:32:46.019Z</time></trkpt><trkpt lat="45.57308226638498" lon="9.225062731868277"><ele>167.0</ele><time>2026-04-23T17:32:47.02Z</time></trkpt><trkpt lat="45.57287589524981" lon="9.225346927740317"><ele>164.0</ele><time>2026-04-23T17:32:48.022Z</time></trkpt><trkpt lat="45.57265837297224" lon="9.225634208663296"><ele>161.0</ele><time>2026-04-23T17:32:49.025Z</time></trkpt><trkpt lat="45.571753503797176" lon="9.22555639409388"><ele>159.5</ele><time>2026-04-23T17:32:50.999Z</time></trkpt><trkpt lat="45.571582890656806" lon="9.225774027139003"><ele>158.0</ele><time>2026-04-23T17:32:51.999Z</time></trkpt><trkpt lat="45.571292235894504" lon="9.225933017795894"><ele>157.0</ele><time>2026-04-23T17:32:52.999Z</time></trkpt><trkpt lat="45.57101431717887" lon="9.226114303420863"><ele>156.0</ele><time>2026-04-23T17:32:53.999Z</time></trkpt><trkpt lat="45.57072644454551" lon="9.226319354078646"><ele>158.0</ele><time>2026-04-23T17:32:54.999Z</time></trkpt><trkpt lat="45.57046659362188" lon="9.226480220772915"><ele>160.0</ele><time>2026-04-23T17:32:55.999Z</time></trkpt><trkpt lat="45.5702089927023" lon="9.226656673519948"><ele>160.5</ele><time>2026-04-23T17:32:56.999Z</time></trkpt><trkpt lat="45.569942412973305" lon="9.226823949354667"><ele>161.0</ele><time>2026-04-23T17:32:57.999Z</time></trkpt><trkpt lat="45.56971476928314" lon="9.226997603743188"><ele>161.0</ele><time>2026-04-23T17:32:58.999Z</time></trkpt><trkpt lat="45.56945169970294" lon="9.22718572824275"><ele>161.0</ele><time>2026-04-23T17:32:59.999Z</time></trkpt><trkpt lat="45.569193770764066" lon="9.227397303111998"><ele>159.5</ele><time>2026-04-23T17:33:00.999Z</time></trkpt><trkpt lat="45.56893939154359" lon="9.227614700477222"><ele>158.0</ele><time>2026-04-23T17:33:02.014Z</time></trkpt><trkpt lat="45.568674522795035" lon="9.227824854205418"><ele>158.0</ele><time>2026-04-23T17:33:03.021Z</time></trkpt><trkpt lat="45.56842279647219" lon="9.228033778439457"><ele>158.0</ele><time>2026-04-23T17:33:03.999Z</time></trkpt><trkpt lat="45.56817687313597" lon="9.228175794125008"><ele>157.5</ele><time>2026-04-23T17:33:04.999Z</time></trkpt><trkpt lat="45.56806162951164" lon="9.22845941342032"><ele>157.0</ele><time>2026-04-23T17:33:05.999Z</time></trkpt><trkpt lat="45.567850220275005" lon="9.228727912993396"><ele>155.5</ele><time>2026-04-23T17:33:06.999Z</time></trkpt><trkpt lat="45.56765321674292" lon="9.228976084675436"><ele>154.0</ele><time>2026-04-23T17:33:07.999Z</time></trkpt><trkpt lat="45.56746840919189" lon="9.229199636833002"><ele>154.0</ele><time>2026-04-23T17:33:08.999Z</time></trkpt><trkpt lat="45.56733584205496" lon="9.229380226276254"><ele>154.0</ele><time>2026-04-23T17:33:09.999Z</time></trkpt><trkpt lat="45.56717897912963" lon="9.229494253908324"><ele>154.0</ele><time>2026-04-23T17:33:10.999Z</time></trkpt><trkpt lat="45.56703202107965" lon="9.229661991908484"><ele>154.66666666666669</ele><time>2026-04-23T17:33:11.999Z</time></trkpt><trkpt lat="45.56689315238271" lon="9.22983104382975"><ele>155.33333333333334</ele><time>2026-04-23T17:33:12.999Z</time></trkpt><trkpt lat="45.56675657398379" lon="9.229991549365433"><ele>156.0</ele><time>2026-04-23T17:33:13.999Z</time></trkpt><trkpt lat="45.566603322815055" lon="9.230149850053117"><ele>156.0</ele><time>2026-04-23T17:33:14.999Z</time></trkpt><trkpt lat="45.56651329023032" lon="9.23024112542145"><ele>156.0</ele><time>2026-04-23T17:33:15.999Z</time></trkpt><trkpt lat="45.56641292425345" lon="9.230481045936578"><ele>156.0</ele><time>2026-04-23T17:33:16.999Z</time></trkpt><trkpt lat="45.56629977852891" lon="9.230648319467328"><ele>156.0</ele><time>2026-04-23T17:33:17.999Z</time></trkpt><trkpt lat="45.566196737533566" lon="9.23080155509294"><ele>156.0</ele><time>2026-04-23T17:33:19Z</time></trkpt><trkpt lat="45.56608785302086" lon="9.230962503301466"><ele>156.0</ele><time>2026-04-23T17:33:20Z</time></trkpt><trkpt lat="45.5659892069854" lon="9.231115959487653"><ele>156.0</ele><time>2026-04-23T17:33:21Z</time></trkpt><trkpt lat="45.56589760456495" lon="9.231264997045995"><ele>156.0</ele><time>2026-04-23T17:33:22Z</time></trkpt><trkpt lat="45.565810221160916" lon="9.231408614425309"><ele>156.0</ele><time>2026-04-23T17:33:23Z</time></trkpt><trkpt lat="45.56571600208025" lon="9.231548018616659"><ele>156.0</ele><time>2026-04-23T17:33:24Z</time></trkpt><trkpt lat="45.5656428856497" lon="9.2316829549859"><ele>156.25</ele><time>2026-04-23T17:33:25Z</time></trkpt><trkpt lat="45.56555018212832" lon="9.231832716215767"><ele>156.5</ele><time>2026-04-23T17:33:26Z</time></trkpt><trkpt lat="45.56545473176287" lon="9.231994371785099"><ele>156.75</ele><time>2026-04-23T17:33:27Z</time></trkpt><trkpt lat="45.565361782904255" lon="9.232154159238796"><ele>157.0</ele><time>2026-04-23T17:33:28Z</time></trkpt><trkpt lat="45.565268472202476" lon="9.232320230602342"><ele>157.0</ele><time>2026-04-23T17:33:29Z</time></trkpt><trkpt lat="45.56517642502041" lon="9.232484181719581"><ele>157.0</ele><time>2026-04-23T17:33:30Z</time></trkpt><trkpt lat="45.56509991555569" lon="9.232640095236029"><ele>157.0</ele><time>2026-04-23T17:33:31Z</time></trkpt><trkpt lat="45.5650395158553" lon="9.232745053950934"><ele>157.0</ele><time>2026-04-23T17:33:32Z</time></trkpt><trkpt lat="45.5649049069194" lon="9.232993833981002"><ele>156.5</ele><time>2026-04-23T17:33:33Z</time></trkpt><trkpt lat="45.564807486748926" lon="9.23317051912195"><ele>156.0</ele><time>2026-04-23T17:33:34Z</time></trkpt><trkpt lat="45.564769385519895" lon="9.233298898637432"><ele>155.5</ele><time>2026-04-23T17:33:35Z</time></trkpt><trkpt lat="45.564692907678435" lon="9.233478305856288"><ele>155.0</ele><time>2026-04-23T17:33:36Z</time></trkpt><trkpt lat="45.564610457367536" lon="9.233632644075145"><ele>155.33333333333331</ele><time>2026-04-23T17:33:37Z</time></trkpt><trkpt lat="45.564520710603865" lon="9.233846634668422"><ele>155.66666666666666</ele><time>2026-04-23T17:33:38Z</time></trkpt><trkpt lat="45.56442785611088" lon="9.234026739900978"><ele>156.0</ele><time>2026-04-23T17:33:39Z</time></trkpt><trkpt lat="45.56433655943902" lon="9.23419498511995"><ele>156.0</ele><time>2026-04-23T17:33:40Z</time></trkpt><trkpt lat="45.56426384465038" lon="9.234356989321704"><ele>156.0</ele><time>2026-04-23T17:33:41Z</time></trkpt><trkpt lat="45.564182580935224" lon="9.234519566083476"><ele>156.0</ele><time>2026-04-23T17:33:42Z</time></trkpt><trkpt lat="45.5641045247979" lon="9.234676178502506"><ele>156.0</ele><time>2026-04-23T17:33:43Z</time></trkpt><trkpt lat="45.56402439718282" lon="9.23484011748229"><ele>156.0</ele><time>2026-04-23T17:33:44Z</time></trkpt><trkpt lat="45.56394757425428" lon="9.234988602717811"><ele>156.0</ele><time>2026-04-23T17:33:45Z</time></trkpt><trkpt lat="45.56387586645044" lon="9.235121547094085"><ele>156.0</ele><time>2026-04-23T17:33:46Z</time></trkpt><trkpt lat="45.56381434386817" lon="9.235261398926301"><ele>156.0</ele><time>2026-04-23T17:33:47Z</time></trkpt><trkpt lat="45.56376614251741" lon="9.235386546010066"><ele>155.5</ele><time>2026-04-23T17:33:48Z</time></trkpt><trkpt lat="45.563656702399655" lon="9.235498757098771"><ele>155.0</ele><time>2026-04-23T17:33:49Z</time></trkpt><trkpt lat="45.563582204176846" lon="9.235616515410882"><ele>154.5</ele><time>2026-04-23T17:33:50Z</time></trkpt><trkpt lat="45.563505960183875" lon="9.235727099037431"><ele>154.0</ele><time>2026-04-23T17:33:51Z</time></trkpt><trkpt lat="45.56344630436393" lon="9.23585600814806"><ele>153.4</ele><time>2026-04-23T17:33:52Z</time></trkpt><trkpt lat="45.56337610612683" lon="9.235988342367419"><ele>152.8</ele><time>2026-04-23T17:33:53Z</time></trkpt><trkpt lat="45.56330881440126" lon="9.236120038967771"><ele>152.2</ele><time>2026-04-23T17:33:54Z</time></trkpt><trkpt lat="45.56323723115426" lon="9.23624358292813"><ele>151.6</ele><time>2026-04-23T17:33:55Z</time></trkpt><trkpt lat="45.563168269131346" lon="9.2363128526879"><ele>151.0</ele><time>2026-04-23T17:33:56Z</time></trkpt><trkpt lat="45.56310160348281" lon="9.236414190891848"><ele>151.4</ele><time>2026-04-23T17:33:57Z</time></trkpt><trkpt lat="45.56304269044292" lon="9.236507227579194"><ele>151.8</ele><time>2026-04-23T17:33:58Z</time></trkpt><trkpt lat="45.56298964584244" lon="9.236620891014846"><ele>152.20000000000002</ele><time>2026-04-23T17:33:59Z</time></trkpt><trkpt lat="45.56293335941128" lon="9.23673159303288"><ele>152.6</ele><time>2026-04-23T17:34:00Z</time></trkpt><trkpt lat="45.56284902792147" lon="9.236863922849887"><ele>153.0</ele><time>2026-04-23T17:34:01Z</time></trkpt><trkpt lat="45.56280414537439" lon="9.236949867168457"><ele>153.16666666666666</ele><time>2026-04-23T17:34:02Z</time></trkpt><trkpt lat="45.56271939254076" lon="9.237039547146106"><ele>153.33333333333334</ele><time>2026-04-23T17:34:03Z</time></trkpt><trkpt lat="45.56266306375897" lon="9.237116304182615"><ele>153.5</ele><time>2026-04-23T17:34:05Z</time></trkpt><trkpt lat="45.562611464536616" lon="9.237206283715699"><ele>153.66666666666669</ele><time>2026-04-23T17:34:07Z</time></trkpt><trkpt lat="45.562569656543474" lon="9.237287806526433"><ele>153.83333333333334</ele><time>2026-04-23T17:34:08Z</time></trkpt><trkpt lat="45.56253173478958" lon="9.237372687908302"><ele>154.0</ele><time>2026-04-23T17:34:09Z</time></trkpt><trkpt lat="45.56248014399834" lon="9.237450463575632"><ele>153.5</ele><time>2026-04-23T17:34:10Z</time></trkpt><trkpt lat="45.5623906155548" lon="9.237577614156352"><ele>153.0</ele><time>2026-04-23T17:34:11Z</time></trkpt><trkpt lat="45.56231553128513" lon="9.237689598815725"><ele>152.5</ele><time>2026-04-23T17:34:12Z</time></trkpt><trkpt lat="45.562239776113316" lon="9.237816922372524"><ele>152.0</ele><time>2026-04-23T17:34:13Z</time></trkpt><trkpt lat="45.56215574656874" lon="9.237919404014686"><ele>152.0</ele><time>2026-04-23T17:34:14Z</time></trkpt><trkpt lat="45.5620830035848" lon="9.238032914856593"><ele>152.0</ele><time>2026-04-23T17:34:14.999Z</time></trkpt><trkpt lat="45.56201544656573" lon="9.23813603723798"><ele>152.0</ele><time>2026-04-23T17:34:15.999Z</time></trkpt><trkpt lat="45.5619375841841" lon="9.238236422457192"><ele>152.0</ele><time>2026-04-23T17:34:16.999Z</time></trkpt><trkpt lat="45.561872097867095" lon="9.238279497191716"><ele>152.0</ele><time>2026-04-23T17:34:17.999Z</time></trkpt><trkpt lat="45.5618426076528" lon="9.238391149222533"><ele>152.0</ele><time>2026-04-23T17:34:18.999Z</time></trkpt><trkpt lat="45.56179234595857" lon="9.238480015863122"><ele>152.0</ele><time>2026-04-23T17:34:19.999Z</time></trkpt><trkpt lat="45.561741245214215" lon="9.23855315308238"><ele>152.0</ele><time>2026-04-23T17:34:21.999Z</time></trkpt><trkpt lat="45.56168933068124" lon="9.238630367639347"><ele>152.0</ele><time>2026-04-23T17:34:23.999Z</time></trkpt><trkpt lat="45.56163048649599" lon="9.238722191534835"><ele>152.0</ele><time>2026-04-23T17:34:24.999Z</time></trkpt><trkpt lat="45.561577181300244" lon="9.238811870632436"><ele>152.0</ele><time>2026-04-23T17:34:25.999Z</time></trkpt><trkpt lat="45.56149198218137" lon="9.23894576532176"><ele>152.0</ele><time>2026-04-23T17:34:27.999Z</time></trkpt><trkpt lat="45.56144435841862" lon="9.23901138742596"><ele>152.0</ele><time>2026-04-23T17:34:29.018Z</time></trkpt><trkpt lat="45.561403707446075" lon="9.239087597761872"><ele>152.0</ele><time>2026-04-23T17:34:30.024Z</time></trkpt><trkpt lat="45.56136264967708" lon="9.239163275471684"><ele>152.0</ele><time>2026-04-23T17:34:31.021Z</time></trkpt><trkpt lat="45.561275346675046" lon="9.239175922956496"><ele>152.0</ele><time>2026-04-23T17:34:32.018Z</time></trkpt><trkpt lat="45.56121274707493" lon="9.239257736506117"><ele>152.0</ele><time>2026-04-23T17:34:32.999Z</time></trkpt><trkpt lat="45.56090131909316" lon="9.239655588669725"><ele>151.66666666666666</ele><time>2026-04-23T17:34:33.999Z</time></trkpt><trkpt lat="45.560844140550635" lon="9.239970523603334"><ele>151.33333333333334</ele><time>2026-04-23T17:34:34.999Z</time></trkpt><trkpt lat="45.56077071804235" lon="9.240138505871371"><ele>151.0</ele><time>2026-04-23T17:34:35.999Z</time></trkpt><trkpt lat="45.560714336409504" lon="9.240274481259462"><ele>151.0</ele><time>2026-04-23T17:34:36.999Z</time></trkpt><trkpt lat="45.560673075142525" lon="9.240410929621582"><ele>151.0</ele><time>2026-04-23T17:34:37.999Z</time></trkpt><trkpt lat="45.56061644140796" lon="9.240563420686755"><ele>151.0</ele><time>2026-04-23T17:34:38.999Z</time></trkpt><trkpt lat="45.560562224053726" lon="9.240731855657929"><ele>151.0</ele><time>2026-04-23T17:34:39.999Z</time></trkpt><trkpt lat="45.56051569247026" lon="9.240911082665948"><ele>150.75</ele><time>2026-04-23T17:34:40.999Z</time></trkpt><trkpt lat="45.56047653746456" lon="9.24108347861564"><ele>150.5</ele><time>2026-04-23T17:34:41.999Z</time></trkpt><trkpt lat="45.56043395651921" lon="9.241234495808575"><ele>150.25</ele><time>2026-04-23T17:34:42.999Z</time></trkpt><trkpt lat="45.560364618214" lon="9.24140553779632"><ele>150.0</ele><time>2026-04-23T17:34:43.999Z</time></trkpt><trkpt lat="45.56033873196188" lon="9.24151780785924"><ele>150.6</ele><time>2026-04-23T17:34:44.999Z</time></trkpt><trkpt lat="45.56025354212246" lon="9.2416836616433"><ele>151.2</ele><time>2026-04-23T17:34:45.999Z</time></trkpt><trkpt lat="45.5602213577515" lon="9.241804250102849"><ele>151.8</ele><time>2026-04-23T17:34:46.999Z</time></trkpt><trkpt lat="45.56018508329598" lon="9.241923158095975"><ele>152.4</ele><time>2026-04-23T17:34:47.999Z</time></trkpt><trkpt lat="45.56016050058171" lon="9.242035759835156"><ele>153.0</ele><time>2026-04-23T17:34:48.999Z</time></trkpt><trkpt lat="45.560127791659944" lon="9.24216006943583"><ele>153.0</ele><time>2026-04-23T17:34:49.999Z</time></trkpt><trkpt lat="45.56016864725695" lon="9.242229598332951"><ele>153.0</ele><time>2026-04-23T17:34:50.999Z</time></trkpt><trkpt lat="45.56013892115277" lon="9.242400833995822"><ele>153.0</ele><time>2026-04-23T17:34:51.999Z</time></trkpt><trkpt lat="45.560120521768155" lon="9.242525488184834"><ele>153.0</ele><time>2026-04-23T17:34:52.999Z</time></trkpt><trkpt lat="45.56009776010022" lon="9.242645267305765"><ele>153.0</ele><time>2026-04-23T17:34:53.999Z</time></trkpt><trkpt lat="45.56011158317402" lon="9.242818193655621"><ele>152.4</ele><time>2026-04-23T17:34:54.999Z</time></trkpt><trkpt lat="45.56004158324613" lon="9.242963522877458"><ele>151.8</ele><time>2026-04-23T17:34:56.999Z</time></trkpt><trkpt lat="45.560015871565945" lon="9.243051175033356"><ele>151.2</ele><time>2026-04-23T17:34:57.999Z</time></trkpt><trkpt lat="45.55991921712471" lon="9.243103847984967"><ele>150.6</ele><time>2026-04-23T17:34:59.999Z</time></trkpt><trkpt lat="45.55984422616333" lon="9.243204436219209"><ele>150.0</ele><time>2026-04-23T17:35:01.999Z</time></trkpt><trkpt lat="45.55997728359795" lon="9.243462509760057"><ele>150.0</ele><time>2026-04-23T17:35:03.999Z</time></trkpt><trkpt lat="45.55973283769423" lon="9.243212987961268"><ele>150.0</ele><time>2026-04-23T17:35:04.999Z</time></trkpt><trkpt lat="45.55965025419366" lon="9.243201913348324"><ele>150.0</ele><time>2026-04-23T17:35:06.999Z</time></trkpt><trkpt lat="45.55954321314385" lon="9.24310295058222"><ele>151.0</ele><time>2026-04-23T17:35:10.999Z</time></trkpt><trkpt lat="45.559483691508504" lon="9.242938539871746"><ele>152.0</ele><time>2026-04-23T17:35:12.999Z</time></trkpt><trkpt lat="45.55947329829123" lon="9.242844222279647"><ele>153.0</ele><time>2026-04-23T17:35:13.999Z</time></trkpt><trkpt lat="45.55946305556292" lon="9.242736966147579"><ele>154.0</ele><time>2026-04-23T17:35:14.999Z</time></trkpt><trkpt lat="45.55946708495583" lon="9.24257631856989"><ele>155.0</ele><time>2026-04-23T17:35:16.999Z</time></trkpt><trkpt lat="45.55946644116981" lon="9.242455718254027"><ele>155.0</ele><time>2026-04-23T17:35:17.999Z</time></trkpt><trkpt lat="45.55947243895228" lon="9.242256337136494"><ele>155.0</ele><time>2026-04-23T17:35:19.999Z</time></trkpt><trkpt lat="45.55949688436051" lon="9.242161461917474"><ele>155.0</ele><time>2026-04-23T17:35:20.999Z</time></trkpt><trkpt lat="45.55954284164397" lon="9.242049702747911"><ele>155.0</ele><time>2026-04-23T17:35:21.999Z</time></trkpt><trkpt lat="45.55960544603946" lon="9.241953498414174"><ele>155.0</ele><time>2026-04-23T17:35:22.999Z</time></trkpt><trkpt lat="45.55967996205102" lon="9.241888542272626"><ele>154.6</ele><time>2026-04-23T17:35:23.999Z</time></trkpt><trkpt lat="45.55974051593605" lon="9.24185432862562"><ele>154.2</ele><time>2026-04-23T17:35:25Z</time></trkpt><trkpt lat="45.55983861651355" lon="9.241826665402431"><ele>153.8</ele><time>2026-04-23T17:35:27Z</time></trkpt><trkpt lat="45.559934090798706" lon="9.241823447368475"><ele>153.4</ele><time>2026-04-23T17:35:29Z</time></trkpt><trkpt lat="45.560062775816824" lon="9.241837496048934"><ele>153.0</ele><time>2026-04-23T17:35:31Z</time></trkpt><trkpt lat="45.560128456552874" lon="9.241864363192082"><ele>153.0</ele><time>2026-04-23T17:35:32Z</time></trkpt><trkpt lat="45.560196711334434" lon="9.241891653472472"><ele>153.0</ele><time>2026-04-23T17:35:33Z</time></trkpt><trkpt lat="45.560277828114536" lon="9.241923470458262"><ele>153.0</ele><time>2026-04-23T17:35:34Z</time></trkpt><trkpt lat="45.56040030708464" lon="9.241971409409413"><ele>153.0</ele><time>2026-04-23T17:35:38Z</time></trkpt><trkpt lat="45.56047007858876" lon="9.241998516278157"><ele>153.0</ele><time>2026-04-23T17:35:39Z</time></trkpt><trkpt lat="45.560536698428436" lon="9.242023928704032"><ele>153.0</ele><time>2026-04-23T17:35:40Z</time></trkpt><trkpt lat="45.56061274752866" lon="9.24205428005233"><ele>152.6</ele><time>2026-04-23T17:35:41Z</time></trkpt><trkpt lat="45.560681872353605" lon="9.24208177462592"><ele>152.20000000000002</ele><time>2026-04-23T17:35:42Z</time></trkpt><trkpt lat="45.560757187405244" lon="9.242111731414905"><ele>151.8</ele><time>2026-04-23T17:35:43Z</time></trkpt><trkpt lat="45.56089831399034" lon="9.242173254565952"><ele>151.4</ele><time>2026-04-23T17:35:45Z</time></trkpt><trkpt lat="45.560973913134795" lon="9.242206076240633"><ele>151.0</ele><time>2026-04-23T17:35:46Z</time></trkpt><trkpt lat="45.56104504544083" lon="9.24223782233856"><ele>151.0</ele><time>2026-04-23T17:35:47Z</time></trkpt><trkpt lat="45.56111695207787" lon="9.242271128634691"><ele>151.0</ele><time>2026-04-23T17:35:48Z</time></trkpt><trkpt lat="45.561181927119094" lon="9.242302582951403"><ele>151.0</ele><time>2026-04-23T17:35:49Z</time></trkpt><trkpt lat="45.561293091066695" lon="9.242358854920951"><ele>151.0</ele><time>2026-04-23T17:35:51Z</time></trkpt><trkpt lat="45.56138994547578" lon="9.242407026306571"><ele>151.0</ele><time>2026-04-23T17:35:53Z</time></trkpt><trkpt lat="45.561459582312736" lon="9.242439466619803"><ele>151.0</ele><time>2026-04-23T17:35:55Z</time></trkpt><trkpt lat="45.56155518765892" lon="9.242478060588638"><ele>152.0</ele><time>2026-04-23T17:35:57Z</time></trkpt><trkpt lat="45.56165425568784" lon="9.242516206146504"><ele>153.0</ele><time>2026-04-23T17:35:59Z</time></trkpt><trkpt lat="45.56172120839201" lon="9.242541428397685"><ele>154.0</ele><time>2026-04-23T17:36:00Z</time></trkpt><trkpt lat="45.56180021915141" lon="9.242570511392351"><ele>155.0</ele><time>2026-04-23T17:36:02Z</time></trkpt><trkpt lat="45.56190499754472" lon="9.242609079176383"><ele>156.0</ele><time>2026-04-23T17:36:03Z</time></trkpt><trkpt lat="45.56196766020644" lon="9.24263214461416"><ele>157.0</ele><time>2026-04-23T17:36:04Z</time></trkpt><trkpt lat="45.5620407555276" lon="9.242658440075823"><ele>157.25</ele><time>2026-04-23T17:36:05Z</time></trkpt><trkpt lat="45.562125742770796" lon="9.242688790506218"><ele>157.5</ele><time>2026-04-23T17:36:06Z</time></trkpt><trkpt lat="45.562190710722305" lon="9.242711991700457"><ele>157.75</ele><time>2026-04-23T17:36:07Z</time></trkpt><trkpt lat="45.562266381550685" lon="9.242739015079163"><ele>158.0</ele><time>2026-04-23T17:36:08Z</time></trkpt><trkpt lat="45.562313043989455" lon="9.243149965176615"><ele>158.0</ele><time>2026-04-23T17:36:10Z</time></trkpt><trkpt lat="45.56239515545581" lon="9.243063838926783"><ele>158.0</ele><time>2026-04-23T17:36:11Z</time></trkpt><trkpt lat="45.56246709047517" lon="9.24306472953158"><ele>158.0</ele><time>2026-04-23T17:36:12Z</time></trkpt><trkpt lat="45.562541950153175" lon="9.243064480245884"><ele>158.0</ele><time>2026-04-23T17:36:13Z</time></trkpt><trkpt lat="45.562671161581875" lon="9.242892499766612"><ele>158.0</ele><time>2026-04-23T17:36:14Z</time></trkpt><trkpt lat="45.56274092842226" lon="9.242919485058867"><ele>158.0</ele><time>2026-04-23T17:36:15Z</time></trkpt><trkpt lat="45.562825062435735" lon="9.242952027461897"><ele>158.0</ele><time>2026-04-23T17:36:18Z</time></trkpt><trkpt lat="45.56290523918447" lon="9.242983039257616"><ele>158.0</ele><time>2026-04-23T17:36:20Z</time></trkpt><trkpt lat="45.562978519556054" lon="9.2430098102457"><ele>158.0</ele><time>2026-04-23T17:36:22Z</time></trkpt><trkpt lat="45.56308434463854" lon="9.243046661554102"><ele>158.0</ele><time>2026-04-23T17:36:24Z</time></trkpt><trkpt lat="45.56316204908618" lon="9.243072536314978"><ele>158.0</ele><time>2026-04-23T17:36:25Z</time></trkpt><trkpt lat="45.56332919025265" lon="9.243131114483594"><ele>158.0</ele><time>2026-04-23T17:36:27Z</time></trkpt><trkpt lat="45.5634451515101" lon="9.243193641352347"><ele>158.0</ele><time>2026-04-23T17:36:28.999Z</time></trkpt><trkpt lat="45.56355671826056" lon="9.24324236599746"><ele>158.0</ele><time>2026-04-23T17:36:30.999Z</time></trkpt><trkpt lat="45.56366277226153" lon="9.243283079500934"><ele>158.0</ele><time>2026-04-23T17:36:33.999Z</time></trkpt><trkpt lat="45.56372906442941" lon="9.243309602005153"><ele>158.0</ele><time>2026-04-23T17:36:34.999Z</time></trkpt><trkpt lat="45.56380456007782" lon="9.243339806701867"><ele>158.0</ele><time>2026-04-23T17:36:35.999Z</time></trkpt><trkpt lat="45.56389523008684" lon="9.243376242978494"><ele>158.0</ele><time>2026-04-23T17:36:36.999Z</time></trkpt><trkpt lat="45.564007610259694" lon="9.24342275587954"><ele>158.0</ele><time>2026-04-23T17:36:37.999Z</time></trkpt><trkpt lat="45.56409054150549" lon="9.243457080222248"><ele>158.0</ele><time>2026-04-23T17:36:38.999Z</time></trkpt><trkpt lat="45.564182816544196" lon="9.243495271837418"><ele>158.0</ele><time>2026-04-23T17:36:39.999Z</time></trkpt><trkpt lat="45.56427030489295" lon="9.243533947009698"><ele>158.0</ele><time>2026-04-23T17:36:40.999Z</time></trkpt><trkpt lat="45.56439286228877" lon="9.243589407907352"><ele>158.0</ele><time>2026-04-23T17:36:41.999Z</time></trkpt><trkpt lat="45.56446185785197" lon="9.243608274620152"><ele>158.0</ele><time>2026-04-23T17:36:42.999Z</time></trkpt><trkpt lat="45.56458841251711" lon="9.243652446809692"><ele>158.0</ele><time>2026-04-23T17:36:44.999Z</time></trkpt><trkpt lat="45.56475702252452" lon="9.243877317059184"><ele>158.0</ele><time>2026-04-23T17:36:45.999Z</time></trkpt><trkpt lat="45.564912480131404" lon="9.243958924260408"><ele>158.0</ele><time>2026-04-23T17:36:46.999Z</time></trkpt><trkpt lat="45.565011269247485" lon="9.243972423180612"><ele>158.0</ele><time>2026-04-23T17:36:47.999Z</time></trkpt><trkpt lat="45.56513576743699" lon="9.244029529406799"><ele>158.0</ele><time>2026-04-23T17:36:48.999Z</time></trkpt><trkpt lat="45.56528524143653" lon="9.244089604679676"><ele>158.33333333333331</ele><time>2026-04-23T17:36:49.999Z</time></trkpt><trkpt lat="45.56540969259911" lon="9.2441557122087"><ele>158.66666666666666</ele><time>2026-04-23T17:36:50.999Z</time></trkpt><trkpt lat="45.56560196743979" lon="9.244221873824593"><ele>159.0</ele><time>2026-04-23T17:36:51.999Z</time></trkpt><trkpt lat="45.56575169984948" lon="9.244277043047296"><ele>159.0</ele><time>2026-04-23T17:36:52.999Z</time></trkpt><trkpt lat="45.565896229865245" lon="9.244327256102912"><ele>159.0</ele><time>2026-04-23T17:36:53.999Z</time></trkpt><trkpt lat="45.56603058103743" lon="9.244379852659268"><ele>159.0</ele><time>2026-04-23T17:36:54.999Z</time></trkpt><trkpt lat="45.56619004101364" lon="9.244443441234816"><ele>159.0</ele><time>2026-04-23T17:36:55.999Z</time></trkpt><trkpt lat="45.56637915005278" lon="9.244565422869032"><ele>159.0</ele><time>2026-04-23T17:36:56.999Z</time></trkpt><trkpt lat="45.56663974632265" lon="9.244659446846562"><ele>159.0</ele><time>2026-04-23T17:36:57.999Z</time></trkpt><trkpt lat="45.566880667592066" lon="9.244766137964032"><ele>159.0</ele><time>2026-04-23T17:36:58.999Z</time></trkpt><trkpt lat="45.56718599314979" lon="9.244878141734405"><ele>158.5</ele><time>2026-04-23T17:36:59.999Z</time></trkpt><trkpt lat="45.567466762323015" lon="9.244996594577628"><ele>158.0</ele><time>2026-04-23T17:37:00.999Z</time></trkpt><trkpt lat="45.56774272200568" lon="9.245112186974493"><ele>159.5</ele><time>2026-04-23T17:37:01.999Z</time></trkpt><trkpt lat="45.56801258642253" lon="9.245230828980693"><ele>161.0</ele><time>2026-04-23T17:37:02.999Z</time></trkpt><trkpt lat="45.56829448687146" lon="9.24534044078542"><ele>161.0</ele><time>2026-04-23T17:37:03.999Z</time></trkpt><trkpt lat="45.568566420663544" lon="9.245449637579526"><ele>161.0</ele><time>2026-04-23T17:37:04.999Z</time></trkpt><trkpt lat="45.568821413687836" lon="9.245552676390114"><ele>160.0</ele><time>2026-04-23T17:37:05.999Z</time></trkpt><trkpt lat="45.56903765721494" lon="9.245643928222622"><ele>159.0</ele><time>2026-04-23T17:37:06.999Z</time></trkpt><trkpt lat="45.56925973694004" lon="9.245729943686879"><ele>159.0</ele><time>2026-04-23T17:37:07.999Z</time></trkpt><trkpt lat="45.56943637341404" lon="9.245829300971918"><ele>159.0</ele><time>2026-04-23T17:37:08.999Z</time></trkpt><trkpt lat="45.569622043379766" lon="9.245924597929267"><ele>159.0</ele><time>2026-04-23T17:37:09.999Z</time></trkpt><trkpt lat="45.56977953779653" lon="9.246017116812647"><ele>159.33333333333334</ele><time>2026-04-23T17:37:10.999Z</time></trkpt><trkpt lat="45.56995207568895" lon="9.246128742366496"><ele>159.66666666666669</ele><time>2026-04-23T17:37:11.999Z</time></trkpt><trkpt lat="45.57012911405517" lon="9.246163431590826"><ele>160.0</ele><time>2026-04-23T17:37:12.999Z</time></trkpt><trkpt lat="45.5702629291637" lon="9.246303971821888"><ele>160.75</ele><time>2026-04-23T17:37:13.999Z</time></trkpt><trkpt lat="45.57037571221844" lon="9.246419107788565"><ele>161.5</ele><time>2026-04-23T17:37:14.999Z</time></trkpt><trkpt lat="45.57051412538938" lon="9.246521943657344"><ele>162.25</ele><time>2026-04-23T17:37:15.999Z</time></trkpt><trkpt lat="45.57064147016024" lon="9.246594336744838"><ele>163.0</ele><time>2026-04-23T17:37:16.999Z</time></trkpt><trkpt lat="45.570725255780744" lon="9.246663545028365"><ele>163.0</ele><time>2026-04-23T17:37:17.999Z</time></trkpt><trkpt lat="45.570794671889836" lon="9.24681292858736"><ele>163.0</ele><time>2026-04-23T17:37:20.999Z</time></trkpt><trkpt lat="45.57088554926451" lon="9.246874842331197"><ele>163.0</ele><time>2026-04-23T17:37:21.999Z</time></trkpt><trkpt lat="45.57081463138511" lon="9.246934511987426"><ele>163.0</ele><time>2026-04-23T17:37:22.999Z</time></trkpt><trkpt lat="45.57085677724539" lon="9.247128480458574"><ele>163.0</ele><time>2026-04-23T17:37:24.999Z</time></trkpt><trkpt lat="45.57093281674506" lon="9.247145198129678"><ele>163.0</ele><time>2026-04-23T17:37:25.999Z</time></trkpt><trkpt lat="45.57101334959293" lon="9.247170859861148"><ele>163.0</ele><time>2026-04-23T17:37:26.999Z</time></trkpt><trkpt lat="45.57114061767467" lon="9.247169149948276"><ele>163.0</ele><time>2026-04-23T17:37:28.999Z</time></trkpt><trkpt lat="45.571214795376505" lon="9.247157697353797"><ele>163.0</ele><time>2026-04-23T17:37:29.999Z</time></trkpt><trkpt lat="45.57130539777645" lon="9.247146555883255"><ele>163.5</ele><time>2026-04-23T17:37:31Z</time></trkpt><trkpt lat="45.571371284725906" lon="9.24713564139339"><ele>164.0</ele><time>2026-04-23T17:37:32Z</time></trkpt><trkpt lat="45.57143424670347" lon="9.247126090353392"><ele>164.5</ele><time>2026-04-23T17:37:33Z</time></trkpt><trkpt lat="45.57161685181067" lon="9.24738574792937"><ele>165.0</ele><time>2026-04-23T17:37:39Z</time></trkpt><trkpt lat="45.57167263391563" lon="9.247495879749513"><ele>165.0</ele><time>2026-04-23T17:37:42Z</time></trkpt><trkpt lat="45.571704473665854" lon="9.247677334660784"><ele>165.0</ele><time>2026-04-23T17:37:44Z</time></trkpt><trkpt lat="45.571669410627884" lon="9.247558354273975"><ele>165.0</ele><time>2026-04-23T17:37:45Z</time></trkpt><trkpt lat="45.57171291196501" lon="9.247724348229553"><ele>165.0</ele><time>2026-04-23T17:37:47Z</time></trkpt><trkpt lat="45.571715673615095" lon="9.247843500820519"><ele>165.0</ele><time>2026-04-23T17:37:48Z</time></trkpt><trkpt lat="45.5717422156146" lon="9.247956817482486"><ele>165.0</ele><time>2026-04-23T17:37:49Z</time></trkpt><trkpt lat="45.571771476284724" lon="9.24807021014109"><ele>165.0</ele><time>2026-04-23T17:37:50Z</time></trkpt><trkpt lat="45.57182099172658" lon="9.248196513822439"><ele>165.0</ele><time>2026-04-23T17:37:51Z</time></trkpt><trkpt lat="45.57186693102271" lon="9.248313351438846"><ele>165.0</ele><time>2026-04-23T17:37:52Z</time></trkpt><trkpt lat="45.57191315244155" lon="9.248442102432739"><ele>165.0</ele><time>2026-04-23T17:37:53Z</time></trkpt><trkpt lat="45.57195212499892" lon="9.248580055500156"><ele>165.0</ele><time>2026-04-23T17:37:54Z</time></trkpt><trkpt lat="45.57199669203499" lon="9.248732972540422"><ele>165.0</ele><time>2026-04-23T17:37:55Z</time></trkpt><trkpt lat="45.57203526549587" lon="9.248865324401175"><ele>165.0</ele><time>2026-04-23T17:37:56Z</time></trkpt><trkpt lat="45.57207306903599" lon="9.248994296293128"><ele>165.0</ele><time>2026-04-23T17:37:57Z</time></trkpt><trkpt lat="45.572115542820924" lon="9.249139405227252"><ele>165.0</ele><time>2026-04-23T17:37:58Z</time></trkpt><trkpt lat="45.57215345203541" lon="9.249255182885365"><ele>164.5</ele><time>2026-04-23T17:37:59Z</time></trkpt><trkpt lat="45.572194771238856" lon="9.249410687649329"><ele>164.0</ele><time>2026-04-23T17:38:00Z</time></trkpt><trkpt lat="45.57223338893819" lon="9.249556025295618"><ele>163.5</ele><time>2026-04-23T17:38:01Z</time></trkpt><trkpt lat="45.572285225303595" lon="9.24973203142059"><ele>163.0</ele><time>2026-04-23T17:38:02Z</time></trkpt><trkpt lat="45.57231122126359" lon="9.249899228450566"><ele>163.0</ele><time>2026-04-23T17:38:03Z</time></trkpt><trkpt lat="45.572374257921915" lon="9.250073019219485"><ele>163.0</ele><time>2026-04-23T17:38:04Z</time></trkpt><trkpt lat="45.57241085560924" lon="9.250202886360245"><ele>163.0</ele><time>2026-04-23T17:38:05Z</time></trkpt><trkpt lat="45.57244091662257" lon="9.25032178355879"><ele>163.0</ele><time>2026-04-23T17:38:06Z</time></trkpt><trkpt lat="45.57247875740516" lon="9.250432531568064"><ele>163.0</ele><time>2026-04-23T17:38:07Z</time></trkpt><trkpt lat="45.572501321719976" lon="9.250526128760969"><ele>163.0</ele><time>2026-04-23T17:38:08Z</time></trkpt><trkpt lat="45.57252608404182" lon="9.250609765160743"><ele>163.0</ele><time>2026-04-23T17:38:09Z</time></trkpt><trkpt lat="45.572554912630565" lon="9.250712917549613"><ele>163.0</ele><time>2026-04-23T17:38:11Z</time></trkpt><trkpt lat="45.57258015131202" lon="9.250805851303642"><ele>163.0</ele><time>2026-04-23T17:38:54.999Z</time></trkpt><trkpt lat="45.57260590499684" lon="9.250900681373189"><ele>163.0</ele><time>2026-04-23T17:38:55.999Z</time></trkpt><trkpt lat="45.57263723307669" lon="9.251013591535122"><ele>163.0</ele><time>2026-04-23T17:38:56.999Z</time></trkpt><trkpt lat="45.572660321591925" lon="9.251145078295925"><ele>163.33333333333334</ele><time>2026-04-23T17:38:57.999Z</time></trkpt><trkpt lat="45.572718856911806" lon="9.251322529898717"><ele>163.66666666666666</ele><time>2026-04-23T17:38:58.999Z</time></trkpt><trkpt lat="45.572793036636064" lon="9.251517315695827"><ele>164.0</ele><time>2026-04-23T17:38:59.999Z</time></trkpt><trkpt lat="45.57286256252181" lon="9.251745559639144"><ele>164.66666666666666</ele><time>2026-04-23T17:39:00.999Z</time></trkpt><trkpt lat="45.572936800536226" lon="9.252005851123904"><ele>165.33333333333334</ele><time>2026-04-23T17:39:01.999Z</time></trkpt><trkpt lat="45.57301909660213" lon="9.252290980094815"><ele>166.0</ele><time>2026-04-23T17:39:02.999Z</time></trkpt><trkpt lat="45.57291823769734" lon="9.252004215414757"><ele>166.0</ele><time>2026-04-23T17:39:03.999Z</time></trkpt><trkpt lat="45.57296722659715" lon="9.252153096161498"><ele>166.0</ele><time>2026-04-23T17:39:04.999Z</time></trkpt><trkpt lat="45.5730333558572" lon="9.252385325513975"><ele>166.0</ele><time>2026-04-23T17:39:05.999Z</time></trkpt><trkpt lat="45.57308987522393" lon="9.252575533711221"><ele>166.0</ele><time>2026-04-23T17:39:06.999Z</time></trkpt><trkpt lat="45.57314237193899" lon="9.252770946909147"><ele>166.0</ele><time>2026-04-23T17:39:07.999Z</time></trkpt><trkpt lat="45.57319218796273" lon="9.252947251115492"><ele>166.0</ele><time>2026-04-23T17:39:08.999Z</time></trkpt><trkpt lat="45.57324241878424" lon="9.253115531198453"><ele>166.0</ele><time>2026-04-23T17:39:09.999Z</time></trkpt><trkpt lat="45.57331260294863" lon="9.253371279770795"><ele>166.0</ele><time>2026-04-23T17:39:10.999Z</time></trkpt><trkpt lat="45.573380693733945" lon="9.253618408361643"><ele>166.0</ele><time>2026-04-23T17:39:11.999Z</time></trkpt><trkpt lat="45.57343603409295" lon="9.253834578551706"><ele>166.0</ele><time>2026-04-23T17:39:13.999Z</time></trkpt><trkpt lat="45.573482848123525" lon="9.254006150711007"><ele>166.0</ele><time>2026-04-23T17:39:14.999Z</time></trkpt><trkpt lat="45.57352897390557" lon="9.254142527807307"><ele>166.0</ele><time>2026-04-23T17:39:15.999Z</time></trkpt><trkpt lat="45.573584979359325" lon="9.254266974852095"><ele>166.0</ele><time>2026-04-23T17:39:16.999Z</time></trkpt><trkpt lat="45.573648516233206" lon="9.254445994063532"><ele>166.0</ele><time>2026-04-23T17:39:17.999Z</time></trkpt><trkpt lat="45.573720915504374" lon="9.254763696704545"><ele>166.0</ele><time>2026-04-23T17:39:18.999Z</time></trkpt><trkpt lat="45.573758472457385" lon="9.254922012368086"><ele>166.0</ele><time>2026-04-23T17:39:20.999Z</time></trkpt><trkpt lat="45.57380583805338" lon="9.255097936948088"><ele>166.0</ele><time>2026-04-23T17:39:21.999Z</time></trkpt><trkpt lat="45.57387005641135" lon="9.255343969559465"><ele>166.0</ele><time>2026-04-23T17:39:23.999Z</time></trkpt><trkpt lat="45.573905124880696" lon="9.255470483473143"><ele>166.0</ele><time>2026-04-23T17:39:24.999Z</time></trkpt><trkpt lat="45.573938213142675" lon="9.255586484633682"><ele>166.0</ele><time>2026-04-23T17:39:25.999Z</time></trkpt><trkpt lat="45.57397347884451" lon="9.255732177668284"><ele>166.0</ele><time>2026-04-23T17:39:26.999Z</time></trkpt><trkpt lat="45.57401029581672" lon="9.255849636023342"><ele>166.0</ele><time>2026-04-23T17:39:27.999Z</time></trkpt><trkpt lat="45.57404867645734" lon="9.255978575410738"><ele>166.0</ele><time>2026-04-23T17:39:28.999Z</time></trkpt><trkpt lat="45.57407948750032" lon="9.256071149369003"><ele>165.5</ele><time>2026-04-23T17:39:29.999Z</time></trkpt><trkpt lat="45.57411766684932" lon="9.25625425126511"><ele>165.0</ele><time>2026-04-23T17:39:30.999Z</time></trkpt><trkpt lat="45.57415415942266" lon="9.256394314433196"><ele>164.5</ele><time>2026-04-23T17:39:31.999Z</time></trkpt><trkpt lat="45.574214846487195" lon="9.256569927688236"><ele>164.0</ele><time>2026-04-23T17:39:32.999Z</time></trkpt><trkpt lat="45.57426671309824" lon="9.256751699754757"><ele>163.66666666666666</ele><time>2026-04-23T17:39:33.999Z</time></trkpt><trkpt lat="45.574325233856186" lon="9.256947484932804"><ele>163.33333333333334</ele><time>2026-04-23T17:39:34.999Z</time></trkpt><trkpt lat="45.574375087187285" lon="9.257184343474355"><ele>163.0</ele><time>2026-04-23T17:39:35.999Z</time></trkpt><trkpt lat="45.57446062609589" lon="9.257422046958295"><ele>163.0</ele><time>2026-04-23T17:39:37Z</time></trkpt><trkpt lat="45.57450958135284" lon="9.25760992867466"><ele>163.0</ele><time>2026-04-23T17:39:38Z</time></trkpt><trkpt lat="45.57457456267045" lon="9.25773404779509"><ele>163.0</ele><time>2026-04-23T17:39:40Z</time></trkpt><trkpt lat="45.5745893748443" lon="9.257854972928486"><ele>163.0</ele><time>2026-04-23T17:39:41Z</time></trkpt><trkpt lat="45.57462142426648" lon="9.257968832424787"><ele>163.0</ele><time>2026-04-23T17:39:42Z</time></trkpt><trkpt lat="45.57465562062962" lon="9.258098402610916"><ele>163.8</ele><time>2026-04-23T17:39:43Z</time></trkpt><trkpt lat="45.57470160990848" lon="9.258179414670789"><ele>164.60000000000002</ele><time>2026-04-23T17:39:44Z</time></trkpt><trkpt lat="45.574734923608965" lon="9.258323441638439"><ele>165.39999999999998</ele><time>2026-04-23T17:39:45Z</time></trkpt><trkpt lat="45.574772152739826" lon="9.258445677858232"><ele>166.2</ele><time>2026-04-23T17:39:46Z</time></trkpt><trkpt lat="45.57481596988502" lon="9.258587402390788"><ele>167.0</ele><time>2026-04-23T17:39:47Z</time></trkpt><trkpt lat="45.57483203399261" lon="9.25872559615049"><ele>167.0</ele><time>2026-04-23T17:39:49Z</time></trkpt><trkpt lat="45.57485732337913" lon="9.258837285095552"><ele>167.0</ele><time>2026-04-23T17:39:51Z</time></trkpt><trkpt lat="45.574848758794786" lon="9.258741780633597"><ele>167.0</ele><time>2026-04-23T17:39:57Z</time></trkpt><trkpt lat="45.57474441501053" lon="9.25872541021491"><ele>167.0</ele><time>2026-04-23T17:40:04Z</time></trkpt><trkpt lat="45.57462249798066" lon="9.258644459736882"><ele>167.0</ele><time>2026-04-23T17:40:06Z</time></trkpt><trkpt lat="45.57461982912392" lon="9.258756372382615"><ele>166.33333333333331</ele><time>2026-04-23T17:40:09Z</time></trkpt><trkpt lat="45.57478323893005" lon="9.258975175768352"><ele>165.66666666666666</ele><time>2026-04-23T17:40:15Z</time></trkpt><trkpt lat="45.574807472453955" lon="9.259113707400488"><ele>165.0</ele><time>2026-04-23T17:40:16Z</time></trkpt><trkpt lat="45.57495521527743" lon="9.25904907758061"><ele>165.0</ele><time>2026-04-23T17:40:17Z</time></trkpt><trkpt lat="45.575022796572156" lon="9.259289010359366"><ele>165.0</ele><time>2026-04-23T17:40:18Z</time></trkpt><trkpt lat="45.575054268717466" lon="9.259432612127"><ele>165.0</ele><time>2026-04-23T17:40:19Z</time></trkpt><trkpt lat="45.575114584414095" lon="9.259575219920759"><ele>165.0</ele><time>2026-04-23T17:40:20Z</time></trkpt><trkpt lat="45.57516866256929" lon="9.25978810299252"><ele>164.75</ele><time>2026-04-23T17:40:21Z</time></trkpt><trkpt lat="45.5751900713933" lon="9.259957645779554"><ele>164.5</ele><time>2026-04-23T17:40:22Z</time></trkpt><trkpt lat="45.57521641061762" lon="9.260166802250165"><ele>164.25</ele><time>2026-04-23T17:40:23Z</time></trkpt><trkpt lat="45.57521717256009" lon="9.260391280123065"><ele>164.0</ele><time>2026-04-23T17:40:24Z</time></trkpt><trkpt lat="45.57529523780764" lon="9.260626847878857"><ele>164.0</ele><time>2026-04-23T17:40:25Z</time></trkpt><trkpt lat="45.57535650231996" lon="9.260841028791972"><ele>164.0</ele><time>2026-04-23T17:40:26Z</time></trkpt><trkpt lat="45.57539721415413" lon="9.261053173535192"><ele>164.0</ele><time>2026-04-23T17:40:27Z</time></trkpt><trkpt lat="45.575463964114014" lon="9.261260754797503"><ele>164.0</ele><time>2026-04-23T17:40:28Z</time></trkpt><trkpt lat="45.57550184810614" lon="9.261445237838478"><ele>164.0</ele><time>2026-04-23T17:40:29Z</time></trkpt><trkpt lat="45.575544124368555" lon="9.261630958585723"><ele>164.0</ele><time>2026-04-23T17:40:30Z</time></trkpt><trkpt lat="45.57563650774121" lon="9.261833877363763"><ele>164.0</ele><time>2026-04-23T17:40:31Z</time></trkpt><trkpt lat="45.57569225440228" lon="9.262094451067167"><ele>164.25</ele><time>2026-04-23T17:40:32Z</time></trkpt><trkpt lat="45.57573439877447" lon="9.262278501167378"><ele>164.5</ele><time>2026-04-23T17:40:34Z</time></trkpt><trkpt lat="45.57576592236619" lon="9.262392418289778"><ele>164.75</ele><time>2026-04-23T17:40:35Z</time></trkpt><trkpt lat="45.57584370595327" lon="9.262658476812682"><ele>165.0</ele><time>2026-04-23T17:40:36Z</time></trkpt><trkpt lat="45.575898606530984" lon="9.262851699013437"><ele>165.0</ele><time>2026-04-23T17:40:36.999Z</time></trkpt><trkpt lat="45.57591311180613" lon="9.263072293876604"><ele>165.0</ele><time>2026-04-23T17:40:37.999Z</time></trkpt><trkpt lat="45.57593788159589" lon="9.263259443415059"><ele>165.0</ele><time>2026-04-23T17:40:38.999Z</time></trkpt><trkpt lat="45.575963432129356" lon="9.263458066545036"><ele>165.0</ele><time>2026-04-23T17:40:39.999Z</time></trkpt><trkpt lat="45.57599286328325" lon="9.263679121097447"><ele>165.0</ele><time>2026-04-23T17:40:40.999Z</time></trkpt><trkpt lat="45.57602765495146" lon="9.26390645472044"><ele>165.0</ele><time>2026-04-23T17:40:41.999Z</time></trkpt><trkpt lat="45.576052393325845" lon="9.264058721137573"><ele>165.0</ele><time>2026-04-23T17:40:42.999Z</time></trkpt><trkpt lat="45.57606753023596" lon="9.26415216557245"><ele>165.0</ele><time>2026-04-23T17:40:46.999Z</time></trkpt><trkpt lat="45.576087402547564" lon="9.26426816398507"><ele>165.0</ele><time>2026-04-23T17:40:47.999Z</time></trkpt><trkpt lat="45.576119876522064" lon="9.26446377437632"><ele>165.0</ele><time>2026-04-23T17:40:49.999Z</time></trkpt><trkpt lat="45.57613515518999" lon="9.264557825452812"><ele>165.0</ele><time>2026-04-23T17:40:50.999Z</time></trkpt><trkpt lat="45.5761516614608" lon="9.264648837841246"><ele>165.0</ele><time>2026-04-23T17:40:51.999Z</time></trkpt><trkpt lat="45.57618231633871" lon="9.264816325688296"><ele>165.0</ele><time>2026-04-23T17:40:53.999Z</time></trkpt><trkpt lat="45.57619873192605" lon="9.264903309082227"><ele>165.0</ele><time>2026-04-23T17:40:54.999Z</time></trkpt><trkpt lat="45.57623659584698" lon="9.26510509012237"><ele>165.0</ele><time>2026-04-23T17:40:56.999Z</time></trkpt><trkpt lat="45.57625554335264" lon="9.265210022762574"><ele>165.0</ele><time>2026-04-23T17:40:57.999Z</time></trkpt><trkpt lat="45.57626196630718" lon="9.265345489405547"><ele>165.0</ele><time>2026-04-23T17:40:58.999Z</time></trkpt><trkpt lat="45.57625285057845" lon="9.265457317256567"><ele>165.0</ele><time>2026-04-23T17:40:59.999Z</time></trkpt><trkpt lat="45.57626493599588" lon="9.265553673019205"><ele>165.0</ele><time>2026-04-23T17:41:00.999Z</time></trkpt><trkpt lat="45.57628030274076" lon="9.265642400444444"><ele>165.0</ele><time>2026-04-23T17:41:01.999Z</time></trkpt><trkpt lat="45.576358137624396" lon="9.26577459550261"><ele>165.0</ele><time>2026-04-23T17:41:03.999Z</time></trkpt><trkpt lat="45.57633674183809" lon="9.265869435079567"><ele>165.0</ele><time>2026-04-23T17:41:04.999Z</time></trkpt><trkpt lat="45.576380864148604" lon="9.26603016086451"><ele>165.0</ele><time>2026-04-23T17:41:06.999Z</time></trkpt><trkpt lat="45.57642770226867" lon="9.266203749410925"><ele>165.0</ele><time>2026-04-23T17:41:08.999Z</time></trkpt><trkpt lat="45.57645273627447" lon="9.266309017602692"><ele>165.0</ele><time>2026-04-23T17:41:10.999Z</time></trkpt><trkpt lat="45.57650411264382" lon="9.266475961447346"><ele>165.0</ele><time>2026-04-23T17:41:12.999Z</time></trkpt><trkpt lat="45.57651280625575" lon="9.266565319250335"><ele>165.0</ele><time>2026-04-23T17:41:15.999Z</time></trkpt><trkpt lat="45.57651097455292" lon="9.266656639964102"><ele>165.0</ele><time>2026-04-23T17:41:16.999Z</time></trkpt><trkpt lat="45.576562328354925" lon="9.266768830156115"><ele>165.0</ele><time>2026-04-23T17:41:19.999Z</time></trkpt><trkpt lat="45.576599930091" lon="9.266903031284164"><ele>165.0</ele><time>2026-04-23T17:41:20.999Z</time></trkpt><trkpt lat="45.57661337884825" lon="9.267023140379562"><ele>165.0</ele><time>2026-04-23T17:41:22.999Z</time></trkpt><trkpt lat="45.576649517388134" lon="9.267147088029702"><ele>164.66666666666666</ele><time>2026-04-23T17:41:25.999Z</time></trkpt><trkpt lat="45.57668601596" lon="9.267316856430933"><ele>164.33333333333334</ele><time>2026-04-23T17:41:27.999Z</time></trkpt><trkpt lat="45.57671073979124" lon="9.267404260405403"><ele>164.0</ele><time>2026-04-23T17:41:28.999Z</time></trkpt><trkpt lat="45.576746788198115" lon="9.267481450766457"><ele>163.66666666666669</ele><time>2026-04-23T17:41:29.999Z</time></trkpt><trkpt lat="45.57675385111961" lon="9.267577515248746"><ele>163.33333333333334</ele><time>2026-04-23T17:41:30.999Z</time></trkpt><trkpt lat="45.57677771237338" lon="9.267683834360874"><ele>163.0</ele><time>2026-04-23T17:41:31.999Z</time></trkpt><trkpt lat="45.57681347551968" lon="9.267799593910313"><ele>163.0</ele><time>2026-04-23T17:41:32.999Z</time></trkpt><trkpt lat="45.576838308784964" lon="9.26789464536494"><ele>163.0</ele><time>2026-04-23T17:41:33.999Z</time></trkpt><trkpt lat="45.57687218301633" lon="9.268030686025845"><ele>163.0</ele><time>2026-04-23T17:41:34.999Z</time></trkpt><trkpt lat="45.57689846378637" lon="9.268160694694842"><ele>163.0</ele><time>2026-04-23T17:41:35.999Z</time></trkpt><trkpt lat="45.57691574303497" lon="9.268257857134948"><ele>163.0</ele><time>2026-04-23T17:41:36.999Z</time></trkpt><trkpt lat="45.57692988635156" lon="9.268371692809762"><ele>163.0</ele><time>2026-04-23T17:41:37.999Z</time></trkpt><trkpt lat="45.576962214565306" lon="9.268453018062097"><ele>162.75</ele><time>2026-04-23T17:41:38.999Z</time></trkpt><trkpt lat="45.576980168468545" lon="9.268543086814876"><ele>162.5</ele><time>2026-04-23T17:41:39.999Z</time></trkpt><trkpt lat="45.57701114759048" lon="9.26866409314798"><ele>162.25</ele><time>2026-04-23T17:41:41.999Z</time></trkpt><trkpt lat="45.57717768663821" lon="9.268465816335107"><ele>162.0</ele><time>2026-04-23T17:41:44Z</time></trkpt><trkpt lat="45.57734621998549" lon="9.268432682180652"><ele>162.6</ele><time>2026-04-23T17:41:46Z</time></trkpt><trkpt lat="45.57743482231225" lon="9.268376448953955"><ele>163.2</ele><time>2026-04-23T17:41:47Z</time></trkpt><trkpt lat="45.57750012748066" lon="9.268359881772485"><ele>163.8</ele><time>2026-04-23T17:41:48Z</time></trkpt><trkpt lat="45.577662986613774" lon="9.268294065595697"><ele>164.4</ele><time>2026-04-23T17:41:50Z</time></trkpt><trkpt lat="45.57773252428604" lon="9.268267284885082"><ele>165.0</ele><time>2026-04-23T17:41:51Z</time></trkpt><trkpt lat="45.577819689817645" lon="9.268233715240326"><ele>165.16666666666666</ele><time>2026-04-23T17:41:52Z</time></trkpt><trkpt lat="45.57792579974353" lon="9.268145703686768"><ele>165.33333333333334</ele><time>2026-04-23T17:41:53Z</time></trkpt><trkpt lat="45.578004591903166" lon="9.26813886894268"><ele>165.5</ele><time>2026-04-23T17:41:57Z</time></trkpt><trkpt lat="45.578095409516344" lon="9.268089516528654"><ele>165.66666666666669</ele><time>2026-04-23T17:42:06Z</time></trkpt><trkpt lat="45.57817009774796" lon="9.26808979742561"><ele>165.83333333333334</ele><time>2026-04-23T17:42:08Z</time></trkpt><trkpt lat="45.57823408696053" lon="9.268064125730323"><ele>166.0</ele><time>2026-04-23T17:42:10Z</time></trkpt><trkpt lat="45.57833626144653" lon="9.26804977115813"><ele>166.0</ele><time>2026-04-23T17:42:11Z</time></trkpt><trkpt lat="45.578426439862916" lon="9.268039238402032"><ele>166.0</ele><time>2026-04-23T17:42:12Z</time></trkpt><trkpt lat="45.57851295326474" lon="9.268005031772523"><ele>166.0</ele><time>2026-04-23T17:42:13Z</time></trkpt><trkpt lat="45.578597611572064" lon="9.267950805372793"><ele>166.0</ele><time>2026-04-23T17:42:14Z</time></trkpt><trkpt lat="45.57869427040546" lon="9.267903289961579"><ele>166.0</ele><time>2026-04-23T17:42:15Z</time></trkpt><trkpt lat="45.57877572259339" lon="9.267868832964275"><ele>166.16666666666669</ele><time>2026-04-23T17:42:16Z</time></trkpt><trkpt lat="45.578835997549696" lon="9.267835531648318"><ele>166.33333333333334</ele><time>2026-04-23T17:42:17Z</time></trkpt><trkpt lat="45.578940428888245" lon="9.267816402018896"><ele>166.5</ele><time>2026-04-23T17:42:19Z</time></trkpt><trkpt lat="45.57904267676686" lon="9.267780303494785"><ele>166.66666666666666</ele><time>2026-04-23T17:42:21Z</time></trkpt><trkpt lat="45.57914137585361" lon="9.267733335650693"><ele>166.83333333333331</ele><time>2026-04-23T17:42:23Z</time></trkpt><trkpt lat="45.5792090645827" lon="9.267714900201304"><ele>167.0</ele><time>2026-04-23T17:42:25Z</time></trkpt><trkpt lat="45.57934737011469" lon="9.267674824284986"><ele>167.0</ele><time>2026-04-23T17:42:27Z</time></trkpt><trkpt lat="45.57947155571607" lon="9.2675981971082"><ele>167.0</ele><time>2026-04-23T17:42:29Z</time></trkpt><trkpt lat="45.57954310347698" lon="9.267557362407507"><ele>167.0</ele><time>2026-04-23T17:42:30Z</time></trkpt><trkpt lat="45.57965073363162" lon="9.267505665554337"><ele>167.0</ele><time>2026-04-23T17:42:31Z</time></trkpt><trkpt lat="45.57971905256753" lon="9.26746825110179"><ele>167.0</ele><time>2026-04-23T17:42:32Z</time></trkpt><trkpt lat="45.57979058307695" lon="9.267421613027306"><ele>167.0</ele><time>2026-04-23T17:42:33Z</time></trkpt><trkpt lat="45.57983703277359" lon="9.26736084240811"><ele>167.0</ele><time>2026-04-23T17:42:34Z</time></trkpt><trkpt lat="45.57990423902028" lon="9.267325220689267"><ele>167.0</ele><time>2026-04-23T17:42:35Z</time></trkpt><trkpt lat="45.57998915910166" lon="9.2672726956433"><ele>167.0</ele><time>2026-04-23T17:42:36Z</time></trkpt><trkpt lat="45.58010155922098" lon="9.267207660778919"><ele>167.0</ele><time>2026-04-23T17:42:38Z</time></trkpt><trkpt lat="45.580170520995786" lon="9.267191698415706"><ele>167.0</ele><time>2026-04-23T17:42:39Z</time></trkpt><trkpt lat="45.5802591644263" lon="9.267143492374897"><ele>167.0</ele><time>2026-04-23T17:42:40.999Z</time></trkpt><trkpt lat="45.58038687678437" lon="9.267043476797435"><ele>167.0</ele><time>2026-04-23T17:42:42.999Z</time></trkpt><trkpt lat="45.58049786737749" lon="9.2669794348427"><ele>167.0</ele><time>2026-04-23T17:42:44.999Z</time></trkpt><trkpt lat="45.58061521576515" lon="9.266923491827038"><ele>167.0</ele><time>2026-04-23T17:42:46.999Z</time></trkpt><trkpt lat="45.58067247982479" lon="9.266881401766776"><ele>167.0</ele><time>2026-04-23T17:42:47.999Z</time></trkpt><trkpt lat="45.58075054562821" lon="9.266826003499109"><ele>167.0</ele><time>2026-04-23T17:42:53.999Z</time></trkpt><trkpt lat="45.580826081489654" lon="9.266785645381777"><ele>167.0</ele><time>2026-04-23T17:42:55.999Z</time></trkpt><trkpt lat="45.580903190913" lon="9.266756253369996"><ele>167.0</ele><time>2026-04-23T17:42:57.999Z</time></trkpt><trkpt lat="45.58099781115785" lon="9.266683359807388"><ele>167.0</ele><time>2026-04-23T17:43:27.999Z</time></trkpt><trkpt lat="45.58109930750986" lon="9.266630002024117"><ele>167.2</ele><time>2026-04-23T17:43:29.999Z</time></trkpt><trkpt lat="45.581247959127914" lon="9.266551431008502"><ele>167.39999999999998</ele><time>2026-04-23T17:43:30.999Z</time></trkpt><trkpt lat="45.581305716249226" lon="9.266498405683967"><ele>167.60000000000002</ele><time>2026-04-23T17:43:31.999Z</time></trkpt><trkpt lat="45.58141114511825" lon="9.266433541171242"><ele>167.8</ele><time>2026-04-23T17:43:32.999Z</time></trkpt><trkpt lat="45.581494869385686" lon="9.26638174866415"><ele>168.0</ele><time>2026-04-23T17:43:33.999Z</time></trkpt><trkpt lat="45.58156587637555" lon="9.26633782343136"><ele>167.8</ele><time>2026-04-23T17:43:34.999Z</time></trkpt><trkpt lat="45.58167260911126" lon="9.266273366424533"><ele>167.60000000000002</ele><time>2026-04-23T17:43:35.999Z</time></trkpt><trkpt lat="45.58176412221954" lon="9.2662342855625"><ele>167.39999999999998</ele><time>2026-04-23T17:43:36.999Z</time></trkpt><trkpt lat="45.58185067781311" lon="9.26618657773547"><ele>167.2</ele><time>2026-04-23T17:43:37.999Z</time></trkpt><trkpt lat="45.58194213575313" lon="9.266130042549054"><ele>167.0</ele><time>2026-04-23T17:43:38.999Z</time></trkpt><trkpt lat="45.58203521081322" lon="9.26609840363103"><ele>167.0</ele><time>2026-04-23T17:43:39.999Z</time></trkpt><trkpt lat="45.58215638141167" lon="9.266091209268787"><ele>167.0</ele><time>2026-04-23T17:43:40.999Z</time></trkpt><trkpt lat="45.58225538766779" lon="9.266090945846411"><ele>167.0</ele><time>2026-04-23T17:43:41.999Z</time></trkpt><trkpt lat="45.5823281293058" lon="9.265914400221616"><ele>167.0</ele><time>2026-04-23T17:43:42.999Z</time></trkpt><trkpt lat="45.58243087613499" lon="9.265844463363383"><ele>167.0</ele><time>2026-04-23T17:43:43.999Z</time></trkpt><trkpt lat="45.5825121914747" lon="9.265800848600767"><ele>167.0</ele><time>2026-04-23T17:43:44.999Z</time></trkpt><trkpt lat="45.58262576540803" lon="9.265756135902356"><ele>167.0</ele><time>2026-04-23T17:43:46.999Z</time></trkpt><trkpt lat="45.58270947026334" lon="9.265729951731226"><ele>167.0</ele><time>2026-04-23T17:43:51Z</time></trkpt><trkpt lat="45.58268721273208" lon="9.26595098765432"><ele>167.0</ele><time>2026-04-23T17:43:53Z</time></trkpt><trkpt lat="45.58273383871058" lon="9.265845920763372"><ele>167.0</ele><time>2026-04-23T17:44:14Z</time></trkpt><trkpt lat="45.58271285411322" lon="9.265967168832907"><ele>167.0</ele><time>2026-04-23T17:44:16Z</time></trkpt><trkpt lat="45.58272373493296" lon="9.266060128453992"><ele>167.0</ele><time>2026-04-23T17:44:18Z</time></trkpt><trkpt lat="45.5827568523016" lon="9.266182940761077"><ele>167.0</ele><time>2026-04-23T17:44:20Z</time></trkpt><trkpt lat="45.58277432282406" lon="9.2663132344797"><ele>167.0</ele><time>2026-04-23T17:44:22Z</time></trkpt><trkpt lat="45.58281812471193" lon="9.266489249767877"><ele>167.39999999999998</ele><time>2026-04-23T17:44:24Z</time></trkpt><trkpt lat="45.58279893449286" lon="9.266639284025157"><ele>167.79999999999998</ele><time>2026-04-23T17:44:26Z</time></trkpt><trkpt lat="45.58279963733916" lon="9.26676877299009"><ele>168.2</ele><time>2026-04-23T17:44:28Z</time></trkpt><trkpt lat="45.5828047294333" lon="9.26688288393358"><ele>168.6</ele><time>2026-04-23T17:44:30Z</time></trkpt><trkpt lat="45.58278347288939" lon="9.267035364006809"><ele>169.0</ele><time>2026-04-23T17:44:32.023Z</time></trkpt><trkpt lat="45.58276693696058" lon="9.267141306092212"><ele>169.0</ele><time>2026-04-23T17:44:34.02Z</time></trkpt><trkpt lat="45.58277584767781" lon="9.26762406142484"><ele>169.0</ele><time>2026-04-23T17:44:44.174Z</time></trkpt><trkpt lat="45.58252337682953" lon="9.266354784500455"><ele>167.0</ele><time>2026-04-23T17:45:01.706Z</time></trkpt></trkseg></trk></gpx>